<?xml version="1.0" encoding="UTF-8" standalone="no" ?>
<gpx xmlns="http://www.topografix.com/GPX/1/1" xmlns:xsi="http://www.w3.org/2001/XMLSchema-instance" xsi:schemaLocation="http://www.topografix.com/GPX/1/1 http://www.topografix.com/GPX/1/1/gpx.xsd" version="1.1" creator="VisuGPX - https://www.visugpx.com">
  <metadata>
    <name>Val TT 2017</name>
    <desc><![CDATA[circuit 40 km ... Bois, chemin de terre, cailloux, petites routes... bref c'était varié!]]></desc>
  </metadata>
  <trk>
    <name><![CDATA[Sequence 1]]></name>
    <trkseg>
      <trkpt lat="50.12172" lon="4.12243">
        <ele>176</ele>
        <time>2017-04-09T06:39:42Z</time>
      </trkpt>
      <trkpt lat="50.12172" lon="4.12243">
        <ele>176</ele>
        <time>2017-04-09T06:39:45Z</time>
      </trkpt>
      <trkpt lat="50.12182" lon="4.12252">
        <ele>175</ele>
        <time>2017-04-09T06:39:50Z</time>
      </trkpt>
      <trkpt lat="50.12172" lon="4.12251">
        <ele>177</ele>
        <time>2017-04-09T06:39:57Z</time>
      </trkpt>
      <trkpt lat="50.12172" lon="4.12249">
        <ele>178</ele>
        <time>2017-04-09T06:40:02Z</time>
      </trkpt>
      <trkpt lat="50.12171" lon="4.12249">
        <ele>177</ele>
        <time>2017-04-09T06:40:03Z</time>
      </trkpt>
      <trkpt lat="50.12171" lon="4.12251">
        <ele>179</ele>
        <time>2017-04-09T06:40:12Z</time>
      </trkpt>
      <trkpt lat="50.1217" lon="4.12251">
        <ele>179</ele>
        <time>2017-04-09T06:40:15Z</time>
      </trkpt>
      <trkpt lat="50.1217" lon="4.1225">
        <ele>180</ele>
        <time>2017-04-09T06:40:19Z</time>
      </trkpt>
      <trkpt lat="50.1217" lon="4.1225">
        <ele>180</ele>
        <time>2017-04-09T06:40:23Z</time>
      </trkpt>
      <trkpt lat="50.1217" lon="4.1225">
        <ele>180</ele>
        <time>2017-04-09T06:40:29Z</time>
      </trkpt>
      <trkpt lat="50.1217" lon="4.1225">
        <ele>180</ele>
        <time>2017-04-09T06:40:33Z</time>
      </trkpt>
      <trkpt lat="50.12171" lon="4.12251">
        <ele>180</ele>
        <time>2017-04-09T06:40:39Z</time>
      </trkpt>
      <trkpt lat="50.12174" lon="4.12252">
        <ele>180</ele>
        <time>2017-04-09T06:40:43Z</time>
      </trkpt>
      <trkpt lat="50.12179" lon="4.12257">
        <ele>178</ele>
        <time>2017-04-09T06:40:48Z</time>
      </trkpt>
      <trkpt lat="50.12179" lon="4.12274">
        <ele>177</ele>
        <time>2017-04-09T06:40:53Z</time>
      </trkpt>
      <trkpt lat="50.12178" lon="4.12296">
        <ele>177</ele>
        <time>2017-04-09T06:40:58Z</time>
      </trkpt>
      <trkpt lat="50.12178" lon="4.12324">
        <ele>177</ele>
        <time>2017-04-09T06:41:03Z</time>
      </trkpt>
      <trkpt lat="50.12183" lon="4.12347">
        <ele>177</ele>
        <time>2017-04-09T06:41:08Z</time>
      </trkpt>
      <trkpt lat="50.12185" lon="4.12371">
        <ele>177</ele>
        <time>2017-04-09T06:41:13Z</time>
      </trkpt>
      <trkpt lat="50.12194" lon="4.12397">
        <ele>176</ele>
        <time>2017-04-09T06:41:18Z</time>
      </trkpt>
      <trkpt lat="50.12208" lon="4.12414">
        <ele>176</ele>
        <time>2017-04-09T06:41:23Z</time>
      </trkpt>
      <trkpt lat="50.12222" lon="4.12422">
        <ele>177</ele>
        <time>2017-04-09T06:41:28Z</time>
      </trkpt>
      <trkpt lat="50.12229" lon="4.12442">
        <ele>177</ele>
        <time>2017-04-09T06:41:33Z</time>
      </trkpt>
      <trkpt lat="50.12227" lon="4.1247">
        <ele>177</ele>
        <time>2017-04-09T06:41:38Z</time>
      </trkpt>
      <trkpt lat="50.12225" lon="4.12495">
        <ele>175</ele>
        <time>2017-04-09T06:41:43Z</time>
      </trkpt>
      <trkpt lat="50.1222" lon="4.12527">
        <ele>174</ele>
        <time>2017-04-09T06:41:48Z</time>
      </trkpt>
      <trkpt lat="50.12215" lon="4.12563">
        <ele>176</ele>
        <time>2017-04-09T06:41:54Z</time>
      </trkpt>
      <trkpt lat="50.12213" lon="4.12585">
        <ele>178</ele>
        <time>2017-04-09T06:41:58Z</time>
      </trkpt>
      <trkpt lat="50.12214" lon="4.12611">
        <ele>180</ele>
        <time>2017-04-09T06:42:03Z</time>
      </trkpt>
      <trkpt lat="50.12213" lon="4.12635">
        <ele>183</ele>
        <time>2017-04-09T06:42:08Z</time>
      </trkpt>
      <trkpt lat="50.12208" lon="4.1267">
        <ele>184</ele>
        <time>2017-04-09T06:42:14Z</time>
      </trkpt>
      <trkpt lat="50.12203" lon="4.12703">
        <ele>183</ele>
        <time>2017-04-09T06:42:18Z</time>
      </trkpt>
      <trkpt lat="50.12191" lon="4.12752">
        <ele>183</ele>
        <time>2017-04-09T06:42:26Z</time>
      </trkpt>
      <trkpt lat="50.12183" lon="4.12771">
        <ele>181</ele>
        <time>2017-04-09T06:42:31Z</time>
      </trkpt>
      <trkpt lat="50.12175" lon="4.12796">
        <ele>178</ele>
        <time>2017-04-09T06:42:37Z</time>
      </trkpt>
      <trkpt lat="50.12173" lon="4.128">
        <ele>179</ele>
        <time>2017-04-09T06:42:38Z</time>
      </trkpt>
      <trkpt lat="50.12172" lon="4.12801">
        <ele>179</ele>
        <time>2017-04-09T06:42:43Z</time>
      </trkpt>
      <trkpt lat="50.12173" lon="4.12801">
        <ele>180</ele>
        <time>2017-04-09T06:42:50Z</time>
      </trkpt>
      <trkpt lat="50.12174" lon="4.12801">
        <ele>180</ele>
        <time>2017-04-09T06:42:53Z</time>
      </trkpt>
      <trkpt lat="50.12174" lon="4.12799">
        <ele>180</ele>
        <time>2017-04-09T06:43:00Z</time>
      </trkpt>
      <trkpt lat="50.12175" lon="4.12794">
        <ele>180</ele>
        <time>2017-04-09T06:43:03Z</time>
      </trkpt>
      <trkpt lat="50.12181" lon="4.12782">
        <ele>180</ele>
        <time>2017-04-09T06:43:08Z</time>
      </trkpt>
      <trkpt lat="50.12189" lon="4.12767">
        <ele>181</ele>
        <time>2017-04-09T06:43:14Z</time>
      </trkpt>
      <trkpt lat="50.12188" lon="4.12769">
        <ele>181</ele>
        <time>2017-04-09T06:43:20Z</time>
      </trkpt>
      <trkpt lat="50.12188" lon="4.1277">
        <ele>181</ele>
        <time>2017-04-09T06:43:23Z</time>
      </trkpt>
      <trkpt lat="50.12188" lon="4.1277">
        <ele>181</ele>
        <time>2017-04-09T06:43:28Z</time>
      </trkpt>
      <trkpt lat="50.12188" lon="4.12769">
        <ele>182</ele>
        <time>2017-04-09T06:43:34Z</time>
      </trkpt>
      <trkpt lat="50.1219" lon="4.12764">
        <ele>182</ele>
        <time>2017-04-09T06:43:42Z</time>
      </trkpt>
      <trkpt lat="50.12189" lon="4.12766">
        <ele>181</ele>
        <time>2017-04-09T06:43:46Z</time>
      </trkpt>
      <trkpt lat="50.12178" lon="4.12781">
        <ele>183</ele>
        <time>2017-04-09T06:43:51Z</time>
      </trkpt>
      <trkpt lat="50.12174" lon="4.12792">
        <ele>183</ele>
        <time>2017-04-09T06:43:53Z</time>
      </trkpt>
      <trkpt lat="50.12157" lon="4.12839">
        <ele>178</ele>
        <time>2017-04-09T06:44:02Z</time>
      </trkpt>
      <trkpt lat="50.12149" lon="4.12855">
        <ele>178</ele>
        <time>2017-04-09T06:44:05Z</time>
      </trkpt>
      <trkpt lat="50.12131" lon="4.12898">
        <ele>177</ele>
        <time>2017-04-09T06:44:12Z</time>
      </trkpt>
      <trkpt lat="50.12119" lon="4.12923">
        <ele>175</ele>
        <time>2017-04-09T06:44:16Z</time>
      </trkpt>
      <trkpt lat="50.12117" lon="4.12929">
        <ele>176</ele>
        <time>2017-04-09T06:44:17Z</time>
      </trkpt>
      <trkpt lat="50.12105" lon="4.12956">
        <ele>178</ele>
        <time>2017-04-09T06:44:22Z</time>
      </trkpt>
      <trkpt lat="50.12094" lon="4.12982">
        <ele>178</ele>
        <time>2017-04-09T06:44:27Z</time>
      </trkpt>
      <trkpt lat="50.12083" lon="4.13008">
        <ele>180</ele>
        <time>2017-04-09T06:44:32Z</time>
      </trkpt>
      <trkpt lat="50.12068" lon="4.13056">
        <ele>183</ele>
        <time>2017-04-09T06:44:41Z</time>
      </trkpt>
      <trkpt lat="50.12067" lon="4.13062">
        <ele>184</ele>
        <time>2017-04-09T06:44:42Z</time>
      </trkpt>
      <trkpt lat="50.1206" lon="4.13087">
        <ele>184</ele>
        <time>2017-04-09T06:44:47Z</time>
      </trkpt>
      <trkpt lat="50.12054" lon="4.13113">
        <ele>185</ele>
        <time>2017-04-09T06:44:52Z</time>
      </trkpt>
      <trkpt lat="50.12005" lon="4.13273">
        <ele>177</ele>
        <time>2017-04-09T06:45:21Z</time>
      </trkpt>
      <trkpt lat="50.11991" lon="4.13303">
        <ele>177</ele>
        <time>2017-04-09T06:45:26Z</time>
      </trkpt>
      <trkpt lat="50.11986" lon="4.13317">
        <ele>177</ele>
        <time>2017-04-09T06:45:28Z</time>
      </trkpt>
      <trkpt lat="50.1198" lon="4.13339">
        <ele>177</ele>
        <time>2017-04-09T06:45:32Z</time>
      </trkpt>
      <trkpt lat="50.11972" lon="4.1336">
        <ele>180</ele>
        <time>2017-04-09T06:45:38Z</time>
      </trkpt>
      <trkpt lat="50.1197" lon="4.13365">
        <ele>181</ele>
        <time>2017-04-09T06:45:42Z</time>
      </trkpt>
      <trkpt lat="50.11971" lon="4.13362">
        <ele>181</ele>
        <time>2017-04-09T06:45:47Z</time>
      </trkpt>
      <trkpt lat="50.11971" lon="4.13363">
        <ele>180</ele>
        <time>2017-04-09T06:45:52Z</time>
      </trkpt>
      <trkpt lat="50.11971" lon="4.13363">
        <ele>179</ele>
        <time>2017-04-09T06:45:57Z</time>
      </trkpt>
      <trkpt lat="50.11971" lon="4.13363">
        <ele>179</ele>
        <time>2017-04-09T06:46:02Z</time>
      </trkpt>
      <trkpt lat="50.11969" lon="4.13373">
        <ele>181</ele>
        <time>2017-04-09T06:46:07Z</time>
      </trkpt>
      <trkpt lat="50.11963" lon="4.13389">
        <ele>184</ele>
        <time>2017-04-09T06:46:12Z</time>
      </trkpt>
      <trkpt lat="50.11953" lon="4.13427">
        <ele>190</ele>
        <time>2017-04-09T06:46:21Z</time>
      </trkpt>
      <trkpt lat="50.11952" lon="4.13431">
        <ele>190</ele>
        <time>2017-04-09T06:46:22Z</time>
      </trkpt>
      <trkpt lat="50.11946" lon="4.13454">
        <ele>191</ele>
        <time>2017-04-09T06:46:27Z</time>
      </trkpt>
      <trkpt lat="50.11941" lon="4.13472">
        <ele>191</ele>
        <time>2017-04-09T06:46:32Z</time>
      </trkpt>
      <trkpt lat="50.11936" lon="4.13483">
        <ele>193</ele>
        <time>2017-04-09T06:46:37Z</time>
      </trkpt>
      <trkpt lat="50.11934" lon="4.13483">
        <ele>193</ele>
        <time>2017-04-09T06:46:42Z</time>
      </trkpt>
      <trkpt lat="50.11935" lon="4.13483">
        <ele>192</ele>
        <time>2017-04-09T06:46:47Z</time>
      </trkpt>
      <trkpt lat="50.11935" lon="4.13484">
        <ele>191</ele>
        <time>2017-04-09T06:46:52Z</time>
      </trkpt>
      <trkpt lat="50.11936" lon="4.13484">
        <ele>190</ele>
        <time>2017-04-09T06:46:57Z</time>
      </trkpt>
      <trkpt lat="50.11936" lon="4.13484">
        <ele>191</ele>
        <time>2017-04-09T06:47:02Z</time>
      </trkpt>
      <trkpt lat="50.11936" lon="4.13484">
        <ele>191</ele>
        <time>2017-04-09T06:47:10Z</time>
      </trkpt>
      <trkpt lat="50.11937" lon="4.13484">
        <ele>190</ele>
        <time>2017-04-09T06:47:15Z</time>
      </trkpt>
      <trkpt lat="50.11938" lon="4.13484">
        <ele>193</ele>
        <time>2017-04-09T06:47:21Z</time>
      </trkpt>
      <trkpt lat="50.11939" lon="4.13483">
        <ele>192</ele>
        <time>2017-04-09T06:47:22Z</time>
      </trkpt>
      <trkpt lat="50.11949" lon="4.13452">
        <ele>191</ele>
        <time>2017-04-09T06:47:31Z</time>
      </trkpt>
      <trkpt lat="50.1195" lon="4.13448">
        <ele>191</ele>
        <time>2017-04-09T06:47:32Z</time>
      </trkpt>
      <trkpt lat="50.11959" lon="4.13415">
        <ele>188</ele>
        <time>2017-04-09T06:47:37Z</time>
      </trkpt>
      <trkpt lat="50.11972" lon="4.13334">
        <ele>183</ele>
        <time>2017-04-09T06:47:44Z</time>
      </trkpt>
      <trkpt lat="50.1197" lon="4.13273">
        <ele>179</ele>
        <time>2017-04-09T06:47:48Z</time>
      </trkpt>
      <trkpt lat="50.11974" lon="4.13195">
        <ele>177</ele>
        <time>2017-04-09T06:47:54Z</time>
      </trkpt>
      <trkpt lat="50.11979" lon="4.13169">
        <ele>178</ele>
        <time>2017-04-09T06:47:57Z</time>
      </trkpt>
      <trkpt lat="50.11996" lon="4.13147">
        <ele>180</ele>
        <time>2017-04-09T06:48:02Z</time>
      </trkpt>
      <trkpt lat="50.12011" lon="4.13128">
        <ele>183</ele>
        <time>2017-04-09T06:48:07Z</time>
      </trkpt>
      <trkpt lat="50.12025" lon="4.13095">
        <ele>183</ele>
        <time>2017-04-09T06:48:13Z</time>
      </trkpt>
      <trkpt lat="50.12037" lon="4.13074">
        <ele>183</ele>
        <time>2017-04-09T06:48:17Z</time>
      </trkpt>
      <trkpt lat="50.12055" lon="4.13055">
        <ele>182</ele>
        <time>2017-04-09T06:48:22Z</time>
      </trkpt>
      <trkpt lat="50.12075" lon="4.13037">
        <ele>181</ele>
        <time>2017-04-09T06:48:27Z</time>
      </trkpt>
      <trkpt lat="50.12088" lon="4.13001">
        <ele>180</ele>
        <time>2017-04-09T06:48:32Z</time>
      </trkpt>
      <trkpt lat="50.12104" lon="4.12959">
        <ele>179</ele>
        <time>2017-04-09T06:48:37Z</time>
      </trkpt>
      <trkpt lat="50.12122" lon="4.12918">
        <ele>177</ele>
        <time>2017-04-09T06:48:42Z</time>
      </trkpt>
      <trkpt lat="50.12138" lon="4.12881">
        <ele>176</ele>
        <time>2017-04-09T06:48:47Z</time>
      </trkpt>
      <trkpt lat="50.12151" lon="4.1285">
        <ele>177</ele>
        <time>2017-04-09T06:48:52Z</time>
      </trkpt>
      <trkpt lat="50.12163" lon="4.12822">
        <ele>178</ele>
        <time>2017-04-09T06:48:57Z</time>
      </trkpt>
      <trkpt lat="50.12174" lon="4.12795">
        <ele>179</ele>
        <time>2017-04-09T06:49:02Z</time>
      </trkpt>
      <trkpt lat="50.12186" lon="4.12771">
        <ele>181</ele>
        <time>2017-04-09T06:49:07Z</time>
      </trkpt>
      <trkpt lat="50.12195" lon="4.12746">
        <ele>181</ele>
        <time>2017-04-09T06:49:12Z</time>
      </trkpt>
      <trkpt lat="50.12201" lon="4.12718">
        <ele>184</ele>
        <time>2017-04-09T06:49:17Z</time>
      </trkpt>
      <trkpt lat="50.12206" lon="4.1269">
        <ele>185</ele>
        <time>2017-04-09T06:49:23Z</time>
      </trkpt>
      <trkpt lat="50.1221" lon="4.12669">
        <ele>188</ele>
        <time>2017-04-09T06:49:27Z</time>
      </trkpt>
      <trkpt lat="50.12215" lon="4.12621">
        <ele>191</ele>
        <time>2017-04-09T06:49:36Z</time>
      </trkpt>
      <trkpt lat="50.12215" lon="4.12615">
        <ele>191</ele>
        <time>2017-04-09T06:49:37Z</time>
      </trkpt>
      <trkpt lat="50.1222" lon="4.12551">
        <ele>189</ele>
        <time>2017-04-09T06:49:45Z</time>
      </trkpt>
      <trkpt lat="50.12222" lon="4.12536">
        <ele>188</ele>
        <time>2017-04-09T06:49:47Z</time>
      </trkpt>
      <trkpt lat="50.12227" lon="4.12491">
        <ele>185</ele>
        <time>2017-04-09T06:49:55Z</time>
      </trkpt>
      <trkpt lat="50.12227" lon="4.12484">
        <ele>184</ele>
        <time>2017-04-09T06:49:57Z</time>
      </trkpt>
      <trkpt lat="50.12227" lon="4.12457">
        <ele>182</ele>
        <time>2017-04-09T06:50:02Z</time>
      </trkpt>
      <trkpt lat="50.12224" lon="4.12424">
        <ele>181</ele>
        <time>2017-04-09T06:50:07Z</time>
      </trkpt>
      <trkpt lat="50.12205" lon="4.12409">
        <ele>180</ele>
        <time>2017-04-09T06:50:12Z</time>
      </trkpt>
      <trkpt lat="50.12192" lon="4.12384">
        <ele>180</ele>
        <time>2017-04-09T06:50:17Z</time>
      </trkpt>
      <trkpt lat="50.12184" lon="4.12357">
        <ele>181</ele>
        <time>2017-04-09T06:50:22Z</time>
      </trkpt>
      <trkpt lat="50.12182" lon="4.12331">
        <ele>181</ele>
        <time>2017-04-09T06:50:27Z</time>
      </trkpt>
      <trkpt lat="50.12178" lon="4.12308">
        <ele>182</ele>
        <time>2017-04-09T06:50:32Z</time>
      </trkpt>
      <trkpt lat="50.1218" lon="4.12284">
        <ele>183</ele>
        <time>2017-04-09T06:50:37Z</time>
      </trkpt>
      <trkpt lat="50.1218" lon="4.1226">
        <ele>184</ele>
        <time>2017-04-09T06:50:42Z</time>
      </trkpt>
      <trkpt lat="50.12181" lon="4.12244">
        <ele>183</ele>
        <time>2017-04-09T06:50:47Z</time>
      </trkpt>
      <trkpt lat="50.12181" lon="4.1223">
        <ele>183</ele>
        <time>2017-04-09T06:50:52Z</time>
      </trkpt>
      <trkpt lat="50.1218" lon="4.12228">
        <ele>183</ele>
        <time>2017-04-09T06:50:57Z</time>
      </trkpt>
      <trkpt lat="50.1218" lon="4.12229">
        <ele>183</ele>
        <time>2017-04-09T06:51:02Z</time>
      </trkpt>
      <trkpt lat="50.12179" lon="4.12229">
        <ele>183</ele>
        <time>2017-04-09T06:51:07Z</time>
      </trkpt>
      <trkpt lat="50.12179" lon="4.12229">
        <ele>183</ele>
        <time>2017-04-09T06:51:12Z</time>
      </trkpt>
      <trkpt lat="50.12179" lon="4.12229">
        <ele>183</ele>
        <time>2017-04-09T06:51:17Z</time>
      </trkpt>
      <trkpt lat="50.12179" lon="4.12229">
        <ele>183</ele>
        <time>2017-04-09T06:51:22Z</time>
      </trkpt>
      <trkpt lat="50.12179" lon="4.12228">
        <ele>182</ele>
        <time>2017-04-09T06:51:27Z</time>
      </trkpt>
      <trkpt lat="50.12181" lon="4.12229">
        <ele>181</ele>
        <time>2017-04-09T06:51:32Z</time>
      </trkpt>
      <trkpt lat="50.12181" lon="4.12229">
        <ele>182</ele>
        <time>2017-04-09T06:51:37Z</time>
      </trkpt>
      <trkpt lat="50.1218" lon="4.12229">
        <ele>181</ele>
        <time>2017-04-09T06:51:42Z</time>
      </trkpt>
      <trkpt lat="50.1218" lon="4.12229">
        <ele>180</ele>
        <time>2017-04-09T06:51:47Z</time>
      </trkpt>
      <trkpt lat="50.12174" lon="4.12211">
        <ele>180</ele>
        <time>2017-04-09T06:51:56Z</time>
      </trkpt>
      <trkpt lat="50.12173" lon="4.12207">
        <ele>180</ele>
        <time>2017-04-09T06:51:57Z</time>
      </trkpt>
      <trkpt lat="50.12166" lon="4.12182">
        <ele>180</ele>
        <time>2017-04-09T06:52:02Z</time>
      </trkpt>
      <trkpt lat="50.12164" lon="4.12154">
        <ele>181</ele>
        <time>2017-04-09T06:52:07Z</time>
      </trkpt>
      <trkpt lat="50.12171" lon="4.12129">
        <ele>182</ele>
        <time>2017-04-09T06:52:12Z</time>
      </trkpt>
      <trkpt lat="50.12181" lon="4.12109">
        <ele>183</ele>
        <time>2017-04-09T06:52:17Z</time>
      </trkpt>
      <trkpt lat="50.12191" lon="4.12088">
        <ele>184</ele>
        <time>2017-04-09T06:52:22Z</time>
      </trkpt>
      <trkpt lat="50.122" lon="4.12065">
        <ele>184</ele>
        <time>2017-04-09T06:52:27Z</time>
      </trkpt>
      <trkpt lat="50.12208" lon="4.12039">
        <ele>185</ele>
        <time>2017-04-09T06:52:32Z</time>
      </trkpt>
      <trkpt lat="50.1221" lon="4.12011">
        <ele>186</ele>
        <time>2017-04-09T06:52:37Z</time>
      </trkpt>
      <trkpt lat="50.12208" lon="4.11979">
        <ele>186</ele>
        <time>2017-04-09T06:52:42Z</time>
      </trkpt>
      <trkpt lat="50.12205" lon="4.11947">
        <ele>185</ele>
        <time>2017-04-09T06:52:47Z</time>
      </trkpt>
      <trkpt lat="50.122" lon="4.11915">
        <ele>185</ele>
        <time>2017-04-09T06:52:52Z</time>
      </trkpt>
      <trkpt lat="50.12193" lon="4.11883">
        <ele>185</ele>
        <time>2017-04-09T06:52:57Z</time>
      </trkpt>
      <trkpt lat="50.12186" lon="4.11851">
        <ele>184</ele>
        <time>2017-04-09T06:53:02Z</time>
      </trkpt>
      <trkpt lat="50.1218" lon="4.11817">
        <ele>185</ele>
        <time>2017-04-09T06:53:07Z</time>
      </trkpt>
      <trkpt lat="50.12173" lon="4.11784">
        <ele>184</ele>
        <time>2017-04-09T06:53:12Z</time>
      </trkpt>
      <trkpt lat="50.12166" lon="4.1175">
        <ele>184</ele>
        <time>2017-04-09T06:53:17Z</time>
      </trkpt>
      <trkpt lat="50.12161" lon="4.11711">
        <ele>186</ele>
        <time>2017-04-09T06:53:23Z</time>
      </trkpt>
      <trkpt lat="50.12157" lon="4.11689">
        <ele>185</ele>
        <time>2017-04-09T06:53:26Z</time>
      </trkpt>
      <trkpt lat="50.1214" lon="4.11686">
        <ele>183</ele>
        <time>2017-04-09T06:53:32Z</time>
      </trkpt>
      <trkpt lat="50.12105" lon="4.11671">
        <ele>182</ele>
        <time>2017-04-09T06:53:39Z</time>
      </trkpt>
      <trkpt lat="50.12098" lon="4.11651">
        <ele>183</ele>
        <time>2017-04-09T06:53:41Z</time>
      </trkpt>
      <trkpt lat="50.12091" lon="4.11616">
        <ele>183</ele>
        <time>2017-04-09T06:53:46Z</time>
      </trkpt>
      <trkpt lat="50.12084" lon="4.11584">
        <ele>184</ele>
        <time>2017-04-09T06:53:52Z</time>
      </trkpt>
      <trkpt lat="50.12078" lon="4.11552">
        <ele>185</ele>
        <time>2017-04-09T06:53:56Z</time>
      </trkpt>
      <trkpt lat="50.12071" lon="4.11521">
        <ele>185</ele>
        <time>2017-04-09T06:54:01Z</time>
      </trkpt>
      <trkpt lat="50.12064" lon="4.1149">
        <ele>186</ele>
        <time>2017-04-09T06:54:06Z</time>
      </trkpt>
      <trkpt lat="50.12056" lon="4.11459">
        <ele>187</ele>
        <time>2017-04-09T06:54:11Z</time>
      </trkpt>
      <trkpt lat="50.12049" lon="4.11428">
        <ele>186</ele>
        <time>2017-04-09T06:54:16Z</time>
      </trkpt>
      <trkpt lat="50.12045" lon="4.11396">
        <ele>187</ele>
        <time>2017-04-09T06:54:22Z</time>
      </trkpt>
      <trkpt lat="50.12041" lon="4.11364">
        <ele>187</ele>
        <time>2017-04-09T06:54:26Z</time>
      </trkpt>
      <trkpt lat="50.12037" lon="4.11332">
        <ele>187</ele>
        <time>2017-04-09T06:54:31Z</time>
      </trkpt>
      <trkpt lat="50.12033" lon="4.11299">
        <ele>187</ele>
        <time>2017-04-09T06:54:37Z</time>
      </trkpt>
      <trkpt lat="50.12029" lon="4.11266">
        <ele>187</ele>
        <time>2017-04-09T06:54:42Z</time>
      </trkpt>
      <trkpt lat="50.12023" lon="4.11204">
        <ele>185</ele>
        <time>2017-04-09T06:54:49Z</time>
      </trkpt>
      <trkpt lat="50.12023" lon="4.11187">
        <ele>185</ele>
        <time>2017-04-09T06:54:52Z</time>
      </trkpt>
      <trkpt lat="50.12019" lon="4.11163">
        <ele>184</ele>
        <time>2017-04-09T06:54:58Z</time>
      </trkpt>
      <trkpt lat="50.12011" lon="4.11158">
        <ele>183</ele>
        <time>2017-04-09T06:55:02Z</time>
      </trkpt>
      <trkpt lat="50.12006" lon="4.11122">
        <ele>181</ele>
        <time>2017-04-09T06:55:07Z</time>
      </trkpt>
      <trkpt lat="50.11783" lon="4.11084">
        <ele>169</ele>
        <time>2017-04-09T06:55:41Z</time>
      </trkpt>
      <trkpt lat="50.1175" lon="4.11082">
        <ele>172</ele>
        <time>2017-04-09T06:55:49Z</time>
      </trkpt>
      <trkpt lat="50.11737" lon="4.11083">
        <ele>174</ele>
        <time>2017-04-09T06:55:54Z</time>
      </trkpt>
      <trkpt lat="50.11735" lon="4.11085">
        <ele>173</ele>
        <time>2017-04-09T06:55:59Z</time>
      </trkpt>
      <trkpt lat="50.11735" lon="4.11085">
        <ele>173</ele>
        <time>2017-04-09T06:56:02Z</time>
      </trkpt>
      <trkpt lat="50.11735" lon="4.11085">
        <ele>175</ele>
        <time>2017-04-09T06:56:05Z</time>
      </trkpt>
      <trkpt lat="50.11725" lon="4.11087">
        <ele>179</ele>
        <time>2017-04-09T06:56:12Z</time>
      </trkpt>
      <trkpt lat="50.11717" lon="4.1109">
        <ele>182</ele>
        <time>2017-04-09T06:56:18Z</time>
      </trkpt>
      <trkpt lat="50.11717" lon="4.1109">
        <ele>182</ele>
        <time>2017-04-09T06:56:21Z</time>
      </trkpt>
      <trkpt lat="50.11717" lon="4.11101">
        <ele>185</ele>
        <time>2017-04-09T06:56:25Z</time>
      </trkpt>
      <trkpt lat="50.11712" lon="4.11117">
        <ele>183</ele>
        <time>2017-04-09T06:56:32Z</time>
      </trkpt>
      <trkpt lat="50.11709" lon="4.11117">
        <ele>184</ele>
        <time>2017-04-09T06:56:35Z</time>
      </trkpt>
      <trkpt lat="50.11706" lon="4.11122">
        <ele>181</ele>
        <time>2017-04-09T06:56:40Z</time>
      </trkpt>
      <trkpt lat="50.11701" lon="4.1113">
        <ele>182</ele>
        <time>2017-04-09T06:56:46Z</time>
      </trkpt>
      <trkpt lat="50.11698" lon="4.1114">
        <ele>187</ele>
        <time>2017-04-09T06:56:52Z</time>
      </trkpt>
      <trkpt lat="50.11696" lon="4.11146">
        <ele>187</ele>
        <time>2017-04-09T06:56:56Z</time>
      </trkpt>
      <trkpt lat="50.11698" lon="4.11157">
        <ele>184</ele>
        <time>2017-04-09T06:57:02Z</time>
      </trkpt>
      <trkpt lat="50.117" lon="4.11167">
        <ele>185</ele>
        <time>2017-04-09T06:57:05Z</time>
      </trkpt>
      <trkpt lat="50.11699" lon="4.11182">
        <ele>184</ele>
        <time>2017-04-09T06:57:10Z</time>
      </trkpt>
      <trkpt lat="50.11697" lon="4.11197">
        <ele>184</ele>
        <time>2017-04-09T06:57:15Z</time>
      </trkpt>
      <trkpt lat="50.11695" lon="4.1121">
        <ele>184</ele>
        <time>2017-04-09T06:57:20Z</time>
      </trkpt>
      <trkpt lat="50.11692" lon="4.11228">
        <ele>186</ele>
        <time>2017-04-09T06:57:26Z</time>
      </trkpt>
      <trkpt lat="50.11686" lon="4.11242">
        <ele>185</ele>
        <time>2017-04-09T06:57:30Z</time>
      </trkpt>
      <trkpt lat="50.11679" lon="4.11248">
        <ele>184</ele>
        <time>2017-04-09T06:57:35Z</time>
      </trkpt>
      <trkpt lat="50.11673" lon="4.1126">
        <ele>188</ele>
        <time>2017-04-09T06:57:40Z</time>
      </trkpt>
      <trkpt lat="50.11667" lon="4.11275">
        <ele>184</ele>
        <time>2017-04-09T06:57:45Z</time>
      </trkpt>
      <trkpt lat="50.1166" lon="4.11294">
        <ele>189</ele>
        <time>2017-04-09T06:57:51Z</time>
      </trkpt>
      <trkpt lat="50.11655" lon="4.11306">
        <ele>185</ele>
        <time>2017-04-09T06:57:55Z</time>
      </trkpt>
      <trkpt lat="50.11651" lon="4.11326">
        <ele>182</ele>
        <time>2017-04-09T06:58:00Z</time>
      </trkpt>
      <trkpt lat="50.11648" lon="4.11349">
        <ele>180</ele>
        <time>2017-04-09T06:58:05Z</time>
      </trkpt>
      <trkpt lat="50.11646" lon="4.1137">
        <ele>181</ele>
        <time>2017-04-09T06:58:10Z</time>
      </trkpt>
      <trkpt lat="50.1164" lon="4.11405">
        <ele>188</ele>
        <time>2017-04-09T06:58:19Z</time>
      </trkpt>
      <trkpt lat="50.11637" lon="4.11416">
        <ele>193</ele>
        <time>2017-04-09T06:58:22Z</time>
      </trkpt>
      <trkpt lat="50.11636" lon="4.11451">
        <ele>192</ele>
        <time>2017-04-09T06:58:29Z</time>
      </trkpt>
      <trkpt lat="50.11635" lon="4.11461">
        <ele>196</ele>
        <time>2017-04-09T06:58:31Z</time>
      </trkpt>
      <trkpt lat="50.11633" lon="4.1148">
        <ele>195</ele>
        <time>2017-04-09T06:58:35Z</time>
      </trkpt>
      <trkpt lat="50.11639" lon="4.11522">
        <ele>187</ele>
        <time>2017-04-09T06:58:42Z</time>
      </trkpt>
      <trkpt lat="50.1164" lon="4.11539">
        <ele>186</ele>
        <time>2017-04-09T06:58:45Z</time>
      </trkpt>
      <trkpt lat="50.11643" lon="4.11577">
        <ele>190</ele>
        <time>2017-04-09T06:58:53Z</time>
      </trkpt>
      <trkpt lat="50.11641" lon="4.11599">
        <ele>187</ele>
        <time>2017-04-09T06:58:58Z</time>
      </trkpt>
      <trkpt lat="50.11634" lon="4.11615">
        <ele>186</ele>
        <time>2017-04-09T06:59:03Z</time>
      </trkpt>
      <trkpt lat="50.1163" lon="4.11622">
        <ele>187</ele>
        <time>2017-04-09T06:59:06Z</time>
      </trkpt>
      <trkpt lat="50.11626" lon="4.11639">
        <ele>188</ele>
        <time>2017-04-09T06:59:12Z</time>
      </trkpt>
      <trkpt lat="50.11625" lon="4.11651">
        <ele>187</ele>
        <time>2017-04-09T06:59:15Z</time>
      </trkpt>
      <trkpt lat="50.1162" lon="4.11664">
        <ele>186</ele>
        <time>2017-04-09T06:59:22Z</time>
      </trkpt>
      <trkpt lat="50.1162" lon="4.11663">
        <ele>187</ele>
        <time>2017-04-09T06:59:25Z</time>
      </trkpt>
      <trkpt lat="50.1162" lon="4.11663">
        <ele>181</ele>
        <time>2017-04-09T06:59:31Z</time>
      </trkpt>
      <trkpt lat="50.11619" lon="4.11664">
        <ele>188</ele>
        <time>2017-04-09T06:59:37Z</time>
      </trkpt>
      <trkpt lat="50.11619" lon="4.11664">
        <ele>186</ele>
        <time>2017-04-09T06:59:42Z</time>
      </trkpt>
      <trkpt lat="50.11619" lon="4.11664">
        <ele>183</ele>
        <time>2017-04-09T06:59:45Z</time>
      </trkpt>
      <trkpt lat="50.1162" lon="4.11664">
        <ele>187</ele>
        <time>2017-04-09T06:59:50Z</time>
      </trkpt>
      <trkpt lat="50.11621" lon="4.11665">
        <ele>182</ele>
        <time>2017-04-09T06:59:59Z</time>
      </trkpt>
      <trkpt lat="50.11621" lon="4.11665">
        <ele>184</ele>
        <time>2017-04-09T07:00:01Z</time>
      </trkpt>
      <trkpt lat="50.11621" lon="4.11664">
        <ele>190</ele>
        <time>2017-04-09T07:00:05Z</time>
      </trkpt>
      <trkpt lat="50.11621" lon="4.11664">
        <ele>188</ele>
        <time>2017-04-09T07:00:11Z</time>
      </trkpt>
      <trkpt lat="50.11618" lon="4.11672">
        <ele>191</ele>
        <time>2017-04-09T07:00:16Z</time>
      </trkpt>
      <trkpt lat="50.11611" lon="4.11688">
        <ele>190</ele>
        <time>2017-04-09T07:00:20Z</time>
      </trkpt>
      <trkpt lat="50.11597" lon="4.11706">
        <ele>191</ele>
        <time>2017-04-09T07:00:25Z</time>
      </trkpt>
      <trkpt lat="50.11576" lon="4.11725">
        <ele>188</ele>
        <time>2017-04-09T07:00:30Z</time>
      </trkpt>
      <trkpt lat="50.11543" lon="4.11771">
        <ele>193</ele>
        <time>2017-04-09T07:00:38Z</time>
      </trkpt>
      <trkpt lat="50.11524" lon="4.11797">
        <ele>194</ele>
        <time>2017-04-09T07:00:42Z</time>
      </trkpt>
      <trkpt lat="50.11511" lon="4.11814">
        <ele>190</ele>
        <time>2017-04-09T07:00:45Z</time>
      </trkpt>
      <trkpt lat="50.11486" lon="4.1183">
        <ele>190</ele>
        <time>2017-04-09T07:00:50Z</time>
      </trkpt>
      <trkpt lat="50.11466" lon="4.11834">
        <ele>186</ele>
        <time>2017-04-09T07:00:55Z</time>
      </trkpt>
      <trkpt lat="50.11438" lon="4.11853">
        <ele>188</ele>
        <time>2017-04-09T07:01:02Z</time>
      </trkpt>
      <trkpt lat="50.11429" lon="4.11872">
        <ele>185</ele>
        <time>2017-04-09T07:01:05Z</time>
      </trkpt>
      <trkpt lat="50.11429" lon="4.11883">
        <ele>195</ele>
        <time>2017-04-09T07:01:10Z</time>
      </trkpt>
      <trkpt lat="50.11432" lon="4.11888">
        <ele>195</ele>
        <time>2017-04-09T07:01:18Z</time>
      </trkpt>
      <trkpt lat="50.11433" lon="4.11888">
        <ele>205</ele>
        <time>2017-04-09T07:01:20Z</time>
      </trkpt>
      <trkpt lat="50.11432" lon="4.11889">
        <ele>198</ele>
        <time>2017-04-09T07:01:27Z</time>
      </trkpt>
      <trkpt lat="50.11435" lon="4.1189">
        <ele>200</ele>
        <time>2017-04-09T07:01:30Z</time>
      </trkpt>
      <trkpt lat="50.11458" lon="4.11896">
        <ele>194</ele>
        <time>2017-04-09T07:01:39Z</time>
      </trkpt>
      <trkpt lat="50.11472" lon="4.11903">
        <ele>191</ele>
        <time>2017-04-09T07:01:44Z</time>
      </trkpt>
      <trkpt lat="50.11478" lon="4.11904">
        <ele>193</ele>
        <time>2017-04-09T07:01:46Z</time>
      </trkpt>
      <trkpt lat="50.11494" lon="4.11911">
        <ele>190</ele>
        <time>2017-04-09T07:01:51Z</time>
      </trkpt>
      <trkpt lat="50.11513" lon="4.1192">
        <ele>187</ele>
        <time>2017-04-09T07:01:55Z</time>
      </trkpt>
      <trkpt lat="50.11542" lon="4.11921">
        <ele>187</ele>
        <time>2017-04-09T07:02:00Z</time>
      </trkpt>
      <trkpt lat="50.11572" lon="4.11913">
        <ele>184</ele>
        <time>2017-04-09T07:02:05Z</time>
      </trkpt>
      <trkpt lat="50.1159" lon="4.11894">
        <ele>191</ele>
        <time>2017-04-09T07:02:10Z</time>
      </trkpt>
      <trkpt lat="50.11635" lon="4.11867">
        <ele>187</ele>
        <time>2017-04-09T07:02:19Z</time>
      </trkpt>
      <trkpt lat="50.11639" lon="4.11863">
        <ele>187</ele>
        <time>2017-04-09T07:02:20Z</time>
      </trkpt>
      <trkpt lat="50.11662" lon="4.11845">
        <ele>191</ele>
        <time>2017-04-09T07:02:25Z</time>
      </trkpt>
      <trkpt lat="50.11694" lon="4.1183">
        <ele>188</ele>
        <time>2017-04-09T07:02:32Z</time>
      </trkpt>
      <trkpt lat="50.11727" lon="4.11812">
        <ele>187</ele>
        <time>2017-04-09T07:02:39Z</time>
      </trkpt>
      <trkpt lat="50.11731" lon="4.11809">
        <ele>187</ele>
        <time>2017-04-09T07:02:40Z</time>
      </trkpt>
      <trkpt lat="50.11738" lon="4.11824">
        <ele>185</ele>
        <time>2017-04-09T07:02:45Z</time>
      </trkpt>
      <trkpt lat="50.11735" lon="4.11841">
        <ele>185</ele>
        <time>2017-04-09T07:02:50Z</time>
      </trkpt>
      <trkpt lat="50.11732" lon="4.11873">
        <ele>190</ele>
        <time>2017-04-09T07:02:59Z</time>
      </trkpt>
      <trkpt lat="50.11732" lon="4.11877">
        <ele>191</ele>
        <time>2017-04-09T07:03:00Z</time>
      </trkpt>
      <trkpt lat="50.11727" lon="4.11897">
        <ele>193</ele>
        <time>2017-04-09T07:03:05Z</time>
      </trkpt>
      <trkpt lat="50.11725" lon="4.11917">
        <ele>198</ele>
        <time>2017-04-09T07:03:10Z</time>
      </trkpt>
      <trkpt lat="50.11724" lon="4.11942">
        <ele>200</ele>
        <time>2017-04-09T07:03:16Z</time>
      </trkpt>
      <trkpt lat="50.11723" lon="4.11957">
        <ele>203</ele>
        <time>2017-04-09T07:03:20Z</time>
      </trkpt>
      <trkpt lat="50.11724" lon="4.11977">
        <ele>200</ele>
        <time>2017-04-09T07:03:26Z</time>
      </trkpt>
      <trkpt lat="50.11723" lon="4.11989">
        <ele>201</ele>
        <time>2017-04-09T07:03:30Z</time>
      </trkpt>
      <trkpt lat="50.11724" lon="4.12004">
        <ele>205</ele>
        <time>2017-04-09T07:03:35Z</time>
      </trkpt>
      <trkpt lat="50.11727" lon="4.12021">
        <ele>198</ele>
        <time>2017-04-09T07:03:40Z</time>
      </trkpt>
      <trkpt lat="50.1173" lon="4.12054">
        <ele>212</ele>
        <time>2017-04-09T07:03:49Z</time>
      </trkpt>
      <trkpt lat="50.1173" lon="4.12057">
        <ele>202</ele>
        <time>2017-04-09T07:03:50Z</time>
      </trkpt>
      <trkpt lat="50.11734" lon="4.12079">
        <ele>213</ele>
        <time>2017-04-09T07:03:56Z</time>
      </trkpt>
      <trkpt lat="50.11736" lon="4.12092">
        <ele>202</ele>
        <time>2017-04-09T07:04:00Z</time>
      </trkpt>
      <trkpt lat="50.11736" lon="4.12116">
        <ele>201</ele>
        <time>2017-04-09T07:04:07Z</time>
      </trkpt>
      <trkpt lat="50.11736" lon="4.12132">
        <ele>211</ele>
        <time>2017-04-09T07:04:12Z</time>
      </trkpt>
      <trkpt lat="50.11737" lon="4.12147">
        <ele>198</ele>
        <time>2017-04-09T07:04:17Z</time>
      </trkpt>
      <trkpt lat="50.11737" lon="4.12156">
        <ele>204</ele>
        <time>2017-04-09T07:04:20Z</time>
      </trkpt>
      <trkpt lat="50.11742" lon="4.12183">
        <ele>191</ele>
        <time>2017-04-09T07:04:27Z</time>
      </trkpt>
      <trkpt lat="50.11751" lon="4.12214">
        <ele>190</ele>
        <time>2017-04-09T07:04:32Z</time>
      </trkpt>
      <trkpt lat="50.11761" lon="4.12278">
        <ele>189</ele>
        <time>2017-04-09T07:04:37Z</time>
      </trkpt>
      <trkpt lat="50.11775" lon="4.1234">
        <ele>189</ele>
        <time>2017-04-09T07:04:43Z</time>
      </trkpt>
      <trkpt lat="50.11786" lon="4.12365">
        <ele>193</ele>
        <time>2017-04-09T07:04:46Z</time>
      </trkpt>
      <trkpt lat="50.11823" lon="4.12455">
        <ele>192</ele>
        <time>2017-04-09T07:04:54Z</time>
      </trkpt>
      <trkpt lat="50.11816" lon="4.12507">
        <ele>189</ele>
        <time>2017-04-09T07:04:59Z</time>
      </trkpt>
      <trkpt lat="50.11809" lon="4.12531">
        <ele>188</ele>
        <time>2017-04-09T07:05:03Z</time>
      </trkpt>
      <trkpt lat="50.11806" lon="4.12552">
        <ele>189</ele>
        <time>2017-04-09T07:05:09Z</time>
      </trkpt>
      <trkpt lat="50.11806" lon="4.12557">
        <ele>189</ele>
        <time>2017-04-09T07:05:10Z</time>
      </trkpt>
      <trkpt lat="50.11802" lon="4.12578">
        <ele>190</ele>
        <time>2017-04-09T07:05:15Z</time>
      </trkpt>
      <trkpt lat="50.11797" lon="4.12599">
        <ele>191</ele>
        <time>2017-04-09T07:05:20Z</time>
      </trkpt>
      <trkpt lat="50.11793" lon="4.1262">
        <ele>194</ele>
        <time>2017-04-09T07:05:25Z</time>
      </trkpt>
      <trkpt lat="50.11791" lon="4.12646">
        <ele>193</ele>
        <time>2017-04-09T07:05:31Z</time>
      </trkpt>
      <trkpt lat="50.11786" lon="4.12683">
        <ele>187</ele>
        <time>2017-04-09T07:05:38Z</time>
      </trkpt>
      <trkpt lat="50.11785" lon="4.12696">
        <ele>191</ele>
        <time>2017-04-09T07:05:40Z</time>
      </trkpt>
      <trkpt lat="50.11756" lon="4.12757">
        <ele>192</ele>
        <time>2017-04-09T07:05:49Z</time>
      </trkpt>
      <trkpt lat="50.11751" lon="4.12761">
        <ele>194</ele>
        <time>2017-04-09T07:05:50Z</time>
      </trkpt>
      <trkpt lat="50.11716" lon="4.12757">
        <ele>189</ele>
        <time>2017-04-09T07:05:55Z</time>
      </trkpt>
      <trkpt lat="50.11654" lon="4.12722">
        <ele>184</ele>
        <time>2017-04-09T07:06:04Z</time>
      </trkpt>
      <trkpt lat="50.11654" lon="4.12739">
        <ele>189</ele>
        <time>2017-04-09T07:06:08Z</time>
      </trkpt>
      <trkpt lat="50.11659" lon="4.1275">
        <ele>191</ele>
        <time>2017-04-09T07:06:10Z</time>
      </trkpt>
      <trkpt lat="50.11667" lon="4.12779">
        <ele>190</ele>
        <time>2017-04-09T07:06:16Z</time>
      </trkpt>
      <trkpt lat="50.11671" lon="4.1281">
        <ele>192</ele>
        <time>2017-04-09T07:06:23Z</time>
      </trkpt>
      <trkpt lat="50.11659" lon="4.12816">
        <ele>196</ele>
        <time>2017-04-09T07:06:28Z</time>
      </trkpt>
      <trkpt lat="50.11648" lon="4.12819">
        <ele>193</ele>
        <time>2017-04-09T07:06:32Z</time>
      </trkpt>
      <trkpt lat="50.1164" lon="4.12821">
        <ele>198</ele>
        <time>2017-04-09T07:06:35Z</time>
      </trkpt>
      <trkpt lat="50.11624" lon="4.12824">
        <ele>196</ele>
        <time>2017-04-09T07:06:41Z</time>
      </trkpt>
      <trkpt lat="50.11616" lon="4.12827">
        <ele>195</ele>
        <time>2017-04-09T07:06:45Z</time>
      </trkpt>
      <trkpt lat="50.11599" lon="4.12831">
        <ele>200</ele>
        <time>2017-04-09T07:06:52Z</time>
      </trkpt>
      <trkpt lat="50.11586" lon="4.12834">
        <ele>201</ele>
        <time>2017-04-09T07:06:58Z</time>
      </trkpt>
      <trkpt lat="50.11582" lon="4.12835">
        <ele>203</ele>
        <time>2017-04-09T07:07:00Z</time>
      </trkpt>
      <trkpt lat="50.11572" lon="4.12838">
        <ele>204</ele>
        <time>2017-04-09T07:07:05Z</time>
      </trkpt>
      <trkpt lat="50.11556" lon="4.12845">
        <ele>208</ele>
        <time>2017-04-09T07:07:13Z</time>
      </trkpt>
      <trkpt lat="50.11545" lon="4.12849">
        <ele>206</ele>
        <time>2017-04-09T07:07:19Z</time>
      </trkpt>
      <trkpt lat="50.11539" lon="4.12855">
        <ele>207</ele>
        <time>2017-04-09T07:07:22Z</time>
      </trkpt>
      <trkpt lat="50.11534" lon="4.12872">
        <ele>204</ele>
        <time>2017-04-09T07:07:25Z</time>
      </trkpt>
      <trkpt lat="50.11517" lon="4.12905">
        <ele>203</ele>
        <time>2017-04-09T07:07:30Z</time>
      </trkpt>
      <trkpt lat="50.11497" lon="4.12967">
        <ele>191</ele>
        <time>2017-04-09T07:07:35Z</time>
      </trkpt>
      <trkpt lat="50.11469" lon="4.13033">
        <ele>189</ele>
        <time>2017-04-09T07:07:44Z</time>
      </trkpt>
      <trkpt lat="50.11467" lon="4.13036">
        <ele>189</ele>
        <time>2017-04-09T07:07:46Z</time>
      </trkpt>
      <trkpt lat="50.1146" lon="4.13049">
        <ele>193</ele>
        <time>2017-04-09T07:07:50Z</time>
      </trkpt>
      <trkpt lat="50.11452" lon="4.13065">
        <ele>191</ele>
        <time>2017-04-09T07:07:55Z</time>
      </trkpt>
      <trkpt lat="50.11443" lon="4.13078">
        <ele>192</ele>
        <time>2017-04-09T07:08:00Z</time>
      </trkpt>
      <trkpt lat="50.11425" lon="4.13105">
        <ele>190</ele>
        <time>2017-04-09T07:08:09Z</time>
      </trkpt>
      <trkpt lat="50.11423" lon="4.13108">
        <ele>190</ele>
        <time>2017-04-09T07:08:10Z</time>
      </trkpt>
      <trkpt lat="50.11411" lon="4.13122">
        <ele>191</ele>
        <time>2017-04-09T07:08:16Z</time>
      </trkpt>
      <trkpt lat="50.11398" lon="4.13141">
        <ele>191</ele>
        <time>2017-04-09T07:08:22Z</time>
      </trkpt>
      <trkpt lat="50.11389" lon="4.13154">
        <ele>193</ele>
        <time>2017-04-09T07:08:26Z</time>
      </trkpt>
      <trkpt lat="50.1138" lon="4.13163">
        <ele>193</ele>
        <time>2017-04-09T07:08:30Z</time>
      </trkpt>
      <trkpt lat="50.11367" lon="4.13174">
        <ele>195</ele>
        <time>2017-04-09T07:08:35Z</time>
      </trkpt>
      <trkpt lat="50.11356" lon="4.13188">
        <ele>193</ele>
        <time>2017-04-09T07:08:40Z</time>
      </trkpt>
      <trkpt lat="50.1134" lon="4.13199">
        <ele>195</ele>
        <time>2017-04-09T07:08:48Z</time>
      </trkpt>
      <trkpt lat="50.11337" lon="4.13197">
        <ele>196</ele>
        <time>2017-04-09T07:08:50Z</time>
      </trkpt>
      <trkpt lat="50.11321" lon="4.13186">
        <ele>186</ele>
        <time>2017-04-09T07:08:55Z</time>
      </trkpt>
      <trkpt lat="50.11287" lon="4.13158">
        <ele>185</ele>
        <time>2017-04-09T07:09:02Z</time>
      </trkpt>
      <trkpt lat="50.11283" lon="4.13156">
        <ele>181</ele>
        <time>2017-04-09T07:09:07Z</time>
      </trkpt>
      <trkpt lat="50.11281" lon="4.13155">
        <ele>185</ele>
        <time>2017-04-09T07:09:10Z</time>
      </trkpt>
      <trkpt lat="50.11277" lon="4.13151">
        <ele>183</ele>
        <time>2017-04-09T07:09:16Z</time>
      </trkpt>
      <trkpt lat="50.11276" lon="4.1315">
        <ele>186</ele>
        <time>2017-04-09T07:09:21Z</time>
      </trkpt>
      <trkpt lat="50.11272" lon="4.1314">
        <ele>188</ele>
        <time>2017-04-09T07:09:25Z</time>
      </trkpt>
      <trkpt lat="50.11266" lon="4.13122">
        <ele>190</ele>
        <time>2017-04-09T07:09:31Z</time>
      </trkpt>
      <trkpt lat="50.11265" lon="4.13106">
        <ele>188</ele>
        <time>2017-04-09T07:09:35Z</time>
      </trkpt>
      <trkpt lat="50.11261" lon="4.13078">
        <ele>191</ele>
        <time>2017-04-09T07:09:41Z</time>
      </trkpt>
      <trkpt lat="50.11252" lon="4.13076">
        <ele>185</ele>
        <time>2017-04-09T07:09:46Z</time>
      </trkpt>
      <trkpt lat="50.11249" lon="4.13091">
        <ele>187</ele>
        <time>2017-04-09T07:09:53Z</time>
      </trkpt>
      <trkpt lat="50.11248" lon="4.13104">
        <ele>187</ele>
        <time>2017-04-09T07:09:57Z</time>
      </trkpt>
      <trkpt lat="50.11247" lon="4.13115">
        <ele>190</ele>
        <time>2017-04-09T07:10:00Z</time>
      </trkpt>
      <trkpt lat="50.11245" lon="4.13134">
        <ele>193</ele>
        <time>2017-04-09T07:10:05Z</time>
      </trkpt>
      <trkpt lat="50.11243" lon="4.13164">
        <ele>197</ele>
        <time>2017-04-09T07:10:14Z</time>
      </trkpt>
      <trkpt lat="50.11248" lon="4.13169">
        <ele>198</ele>
        <time>2017-04-09T07:10:16Z</time>
      </trkpt>
      <trkpt lat="50.11262" lon="4.13184">
        <ele>193</ele>
        <time>2017-04-09T07:10:20Z</time>
      </trkpt>
      <trkpt lat="50.11278" lon="4.13232">
        <ele>192</ele>
        <time>2017-04-09T07:10:25Z</time>
      </trkpt>
      <trkpt lat="50.11267" lon="4.13298">
        <ele>186</ele>
        <time>2017-04-09T07:10:33Z</time>
      </trkpt>
      <trkpt lat="50.11255" lon="4.13307">
        <ele>184</ele>
        <time>2017-04-09T07:10:36Z</time>
      </trkpt>
      <trkpt lat="50.11243" lon="4.13325">
        <ele>183</ele>
        <time>2017-04-09T07:10:41Z</time>
      </trkpt>
      <trkpt lat="50.11246" lon="4.13346">
        <ele>184</ele>
        <time>2017-04-09T07:10:45Z</time>
      </trkpt>
      <trkpt lat="50.11249" lon="4.13372">
        <ele>175</ele>
        <time>2017-04-09T07:10:50Z</time>
      </trkpt>
      <trkpt lat="50.1126" lon="4.13411">
        <ele>169</ele>
        <time>2017-04-09T07:10:58Z</time>
      </trkpt>
      <trkpt lat="50.11263" lon="4.1342">
        <ele>168</ele>
        <time>2017-04-09T07:11:00Z</time>
      </trkpt>
      <trkpt lat="50.11271" lon="4.13444">
        <ele>167</ele>
        <time>2017-04-09T07:11:05Z</time>
      </trkpt>
      <trkpt lat="50.11279" lon="4.13466">
        <ele>169</ele>
        <time>2017-04-09T07:11:10Z</time>
      </trkpt>
      <trkpt lat="50.11281" lon="4.13485">
        <ele>170</ele>
        <time>2017-04-09T07:11:15Z</time>
      </trkpt>
      <trkpt lat="50.11286" lon="4.13494">
        <ele>172</ele>
        <time>2017-04-09T07:11:20Z</time>
      </trkpt>
      <trkpt lat="50.11289" lon="4.13515">
        <ele>174</ele>
        <time>2017-04-09T07:11:28Z</time>
      </trkpt>
      <trkpt lat="50.11288" lon="4.13522">
        <ele>177</ele>
        <time>2017-04-09T07:11:31Z</time>
      </trkpt>
      <trkpt lat="50.11287" lon="4.1353">
        <ele>180</ele>
        <time>2017-04-09T07:11:35Z</time>
      </trkpt>
      <trkpt lat="50.11288" lon="4.13544">
        <ele>179</ele>
        <time>2017-04-09T07:11:41Z</time>
      </trkpt>
      <trkpt lat="50.11287" lon="4.13556">
        <ele>180</ele>
        <time>2017-04-09T07:11:46Z</time>
      </trkpt>
      <trkpt lat="50.11288" lon="4.13573">
        <ele>182</ele>
        <time>2017-04-09T07:11:52Z</time>
      </trkpt>
      <trkpt lat="50.11289" lon="4.13585">
        <ele>185</ele>
        <time>2017-04-09T07:11:56Z</time>
      </trkpt>
      <trkpt lat="50.11289" lon="4.13598">
        <ele>186</ele>
        <time>2017-04-09T07:12:00Z</time>
      </trkpt>
      <trkpt lat="50.11287" lon="4.13614">
        <ele>187</ele>
        <time>2017-04-09T07:12:05Z</time>
      </trkpt>
      <trkpt lat="50.11284" lon="4.13641">
        <ele>191</ele>
        <time>2017-04-09T07:12:12Z</time>
      </trkpt>
      <trkpt lat="50.1128" lon="4.13662">
        <ele>189</ele>
        <time>2017-04-09T07:12:18Z</time>
      </trkpt>
      <trkpt lat="50.11279" lon="4.13668">
        <ele>190</ele>
        <time>2017-04-09T07:12:20Z</time>
      </trkpt>
      <trkpt lat="50.11277" lon="4.13698">
        <ele>190</ele>
        <time>2017-04-09T07:12:29Z</time>
      </trkpt>
      <trkpt lat="50.11277" lon="4.13716">
        <ele>191</ele>
        <time>2017-04-09T07:12:34Z</time>
      </trkpt>
      <trkpt lat="50.11274" lon="4.13728">
        <ele>195</ele>
        <time>2017-04-09T07:12:38Z</time>
      </trkpt>
      <trkpt lat="50.1127" lon="4.13745">
        <ele>194</ele>
        <time>2017-04-09T07:12:44Z</time>
      </trkpt>
      <trkpt lat="50.1127" lon="4.13748">
        <ele>194</ele>
        <time>2017-04-09T07:12:45Z</time>
      </trkpt>
      <trkpt lat="50.1127" lon="4.13756">
        <ele>196</ele>
        <time>2017-04-09T07:12:50Z</time>
      </trkpt>
      <trkpt lat="50.1127" lon="4.13756">
        <ele>195</ele>
        <time>2017-04-09T07:12:55Z</time>
      </trkpt>
      <trkpt lat="50.11269" lon="4.13756">
        <ele>195</ele>
        <time>2017-04-09T07:13:00Z</time>
      </trkpt>
      <trkpt lat="50.11269" lon="4.13757">
        <ele>194</ele>
        <time>2017-04-09T07:13:05Z</time>
      </trkpt>
      <trkpt lat="50.11269" lon="4.13756">
        <ele>194</ele>
        <time>2017-04-09T07:13:10Z</time>
      </trkpt>
      <trkpt lat="50.11269" lon="4.13756">
        <ele>193</ele>
        <time>2017-04-09T07:13:15Z</time>
      </trkpt>
      <trkpt lat="50.11269" lon="4.13757">
        <ele>195</ele>
        <time>2017-04-09T07:13:20Z</time>
      </trkpt>
      <trkpt lat="50.11269" lon="4.13755">
        <ele>194</ele>
        <time>2017-04-09T07:13:25Z</time>
      </trkpt>
      <trkpt lat="50.11269" lon="4.13755">
        <ele>194</ele>
        <time>2017-04-09T07:13:30Z</time>
      </trkpt>
      <trkpt lat="50.11269" lon="4.13755">
        <ele>193</ele>
        <time>2017-04-09T07:13:35Z</time>
      </trkpt>
      <trkpt lat="50.11269" lon="4.13755">
        <ele>194</ele>
        <time>2017-04-09T07:13:40Z</time>
      </trkpt>
      <trkpt lat="50.11269" lon="4.13755">
        <ele>190</ele>
        <time>2017-04-09T07:13:45Z</time>
      </trkpt>
      <trkpt lat="50.11269" lon="4.13755">
        <ele>193</ele>
        <time>2017-04-09T07:13:54Z</time>
      </trkpt>
      <trkpt lat="50.11269" lon="4.13755">
        <ele>194</ele>
        <time>2017-04-09T07:13:55Z</time>
      </trkpt>
      <trkpt lat="50.11269" lon="4.13755">
        <ele>194</ele>
        <time>2017-04-09T07:14:04Z</time>
      </trkpt>
      <trkpt lat="50.11269" lon="4.13755">
        <ele>194</ele>
        <time>2017-04-09T07:14:05Z</time>
      </trkpt>
      <trkpt lat="50.11269" lon="4.13755">
        <ele>194</ele>
        <time>2017-04-09T07:14:14Z</time>
      </trkpt>
      <trkpt lat="50.11269" lon="4.13755">
        <ele>192</ele>
        <time>2017-04-09T07:14:15Z</time>
      </trkpt>
      <trkpt lat="50.11269" lon="4.13755">
        <ele>194</ele>
        <time>2017-04-09T07:14:20Z</time>
      </trkpt>
      <trkpt lat="50.11269" lon="4.13754">
        <ele>194</ele>
        <time>2017-04-09T07:14:25Z</time>
      </trkpt>
      <trkpt lat="50.1127" lon="4.13754">
        <ele>192</ele>
        <time>2017-04-09T07:14:31Z</time>
      </trkpt>
      <trkpt lat="50.11269" lon="4.13753">
        <ele>194</ele>
        <time>2017-04-09T07:14:37Z</time>
      </trkpt>
      <trkpt lat="50.11269" lon="4.13753">
        <ele>195</ele>
        <time>2017-04-09T07:14:40Z</time>
      </trkpt>
      <trkpt lat="50.11269" lon="4.13753">
        <ele>193</ele>
        <time>2017-04-09T07:14:45Z</time>
      </trkpt>
      <trkpt lat="50.11269" lon="4.13753">
        <ele>195</ele>
        <time>2017-04-09T07:14:50Z</time>
      </trkpt>
      <trkpt lat="50.1127" lon="4.1377">
        <ele>194</ele>
        <time>2017-04-09T07:14:55Z</time>
      </trkpt>
      <trkpt lat="50.11264" lon="4.13787">
        <ele>195</ele>
        <time>2017-04-09T07:15:00Z</time>
      </trkpt>
      <trkpt lat="50.11262" lon="4.138">
        <ele>199</ele>
        <time>2017-04-09T07:15:05Z</time>
      </trkpt>
      <trkpt lat="50.11259" lon="4.13812">
        <ele>200</ele>
        <time>2017-04-09T07:15:10Z</time>
      </trkpt>
      <trkpt lat="50.11257" lon="4.13822">
        <ele>207</ele>
        <time>2017-04-09T07:15:15Z</time>
      </trkpt>
      <trkpt lat="50.11255" lon="4.13837">
        <ele>204</ele>
        <time>2017-04-09T07:15:20Z</time>
      </trkpt>
      <trkpt lat="50.11253" lon="4.13857">
        <ele>207</ele>
        <time>2017-04-09T07:15:26Z</time>
      </trkpt>
      <trkpt lat="50.11251" lon="4.1387">
        <ele>205</ele>
        <time>2017-04-09T07:15:30Z</time>
      </trkpt>
      <trkpt lat="50.1125" lon="4.13887">
        <ele>203</ele>
        <time>2017-04-09T07:15:35Z</time>
      </trkpt>
      <trkpt lat="50.11254" lon="4.13912">
        <ele>204</ele>
        <time>2017-04-09T07:15:43Z</time>
      </trkpt>
      <trkpt lat="50.11252" lon="4.1392">
        <ele>208</ele>
        <time>2017-04-09T07:15:45Z</time>
      </trkpt>
      <trkpt lat="50.1125" lon="4.13947">
        <ele>204</ele>
        <time>2017-04-09T07:15:53Z</time>
      </trkpt>
      <trkpt lat="50.1125" lon="4.13952">
        <ele>207</ele>
        <time>2017-04-09T07:15:55Z</time>
      </trkpt>
      <trkpt lat="50.11248" lon="4.13966">
        <ele>207</ele>
        <time>2017-04-09T07:16:00Z</time>
      </trkpt>
      <trkpt lat="50.1125" lon="4.1399">
        <ele>199</ele>
        <time>2017-04-09T07:16:05Z</time>
      </trkpt>
      <trkpt lat="50.11267" lon="4.14039">
        <ele>205</ele>
        <time>2017-04-09T07:16:14Z</time>
      </trkpt>
      <trkpt lat="50.11281" lon="4.1406">
        <ele>197</ele>
        <time>2017-04-09T07:16:19Z</time>
      </trkpt>
      <trkpt lat="50.11284" lon="4.14066">
        <ele>197</ele>
        <time>2017-04-09T07:16:20Z</time>
      </trkpt>
      <trkpt lat="50.113" lon="4.14143">
        <ele>191</ele>
        <time>2017-04-09T07:16:29Z</time>
      </trkpt>
      <trkpt lat="50.113" lon="4.14154">
        <ele>193</ele>
        <time>2017-04-09T07:16:31Z</time>
      </trkpt>
      <trkpt lat="50.113" lon="4.1418">
        <ele>194</ele>
        <time>2017-04-09T07:16:35Z</time>
      </trkpt>
      <trkpt lat="50.113" lon="4.14208">
        <ele>192</ele>
        <time>2017-04-09T07:16:40Z</time>
      </trkpt>
      <trkpt lat="50.11298" lon="4.14226">
        <ele>190</ele>
        <time>2017-04-09T07:16:45Z</time>
      </trkpt>
      <trkpt lat="50.11296" lon="4.14239">
        <ele>193</ele>
        <time>2017-04-09T07:16:50Z</time>
      </trkpt>
      <trkpt lat="50.1129" lon="4.14251">
        <ele>186</ele>
        <time>2017-04-09T07:16:55Z</time>
      </trkpt>
      <trkpt lat="50.11289" lon="4.14281">
        <ele>191</ele>
        <time>2017-04-09T07:17:02Z</time>
      </trkpt>
      <trkpt lat="50.11289" lon="4.14294">
        <ele>191</ele>
        <time>2017-04-09T07:17:06Z</time>
      </trkpt>
      <trkpt lat="50.1129" lon="4.14314">
        <ele>194</ele>
        <time>2017-04-09T07:17:11Z</time>
      </trkpt>
      <trkpt lat="50.11295" lon="4.14346">
        <ele>192</ele>
        <time>2017-04-09T07:17:18Z</time>
      </trkpt>
      <trkpt lat="50.11311" lon="4.14381">
        <ele>196</ele>
        <time>2017-04-09T07:17:25Z</time>
      </trkpt>
      <trkpt lat="50.11314" lon="4.14388">
        <ele>194</ele>
        <time>2017-04-09T07:17:27Z</time>
      </trkpt>
      <trkpt lat="50.11318" lon="4.14406">
        <ele>191</ele>
        <time>2017-04-09T07:17:31Z</time>
      </trkpt>
      <trkpt lat="50.11327" lon="4.14456">
        <ele>187</ele>
        <time>2017-04-09T07:17:40Z</time>
      </trkpt>
      <trkpt lat="50.11331" lon="4.14483">
        <ele>185</ele>
        <time>2017-04-09T07:17:45Z</time>
      </trkpt>
      <trkpt lat="50.11331" lon="4.14486">
        <ele>186</ele>
        <time>2017-04-09T07:17:46Z</time>
      </trkpt>
      <trkpt lat="50.11332" lon="4.14494">
        <ele>187</ele>
        <time>2017-04-09T07:17:55Z</time>
      </trkpt>
      <trkpt lat="50.11332" lon="4.14494">
        <ele>188</ele>
        <time>2017-04-09T07:17:56Z</time>
      </trkpt>
      <trkpt lat="50.11333" lon="4.14505">
        <ele>193</ele>
        <time>2017-04-09T07:18:01Z</time>
      </trkpt>
      <trkpt lat="50.11335" lon="4.14526">
        <ele>188</ele>
        <time>2017-04-09T07:18:06Z</time>
      </trkpt>
      <trkpt lat="50.11344" lon="4.14566">
        <ele>181</ele>
        <time>2017-04-09T07:18:15Z</time>
      </trkpt>
      <trkpt lat="50.11344" lon="4.1457">
        <ele>183</ele>
        <time>2017-04-09T07:18:16Z</time>
      </trkpt>
      <trkpt lat="50.11348" lon="4.14604">
        <ele>181</ele>
        <time>2017-04-09T07:18:25Z</time>
      </trkpt>
      <trkpt lat="50.11348" lon="4.14607">
        <ele>183</ele>
        <time>2017-04-09T07:18:26Z</time>
      </trkpt>
      <trkpt lat="50.1135" lon="4.14629">
        <ele>180</ele>
        <time>2017-04-09T07:18:31Z</time>
      </trkpt>
      <trkpt lat="50.11356" lon="4.14677">
        <ele>180</ele>
        <time>2017-04-09T07:18:38Z</time>
      </trkpt>
      <trkpt lat="50.11355" lon="4.147">
        <ele>180</ele>
        <time>2017-04-09T07:18:45Z</time>
      </trkpt>
      <trkpt lat="50.11353" lon="4.14704">
        <ele>185</ele>
        <time>2017-04-09T07:18:47Z</time>
      </trkpt>
      <trkpt lat="50.11349" lon="4.1471">
        <ele>191</ele>
        <time>2017-04-09T07:18:51Z</time>
      </trkpt>
      <trkpt lat="50.11351" lon="4.14709">
        <ele>191</ele>
        <time>2017-04-09T07:18:56Z</time>
      </trkpt>
      <trkpt lat="50.11347" lon="4.14709">
        <ele>197</ele>
        <time>2017-04-09T07:19:01Z</time>
      </trkpt>
      <trkpt lat="50.11344" lon="4.14713">
        <ele>195</ele>
        <time>2017-04-09T07:19:08Z</time>
      </trkpt>
      <trkpt lat="50.11343" lon="4.14716">
        <ele>200</ele>
        <time>2017-04-09T07:19:11Z</time>
      </trkpt>
      <trkpt lat="50.1134" lon="4.1472">
        <ele>202</ele>
        <time>2017-04-09T07:19:16Z</time>
      </trkpt>
      <trkpt lat="50.11337" lon="4.14724">
        <ele>203</ele>
        <time>2017-04-09T07:19:24Z</time>
      </trkpt>
      <trkpt lat="50.11336" lon="4.14724">
        <ele>203</ele>
        <time>2017-04-09T07:19:26Z</time>
      </trkpt>
      <trkpt lat="50.11335" lon="4.14724">
        <ele>201</ele>
        <time>2017-04-09T07:19:31Z</time>
      </trkpt>
      <trkpt lat="50.1133" lon="4.14725">
        <ele>193</ele>
        <time>2017-04-09T07:19:37Z</time>
      </trkpt>
      <trkpt lat="50.11327" lon="4.14726">
        <ele>203</ele>
        <time>2017-04-09T07:19:41Z</time>
      </trkpt>
      <trkpt lat="50.11325" lon="4.14729">
        <ele>201</ele>
        <time>2017-04-09T07:19:46Z</time>
      </trkpt>
      <trkpt lat="50.11321" lon="4.14733">
        <ele>208</ele>
        <time>2017-04-09T07:19:52Z</time>
      </trkpt>
      <trkpt lat="50.11319" lon="4.14738">
        <ele>203</ele>
        <time>2017-04-09T07:19:58Z</time>
      </trkpt>
      <trkpt lat="50.11318" lon="4.14742">
        <ele>206</ele>
        <time>2017-04-09T07:20:01Z</time>
      </trkpt>
      <trkpt lat="50.11317" lon="4.1475">
        <ele>205</ele>
        <time>2017-04-09T07:20:08Z</time>
      </trkpt>
      <trkpt lat="50.11317" lon="4.14753">
        <ele>208</ele>
        <time>2017-04-09T07:20:11Z</time>
      </trkpt>
      <trkpt lat="50.11315" lon="4.14757">
        <ele>208</ele>
        <time>2017-04-09T07:20:17Z</time>
      </trkpt>
      <trkpt lat="50.11314" lon="4.14761">
        <ele>211</ele>
        <time>2017-04-09T07:20:24Z</time>
      </trkpt>
      <trkpt lat="50.11313" lon="4.14763">
        <ele>214</ele>
        <time>2017-04-09T07:20:27Z</time>
      </trkpt>
      <trkpt lat="50.11313" lon="4.14765">
        <ele>215</ele>
        <time>2017-04-09T07:20:31Z</time>
      </trkpt>
      <trkpt lat="50.11314" lon="4.14768">
        <ele>218</ele>
        <time>2017-04-09T07:20:36Z</time>
      </trkpt>
      <trkpt lat="50.11317" lon="4.14772">
        <ele>218</ele>
        <time>2017-04-09T07:20:42Z</time>
      </trkpt>
      <trkpt lat="50.11317" lon="4.14776">
        <ele>214</ele>
        <time>2017-04-09T07:20:46Z</time>
      </trkpt>
      <trkpt lat="50.1132" lon="4.1478">
        <ele>216</ele>
        <time>2017-04-09T07:20:55Z</time>
      </trkpt>
      <trkpt lat="50.11321" lon="4.14781">
        <ele>218</ele>
        <time>2017-04-09T07:20:57Z</time>
      </trkpt>
      <trkpt lat="50.11324" lon="4.14789">
        <ele>218</ele>
        <time>2017-04-09T07:21:03Z</time>
      </trkpt>
      <trkpt lat="50.11326" lon="4.14792">
        <ele>218</ele>
        <time>2017-04-09T07:21:07Z</time>
      </trkpt>
      <trkpt lat="50.11327" lon="4.14794">
        <ele>219</ele>
        <time>2017-04-09T07:21:11Z</time>
      </trkpt>
      <trkpt lat="50.11328" lon="4.14796">
        <ele>218</ele>
        <time>2017-04-09T07:21:17Z</time>
      </trkpt>
      <trkpt lat="50.11328" lon="4.14798">
        <ele>221</ele>
        <time>2017-04-09T07:21:21Z</time>
      </trkpt>
      <trkpt lat="50.11328" lon="4.14801">
        <ele>220</ele>
        <time>2017-04-09T07:21:26Z</time>
      </trkpt>
      <trkpt lat="50.11328" lon="4.14805">
        <ele>221</ele>
        <time>2017-04-09T07:21:31Z</time>
      </trkpt>
      <trkpt lat="50.1133" lon="4.14812">
        <ele>224</ele>
        <time>2017-04-09T07:21:36Z</time>
      </trkpt>
      <trkpt lat="50.11332" lon="4.1482">
        <ele>210</ele>
        <time>2017-04-09T07:21:41Z</time>
      </trkpt>
      <trkpt lat="50.11333" lon="4.14828">
        <ele>204</ele>
        <time>2017-04-09T07:21:50Z</time>
      </trkpt>
      <trkpt lat="50.11333" lon="4.14828">
        <ele>209</ele>
        <time>2017-04-09T07:21:52Z</time>
      </trkpt>
      <trkpt lat="50.11333" lon="4.14829">
        <ele>211</ele>
        <time>2017-04-09T07:21:56Z</time>
      </trkpt>
      <trkpt lat="50.11331" lon="4.14834">
        <ele>205</ele>
        <time>2017-04-09T07:22:02Z</time>
      </trkpt>
      <trkpt lat="50.1133" lon="4.14837">
        <ele>205</ele>
        <time>2017-04-09T07:22:06Z</time>
      </trkpt>
      <trkpt lat="50.1133" lon="4.14837">
        <ele>204</ele>
        <time>2017-04-09T07:22:11Z</time>
      </trkpt>
      <trkpt lat="50.1133" lon="4.14837">
        <ele>203</ele>
        <time>2017-04-09T07:22:18Z</time>
      </trkpt>
      <trkpt lat="50.1133" lon="4.14839">
        <ele>204</ele>
        <time>2017-04-09T07:22:22Z</time>
      </trkpt>
      <trkpt lat="50.1133" lon="4.14841">
        <ele>203</ele>
        <time>2017-04-09T07:22:29Z</time>
      </trkpt>
      <trkpt lat="50.1133" lon="4.14841">
        <ele>205</ele>
        <time>2017-04-09T07:22:31Z</time>
      </trkpt>
      <trkpt lat="50.1133" lon="4.14841">
        <ele>205</ele>
        <time>2017-04-09T07:22:38Z</time>
      </trkpt>
      <trkpt lat="50.1133" lon="4.14841">
        <ele>206</ele>
        <time>2017-04-09T07:22:41Z</time>
      </trkpt>
      <trkpt lat="50.1133" lon="4.14842">
        <ele>204</ele>
        <time>2017-04-09T07:22:46Z</time>
      </trkpt>
      <trkpt lat="50.1133" lon="4.14843">
        <ele>208</ele>
        <time>2017-04-09T07:22:51Z</time>
      </trkpt>
      <trkpt lat="50.1133" lon="4.14844">
        <ele>202</ele>
        <time>2017-04-09T07:22:56Z</time>
      </trkpt>
      <trkpt lat="50.1133" lon="4.14847">
        <ele>199</ele>
        <time>2017-04-09T07:23:05Z</time>
      </trkpt>
      <trkpt lat="50.1133" lon="4.14848">
        <ele>204</ele>
        <time>2017-04-09T07:23:08Z</time>
      </trkpt>
      <trkpt lat="50.1133" lon="4.14848">
        <ele>206</ele>
        <time>2017-04-09T07:23:11Z</time>
      </trkpt>
      <trkpt lat="50.1133" lon="4.14853">
        <ele>205</ele>
        <time>2017-04-09T07:23:18Z</time>
      </trkpt>
      <trkpt lat="50.11331" lon="4.14857">
        <ele>205</ele>
        <time>2017-04-09T07:23:21Z</time>
      </trkpt>
      <trkpt lat="50.11333" lon="4.14863">
        <ele>207</ele>
        <time>2017-04-09T07:23:26Z</time>
      </trkpt>
      <trkpt lat="50.11335" lon="4.14868">
        <ele>205</ele>
        <time>2017-04-09T07:23:35Z</time>
      </trkpt>
      <trkpt lat="50.11337" lon="4.14877">
        <ele>205</ele>
        <time>2017-04-09T07:23:38Z</time>
      </trkpt>
      <trkpt lat="50.11337" lon="4.14892">
        <ele>203</ele>
        <time>2017-04-09T07:23:43Z</time>
      </trkpt>
      <trkpt lat="50.11337" lon="4.14905">
        <ele>202</ele>
        <time>2017-04-09T07:23:47Z</time>
      </trkpt>
      <trkpt lat="50.11337" lon="4.14916">
        <ele>201</ele>
        <time>2017-04-09T07:23:51Z</time>
      </trkpt>
      <trkpt lat="50.11336" lon="4.1493">
        <ele>203</ele>
        <time>2017-04-09T07:23:56Z</time>
      </trkpt>
      <trkpt lat="50.11336" lon="4.14952">
        <ele>201</ele>
        <time>2017-04-09T07:24:04Z</time>
      </trkpt>
      <trkpt lat="50.11337" lon="4.14958">
        <ele>201</ele>
        <time>2017-04-09T07:24:06Z</time>
      </trkpt>
      <trkpt lat="50.11337" lon="4.14972">
        <ele>203</ele>
        <time>2017-04-09T07:24:11Z</time>
      </trkpt>
      <trkpt lat="50.11338" lon="4.14985">
        <ele>204</ele>
        <time>2017-04-09T07:24:16Z</time>
      </trkpt>
      <trkpt lat="50.11339" lon="4.14998">
        <ele>206</ele>
        <time>2017-04-09T07:24:21Z</time>
      </trkpt>
      <trkpt lat="50.11339" lon="4.15015">
        <ele>206</ele>
        <time>2017-04-09T07:24:28Z</time>
      </trkpt>
      <trkpt lat="50.11339" lon="4.15023">
        <ele>208</ele>
        <time>2017-04-09T07:24:31Z</time>
      </trkpt>
      <trkpt lat="50.11339" lon="4.15035">
        <ele>208</ele>
        <time>2017-04-09T07:24:36Z</time>
      </trkpt>
      <trkpt lat="50.11339" lon="4.15047">
        <ele>211</ele>
        <time>2017-04-09T07:24:41Z</time>
      </trkpt>
      <trkpt lat="50.11339" lon="4.15059">
        <ele>210</ele>
        <time>2017-04-09T07:24:46Z</time>
      </trkpt>
      <trkpt lat="50.11339" lon="4.15075">
        <ele>211</ele>
        <time>2017-04-09T07:24:52Z</time>
      </trkpt>
      <trkpt lat="50.11338" lon="4.15085">
        <ele>210</ele>
        <time>2017-04-09T07:24:56Z</time>
      </trkpt>
      <trkpt lat="50.11337" lon="4.15101">
        <ele>211</ele>
        <time>2017-04-09T07:25:02Z</time>
      </trkpt>
      <trkpt lat="50.11336" lon="4.15112">
        <ele>209</ele>
        <time>2017-04-09T07:25:06Z</time>
      </trkpt>
      <trkpt lat="50.11335" lon="4.15129">
        <ele>210</ele>
        <time>2017-04-09T07:25:12Z</time>
      </trkpt>
      <trkpt lat="50.11334" lon="4.15139">
        <ele>210</ele>
        <time>2017-04-09T07:25:16Z</time>
      </trkpt>
      <trkpt lat="50.11332" lon="4.15153">
        <ele>211</ele>
        <time>2017-04-09T07:25:21Z</time>
      </trkpt>
      <trkpt lat="50.11331" lon="4.15166">
        <ele>211</ele>
        <time>2017-04-09T07:25:26Z</time>
      </trkpt>
      <trkpt lat="50.11329" lon="4.1518">
        <ele>213</ele>
        <time>2017-04-09T07:25:31Z</time>
      </trkpt>
      <trkpt lat="50.11328" lon="4.15194">
        <ele>212</ele>
        <time>2017-04-09T07:25:36Z</time>
      </trkpt>
      <trkpt lat="50.11327" lon="4.15208">
        <ele>215</ele>
        <time>2017-04-09T07:25:41Z</time>
      </trkpt>
      <trkpt lat="50.11325" lon="4.15225">
        <ele>215</ele>
        <time>2017-04-09T07:25:47Z</time>
      </trkpt>
      <trkpt lat="50.11322" lon="4.15246">
        <ele>216</ele>
        <time>2017-04-09T07:25:54Z</time>
      </trkpt>
      <trkpt lat="50.11321" lon="4.15252">
        <ele>215</ele>
        <time>2017-04-09T07:25:56Z</time>
      </trkpt>
      <trkpt lat="50.11319" lon="4.1528">
        <ele>215</ele>
        <time>2017-04-09T07:26:05Z</time>
      </trkpt>
      <trkpt lat="50.11318" lon="4.15283">
        <ele>216</ele>
        <time>2017-04-09T07:26:06Z</time>
      </trkpt>
      <trkpt lat="50.11316" lon="4.15302">
        <ele>219</ele>
        <time>2017-04-09T07:26:12Z</time>
      </trkpt>
      <trkpt lat="50.11318" lon="4.15314">
        <ele>217</ele>
        <time>2017-04-09T07:26:16Z</time>
      </trkpt>
      <trkpt lat="50.11321" lon="4.1533">
        <ele>217</ele>
        <time>2017-04-09T07:26:22Z</time>
      </trkpt>
      <trkpt lat="50.11313" lon="4.15341">
        <ele>221</ele>
        <time>2017-04-09T07:26:27Z</time>
      </trkpt>
      <trkpt lat="50.11304" lon="4.15348">
        <ele>223</ele>
        <time>2017-04-09T07:26:31Z</time>
      </trkpt>
      <trkpt lat="50.11295" lon="4.15356">
        <ele>228</ele>
        <time>2017-04-09T07:26:36Z</time>
      </trkpt>
      <trkpt lat="50.11287" lon="4.15363">
        <ele>231</ele>
        <time>2017-04-09T07:26:41Z</time>
      </trkpt>
      <trkpt lat="50.11278" lon="4.15373">
        <ele>228</ele>
        <time>2017-04-09T07:26:46Z</time>
      </trkpt>
      <trkpt lat="50.1127" lon="4.15385">
        <ele>229</ele>
        <time>2017-04-09T07:26:51Z</time>
      </trkpt>
      <trkpt lat="50.11259" lon="4.15401">
        <ele>228</ele>
        <time>2017-04-09T07:26:57Z</time>
      </trkpt>
      <trkpt lat="50.11253" lon="4.1541">
        <ele>225</ele>
        <time>2017-04-09T07:27:01Z</time>
      </trkpt>
      <trkpt lat="50.11242" lon="4.15433">
        <ele>220</ele>
        <time>2017-04-09T07:27:09Z</time>
      </trkpt>
      <trkpt lat="50.11239" lon="4.15438">
        <ele>220</ele>
        <time>2017-04-09T07:27:11Z</time>
      </trkpt>
      <trkpt lat="50.11233" lon="4.15451">
        <ele>218</ele>
        <time>2017-04-09T07:27:16Z</time>
      </trkpt>
      <trkpt lat="50.11228" lon="4.15479">
        <ele>218</ele>
        <time>2017-04-09T07:27:25Z</time>
      </trkpt>
      <trkpt lat="50.11227" lon="4.15482">
        <ele>214</ele>
        <time>2017-04-09T07:27:26Z</time>
      </trkpt>
      <trkpt lat="50.11213" lon="4.15515">
        <ele>222</ele>
        <time>2017-04-09T07:27:35Z</time>
      </trkpt>
      <trkpt lat="50.11212" lon="4.15518">
        <ele>221</ele>
        <time>2017-04-09T07:27:36Z</time>
      </trkpt>
      <trkpt lat="50.11205" lon="4.15541">
        <ele>219</ele>
        <time>2017-04-09T07:27:43Z</time>
      </trkpt>
      <trkpt lat="50.11204" lon="4.15552">
        <ele>218</ele>
        <time>2017-04-09T07:27:46Z</time>
      </trkpt>
      <trkpt lat="50.11195" lon="4.15566">
        <ele>212</ele>
        <time>2017-04-09T07:27:51Z</time>
      </trkpt>
      <trkpt lat="50.11184" lon="4.15591">
        <ele>205</ele>
        <time>2017-04-09T07:27:58Z</time>
      </trkpt>
      <trkpt lat="50.11177" lon="4.156">
        <ele>201</ele>
        <time>2017-04-09T07:28:01Z</time>
      </trkpt>
      <trkpt lat="50.1117" lon="4.15622">
        <ele>204</ele>
        <time>2017-04-09T07:28:07Z</time>
      </trkpt>
      <trkpt lat="50.11161" lon="4.15646">
        <ele>200</ele>
        <time>2017-04-09T07:28:12Z</time>
      </trkpt>
      <trkpt lat="50.11158" lon="4.15668">
        <ele>199</ele>
        <time>2017-04-09T07:28:16Z</time>
      </trkpt>
      <trkpt lat="50.11147" lon="4.15705">
        <ele>208</ele>
        <time>2017-04-09T07:28:24Z</time>
      </trkpt>
      <trkpt lat="50.11142" lon="4.15715">
        <ele>210</ele>
        <time>2017-04-09T07:28:26Z</time>
      </trkpt>
      <trkpt lat="50.11127" lon="4.15752">
        <ele>212</ele>
        <time>2017-04-09T07:28:34Z</time>
      </trkpt>
      <trkpt lat="50.11111" lon="4.15775">
        <ele>209</ele>
        <time>2017-04-09T07:28:40Z</time>
      </trkpt>
      <trkpt lat="50.11102" lon="4.15791">
        <ele>214</ele>
        <time>2017-04-09T07:28:44Z</time>
      </trkpt>
      <trkpt lat="50.11093" lon="4.15806">
        <ele>204</ele>
        <time>2017-04-09T07:28:48Z</time>
      </trkpt>
      <trkpt lat="50.11087" lon="4.15816">
        <ele>211</ele>
        <time>2017-04-09T07:28:51Z</time>
      </trkpt>
      <trkpt lat="50.1108" lon="4.15835">
        <ele>203</ele>
        <time>2017-04-09T07:28:56Z</time>
      </trkpt>
      <trkpt lat="50.11071" lon="4.15853">
        <ele>206</ele>
        <time>2017-04-09T07:29:01Z</time>
      </trkpt>
      <trkpt lat="50.11061" lon="4.15871">
        <ele>211</ele>
        <time>2017-04-09T07:29:06Z</time>
      </trkpt>
      <trkpt lat="50.11048" lon="4.15904">
        <ele>215</ele>
        <time>2017-04-09T07:29:14Z</time>
      </trkpt>
      <trkpt lat="50.11045" lon="4.15912">
        <ele>213</ele>
        <time>2017-04-09T07:29:16Z</time>
      </trkpt>
      <trkpt lat="50.11034" lon="4.15939">
        <ele>211</ele>
        <time>2017-04-09T07:29:23Z</time>
      </trkpt>
      <trkpt lat="50.11023" lon="4.15968">
        <ele>226</ele>
        <time>2017-04-09T07:29:30Z</time>
      </trkpt>
      <trkpt lat="50.11019" lon="4.15976">
        <ele>227</ele>
        <time>2017-04-09T07:29:32Z</time>
      </trkpt>
      <trkpt lat="50.11006" lon="4.16005">
        <ele>227</ele>
        <time>2017-04-09T07:29:39Z</time>
      </trkpt>
      <trkpt lat="50.11002" lon="4.16014">
        <ele>228</ele>
        <time>2017-04-09T07:29:41Z</time>
      </trkpt>
      <trkpt lat="50.10991" lon="4.16038">
        <ele>229</ele>
        <time>2017-04-09T07:29:47Z</time>
      </trkpt>
      <trkpt lat="50.10984" lon="4.16054">
        <ele>229</ele>
        <time>2017-04-09T07:29:51Z</time>
      </trkpt>
      <trkpt lat="50.10973" lon="4.16088">
        <ele>227</ele>
        <time>2017-04-09T07:30:00Z</time>
      </trkpt>
      <trkpt lat="50.1097" lon="4.16096">
        <ele>227</ele>
        <time>2017-04-09T07:30:02Z</time>
      </trkpt>
      <trkpt lat="50.10965" lon="4.16112">
        <ele>229</ele>
        <time>2017-04-09T07:30:06Z</time>
      </trkpt>
      <trkpt lat="50.1095" lon="4.16134">
        <ele>233</ele>
        <time>2017-04-09T07:30:14Z</time>
      </trkpt>
      <trkpt lat="50.10947" lon="4.16138">
        <ele>233</ele>
        <time>2017-04-09T07:30:16Z</time>
      </trkpt>
      <trkpt lat="50.10948" lon="4.16141">
        <ele>233</ele>
        <time>2017-04-09T07:30:25Z</time>
      </trkpt>
      <trkpt lat="50.1095" lon="4.16133">
        <ele>231</ele>
        <time>2017-04-09T07:30:27Z</time>
      </trkpt>
      <trkpt lat="50.10955" lon="4.16119">
        <ele>230</ele>
        <time>2017-04-09T07:30:31Z</time>
      </trkpt>
      <trkpt lat="50.1096" lon="4.16099">
        <ele>230</ele>
        <time>2017-04-09T07:30:36Z</time>
      </trkpt>
      <trkpt lat="50.10967" lon="4.16082">
        <ele>233</ele>
        <time>2017-04-09T07:30:41Z</time>
      </trkpt>
      <trkpt lat="50.10973" lon="4.16067">
        <ele>231</ele>
        <time>2017-04-09T07:30:47Z</time>
      </trkpt>
      <trkpt lat="50.10978" lon="4.16053">
        <ele>234</ele>
        <time>2017-04-09T07:30:51Z</time>
      </trkpt>
      <trkpt lat="50.10987" lon="4.16032">
        <ele>237</ele>
        <time>2017-04-09T07:30:56Z</time>
      </trkpt>
      <trkpt lat="50.10994" lon="4.16013">
        <ele>233</ele>
        <time>2017-04-09T07:31:01Z</time>
      </trkpt>
      <trkpt lat="50.11002" lon="4.16003">
        <ele>236</ele>
        <time>2017-04-09T07:31:06Z</time>
      </trkpt>
      <trkpt lat="50.11014" lon="4.16009">
        <ele>229</ele>
        <time>2017-04-09T07:31:15Z</time>
      </trkpt>
      <trkpt lat="50.11017" lon="4.16012">
        <ele>234</ele>
        <time>2017-04-09T07:31:17Z</time>
      </trkpt>
      <trkpt lat="50.1102" lon="4.16025">
        <ele>236</ele>
        <time>2017-04-09T07:31:21Z</time>
      </trkpt>
      <trkpt lat="50.11014" lon="4.16051">
        <ele>237</ele>
        <time>2017-04-09T07:31:30Z</time>
      </trkpt>
      <trkpt lat="50.11013" lon="4.16052">
        <ele>237</ele>
        <time>2017-04-09T07:31:31Z</time>
      </trkpt>
      <trkpt lat="50.11017" lon="4.16066">
        <ele>233</ele>
        <time>2017-04-09T07:31:37Z</time>
      </trkpt>
      <trkpt lat="50.11019" lon="4.16084">
        <ele>237</ele>
        <time>2017-04-09T07:31:42Z</time>
      </trkpt>
      <trkpt lat="50.11017" lon="4.16099">
        <ele>235</ele>
        <time>2017-04-09T07:31:46Z</time>
      </trkpt>
      <trkpt lat="50.11021" lon="4.16116">
        <ele>238</ele>
        <time>2017-04-09T07:31:51Z</time>
      </trkpt>
      <trkpt lat="50.11021" lon="4.16135">
        <ele>235</ele>
        <time>2017-04-09T07:31:56Z</time>
      </trkpt>
      <trkpt lat="50.11022" lon="4.16165">
        <ele>234</ele>
        <time>2017-04-09T07:32:05Z</time>
      </trkpt>
      <trkpt lat="50.11023" lon="4.16168">
        <ele>235</ele>
        <time>2017-04-09T07:32:06Z</time>
      </trkpt>
      <trkpt lat="50.11026" lon="4.16192">
        <ele>237</ele>
        <time>2017-04-09T07:32:13Z</time>
      </trkpt>
      <trkpt lat="50.11029" lon="4.16201">
        <ele>239</ele>
        <time>2017-04-09T07:32:16Z</time>
      </trkpt>
      <trkpt lat="50.11034" lon="4.16217">
        <ele>231</ele>
        <time>2017-04-09T07:32:21Z</time>
      </trkpt>
      <trkpt lat="50.11042" lon="4.16257">
        <ele>234</ele>
        <time>2017-04-09T07:32:30Z</time>
      </trkpt>
      <trkpt lat="50.11044" lon="4.16262">
        <ele>233</ele>
        <time>2017-04-09T07:32:31Z</time>
      </trkpt>
      <trkpt lat="50.11053" lon="4.16306">
        <ele>238</ele>
        <time>2017-04-09T07:32:40Z</time>
      </trkpt>
      <trkpt lat="50.11055" lon="4.1631">
        <ele>239</ele>
        <time>2017-04-09T07:32:41Z</time>
      </trkpt>
      <trkpt lat="50.11062" lon="4.1633">
        <ele>229</ele>
        <time>2017-04-09T07:32:46Z</time>
      </trkpt>
      <trkpt lat="50.11072" lon="4.16372">
        <ele>216</ele>
        <time>2017-04-09T07:32:55Z</time>
      </trkpt>
      <trkpt lat="50.11069" lon="4.16388">
        <ele>224</ele>
        <time>2017-04-09T07:32:57Z</time>
      </trkpt>
      <trkpt lat="50.11074" lon="4.16426">
        <ele>231</ele>
        <time>2017-04-09T07:33:04Z</time>
      </trkpt>
      <trkpt lat="50.11076" lon="4.16446">
        <ele>227</ele>
        <time>2017-04-09T07:33:09Z</time>
      </trkpt>
      <trkpt lat="50.11078" lon="4.16456">
        <ele>232</ele>
        <time>2017-04-09T07:33:11Z</time>
      </trkpt>
      <trkpt lat="50.11084" lon="4.16481">
        <ele>236</ele>
        <time>2017-04-09T07:33:17Z</time>
      </trkpt>
      <trkpt lat="50.1109" lon="4.16495">
        <ele>233</ele>
        <time>2017-04-09T07:33:21Z</time>
      </trkpt>
      <trkpt lat="50.11097" lon="4.16507">
        <ele>238</ele>
        <time>2017-04-09T07:33:26Z</time>
      </trkpt>
      <trkpt lat="50.111" lon="4.16529">
        <ele>236</ele>
        <time>2017-04-09T07:33:32Z</time>
      </trkpt>
      <trkpt lat="50.11112" lon="4.16534">
        <ele>241</ele>
        <time>2017-04-09T07:33:37Z</time>
      </trkpt>
      <trkpt lat="50.11122" lon="4.16538">
        <ele>246</ele>
        <time>2017-04-09T07:33:41Z</time>
      </trkpt>
      <trkpt lat="50.11139" lon="4.16548">
        <ele>244</ele>
        <time>2017-04-09T07:33:46Z</time>
      </trkpt>
      <trkpt lat="50.1117" lon="4.1657">
        <ele>243</ele>
        <time>2017-04-09T07:33:54Z</time>
      </trkpt>
      <trkpt lat="50.11176" lon="4.16575">
        <ele>244</ele>
        <time>2017-04-09T07:33:56Z</time>
      </trkpt>
      <trkpt lat="50.11194" lon="4.16587">
        <ele>240</ele>
        <time>2017-04-09T07:34:01Z</time>
      </trkpt>
      <trkpt lat="50.11212" lon="4.166">
        <ele>239</ele>
        <time>2017-04-09T07:34:06Z</time>
      </trkpt>
      <trkpt lat="50.11231" lon="4.16618">
        <ele>237</ele>
        <time>2017-04-09T07:34:11Z</time>
      </trkpt>
      <trkpt lat="50.11252" lon="4.16631">
        <ele>241</ele>
        <time>2017-04-09T07:34:16Z</time>
      </trkpt>
      <trkpt lat="50.11272" lon="4.16633">
        <ele>248</ele>
        <time>2017-04-09T07:34:21Z</time>
      </trkpt>
      <trkpt lat="50.11313" lon="4.16662">
        <ele>236</ele>
        <time>2017-04-09T07:34:30Z</time>
      </trkpt>
      <trkpt lat="50.11317" lon="4.16664">
        <ele>237</ele>
        <time>2017-04-09T07:34:31Z</time>
      </trkpt>
      <trkpt lat="50.11338" lon="4.16671">
        <ele>231</ele>
        <time>2017-04-09T07:34:36Z</time>
      </trkpt>
      <trkpt lat="50.1139" lon="4.16684">
        <ele>241</ele>
        <time>2017-04-09T07:34:45Z</time>
      </trkpt>
      <trkpt lat="50.11409" lon="4.16708">
        <ele>232</ele>
        <time>2017-04-09T07:34:49Z</time>
      </trkpt>
      <trkpt lat="50.11418" lon="4.16718">
        <ele>230</ele>
        <time>2017-04-09T07:34:51Z</time>
      </trkpt>
      <trkpt lat="50.11445" lon="4.1675">
        <ele>230</ele>
        <time>2017-04-09T07:34:58Z</time>
      </trkpt>
      <trkpt lat="50.11457" lon="4.16761">
        <ele>230</ele>
        <time>2017-04-09T07:35:01Z</time>
      </trkpt>
      <trkpt lat="50.1149" lon="4.16786">
        <ele>229</ele>
        <time>2017-04-09T07:35:09Z</time>
      </trkpt>
      <trkpt lat="50.11503" lon="4.16792">
        <ele>229</ele>
        <time>2017-04-09T07:35:12Z</time>
      </trkpt>
      <trkpt lat="50.11523" lon="4.16794">
        <ele>226</ele>
        <time>2017-04-09T07:35:16Z</time>
      </trkpt>
      <trkpt lat="50.11553" lon="4.16792">
        <ele>224</ele>
        <time>2017-04-09T07:35:21Z</time>
      </trkpt>
      <trkpt lat="50.11604" lon="4.16787">
        <ele>221</ele>
        <time>2017-04-09T07:35:28Z</time>
      </trkpt>
      <trkpt lat="50.11629" lon="4.16786">
        <ele>219</ele>
        <time>2017-04-09T07:35:31Z</time>
      </trkpt>
      <trkpt lat="50.11656" lon="4.16787">
        <ele>215</ele>
        <time>2017-04-09T07:35:36Z</time>
      </trkpt>
      <trkpt lat="50.11681" lon="4.16788">
        <ele>214</ele>
        <time>2017-04-09T07:35:41Z</time>
      </trkpt>
      <trkpt lat="50.11698" lon="4.16786">
        <ele>210</ele>
        <time>2017-04-09T07:35:46Z</time>
      </trkpt>
      <trkpt lat="50.11721" lon="4.16782">
        <ele>209</ele>
        <time>2017-04-09T07:35:51Z</time>
      </trkpt>
      <trkpt lat="50.11745" lon="4.16779">
        <ele>204</ele>
        <time>2017-04-09T07:35:57Z</time>
      </trkpt>
      <trkpt lat="50.11753" lon="4.16776">
        <ele>201</ele>
        <time>2017-04-09T07:36:01Z</time>
      </trkpt>
      <trkpt lat="50.11768" lon="4.16768">
        <ele>200</ele>
        <time>2017-04-09T07:36:06Z</time>
      </trkpt>
      <trkpt lat="50.11807" lon="4.16747">
        <ele>193</ele>
        <time>2017-04-09T07:36:15Z</time>
      </trkpt>
      <trkpt lat="50.11811" lon="4.16747">
        <ele>193</ele>
        <time>2017-04-09T07:36:16Z</time>
      </trkpt>
      <trkpt lat="50.11834" lon="4.1674">
        <ele>192</ele>
        <time>2017-04-09T07:36:23Z</time>
      </trkpt>
      <trkpt lat="50.11843" lon="4.16742">
        <ele>190</ele>
        <time>2017-04-09T07:36:26Z</time>
      </trkpt>
      <trkpt lat="50.11859" lon="4.16799">
        <ele>182</ele>
        <time>2017-04-09T07:36:35Z</time>
      </trkpt>
      <trkpt lat="50.1186" lon="4.16807">
        <ele>183</ele>
        <time>2017-04-09T07:36:36Z</time>
      </trkpt>
      <trkpt lat="50.11868" lon="4.16848">
        <ele>182</ele>
        <time>2017-04-09T07:36:41Z</time>
      </trkpt>
      <trkpt lat="50.11871" lon="4.16881">
        <ele>181</ele>
        <time>2017-04-09T07:36:46Z</time>
      </trkpt>
      <trkpt lat="50.11879" lon="4.16917">
        <ele>180</ele>
        <time>2017-04-09T07:36:51Z</time>
      </trkpt>
      <trkpt lat="50.11895" lon="4.16954">
        <ele>177</ele>
        <time>2017-04-09T07:36:56Z</time>
      </trkpt>
      <trkpt lat="50.11921" lon="4.16981">
        <ele>175</ele>
        <time>2017-04-09T07:37:01Z</time>
      </trkpt>
      <trkpt lat="50.11943" lon="4.16997">
        <ele>177</ele>
        <time>2017-04-09T07:37:06Z</time>
      </trkpt>
      <trkpt lat="50.11964" lon="4.17003">
        <ele>178</ele>
        <time>2017-04-09T07:37:11Z</time>
      </trkpt>
      <trkpt lat="50.11978" lon="4.17026">
        <ele>179</ele>
        <time>2017-04-09T07:37:16Z</time>
      </trkpt>
      <trkpt lat="50.1202" lon="4.17041">
        <ele>176</ele>
        <time>2017-04-09T07:37:24Z</time>
      </trkpt>
      <trkpt lat="50.12029" lon="4.17037">
        <ele>177</ele>
        <time>2017-04-09T07:37:26Z</time>
      </trkpt>
      <trkpt lat="50.12054" lon="4.17032">
        <ele>178</ele>
        <time>2017-04-09T07:37:32Z</time>
      </trkpt>
      <trkpt lat="50.12068" lon="4.17041">
        <ele>179</ele>
        <time>2017-04-09T07:37:40Z</time>
      </trkpt>
      <trkpt lat="50.12067" lon="4.17042">
        <ele>179</ele>
        <time>2017-04-09T07:37:41Z</time>
      </trkpt>
      <trkpt lat="50.12066" lon="4.17045">
        <ele>178</ele>
        <time>2017-04-09T07:37:46Z</time>
      </trkpt>
      <trkpt lat="50.12066" lon="4.17046">
        <ele>179</ele>
        <time>2017-04-09T07:37:51Z</time>
      </trkpt>
      <trkpt lat="50.12069" lon="4.1705">
        <ele>180</ele>
        <time>2017-04-09T07:37:56Z</time>
      </trkpt>
      <trkpt lat="50.12079" lon="4.17072">
        <ele>181</ele>
        <time>2017-04-09T07:38:05Z</time>
      </trkpt>
      <trkpt lat="50.12079" lon="4.17075">
        <ele>181</ele>
        <time>2017-04-09T07:38:06Z</time>
      </trkpt>
      <trkpt lat="50.1208" lon="4.17094">
        <ele>181</ele>
        <time>2017-04-09T07:38:11Z</time>
      </trkpt>
      <trkpt lat="50.12082" lon="4.17112">
        <ele>182</ele>
        <time>2017-04-09T07:38:16Z</time>
      </trkpt>
      <trkpt lat="50.12086" lon="4.17132">
        <ele>181</ele>
        <time>2017-04-09T07:38:22Z</time>
      </trkpt>
      <trkpt lat="50.12085" lon="4.17146">
        <ele>181</ele>
        <time>2017-04-09T07:38:26Z</time>
      </trkpt>
      <trkpt lat="50.12083" lon="4.17166">
        <ele>181</ele>
        <time>2017-04-09T07:38:31Z</time>
      </trkpt>
      <trkpt lat="50.12081" lon="4.17194">
        <ele>182</ele>
        <time>2017-04-09T07:38:37Z</time>
      </trkpt>
      <trkpt lat="50.1208" lon="4.17208">
        <ele>182</ele>
        <time>2017-04-09T07:38:41Z</time>
      </trkpt>
      <trkpt lat="50.12086" lon="4.17219">
        <ele>182</ele>
        <time>2017-04-09T07:38:46Z</time>
      </trkpt>
      <trkpt lat="50.12089" lon="4.17221">
        <ele>184</ele>
        <time>2017-04-09T07:38:51Z</time>
      </trkpt>
      <trkpt lat="50.12093" lon="4.17223">
        <ele>186</ele>
        <time>2017-04-09T07:38:56Z</time>
      </trkpt>
      <trkpt lat="50.12098" lon="4.17227">
        <ele>188</ele>
        <time>2017-04-09T07:39:01Z</time>
      </trkpt>
      <trkpt lat="50.12102" lon="4.17233">
        <ele>191</ele>
        <time>2017-04-09T07:39:07Z</time>
      </trkpt>
      <trkpt lat="50.12105" lon="4.17235">
        <ele>193</ele>
        <time>2017-04-09T07:39:12Z</time>
      </trkpt>
      <trkpt lat="50.12108" lon="4.17237">
        <ele>197</ele>
        <time>2017-04-09T07:39:16Z</time>
      </trkpt>
      <trkpt lat="50.12109" lon="4.17237">
        <ele>199</ele>
        <time>2017-04-09T07:39:21Z</time>
      </trkpt>
      <trkpt lat="50.12111" lon="4.17238">
        <ele>197</ele>
        <time>2017-04-09T07:39:26Z</time>
      </trkpt>
      <trkpt lat="50.12116" lon="4.17243">
        <ele>198</ele>
        <time>2017-04-09T07:39:34Z</time>
      </trkpt>
      <trkpt lat="50.12118" lon="4.17244">
        <ele>199</ele>
        <time>2017-04-09T07:39:36Z</time>
      </trkpt>
      <trkpt lat="50.12124" lon="4.17249">
        <ele>203</ele>
        <time>2017-04-09T07:39:42Z</time>
      </trkpt>
      <trkpt lat="50.12128" lon="4.17257">
        <ele>204</ele>
        <time>2017-04-09T07:39:50Z</time>
      </trkpt>
      <trkpt lat="50.12129" lon="4.17257">
        <ele>205</ele>
        <time>2017-04-09T07:39:51Z</time>
      </trkpt>
      <trkpt lat="50.1213" lon="4.1726">
        <ele>205</ele>
        <time>2017-04-09T07:39:56Z</time>
      </trkpt>
      <trkpt lat="50.12134" lon="4.17265">
        <ele>205</ele>
        <time>2017-04-09T07:40:01Z</time>
      </trkpt>
      <trkpt lat="50.12138" lon="4.1727">
        <ele>208</ele>
        <time>2017-04-09T07:40:06Z</time>
      </trkpt>
      <trkpt lat="50.1214" lon="4.17273">
        <ele>208</ele>
        <time>2017-04-09T07:40:11Z</time>
      </trkpt>
      <trkpt lat="50.12143" lon="4.17276">
        <ele>208</ele>
        <time>2017-04-09T07:40:18Z</time>
      </trkpt>
      <trkpt lat="50.12144" lon="4.17279">
        <ele>206</ele>
        <time>2017-04-09T07:40:23Z</time>
      </trkpt>
      <trkpt lat="50.12148" lon="4.17283">
        <ele>207</ele>
        <time>2017-04-09T07:40:26Z</time>
      </trkpt>
      <trkpt lat="50.12155" lon="4.17292">
        <ele>205</ele>
        <time>2017-04-09T07:40:33Z</time>
      </trkpt>
      <trkpt lat="50.12157" lon="4.17296">
        <ele>207</ele>
        <time>2017-04-09T07:40:37Z</time>
      </trkpt>
      <trkpt lat="50.12164" lon="4.17302">
        <ele>210</ele>
        <time>2017-04-09T07:40:41Z</time>
      </trkpt>
      <trkpt lat="50.12171" lon="4.17309">
        <ele>208</ele>
        <time>2017-04-09T07:40:46Z</time>
      </trkpt>
      <trkpt lat="50.1218" lon="4.17317">
        <ele>209</ele>
        <time>2017-04-09T07:40:53Z</time>
      </trkpt>
      <trkpt lat="50.12182" lon="4.1732">
        <ele>209</ele>
        <time>2017-04-09T07:40:56Z</time>
      </trkpt>
      <trkpt lat="50.12186" lon="4.17325">
        <ele>209</ele>
        <time>2017-04-09T07:41:01Z</time>
      </trkpt>
      <trkpt lat="50.12196" lon="4.17333">
        <ele>213</ele>
        <time>2017-04-09T07:41:09Z</time>
      </trkpt>
      <trkpt lat="50.12199" lon="4.17336">
        <ele>212</ele>
        <time>2017-04-09T07:41:11Z</time>
      </trkpt>
      <trkpt lat="50.12204" lon="4.17339">
        <ele>215</ele>
        <time>2017-04-09T07:41:16Z</time>
      </trkpt>
      <trkpt lat="50.1221" lon="4.17343">
        <ele>215</ele>
        <time>2017-04-09T07:41:21Z</time>
      </trkpt>
      <trkpt lat="50.12216" lon="4.17351">
        <ele>214</ele>
        <time>2017-04-09T07:41:26Z</time>
      </trkpt>
      <trkpt lat="50.12223" lon="4.17359">
        <ele>214</ele>
        <time>2017-04-09T07:41:31Z</time>
      </trkpt>
      <trkpt lat="50.1223" lon="4.17367">
        <ele>216</ele>
        <time>2017-04-09T07:41:36Z</time>
      </trkpt>
      <trkpt lat="50.12239" lon="4.17375">
        <ele>219</ele>
        <time>2017-04-09T07:41:42Z</time>
      </trkpt>
      <trkpt lat="50.12245" lon="4.17381">
        <ele>220</ele>
        <time>2017-04-09T07:41:46Z</time>
      </trkpt>
      <trkpt lat="50.12251" lon="4.17389">
        <ele>220</ele>
        <time>2017-04-09T07:41:51Z</time>
      </trkpt>
      <trkpt lat="50.12258" lon="4.17399">
        <ele>220</ele>
        <time>2017-04-09T07:41:56Z</time>
      </trkpt>
      <trkpt lat="50.12263" lon="4.17411">
        <ele>219</ele>
        <time>2017-04-09T07:42:01Z</time>
      </trkpt>
      <trkpt lat="50.12273" lon="4.17421">
        <ele>218</ele>
        <time>2017-04-09T07:42:09Z</time>
      </trkpt>
      <trkpt lat="50.12273" lon="4.17421">
        <ele>218</ele>
        <time>2017-04-09T07:42:11Z</time>
      </trkpt>
      <trkpt lat="50.12272" lon="4.17421">
        <ele>219</ele>
        <time>2017-04-09T07:42:16Z</time>
      </trkpt>
      <trkpt lat="50.12272" lon="4.17421">
        <ele>220</ele>
        <time>2017-04-09T07:42:21Z</time>
      </trkpt>
      <trkpt lat="50.12271" lon="4.17422">
        <ele>219</ele>
        <time>2017-04-09T07:42:26Z</time>
      </trkpt>
      <trkpt lat="50.12271" lon="4.17422">
        <ele>219</ele>
        <time>2017-04-09T07:42:31Z</time>
      </trkpt>
      <trkpt lat="50.12271" lon="4.17422">
        <ele>219</ele>
        <time>2017-04-09T07:42:36Z</time>
      </trkpt>
      <trkpt lat="50.12271" lon="4.17423">
        <ele>219</ele>
        <time>2017-04-09T07:42:41Z</time>
      </trkpt>
      <trkpt lat="50.12271" lon="4.17423">
        <ele>219</ele>
        <time>2017-04-09T07:42:46Z</time>
      </trkpt>
      <trkpt lat="50.12271" lon="4.17423">
        <ele>219</ele>
        <time>2017-04-09T07:42:52Z</time>
      </trkpt>
      <trkpt lat="50.12272" lon="4.17423">
        <ele>219</ele>
        <time>2017-04-09T07:42:56Z</time>
      </trkpt>
      <trkpt lat="50.12272" lon="4.17423">
        <ele>219</ele>
        <time>2017-04-09T07:43:01Z</time>
      </trkpt>
      <trkpt lat="50.12272" lon="4.17423">
        <ele>219</ele>
        <time>2017-04-09T07:43:06Z</time>
      </trkpt>
      <trkpt lat="50.12272" lon="4.17423">
        <ele>219</ele>
        <time>2017-04-09T07:43:11Z</time>
      </trkpt>
      <trkpt lat="50.12272" lon="4.17423">
        <ele>219</ele>
        <time>2017-04-09T07:43:16Z</time>
      </trkpt>
      <trkpt lat="50.12272" lon="4.17423">
        <ele>219</ele>
        <time>2017-04-09T07:43:21Z</time>
      </trkpt>
      <trkpt lat="50.12272" lon="4.17423">
        <ele>219</ele>
        <time>2017-04-09T07:43:26Z</time>
      </trkpt>
      <trkpt lat="50.12272" lon="4.17423">
        <ele>219</ele>
        <time>2017-04-09T07:43:35Z</time>
      </trkpt>
      <trkpt lat="50.12272" lon="4.17423">
        <ele>219</ele>
        <time>2017-04-09T07:43:36Z</time>
      </trkpt>
      <trkpt lat="50.12272" lon="4.17423">
        <ele>219</ele>
        <time>2017-04-09T07:43:42Z</time>
      </trkpt>
      <trkpt lat="50.12272" lon="4.17423">
        <ele>219</ele>
        <time>2017-04-09T07:43:46Z</time>
      </trkpt>
      <trkpt lat="50.12272" lon="4.17423">
        <ele>219</ele>
        <time>2017-04-09T07:43:52Z</time>
      </trkpt>
      <trkpt lat="50.12272" lon="4.17423">
        <ele>219</ele>
        <time>2017-04-09T07:43:56Z</time>
      </trkpt>
      <trkpt lat="50.12272" lon="4.17422">
        <ele>219</ele>
        <time>2017-04-09T07:44:04Z</time>
      </trkpt>
      <trkpt lat="50.12272" lon="4.17422">
        <ele>219</ele>
        <time>2017-04-09T07:44:06Z</time>
      </trkpt>
      <trkpt lat="50.12272" lon="4.17423">
        <ele>219</ele>
        <time>2017-04-09T07:44:13Z</time>
      </trkpt>
      <trkpt lat="50.12272" lon="4.17423">
        <ele>219</ele>
        <time>2017-04-09T07:44:17Z</time>
      </trkpt>
      <trkpt lat="50.12272" lon="4.17423">
        <ele>219</ele>
        <time>2017-04-09T07:44:21Z</time>
      </trkpt>
      <trkpt lat="50.12272" lon="4.17423">
        <ele>219</ele>
        <time>2017-04-09T07:44:26Z</time>
      </trkpt>
      <trkpt lat="50.12272" lon="4.17423">
        <ele>219</ele>
        <time>2017-04-09T07:44:31Z</time>
      </trkpt>
      <trkpt lat="50.12272" lon="4.17423">
        <ele>219</ele>
        <time>2017-04-09T07:44:36Z</time>
      </trkpt>
      <trkpt lat="50.12272" lon="4.17423">
        <ele>219</ele>
        <time>2017-04-09T07:44:41Z</time>
      </trkpt>
      <trkpt lat="50.12272" lon="4.17423">
        <ele>219</ele>
        <time>2017-04-09T07:44:46Z</time>
      </trkpt>
      <trkpt lat="50.12272" lon="4.17423">
        <ele>219</ele>
        <time>2017-04-09T07:44:51Z</time>
      </trkpt>
      <trkpt lat="50.12272" lon="4.17423">
        <ele>219</ele>
        <time>2017-04-09T07:44:58Z</time>
      </trkpt>
      <trkpt lat="50.12272" lon="4.17423">
        <ele>219</ele>
        <time>2017-04-09T07:45:01Z</time>
      </trkpt>
      <trkpt lat="50.12272" lon="4.17423">
        <ele>219</ele>
        <time>2017-04-09T07:45:07Z</time>
      </trkpt>
      <trkpt lat="50.12272" lon="4.17423">
        <ele>219</ele>
        <time>2017-04-09T07:45:13Z</time>
      </trkpt>
      <trkpt lat="50.12272" lon="4.17423">
        <ele>219</ele>
        <time>2017-04-09T07:45:16Z</time>
      </trkpt>
      <trkpt lat="50.12272" lon="4.17423">
        <ele>219</ele>
        <time>2017-04-09T07:45:22Z</time>
      </trkpt>
      <trkpt lat="50.12272" lon="4.17423">
        <ele>219</ele>
        <time>2017-04-09T07:45:26Z</time>
      </trkpt>
      <trkpt lat="50.12272" lon="4.17423">
        <ele>219</ele>
        <time>2017-04-09T07:45:31Z</time>
      </trkpt>
      <trkpt lat="50.12272" lon="4.17423">
        <ele>219</ele>
        <time>2017-04-09T07:45:36Z</time>
      </trkpt>
      <trkpt lat="50.12272" lon="4.17423">
        <ele>219</ele>
        <time>2017-04-09T07:45:41Z</time>
      </trkpt>
      <trkpt lat="50.12272" lon="4.17423">
        <ele>219</ele>
        <time>2017-04-09T07:45:48Z</time>
      </trkpt>
      <trkpt lat="50.12272" lon="4.17423">
        <ele>219</ele>
        <time>2017-04-09T07:45:53Z</time>
      </trkpt>
      <trkpt lat="50.12272" lon="4.17423">
        <ele>219</ele>
        <time>2017-04-09T07:45:59Z</time>
      </trkpt>
      <trkpt lat="50.12272" lon="4.17423">
        <ele>219</ele>
        <time>2017-04-09T07:46:01Z</time>
      </trkpt>
      <trkpt lat="50.12271" lon="4.17423">
        <ele>219</ele>
        <time>2017-04-09T07:46:09Z</time>
      </trkpt>
      <trkpt lat="50.12273" lon="4.17424">
        <ele>219</ele>
        <time>2017-04-09T07:46:11Z</time>
      </trkpt>
      <trkpt lat="50.12275" lon="4.17426">
        <ele>218</ele>
        <time>2017-04-09T07:46:20Z</time>
      </trkpt>
      <trkpt lat="50.12275" lon="4.17426">
        <ele>218</ele>
        <time>2017-04-09T07:46:21Z</time>
      </trkpt>
      <trkpt lat="50.12276" lon="4.17425">
        <ele>217</ele>
        <time>2017-04-09T07:46:26Z</time>
      </trkpt>
      <trkpt lat="50.12276" lon="4.17424">
        <ele>216</ele>
        <time>2017-04-09T07:46:31Z</time>
      </trkpt>
      <trkpt lat="50.12276" lon="4.17424">
        <ele>216</ele>
        <time>2017-04-09T07:46:40Z</time>
      </trkpt>
      <trkpt lat="50.12276" lon="4.17424">
        <ele>216</ele>
        <time>2017-04-09T07:46:42Z</time>
      </trkpt>
      <trkpt lat="50.12276" lon="4.17424">
        <ele>216</ele>
        <time>2017-04-09T07:46:47Z</time>
      </trkpt>
      <trkpt lat="50.12276" lon="4.17424">
        <ele>216</ele>
        <time>2017-04-09T07:46:51Z</time>
      </trkpt>
      <trkpt lat="50.12274" lon="4.17424">
        <ele>216</ele>
        <time>2017-04-09T07:46:56Z</time>
      </trkpt>
      <trkpt lat="50.12275" lon="4.17424">
        <ele>216</ele>
        <time>2017-04-09T07:47:01Z</time>
      </trkpt>
      <trkpt lat="50.12274" lon="4.17425">
        <ele>217</ele>
        <time>2017-04-09T07:47:09Z</time>
      </trkpt>
      <trkpt lat="50.12274" lon="4.17425">
        <ele>217</ele>
        <time>2017-04-09T07:47:11Z</time>
      </trkpt>
      <trkpt lat="50.12274" lon="4.17425">
        <ele>217</ele>
        <time>2017-04-09T07:47:18Z</time>
      </trkpt>
      <trkpt lat="50.12274" lon="4.17425">
        <ele>216</ele>
        <time>2017-04-09T07:47:21Z</time>
      </trkpt>
      <trkpt lat="50.12273" lon="4.17425">
        <ele>217</ele>
        <time>2017-04-09T07:47:28Z</time>
      </trkpt>
      <trkpt lat="50.12273" lon="4.17425">
        <ele>217</ele>
        <time>2017-04-09T07:47:31Z</time>
      </trkpt>
      <trkpt lat="50.12273" lon="4.17425">
        <ele>216</ele>
        <time>2017-04-09T07:47:36Z</time>
      </trkpt>
      <trkpt lat="50.12274" lon="4.17426">
        <ele>215</ele>
        <time>2017-04-09T07:47:42Z</time>
      </trkpt>
      <trkpt lat="50.12274" lon="4.17426">
        <ele>216</ele>
        <time>2017-04-09T07:47:46Z</time>
      </trkpt>
      <trkpt lat="50.12274" lon="4.17426">
        <ele>216</ele>
        <time>2017-04-09T07:47:51Z</time>
      </trkpt>
      <trkpt lat="50.12277" lon="4.17433">
        <ele>216</ele>
        <time>2017-04-09T07:47:57Z</time>
      </trkpt>
      <trkpt lat="50.12281" lon="4.1744">
        <ele>217</ele>
        <time>2017-04-09T07:48:01Z</time>
      </trkpt>
      <trkpt lat="50.12281" lon="4.17441">
        <ele>218</ele>
        <time>2017-04-09T07:48:07Z</time>
      </trkpt>
      <trkpt lat="50.12282" lon="4.17441">
        <ele>218</ele>
        <time>2017-04-09T07:48:11Z</time>
      </trkpt>
      <trkpt lat="50.12281" lon="4.17443">
        <ele>220</ele>
        <time>2017-04-09T07:48:16Z</time>
      </trkpt>
      <trkpt lat="50.1228" lon="4.17444">
        <ele>219</ele>
        <time>2017-04-09T07:48:23Z</time>
      </trkpt>
      <trkpt lat="50.1228" lon="4.17444">
        <ele>219</ele>
        <time>2017-04-09T07:48:29Z</time>
      </trkpt>
      <trkpt lat="50.1228" lon="4.17444">
        <ele>219</ele>
        <time>2017-04-09T07:48:31Z</time>
      </trkpt>
      <trkpt lat="50.1228" lon="4.17444">
        <ele>219</ele>
        <time>2017-04-09T07:48:36Z</time>
      </trkpt>
      <trkpt lat="50.1228" lon="4.17444">
        <ele>219</ele>
        <time>2017-04-09T07:48:41Z</time>
      </trkpt>
      <trkpt lat="50.1228" lon="4.17444">
        <ele>219</ele>
        <time>2017-04-09T07:48:46Z</time>
      </trkpt>
      <trkpt lat="50.1228" lon="4.17444">
        <ele>219</ele>
        <time>2017-04-09T07:48:51Z</time>
      </trkpt>
      <trkpt lat="50.1228" lon="4.17443">
        <ele>218</ele>
        <time>2017-04-09T07:48:56Z</time>
      </trkpt>
      <trkpt lat="50.1228" lon="4.17443">
        <ele>218</ele>
        <time>2017-04-09T07:49:01Z</time>
      </trkpt>
      <trkpt lat="50.1228" lon="4.17443">
        <ele>218</ele>
        <time>2017-04-09T07:49:07Z</time>
      </trkpt>
      <trkpt lat="50.1228" lon="4.17443">
        <ele>218</ele>
        <time>2017-04-09T07:49:11Z</time>
      </trkpt>
      <trkpt lat="50.1228" lon="4.17442">
        <ele>219</ele>
        <time>2017-04-09T07:49:16Z</time>
      </trkpt>
      <trkpt lat="50.12282" lon="4.17443">
        <ele>220</ele>
        <time>2017-04-09T07:49:21Z</time>
      </trkpt>
      <trkpt lat="50.12282" lon="4.17443">
        <ele>220</ele>
        <time>2017-04-09T07:49:26Z</time>
      </trkpt>
      <trkpt lat="50.12282" lon="4.17442">
        <ele>219</ele>
        <time>2017-04-09T07:49:31Z</time>
      </trkpt>
      <trkpt lat="50.12282" lon="4.17442">
        <ele>218</ele>
        <time>2017-04-09T07:49:36Z</time>
      </trkpt>
      <trkpt lat="50.12282" lon="4.17442">
        <ele>218</ele>
        <time>2017-04-09T07:49:45Z</time>
      </trkpt>
      <trkpt lat="50.12282" lon="4.17443">
        <ele>219</ele>
        <time>2017-04-09T07:49:46Z</time>
      </trkpt>
      <trkpt lat="50.12283" lon="4.17445">
        <ele>220</ele>
        <time>2017-04-09T07:49:51Z</time>
      </trkpt>
      <trkpt lat="50.12283" lon="4.17444">
        <ele>220</ele>
        <time>2017-04-09T07:49:56Z</time>
      </trkpt>
      <trkpt lat="50.12284" lon="4.17444">
        <ele>220</ele>
        <time>2017-04-09T07:50:01Z</time>
      </trkpt>
      <trkpt lat="50.12284" lon="4.17444">
        <ele>220</ele>
        <time>2017-04-09T07:50:06Z</time>
      </trkpt>
      <trkpt lat="50.12284" lon="4.17444">
        <ele>220</ele>
        <time>2017-04-09T07:50:11Z</time>
      </trkpt>
      <trkpt lat="50.12284" lon="4.17444">
        <ele>220</ele>
        <time>2017-04-09T07:50:17Z</time>
      </trkpt>
      <trkpt lat="50.12284" lon="4.17444">
        <ele>220</ele>
        <time>2017-04-09T07:50:25Z</time>
      </trkpt>
      <trkpt lat="50.12284" lon="4.17444">
        <ele>220</ele>
        <time>2017-04-09T07:50:27Z</time>
      </trkpt>
      <trkpt lat="50.12284" lon="4.17444">
        <ele>220</ele>
        <time>2017-04-09T07:50:31Z</time>
      </trkpt>
      <trkpt lat="50.12283" lon="4.17443">
        <ele>218</ele>
        <time>2017-04-09T07:50:39Z</time>
      </trkpt>
      <trkpt lat="50.12282" lon="4.17443">
        <ele>218</ele>
        <time>2017-04-09T07:50:41Z</time>
      </trkpt>
      <trkpt lat="50.12282" lon="4.17442">
        <ele>216</ele>
        <time>2017-04-09T07:50:47Z</time>
      </trkpt>
      <trkpt lat="50.12282" lon="4.17442">
        <ele>216</ele>
        <time>2017-04-09T07:50:51Z</time>
      </trkpt>
      <trkpt lat="50.12282" lon="4.17442">
        <ele>216</ele>
        <time>2017-04-09T07:50:57Z</time>
      </trkpt>
      <trkpt lat="50.12282" lon="4.17442">
        <ele>216</ele>
        <time>2017-04-09T07:51:01Z</time>
      </trkpt>
      <trkpt lat="50.12282" lon="4.17442">
        <ele>216</ele>
        <time>2017-04-09T07:51:06Z</time>
      </trkpt>
      <trkpt lat="50.12282" lon="4.17442">
        <ele>216</ele>
        <time>2017-04-09T07:51:11Z</time>
      </trkpt>
      <trkpt lat="50.12282" lon="4.17442">
        <ele>216</ele>
        <time>2017-04-09T07:51:19Z</time>
      </trkpt>
      <trkpt lat="50.12282" lon="4.17442">
        <ele>216</ele>
        <time>2017-04-09T07:51:22Z</time>
      </trkpt>
      <trkpt lat="50.12282" lon="4.17442">
        <ele>216</ele>
        <time>2017-04-09T07:51:26Z</time>
      </trkpt>
      <trkpt lat="50.12282" lon="4.17442">
        <ele>216</ele>
        <time>2017-04-09T07:51:33Z</time>
      </trkpt>
      <trkpt lat="50.12282" lon="4.17442">
        <ele>216</ele>
        <time>2017-04-09T07:51:36Z</time>
      </trkpt>
      <trkpt lat="50.12282" lon="4.17442">
        <ele>216</ele>
        <time>2017-04-09T07:51:41Z</time>
      </trkpt>
      <trkpt lat="50.12282" lon="4.17442">
        <ele>216</ele>
        <time>2017-04-09T07:51:46Z</time>
      </trkpt>
      <trkpt lat="50.12282" lon="4.17442">
        <ele>216</ele>
        <time>2017-04-09T07:51:55Z</time>
      </trkpt>
      <trkpt lat="50.12282" lon="4.17442">
        <ele>215</ele>
        <time>2017-04-09T07:51:56Z</time>
      </trkpt>
      <trkpt lat="50.12282" lon="4.17442">
        <ele>214</ele>
        <time>2017-04-09T07:52:01Z</time>
      </trkpt>
      <trkpt lat="50.12281" lon="4.17442">
        <ele>214</ele>
        <time>2017-04-09T07:52:06Z</time>
      </trkpt>
      <trkpt lat="50.12282" lon="4.17441">
        <ele>214</ele>
        <time>2017-04-09T07:52:15Z</time>
      </trkpt>
      <trkpt lat="50.12282" lon="4.17441">
        <ele>214</ele>
        <time>2017-04-09T07:52:16Z</time>
      </trkpt>
      <trkpt lat="50.12282" lon="4.17441">
        <ele>214</ele>
        <time>2017-04-09T07:52:25Z</time>
      </trkpt>
      <trkpt lat="50.12282" lon="4.17441">
        <ele>214</ele>
        <time>2017-04-09T07:52:29Z</time>
      </trkpt>
      <trkpt lat="50.12282" lon="4.17441">
        <ele>214</ele>
        <time>2017-04-09T07:52:31Z</time>
      </trkpt>
      <trkpt lat="50.12283" lon="4.17442">
        <ele>215</ele>
        <time>2017-04-09T07:52:36Z</time>
      </trkpt>
      <trkpt lat="50.12283" lon="4.1744">
        <ele>215</ele>
        <time>2017-04-09T07:52:44Z</time>
      </trkpt>
      <trkpt lat="50.12283" lon="4.17441">
        <ele>215</ele>
        <time>2017-04-09T07:52:47Z</time>
      </trkpt>
      <trkpt lat="50.12283" lon="4.17441">
        <ele>215</ele>
        <time>2017-04-09T07:52:51Z</time>
      </trkpt>
      <trkpt lat="50.12283" lon="4.1744">
        <ele>215</ele>
        <time>2017-04-09T07:52:56Z</time>
      </trkpt>
      <trkpt lat="50.12283" lon="4.17441">
        <ele>216</ele>
        <time>2017-04-09T07:53:01Z</time>
      </trkpt>
      <trkpt lat="50.12283" lon="4.1744">
        <ele>216</ele>
        <time>2017-04-09T07:53:06Z</time>
      </trkpt>
      <trkpt lat="50.12283" lon="4.1744">
        <ele>216</ele>
        <time>2017-04-09T07:53:11Z</time>
      </trkpt>
      <trkpt lat="50.12283" lon="4.1744">
        <ele>216</ele>
        <time>2017-04-09T07:53:17Z</time>
      </trkpt>
      <trkpt lat="50.12283" lon="4.1744">
        <ele>216</ele>
        <time>2017-04-09T07:53:21Z</time>
      </trkpt>
      <trkpt lat="50.12283" lon="4.1744">
        <ele>216</ele>
        <time>2017-04-09T07:53:26Z</time>
      </trkpt>
      <trkpt lat="50.12283" lon="4.1744">
        <ele>216</ele>
        <time>2017-04-09T07:53:31Z</time>
      </trkpt>
      <trkpt lat="50.12283" lon="4.1744">
        <ele>216</ele>
        <time>2017-04-09T07:53:38Z</time>
      </trkpt>
      <trkpt lat="50.12283" lon="4.1744">
        <ele>216</ele>
        <time>2017-04-09T07:53:45Z</time>
      </trkpt>
      <trkpt lat="50.12283" lon="4.1744">
        <ele>216</ele>
        <time>2017-04-09T07:53:46Z</time>
      </trkpt>
      <trkpt lat="50.12283" lon="4.1744">
        <ele>216</ele>
        <time>2017-04-09T07:53:51Z</time>
      </trkpt>
      <trkpt lat="50.12283" lon="4.1744">
        <ele>216</ele>
        <time>2017-04-09T07:53:56Z</time>
      </trkpt>
      <trkpt lat="50.12283" lon="4.1744">
        <ele>216</ele>
        <time>2017-04-09T07:54:01Z</time>
      </trkpt>
      <trkpt lat="50.12284" lon="4.17439">
        <ele>216</ele>
        <time>2017-04-09T07:54:06Z</time>
      </trkpt>
      <trkpt lat="50.12284" lon="4.17439">
        <ele>216</ele>
        <time>2017-04-09T07:54:11Z</time>
      </trkpt>
      <trkpt lat="50.12284" lon="4.17439">
        <ele>216</ele>
        <time>2017-04-09T07:54:20Z</time>
      </trkpt>
      <trkpt lat="50.12284" lon="4.17439">
        <ele>216</ele>
        <time>2017-04-09T07:54:21Z</time>
      </trkpt>
      <trkpt lat="50.12284" lon="4.17439">
        <ele>216</ele>
        <time>2017-04-09T07:54:26Z</time>
      </trkpt>
      <trkpt lat="50.12284" lon="4.17439">
        <ele>216</ele>
        <time>2017-04-09T07:54:31Z</time>
      </trkpt>
      <trkpt lat="50.12284" lon="4.1744">
        <ele>217</ele>
        <time>2017-04-09T07:54:36Z</time>
      </trkpt>
      <trkpt lat="50.12284" lon="4.1744">
        <ele>217</ele>
        <time>2017-04-09T07:54:41Z</time>
      </trkpt>
      <trkpt lat="50.12284" lon="4.17441">
        <ele>217</ele>
        <time>2017-04-09T07:54:46Z</time>
      </trkpt>
      <trkpt lat="50.12284" lon="4.17441">
        <ele>218</ele>
        <time>2017-04-09T07:54:51Z</time>
      </trkpt>
      <trkpt lat="50.12284" lon="4.17441">
        <ele>217</ele>
        <time>2017-04-09T07:54:56Z</time>
      </trkpt>
      <trkpt lat="50.12284" lon="4.17442">
        <ele>216</ele>
        <time>2017-04-09T07:55:01Z</time>
      </trkpt>
      <trkpt lat="50.12284" lon="4.17441">
        <ele>216</ele>
        <time>2017-04-09T07:55:06Z</time>
      </trkpt>
      <trkpt lat="50.12283" lon="4.1744">
        <ele>217</ele>
        <time>2017-04-09T07:55:11Z</time>
      </trkpt>
      <trkpt lat="50.12283" lon="4.1744">
        <ele>217</ele>
        <time>2017-04-09T07:55:16Z</time>
      </trkpt>
      <trkpt lat="50.12283" lon="4.1744">
        <ele>217</ele>
        <time>2017-04-09T07:55:21Z</time>
      </trkpt>
      <trkpt lat="50.12283" lon="4.1744">
        <ele>217</ele>
        <time>2017-04-09T07:55:26Z</time>
      </trkpt>
      <trkpt lat="50.12283" lon="4.1744">
        <ele>217</ele>
        <time>2017-04-09T07:55:31Z</time>
      </trkpt>
      <trkpt lat="50.12283" lon="4.1744">
        <ele>217</ele>
        <time>2017-04-09T07:55:36Z</time>
      </trkpt>
      <trkpt lat="50.12283" lon="4.1744">
        <ele>217</ele>
        <time>2017-04-09T07:55:41Z</time>
      </trkpt>
      <trkpt lat="50.12282" lon="4.1744">
        <ele>217</ele>
        <time>2017-04-09T07:55:46Z</time>
      </trkpt>
      <trkpt lat="50.12282" lon="4.1744">
        <ele>216</ele>
        <time>2017-04-09T07:55:51Z</time>
      </trkpt>
      <trkpt lat="50.12282" lon="4.1744">
        <ele>217</ele>
        <time>2017-04-09T07:55:56Z</time>
      </trkpt>
      <trkpt lat="50.12282" lon="4.1744">
        <ele>217</ele>
        <time>2017-04-09T07:56:01Z</time>
      </trkpt>
      <trkpt lat="50.12283" lon="4.1744">
        <ele>217</ele>
        <time>2017-04-09T07:56:06Z</time>
      </trkpt>
      <trkpt lat="50.12283" lon="4.1744">
        <ele>218</ele>
        <time>2017-04-09T07:56:11Z</time>
      </trkpt>
      <trkpt lat="50.12283" lon="4.17441">
        <ele>218</ele>
        <time>2017-04-09T07:56:16Z</time>
      </trkpt>
      <trkpt lat="50.12283" lon="4.17441">
        <ele>218</ele>
        <time>2017-04-09T07:56:21Z</time>
      </trkpt>
      <trkpt lat="50.12283" lon="4.17441">
        <ele>218</ele>
        <time>2017-04-09T07:56:26Z</time>
      </trkpt>
      <trkpt lat="50.12283" lon="4.17441">
        <ele>218</ele>
        <time>2017-04-09T07:56:31Z</time>
      </trkpt>
      <trkpt lat="50.12283" lon="4.17441">
        <ele>218</ele>
        <time>2017-04-09T07:56:36Z</time>
      </trkpt>
      <trkpt lat="50.12283" lon="4.17441">
        <ele>218</ele>
        <time>2017-04-09T07:56:41Z</time>
      </trkpt>
      <trkpt lat="50.12283" lon="4.17441">
        <ele>218</ele>
        <time>2017-04-09T07:56:46Z</time>
      </trkpt>
      <trkpt lat="50.12283" lon="4.17441">
        <ele>219</ele>
        <time>2017-04-09T07:56:51Z</time>
      </trkpt>
      <trkpt lat="50.12283" lon="4.17441">
        <ele>218</ele>
        <time>2017-04-09T07:56:56Z</time>
      </trkpt>
      <trkpt lat="50.12283" lon="4.17441">
        <ele>219</ele>
        <time>2017-04-09T07:57:01Z</time>
      </trkpt>
      <trkpt lat="50.12283" lon="4.17441">
        <ele>219</ele>
        <time>2017-04-09T07:57:07Z</time>
      </trkpt>
      <trkpt lat="50.12283" lon="4.17441">
        <ele>219</ele>
        <time>2017-04-09T07:57:11Z</time>
      </trkpt>
      <trkpt lat="50.12283" lon="4.17441">
        <ele>219</ele>
        <time>2017-04-09T07:57:17Z</time>
      </trkpt>
      <trkpt lat="50.12283" lon="4.17441">
        <ele>219</ele>
        <time>2017-04-09T07:57:21Z</time>
      </trkpt>
      <trkpt lat="50.12283" lon="4.17441">
        <ele>219</ele>
        <time>2017-04-09T07:57:26Z</time>
      </trkpt>
      <trkpt lat="50.12283" lon="4.17441">
        <ele>218</ele>
        <time>2017-04-09T07:57:31Z</time>
      </trkpt>
      <trkpt lat="50.12283" lon="4.17441">
        <ele>218</ele>
        <time>2017-04-09T07:57:36Z</time>
      </trkpt>
      <trkpt lat="50.12283" lon="4.17441">
        <ele>218</ele>
        <time>2017-04-09T07:57:41Z</time>
      </trkpt>
      <trkpt lat="50.12283" lon="4.17441">
        <ele>218</ele>
        <time>2017-04-09T07:57:46Z</time>
      </trkpt>
      <trkpt lat="50.12283" lon="4.17441">
        <ele>219</ele>
        <time>2017-04-09T07:57:51Z</time>
      </trkpt>
      <trkpt lat="50.12282" lon="4.17442">
        <ele>218</ele>
        <time>2017-04-09T07:57:56Z</time>
      </trkpt>
      <trkpt lat="50.12281" lon="4.17443">
        <ele>217</ele>
        <time>2017-04-09T07:58:01Z</time>
      </trkpt>
      <trkpt lat="50.12281" lon="4.17443">
        <ele>217</ele>
        <time>2017-04-09T07:58:06Z</time>
      </trkpt>
      <trkpt lat="50.12281" lon="4.17443">
        <ele>217</ele>
        <time>2017-04-09T07:58:11Z</time>
      </trkpt>
      <trkpt lat="50.12281" lon="4.17443">
        <ele>216</ele>
        <time>2017-04-09T07:58:16Z</time>
      </trkpt>
      <trkpt lat="50.12281" lon="4.17443">
        <ele>217</ele>
        <time>2017-04-09T07:58:21Z</time>
      </trkpt>
      <trkpt lat="50.12281" lon="4.17443">
        <ele>217</ele>
        <time>2017-04-09T07:58:26Z</time>
      </trkpt>
      <trkpt lat="50.1228" lon="4.17445">
        <ele>217</ele>
        <time>2017-04-09T07:58:32Z</time>
      </trkpt>
      <trkpt lat="50.12281" lon="4.17445">
        <ele>218</ele>
        <time>2017-04-09T07:58:37Z</time>
      </trkpt>
      <trkpt lat="50.1228" lon="4.17443">
        <ele>218</ele>
        <time>2017-04-09T07:58:42Z</time>
      </trkpt>
      <trkpt lat="50.1228" lon="4.17442">
        <ele>217</ele>
        <time>2017-04-09T07:58:47Z</time>
      </trkpt>
      <trkpt lat="50.1228" lon="4.17441">
        <ele>218</ele>
        <time>2017-04-09T07:58:52Z</time>
      </trkpt>
      <trkpt lat="50.1228" lon="4.17441">
        <ele>218</ele>
        <time>2017-04-09T07:58:57Z</time>
      </trkpt>
      <trkpt lat="50.1228" lon="4.17441">
        <ele>218</ele>
        <time>2017-04-09T07:59:02Z</time>
      </trkpt>
      <trkpt lat="50.1228" lon="4.17441">
        <ele>218</ele>
        <time>2017-04-09T07:59:07Z</time>
      </trkpt>
      <trkpt lat="50.1228" lon="4.17441">
        <ele>219</ele>
        <time>2017-04-09T07:59:12Z</time>
      </trkpt>
      <trkpt lat="50.1228" lon="4.1744">
        <ele>219</ele>
        <time>2017-04-09T07:59:19Z</time>
      </trkpt>
      <trkpt lat="50.1228" lon="4.1744">
        <ele>219</ele>
        <time>2017-04-09T07:59:22Z</time>
      </trkpt>
      <trkpt lat="50.1228" lon="4.1744">
        <ele>219</ele>
        <time>2017-04-09T07:59:27Z</time>
      </trkpt>
      <trkpt lat="50.1228" lon="4.1744">
        <ele>219</ele>
        <time>2017-04-09T07:59:34Z</time>
      </trkpt>
      <trkpt lat="50.1228" lon="4.1744">
        <ele>219</ele>
        <time>2017-04-09T07:59:38Z</time>
      </trkpt>
      <trkpt lat="50.12282" lon="4.17438">
        <ele>216</ele>
        <time>2017-04-09T07:59:43Z</time>
      </trkpt>
      <trkpt lat="50.12282" lon="4.17437">
        <ele>217</ele>
        <time>2017-04-09T07:59:50Z</time>
      </trkpt>
      <trkpt lat="50.12282" lon="4.17437">
        <ele>215</ele>
        <time>2017-04-09T07:59:53Z</time>
      </trkpt>
      <trkpt lat="50.12282" lon="4.17437">
        <ele>216</ele>
        <time>2017-04-09T08:00:00Z</time>
      </trkpt>
      <trkpt lat="50.12282" lon="4.17437">
        <ele>215</ele>
        <time>2017-04-09T08:00:03Z</time>
      </trkpt>
      <trkpt lat="50.12283" lon="4.17437">
        <ele>216</ele>
        <time>2017-04-09T08:00:08Z</time>
      </trkpt>
      <trkpt lat="50.12283" lon="4.17438">
        <ele>215</ele>
        <time>2017-04-09T08:00:13Z</time>
      </trkpt>
      <trkpt lat="50.12283" lon="4.17438">
        <ele>215</ele>
        <time>2017-04-09T08:00:18Z</time>
      </trkpt>
      <trkpt lat="50.12283" lon="4.17439">
        <ele>216</ele>
        <time>2017-04-09T08:00:23Z</time>
      </trkpt>
      <trkpt lat="50.12283" lon="4.17439">
        <ele>216</ele>
        <time>2017-04-09T08:00:28Z</time>
      </trkpt>
      <trkpt lat="50.12283" lon="4.17439">
        <ele>215</ele>
        <time>2017-04-09T08:00:33Z</time>
      </trkpt>
      <trkpt lat="50.12283" lon="4.17439">
        <ele>216</ele>
        <time>2017-04-09T08:00:38Z</time>
      </trkpt>
      <trkpt lat="50.12282" lon="4.17438">
        <ele>216</ele>
        <time>2017-04-09T08:00:43Z</time>
      </trkpt>
      <trkpt lat="50.12282" lon="4.17438">
        <ele>218</ele>
        <time>2017-04-09T08:00:48Z</time>
      </trkpt>
      <trkpt lat="50.12282" lon="4.17438">
        <ele>217</ele>
        <time>2017-04-09T08:00:54Z</time>
      </trkpt>
      <trkpt lat="50.12283" lon="4.17439">
        <ele>217</ele>
        <time>2017-04-09T08:01:00Z</time>
      </trkpt>
      <trkpt lat="50.12283" lon="4.17439">
        <ele>218</ele>
        <time>2017-04-09T08:01:03Z</time>
      </trkpt>
      <trkpt lat="50.12283" lon="4.17439">
        <ele>219</ele>
        <time>2017-04-09T08:01:09Z</time>
      </trkpt>
      <trkpt lat="50.12283" lon="4.17439">
        <ele>220</ele>
        <time>2017-04-09T08:01:13Z</time>
      </trkpt>
      <trkpt lat="50.12283" lon="4.17439">
        <ele>221</ele>
        <time>2017-04-09T08:01:18Z</time>
      </trkpt>
      <trkpt lat="50.12283" lon="4.17439">
        <ele>221</ele>
        <time>2017-04-09T08:01:23Z</time>
      </trkpt>
      <trkpt lat="50.12284" lon="4.1744">
        <ele>220</ele>
        <time>2017-04-09T08:01:28Z</time>
      </trkpt>
      <trkpt lat="50.12285" lon="4.1744">
        <ele>221</ele>
        <time>2017-04-09T08:01:33Z</time>
      </trkpt>
      <trkpt lat="50.12286" lon="4.17441">
        <ele>221</ele>
        <time>2017-04-09T08:01:38Z</time>
      </trkpt>
      <trkpt lat="50.12286" lon="4.1744">
        <ele>221</ele>
        <time>2017-04-09T08:01:44Z</time>
      </trkpt>
      <trkpt lat="50.12286" lon="4.1744">
        <ele>222</ele>
        <time>2017-04-09T08:01:48Z</time>
      </trkpt>
      <trkpt lat="50.12286" lon="4.1744">
        <ele>222</ele>
        <time>2017-04-09T08:01:53Z</time>
      </trkpt>
      <trkpt lat="50.12286" lon="4.17441">
        <ele>221</ele>
        <time>2017-04-09T08:01:58Z</time>
      </trkpt>
      <trkpt lat="50.12286" lon="4.17441">
        <ele>221</ele>
        <time>2017-04-09T08:02:03Z</time>
      </trkpt>
      <trkpt lat="50.12285" lon="4.17442">
        <ele>220</ele>
        <time>2017-04-09T08:02:08Z</time>
      </trkpt>
      <trkpt lat="50.12284" lon="4.17443">
        <ele>220</ele>
        <time>2017-04-09T08:02:13Z</time>
      </trkpt>
      <trkpt lat="50.12284" lon="4.17445">
        <ele>218</ele>
        <time>2017-04-09T08:02:18Z</time>
      </trkpt>
      <trkpt lat="50.12285" lon="4.17446">
        <ele>217</ele>
        <time>2017-04-09T08:02:23Z</time>
      </trkpt>
      <trkpt lat="50.12285" lon="4.17445">
        <ele>217</ele>
        <time>2017-04-09T08:02:28Z</time>
      </trkpt>
      <trkpt lat="50.12285" lon="4.17445">
        <ele>217</ele>
        <time>2017-04-09T08:02:34Z</time>
      </trkpt>
      <trkpt lat="50.12285" lon="4.17445">
        <ele>217</ele>
        <time>2017-04-09T08:02:38Z</time>
      </trkpt>
      <trkpt lat="50.12285" lon="4.17445">
        <ele>217</ele>
        <time>2017-04-09T08:02:46Z</time>
      </trkpt>
      <trkpt lat="50.12285" lon="4.17445">
        <ele>217</ele>
        <time>2017-04-09T08:02:48Z</time>
      </trkpt>
      <trkpt lat="50.12285" lon="4.17445">
        <ele>217</ele>
        <time>2017-04-09T08:02:54Z</time>
      </trkpt>
      <trkpt lat="50.12285" lon="4.17445">
        <ele>217</ele>
        <time>2017-04-09T08:02:58Z</time>
      </trkpt>
      <trkpt lat="50.12285" lon="4.17445">
        <ele>217</ele>
        <time>2017-04-09T08:03:03Z</time>
      </trkpt>
      <trkpt lat="50.12285" lon="4.17445">
        <ele>217</ele>
        <time>2017-04-09T08:03:12Z</time>
      </trkpt>
      <trkpt lat="50.12285" lon="4.17445">
        <ele>217</ele>
        <time>2017-04-09T08:03:13Z</time>
      </trkpt>
      <trkpt lat="50.12285" lon="4.17445">
        <ele>217</ele>
        <time>2017-04-09T08:03:18Z</time>
      </trkpt>
      <trkpt lat="50.12285" lon="4.17445">
        <ele>217</ele>
        <time>2017-04-09T08:03:23Z</time>
      </trkpt>
      <trkpt lat="50.12285" lon="4.17445">
        <ele>217</ele>
        <time>2017-04-09T08:03:28Z</time>
      </trkpt>
      <trkpt lat="50.12285" lon="4.17446">
        <ele>215</ele>
        <time>2017-04-09T08:03:33Z</time>
      </trkpt>
      <trkpt lat="50.12283" lon="4.17446">
        <ele>220</ele>
        <time>2017-04-09T08:03:42Z</time>
      </trkpt>
      <trkpt lat="50.12283" lon="4.17445">
        <ele>220</ele>
        <time>2017-04-09T08:03:45Z</time>
      </trkpt>
      <trkpt lat="50.12283" lon="4.17445">
        <ele>220</ele>
        <time>2017-04-09T08:03:48Z</time>
      </trkpt>
      <trkpt lat="50.12283" lon="4.17445">
        <ele>220</ele>
        <time>2017-04-09T08:03:53Z</time>
      </trkpt>
      <trkpt lat="50.12283" lon="4.17445">
        <ele>220</ele>
        <time>2017-04-09T08:03:59Z</time>
      </trkpt>
      <trkpt lat="50.12283" lon="4.17445">
        <ele>220</ele>
        <time>2017-04-09T08:04:04Z</time>
      </trkpt>
      <trkpt lat="50.12283" lon="4.17446">
        <ele>219</ele>
        <time>2017-04-09T08:04:09Z</time>
      </trkpt>
      <trkpt lat="50.12282" lon="4.17445">
        <ele>219</ele>
        <time>2017-04-09T08:04:13Z</time>
      </trkpt>
      <trkpt lat="50.12282" lon="4.17445">
        <ele>220</ele>
        <time>2017-04-09T08:04:18Z</time>
      </trkpt>
      <trkpt lat="50.12281" lon="4.17445">
        <ele>220</ele>
        <time>2017-04-09T08:04:23Z</time>
      </trkpt>
      <trkpt lat="50.12281" lon="4.17445">
        <ele>222</ele>
        <time>2017-04-09T08:04:28Z</time>
      </trkpt>
      <trkpt lat="50.12281" lon="4.17445">
        <ele>222</ele>
        <time>2017-04-09T08:04:33Z</time>
      </trkpt>
      <trkpt lat="50.12282" lon="4.17446">
        <ele>221</ele>
        <time>2017-04-09T08:04:38Z</time>
      </trkpt>
      <trkpt lat="50.12283" lon="4.17446">
        <ele>220</ele>
        <time>2017-04-09T08:04:45Z</time>
      </trkpt>
      <trkpt lat="50.12284" lon="4.17443">
        <ele>219</ele>
        <time>2017-04-09T08:04:48Z</time>
      </trkpt>
      <trkpt lat="50.12284" lon="4.17444">
        <ele>220</ele>
        <time>2017-04-09T08:04:53Z</time>
      </trkpt>
      <trkpt lat="50.12283" lon="4.17445">
        <ele>220</ele>
        <time>2017-04-09T08:05:01Z</time>
      </trkpt>
      <trkpt lat="50.12283" lon="4.17445">
        <ele>220</ele>
        <time>2017-04-09T08:05:03Z</time>
      </trkpt>
      <trkpt lat="50.12283" lon="4.17443">
        <ele>220</ele>
        <time>2017-04-09T08:05:08Z</time>
      </trkpt>
      <trkpt lat="50.12283" lon="4.17442">
        <ele>219</ele>
        <time>2017-04-09T08:05:16Z</time>
      </trkpt>
      <trkpt lat="50.12283" lon="4.17442">
        <ele>219</ele>
        <time>2017-04-09T08:05:18Z</time>
      </trkpt>
      <trkpt lat="50.12286" lon="4.17448">
        <ele>220</ele>
        <time>2017-04-09T08:05:24Z</time>
      </trkpt>
      <trkpt lat="50.12291" lon="4.17457">
        <ele>220</ele>
        <time>2017-04-09T08:05:28Z</time>
      </trkpt>
      <trkpt lat="50.12298" lon="4.17469">
        <ele>220</ele>
        <time>2017-04-09T08:05:33Z</time>
      </trkpt>
      <trkpt lat="50.12306" lon="4.17482">
        <ele>218</ele>
        <time>2017-04-09T08:05:38Z</time>
      </trkpt>
      <trkpt lat="50.12313" lon="4.17494">
        <ele>218</ele>
        <time>2017-04-09T08:05:43Z</time>
      </trkpt>
      <trkpt lat="50.12323" lon="4.1751">
        <ele>217</ele>
        <time>2017-04-09T08:05:49Z</time>
      </trkpt>
      <trkpt lat="50.1233" lon="4.17524">
        <ele>217</ele>
        <time>2017-04-09T08:05:53Z</time>
      </trkpt>
      <trkpt lat="50.12338" lon="4.17542">
        <ele>217</ele>
        <time>2017-04-09T08:05:58Z</time>
      </trkpt>
      <trkpt lat="50.12346" lon="4.17558">
        <ele>218</ele>
        <time>2017-04-09T08:06:04Z</time>
      </trkpt>
      <trkpt lat="50.12353" lon="4.17574">
        <ele>219</ele>
        <time>2017-04-09T08:06:09Z</time>
      </trkpt>
      <trkpt lat="50.12359" lon="4.17589">
        <ele>219</ele>
        <time>2017-04-09T08:06:13Z</time>
      </trkpt>
      <trkpt lat="50.12366" lon="4.17611">
        <ele>220</ele>
        <time>2017-04-09T08:06:18Z</time>
      </trkpt>
      <trkpt lat="50.12372" lon="4.17631">
        <ele>220</ele>
        <time>2017-04-09T08:06:23Z</time>
      </trkpt>
      <trkpt lat="50.12377" lon="4.17652">
        <ele>220</ele>
        <time>2017-04-09T08:06:28Z</time>
      </trkpt>
      <trkpt lat="50.12388" lon="4.17687">
        <ele>220</ele>
        <time>2017-04-09T08:06:35Z</time>
      </trkpt>
      <trkpt lat="50.12392" lon="4.17701">
        <ele>221</ele>
        <time>2017-04-09T08:06:38Z</time>
      </trkpt>
      <trkpt lat="50.124" lon="4.17729">
        <ele>222</ele>
        <time>2017-04-09T08:06:44Z</time>
      </trkpt>
      <trkpt lat="50.12404" lon="4.17749">
        <ele>221</ele>
        <time>2017-04-09T08:06:48Z</time>
      </trkpt>
      <trkpt lat="50.12405" lon="4.17775">
        <ele>221</ele>
        <time>2017-04-09T08:06:53Z</time>
      </trkpt>
      <trkpt lat="50.12406" lon="4.178">
        <ele>220</ele>
        <time>2017-04-09T08:06:58Z</time>
      </trkpt>
      <trkpt lat="50.12408" lon="4.17825">
        <ele>221</ele>
        <time>2017-04-09T08:07:03Z</time>
      </trkpt>
      <trkpt lat="50.12409" lon="4.17849">
        <ele>221</ele>
        <time>2017-04-09T08:07:08Z</time>
      </trkpt>
      <trkpt lat="50.12419" lon="4.17866">
        <ele>222</ele>
        <time>2017-04-09T08:07:13Z</time>
      </trkpt>
      <trkpt lat="50.12438" lon="4.17867">
        <ele>221</ele>
        <time>2017-04-09T08:07:18Z</time>
      </trkpt>
      <trkpt lat="50.12459" lon="4.1787">
        <ele>221</ele>
        <time>2017-04-09T08:07:23Z</time>
      </trkpt>
      <trkpt lat="50.1248" lon="4.17878">
        <ele>221</ele>
        <time>2017-04-09T08:07:28Z</time>
      </trkpt>
      <trkpt lat="50.12501" lon="4.1789">
        <ele>220</ele>
        <time>2017-04-09T08:07:34Z</time>
      </trkpt>
      <trkpt lat="50.12512" lon="4.17905">
        <ele>219</ele>
        <time>2017-04-09T08:07:38Z</time>
      </trkpt>
      <trkpt lat="50.12526" lon="4.17916">
        <ele>222</ele>
        <time>2017-04-09T08:07:43Z</time>
      </trkpt>
      <trkpt lat="50.12524" lon="4.17916">
        <ele>222</ele>
        <time>2017-04-09T08:07:48Z</time>
      </trkpt>
      <trkpt lat="50.12523" lon="4.17916">
        <ele>222</ele>
        <time>2017-04-09T08:07:53Z</time>
      </trkpt>
      <trkpt lat="50.12521" lon="4.17916">
        <ele>223</ele>
        <time>2017-04-09T08:07:58Z</time>
      </trkpt>
      <trkpt lat="50.12516" lon="4.1792">
        <ele>224</ele>
        <time>2017-04-09T08:08:03Z</time>
      </trkpt>
      <trkpt lat="50.1251" lon="4.17947">
        <ele>222</ele>
        <time>2017-04-09T08:08:09Z</time>
      </trkpt>
      <trkpt lat="50.12508" lon="4.1797">
        <ele>223</ele>
        <time>2017-04-09T08:08:14Z</time>
      </trkpt>
      <trkpt lat="50.1251" lon="4.17988">
        <ele>222</ele>
        <time>2017-04-09T08:08:18Z</time>
      </trkpt>
      <trkpt lat="50.12523" lon="4.18062">
        <ele>220</ele>
        <time>2017-04-09T08:08:25Z</time>
      </trkpt>
      <trkpt lat="50.12528" lon="4.18089">
        <ele>218</ele>
        <time>2017-04-09T08:08:28Z</time>
      </trkpt>
      <trkpt lat="50.12536" lon="4.18118">
        <ele>220</ele>
        <time>2017-04-09T08:08:33Z</time>
      </trkpt>
      <trkpt lat="50.12539" lon="4.18154">
        <ele>218</ele>
        <time>2017-04-09T08:08:38Z</time>
      </trkpt>
      <trkpt lat="50.12542" lon="4.18188">
        <ele>217</ele>
        <time>2017-04-09T08:08:43Z</time>
      </trkpt>
      <trkpt lat="50.12544" lon="4.18205">
        <ele>216</ele>
        <time>2017-04-09T08:08:48Z</time>
      </trkpt>
      <trkpt lat="50.12545" lon="4.18232">
        <ele>213</ele>
        <time>2017-04-09T08:08:54Z</time>
      </trkpt>
      <trkpt lat="50.12546" lon="4.18279">
        <ele>211</ele>
        <time>2017-04-09T08:09:00Z</time>
      </trkpt>
      <trkpt lat="50.12547" lon="4.18307">
        <ele>215</ele>
        <time>2017-04-09T08:09:06Z</time>
      </trkpt>
      <trkpt lat="50.12546" lon="4.18309">
        <ele>214</ele>
        <time>2017-04-09T08:09:08Z</time>
      </trkpt>
      <trkpt lat="50.12546" lon="4.18335">
        <ele>215</ele>
        <time>2017-04-09T08:09:13Z</time>
      </trkpt>
      <trkpt lat="50.12542" lon="4.18389">
        <ele>209</ele>
        <time>2017-04-09T08:09:22Z</time>
      </trkpt>
      <trkpt lat="50.12536" lon="4.18402">
        <ele>214</ele>
        <time>2017-04-09T08:09:25Z</time>
      </trkpt>
      <trkpt lat="50.12536" lon="4.18415">
        <ele>210</ele>
        <time>2017-04-09T08:09:28Z</time>
      </trkpt>
      <trkpt lat="50.12539" lon="4.18446">
        <ele>214</ele>
        <time>2017-04-09T08:09:35Z</time>
      </trkpt>
      <trkpt lat="50.12538" lon="4.18458">
        <ele>210</ele>
        <time>2017-04-09T08:09:38Z</time>
      </trkpt>
      <trkpt lat="50.12541" lon="4.18475">
        <ele>209</ele>
        <time>2017-04-09T08:09:43Z</time>
      </trkpt>
      <trkpt lat="50.12547" lon="4.18497">
        <ele>206</ele>
        <time>2017-04-09T08:09:48Z</time>
      </trkpt>
      <trkpt lat="50.12539" lon="4.18534">
        <ele>212</ele>
        <time>2017-04-09T08:09:55Z</time>
      </trkpt>
      <trkpt lat="50.1253" lon="4.18561">
        <ele>204</ele>
        <time>2017-04-09T08:10:02Z</time>
      </trkpt>
      <trkpt lat="50.1253" lon="4.18571">
        <ele>214</ele>
        <time>2017-04-09T08:10:05Z</time>
      </trkpt>
      <trkpt lat="50.12529" lon="4.18585">
        <ele>210</ele>
        <time>2017-04-09T08:10:08Z</time>
      </trkpt>
      <trkpt lat="50.12505" lon="4.18636">
        <ele>210</ele>
        <time>2017-04-09T08:10:17Z</time>
      </trkpt>
      <trkpt lat="50.12503" lon="4.18643">
        <ele>213</ele>
        <time>2017-04-09T08:10:18Z</time>
      </trkpt>
      <trkpt lat="50.12494" lon="4.18667">
        <ele>204</ele>
        <time>2017-04-09T08:10:23Z</time>
      </trkpt>
      <trkpt lat="50.12484" lon="4.18695">
        <ele>211</ele>
        <time>2017-04-09T08:10:28Z</time>
      </trkpt>
      <trkpt lat="50.12474" lon="4.18716">
        <ele>202</ele>
        <time>2017-04-09T08:10:33Z</time>
      </trkpt>
      <trkpt lat="50.12474" lon="4.18727">
        <ele>211</ele>
        <time>2017-04-09T08:10:38Z</time>
      </trkpt>
      <trkpt lat="50.12473" lon="4.18749">
        <ele>211</ele>
        <time>2017-04-09T08:10:47Z</time>
      </trkpt>
      <trkpt lat="50.12474" lon="4.18755">
        <ele>212</ele>
        <time>2017-04-09T08:10:49Z</time>
      </trkpt>
      <trkpt lat="50.12472" lon="4.18773">
        <ele>212</ele>
        <time>2017-04-09T08:10:56Z</time>
      </trkpt>
      <trkpt lat="50.12471" lon="4.18778">
        <ele>207</ele>
        <time>2017-04-09T08:10:58Z</time>
      </trkpt>
      <trkpt lat="50.12466" lon="4.18791">
        <ele>214</ele>
        <time>2017-04-09T08:11:03Z</time>
      </trkpt>
      <trkpt lat="50.12465" lon="4.18807">
        <ele>212</ele>
        <time>2017-04-09T08:11:12Z</time>
      </trkpt>
      <trkpt lat="50.12464" lon="4.18812">
        <ele>212</ele>
        <time>2017-04-09T08:11:15Z</time>
      </trkpt>
      <trkpt lat="50.12464" lon="4.18826">
        <ele>211</ele>
        <time>2017-04-09T08:11:21Z</time>
      </trkpt>
      <trkpt lat="50.12466" lon="4.18839">
        <ele>208</ele>
        <time>2017-04-09T08:11:26Z</time>
      </trkpt>
      <trkpt lat="50.12467" lon="4.18845">
        <ele>209</ele>
        <time>2017-04-09T08:11:29Z</time>
      </trkpt>
      <trkpt lat="50.12472" lon="4.18854">
        <ele>210</ele>
        <time>2017-04-09T08:11:36Z</time>
      </trkpt>
      <trkpt lat="50.12474" lon="4.18856">
        <ele>209</ele>
        <time>2017-04-09T08:11:38Z</time>
      </trkpt>
      <trkpt lat="50.12478" lon="4.1887">
        <ele>211</ele>
        <time>2017-04-09T08:11:47Z</time>
      </trkpt>
      <trkpt lat="50.12478" lon="4.18871">
        <ele>212</ele>
        <time>2017-04-09T08:11:48Z</time>
      </trkpt>
      <trkpt lat="50.12478" lon="4.18895">
        <ele>208</ele>
        <time>2017-04-09T08:11:57Z</time>
      </trkpt>
      <trkpt lat="50.12478" lon="4.18901">
        <ele>209</ele>
        <time>2017-04-09T08:11:59Z</time>
      </trkpt>
      <trkpt lat="50.12477" lon="4.18913">
        <ele>211</ele>
        <time>2017-04-09T08:12:03Z</time>
      </trkpt>
      <trkpt lat="50.12477" lon="4.1893">
        <ele>211</ele>
        <time>2017-04-09T08:12:08Z</time>
      </trkpt>
      <trkpt lat="50.12477" lon="4.18948">
        <ele>212</ele>
        <time>2017-04-09T08:12:13Z</time>
      </trkpt>
      <trkpt lat="50.12477" lon="4.18967">
        <ele>212</ele>
        <time>2017-04-09T08:12:18Z</time>
      </trkpt>
      <trkpt lat="50.12478" lon="4.18986">
        <ele>211</ele>
        <time>2017-04-09T08:12:23Z</time>
      </trkpt>
      <trkpt lat="50.12479" lon="4.19006">
        <ele>214</ele>
        <time>2017-04-09T08:12:28Z</time>
      </trkpt>
      <trkpt lat="50.12483" lon="4.19026">
        <ele>213</ele>
        <time>2017-04-09T08:12:33Z</time>
      </trkpt>
      <trkpt lat="50.12485" lon="4.19049">
        <ele>213</ele>
        <time>2017-04-09T08:12:39Z</time>
      </trkpt>
      <trkpt lat="50.1249" lon="4.1907">
        <ele>212</ele>
        <time>2017-04-09T08:12:45Z</time>
      </trkpt>
      <trkpt lat="50.12498" lon="4.19069">
        <ele>215</ele>
        <time>2017-04-09T08:12:48Z</time>
      </trkpt>
      <trkpt lat="50.12509" lon="4.19068">
        <ele>217</ele>
        <time>2017-04-09T08:12:53Z</time>
      </trkpt>
      <trkpt lat="50.1252" lon="4.19068">
        <ele>216</ele>
        <time>2017-04-09T08:12:58Z</time>
      </trkpt>
      <trkpt lat="50.1253" lon="4.19067">
        <ele>219</ele>
        <time>2017-04-09T08:13:03Z</time>
      </trkpt>
      <trkpt lat="50.12541" lon="4.19068">
        <ele>219</ele>
        <time>2017-04-09T08:13:08Z</time>
      </trkpt>
      <trkpt lat="50.12551" lon="4.19068">
        <ele>222</ele>
        <time>2017-04-09T08:13:13Z</time>
      </trkpt>
      <trkpt lat="50.12561" lon="4.19066">
        <ele>221</ele>
        <time>2017-04-09T08:13:18Z</time>
      </trkpt>
      <trkpt lat="50.1257" lon="4.19066">
        <ele>221</ele>
        <time>2017-04-09T08:13:23Z</time>
      </trkpt>
      <trkpt lat="50.1258" lon="4.19065">
        <ele>222</ele>
        <time>2017-04-09T08:13:28Z</time>
      </trkpt>
      <trkpt lat="50.12591" lon="4.19064">
        <ele>223</ele>
        <time>2017-04-09T08:13:33Z</time>
      </trkpt>
      <trkpt lat="50.12601" lon="4.19064">
        <ele>224</ele>
        <time>2017-04-09T08:13:38Z</time>
      </trkpt>
      <trkpt lat="50.12612" lon="4.19065">
        <ele>225</ele>
        <time>2017-04-09T08:13:43Z</time>
      </trkpt>
      <trkpt lat="50.12623" lon="4.19068">
        <ele>223</ele>
        <time>2017-04-09T08:13:48Z</time>
      </trkpt>
      <trkpt lat="50.12633" lon="4.1907">
        <ele>225</ele>
        <time>2017-04-09T08:13:53Z</time>
      </trkpt>
      <trkpt lat="50.12644" lon="4.19071">
        <ele>226</ele>
        <time>2017-04-09T08:13:58Z</time>
      </trkpt>
      <trkpt lat="50.12655" lon="4.1907">
        <ele>225</ele>
        <time>2017-04-09T08:14:03Z</time>
      </trkpt>
      <trkpt lat="50.12666" lon="4.19067">
        <ele>225</ele>
        <time>2017-04-09T08:14:08Z</time>
      </trkpt>
      <trkpt lat="50.12678" lon="4.19064">
        <ele>225</ele>
        <time>2017-04-09T08:14:14Z</time>
      </trkpt>
      <trkpt lat="50.12686" lon="4.1906">
        <ele>226</ele>
        <time>2017-04-09T08:14:18Z</time>
      </trkpt>
      <trkpt lat="50.12695" lon="4.19059">
        <ele>227</ele>
        <time>2017-04-09T08:14:23Z</time>
      </trkpt>
      <trkpt lat="50.12706" lon="4.19057">
        <ele>228</ele>
        <time>2017-04-09T08:14:28Z</time>
      </trkpt>
      <trkpt lat="50.12714" lon="4.19068">
        <ele>228</ele>
        <time>2017-04-09T08:14:33Z</time>
      </trkpt>
      <trkpt lat="50.12716" lon="4.19085">
        <ele>228</ele>
        <time>2017-04-09T08:14:38Z</time>
      </trkpt>
      <trkpt lat="50.12715" lon="4.19105">
        <ele>229</ele>
        <time>2017-04-09T08:14:43Z</time>
      </trkpt>
      <trkpt lat="50.12715" lon="4.19132">
        <ele>228</ele>
        <time>2017-04-09T08:14:48Z</time>
      </trkpt>
      <trkpt lat="50.12714" lon="4.1916">
        <ele>222</ele>
        <time>2017-04-09T08:14:53Z</time>
      </trkpt>
      <trkpt lat="50.12714" lon="4.19182">
        <ele>218</ele>
        <time>2017-04-09T08:14:58Z</time>
      </trkpt>
      <trkpt lat="50.12717" lon="4.19206">
        <ele>209</ele>
        <time>2017-04-09T08:15:03Z</time>
      </trkpt>
      <trkpt lat="50.1272" lon="4.19231">
        <ele>198</ele>
        <time>2017-04-09T08:15:08Z</time>
      </trkpt>
      <trkpt lat="50.12722" lon="4.19297">
        <ele>199</ele>
        <time>2017-04-09T08:15:16Z</time>
      </trkpt>
      <trkpt lat="50.12728" lon="4.19328">
        <ele>209</ele>
        <time>2017-04-09T08:15:21Z</time>
      </trkpt>
      <trkpt lat="50.12725" lon="4.19369">
        <ele>197</ele>
        <time>2017-04-09T08:15:27Z</time>
      </trkpt>
      <trkpt lat="50.12725" lon="4.19375">
        <ele>200</ele>
        <time>2017-04-09T08:15:28Z</time>
      </trkpt>
      <trkpt lat="50.12719" lon="4.19407">
        <ele>199</ele>
        <time>2017-04-09T08:15:33Z</time>
      </trkpt>
      <trkpt lat="50.12701" lon="4.19439">
        <ele>204</ele>
        <time>2017-04-09T08:15:38Z</time>
      </trkpt>
      <trkpt lat="50.12688" lon="4.19487">
        <ele>215</ele>
        <time>2017-04-09T08:15:44Z</time>
      </trkpt>
      <trkpt lat="50.12681" lon="4.19555">
        <ele>221</ele>
        <time>2017-04-09T08:15:52Z</time>
      </trkpt>
      <trkpt lat="50.12679" lon="4.1957">
        <ele>220</ele>
        <time>2017-04-09T08:15:54Z</time>
      </trkpt>
      <trkpt lat="50.12671" lon="4.19602">
        <ele>222</ele>
        <time>2017-04-09T08:15:58Z</time>
      </trkpt>
      <trkpt lat="50.12653" lon="4.19647">
        <ele>225</ele>
        <time>2017-04-09T08:16:04Z</time>
      </trkpt>
      <trkpt lat="50.12634" lon="4.19688">
        <ele>221</ele>
        <time>2017-04-09T08:16:08Z</time>
      </trkpt>
      <trkpt lat="50.12636" lon="4.19737">
        <ele>212</ele>
        <time>2017-04-09T08:16:13Z</time>
      </trkpt>
      <trkpt lat="50.12638" lon="4.19786">
        <ele>205</ele>
        <time>2017-04-09T08:16:21Z</time>
      </trkpt>
      <trkpt lat="50.12642" lon="4.19791">
        <ele>203</ele>
        <time>2017-04-09T08:16:23Z</time>
      </trkpt>
      <trkpt lat="50.12653" lon="4.19797">
        <ele>201</ele>
        <time>2017-04-09T08:16:29Z</time>
      </trkpt>
      <trkpt lat="50.12666" lon="4.19782">
        <ele>198</ele>
        <time>2017-04-09T08:16:33Z</time>
      </trkpt>
      <trkpt lat="50.12711" lon="4.1977">
        <ele>191</ele>
        <time>2017-04-09T08:16:41Z</time>
      </trkpt>
      <trkpt lat="50.1272" lon="4.19774">
        <ele>191</ele>
        <time>2017-04-09T08:16:43Z</time>
      </trkpt>
      <trkpt lat="50.1273" lon="4.1978">
        <ele>189</ele>
        <time>2017-04-09T08:16:51Z</time>
      </trkpt>
      <trkpt lat="50.12736" lon="4.19782">
        <ele>203</ele>
        <time>2017-04-09T08:16:55Z</time>
      </trkpt>
      <trkpt lat="50.12739" lon="4.19785">
        <ele>214</ele>
        <time>2017-04-09T08:17:02Z</time>
      </trkpt>
      <trkpt lat="50.1274" lon="4.19787">
        <ele>215</ele>
        <time>2017-04-09T08:17:05Z</time>
      </trkpt>
      <trkpt lat="50.12742" lon="4.19789">
        <ele>216</ele>
        <time>2017-04-09T08:17:09Z</time>
      </trkpt>
      <trkpt lat="50.12745" lon="4.19796">
        <ele>217</ele>
        <time>2017-04-09T08:17:15Z</time>
      </trkpt>
      <trkpt lat="50.12748" lon="4.19803">
        <ele>217</ele>
        <time>2017-04-09T08:17:22Z</time>
      </trkpt>
      <trkpt lat="50.12749" lon="4.19806">
        <ele>218</ele>
        <time>2017-04-09T08:17:24Z</time>
      </trkpt>
      <trkpt lat="50.12752" lon="4.19815">
        <ele>214</ele>
        <time>2017-04-09T08:17:31Z</time>
      </trkpt>
      <trkpt lat="50.12752" lon="4.19817">
        <ele>212</ele>
        <time>2017-04-09T08:17:33Z</time>
      </trkpt>
      <trkpt lat="50.12753" lon="4.19821">
        <ele>214</ele>
        <time>2017-04-09T08:17:38Z</time>
      </trkpt>
      <trkpt lat="50.12754" lon="4.19827">
        <ele>213</ele>
        <time>2017-04-09T08:17:45Z</time>
      </trkpt>
      <trkpt lat="50.12756" lon="4.19831">
        <ele>216</ele>
        <time>2017-04-09T08:17:51Z</time>
      </trkpt>
      <trkpt lat="50.12756" lon="4.19834">
        <ele>218</ele>
        <time>2017-04-09T08:17:54Z</time>
      </trkpt>
      <trkpt lat="50.12757" lon="4.19838">
        <ele>218</ele>
        <time>2017-04-09T08:17:59Z</time>
      </trkpt>
      <trkpt lat="50.12758" lon="4.19845">
        <ele>217</ele>
        <time>2017-04-09T08:18:05Z</time>
      </trkpt>
      <trkpt lat="50.12758" lon="4.19851">
        <ele>217</ele>
        <time>2017-04-09T08:18:10Z</time>
      </trkpt>
      <trkpt lat="50.1276" lon="4.19861">
        <ele>215</ele>
        <time>2017-04-09T08:18:17Z</time>
      </trkpt>
      <trkpt lat="50.1276" lon="4.19862">
        <ele>217</ele>
        <time>2017-04-09T08:18:18Z</time>
      </trkpt>
      <trkpt lat="50.12761" lon="4.19865">
        <ele>219</ele>
        <time>2017-04-09T08:18:23Z</time>
      </trkpt>
      <trkpt lat="50.12762" lon="4.19866">
        <ele>215</ele>
        <time>2017-04-09T08:18:28Z</time>
      </trkpt>
      <trkpt lat="50.12763" lon="4.19869">
        <ele>213</ele>
        <time>2017-04-09T08:18:34Z</time>
      </trkpt>
      <trkpt lat="50.12766" lon="4.19868">
        <ele>221</ele>
        <time>2017-04-09T08:18:38Z</time>
      </trkpt>
      <trkpt lat="50.12772" lon="4.19865">
        <ele>225</ele>
        <time>2017-04-09T08:18:43Z</time>
      </trkpt>
      <trkpt lat="50.12782" lon="4.19863">
        <ele>225</ele>
        <time>2017-04-09T08:18:48Z</time>
      </trkpt>
      <trkpt lat="50.12799" lon="4.19865">
        <ele>221</ele>
        <time>2017-04-09T08:18:55Z</time>
      </trkpt>
      <trkpt lat="50.12806" lon="4.19865">
        <ele>225</ele>
        <time>2017-04-09T08:18:59Z</time>
      </trkpt>
      <trkpt lat="50.12822" lon="4.19862">
        <ele>230</ele>
        <time>2017-04-09T08:19:07Z</time>
      </trkpt>
      <trkpt lat="50.12824" lon="4.19861">
        <ele>230</ele>
        <time>2017-04-09T08:19:08Z</time>
      </trkpt>
      <trkpt lat="50.12833" lon="4.19854">
        <ele>229</ele>
        <time>2017-04-09T08:19:13Z</time>
      </trkpt>
      <trkpt lat="50.12853" lon="4.19852">
        <ele>232</ele>
        <time>2017-04-09T08:19:22Z</time>
      </trkpt>
      <trkpt lat="50.12855" lon="4.19852">
        <ele>232</ele>
        <time>2017-04-09T08:19:23Z</time>
      </trkpt>
      <trkpt lat="50.12865" lon="4.19857">
        <ele>229</ele>
        <time>2017-04-09T08:19:28Z</time>
      </trkpt>
      <trkpt lat="50.12877" lon="4.19855">
        <ele>218</ele>
        <time>2017-04-09T08:19:36Z</time>
      </trkpt>
      <trkpt lat="50.12883" lon="4.19858">
        <ele>229</ele>
        <time>2017-04-09T08:19:42Z</time>
      </trkpt>
      <trkpt lat="50.12885" lon="4.19859">
        <ele>230</ele>
        <time>2017-04-09T08:19:43Z</time>
      </trkpt>
      <trkpt lat="50.12893" lon="4.19864">
        <ele>227</ele>
        <time>2017-04-09T08:19:48Z</time>
      </trkpt>
      <trkpt lat="50.12902" lon="4.19873">
        <ele>227</ele>
        <time>2017-04-09T08:19:53Z</time>
      </trkpt>
      <trkpt lat="50.12914" lon="4.19897">
        <ele>223</ele>
        <time>2017-04-09T08:20:00Z</time>
      </trkpt>
      <trkpt lat="50.12918" lon="4.19907">
        <ele>225</ele>
        <time>2017-04-09T08:20:03Z</time>
      </trkpt>
      <trkpt lat="50.12924" lon="4.1993">
        <ele>228</ele>
        <time>2017-04-09T08:20:11Z</time>
      </trkpt>
      <trkpt lat="50.12927" lon="4.19934">
        <ele>222</ele>
        <time>2017-04-09T08:20:13Z</time>
      </trkpt>
      <trkpt lat="50.12935" lon="4.19953">
        <ele>223</ele>
        <time>2017-04-09T08:20:20Z</time>
      </trkpt>
      <trkpt lat="50.12941" lon="4.19967">
        <ele>228</ele>
        <time>2017-04-09T08:20:25Z</time>
      </trkpt>
      <trkpt lat="50.12946" lon="4.1998">
        <ele>227</ele>
        <time>2017-04-09T08:20:30Z</time>
      </trkpt>
      <trkpt lat="50.12954" lon="4.19998">
        <ele>224</ele>
        <time>2017-04-09T08:20:36Z</time>
      </trkpt>
      <trkpt lat="50.12958" lon="4.20011">
        <ele>223</ele>
        <time>2017-04-09T08:20:40Z</time>
      </trkpt>
      <trkpt lat="50.12961" lon="4.20026">
        <ele>227</ele>
        <time>2017-04-09T08:20:45Z</time>
      </trkpt>
      <trkpt lat="50.12963" lon="4.20045">
        <ele>211</ele>
        <time>2017-04-09T08:20:51Z</time>
      </trkpt>
      <trkpt lat="50.12961" lon="4.20049">
        <ele>208</ele>
        <time>2017-04-09T08:20:53Z</time>
      </trkpt>
      <trkpt lat="50.12966" lon="4.20071">
        <ele>221</ele>
        <time>2017-04-09T08:21:00Z</time>
      </trkpt>
      <trkpt lat="50.12972" lon="4.2009">
        <ele>222</ele>
        <time>2017-04-09T08:21:06Z</time>
      </trkpt>
      <trkpt lat="50.12974" lon="4.20096">
        <ele>221</ele>
        <time>2017-04-09T08:21:08Z</time>
      </trkpt>
      <trkpt lat="50.12985" lon="4.20125">
        <ele>221</ele>
        <time>2017-04-09T08:21:16Z</time>
      </trkpt>
      <trkpt lat="50.12988" lon="4.20136">
        <ele>220</ele>
        <time>2017-04-09T08:21:19Z</time>
      </trkpt>
      <trkpt lat="50.12992" lon="4.20161">
        <ele>229</ele>
        <time>2017-04-09T08:21:27Z</time>
      </trkpt>
      <trkpt lat="50.12994" lon="4.20171">
        <ele>222</ele>
        <time>2017-04-09T08:21:30Z</time>
      </trkpt>
      <trkpt lat="50.12997" lon="4.20195">
        <ele>225</ele>
        <time>2017-04-09T08:21:37Z</time>
      </trkpt>
      <trkpt lat="50.12998" lon="4.20204">
        <ele>232</ele>
        <time>2017-04-09T08:21:41Z</time>
      </trkpt>
      <trkpt lat="50.12997" lon="4.20208">
        <ele>235</ele>
        <time>2017-04-09T08:21:42Z</time>
      </trkpt>
      <trkpt lat="50.12999" lon="4.20234">
        <ele>222</ele>
        <time>2017-04-09T08:21:49Z</time>
      </trkpt>
      <trkpt lat="50.13002" lon="4.20245">
        <ele>228</ele>
        <time>2017-04-09T08:21:52Z</time>
      </trkpt>
      <trkpt lat="50.13" lon="4.20268">
        <ele>221</ele>
        <time>2017-04-09T08:21:59Z</time>
      </trkpt>
      <trkpt lat="50.13016" lon="4.20278">
        <ele>233</ele>
        <time>2017-04-09T08:22:06Z</time>
      </trkpt>
      <trkpt lat="50.13022" lon="4.20277">
        <ele>224</ele>
        <time>2017-04-09T08:22:09Z</time>
      </trkpt>
      <trkpt lat="50.1303" lon="4.20276">
        <ele>228</ele>
        <time>2017-04-09T08:22:13Z</time>
      </trkpt>
      <trkpt lat="50.13041" lon="4.20275">
        <ele>233</ele>
        <time>2017-04-09T08:22:17Z</time>
      </trkpt>
      <trkpt lat="50.1307" lon="4.20271">
        <ele>228</ele>
        <time>2017-04-09T08:22:26Z</time>
      </trkpt>
      <trkpt lat="50.13073" lon="4.2027">
        <ele>235</ele>
        <time>2017-04-09T08:22:27Z</time>
      </trkpt>
      <trkpt lat="50.13104" lon="4.20262">
        <ele>228</ele>
        <time>2017-04-09T08:22:36Z</time>
      </trkpt>
      <trkpt lat="50.13117" lon="4.20255">
        <ele>244</ele>
        <time>2017-04-09T08:22:40Z</time>
      </trkpt>
      <trkpt lat="50.13131" lon="4.20251">
        <ele>230</ele>
        <time>2017-04-09T08:22:44Z</time>
      </trkpt>
      <trkpt lat="50.13156" lon="4.2024">
        <ele>241</ele>
        <time>2017-04-09T08:22:51Z</time>
      </trkpt>
      <trkpt lat="50.1316" lon="4.20239">
        <ele>235</ele>
        <time>2017-04-09T08:22:52Z</time>
      </trkpt>
      <trkpt lat="50.13184" lon="4.20238">
        <ele>243</ele>
        <time>2017-04-09T08:22:59Z</time>
      </trkpt>
      <trkpt lat="50.13193" lon="4.2024">
        <ele>236</ele>
        <time>2017-04-09T08:23:02Z</time>
      </trkpt>
      <trkpt lat="50.13212" lon="4.20244">
        <ele>242</ele>
        <time>2017-04-09T08:23:09Z</time>
      </trkpt>
      <trkpt lat="50.13225" lon="4.20246">
        <ele>236</ele>
        <time>2017-04-09T08:23:12Z</time>
      </trkpt>
      <trkpt lat="50.13241" lon="4.20249">
        <ele>239</ele>
        <time>2017-04-09T08:23:17Z</time>
      </trkpt>
      <trkpt lat="50.13258" lon="4.20252">
        <ele>241</ele>
        <time>2017-04-09T08:23:23Z</time>
      </trkpt>
      <trkpt lat="50.13274" lon="4.20255">
        <ele>237</ele>
        <time>2017-04-09T08:23:28Z</time>
      </trkpt>
      <trkpt lat="50.13291" lon="4.20257">
        <ele>240</ele>
        <time>2017-04-09T08:23:32Z</time>
      </trkpt>
      <trkpt lat="50.13311" lon="4.20262">
        <ele>237</ele>
        <time>2017-04-09T08:23:39Z</time>
      </trkpt>
      <trkpt lat="50.13324" lon="4.20265">
        <ele>239</ele>
        <time>2017-04-09T08:23:42Z</time>
      </trkpt>
      <trkpt lat="50.1334" lon="4.20267">
        <ele>240</ele>
        <time>2017-04-09T08:23:47Z</time>
      </trkpt>
      <trkpt lat="50.13367" lon="4.20273">
        <ele>241</ele>
        <time>2017-04-09T08:23:55Z</time>
      </trkpt>
      <trkpt lat="50.13374" lon="4.20274">
        <ele>241</ele>
        <time>2017-04-09T08:23:57Z</time>
      </trkpt>
      <trkpt lat="50.13392" lon="4.20278">
        <ele>242</ele>
        <time>2017-04-09T08:24:02Z</time>
      </trkpt>
      <trkpt lat="50.13413" lon="4.20283">
        <ele>242</ele>
        <time>2017-04-09T08:24:08Z</time>
      </trkpt>
      <trkpt lat="50.13426" lon="4.20288">
        <ele>243</ele>
        <time>2017-04-09T08:24:12Z</time>
      </trkpt>
      <trkpt lat="50.13445" lon="4.20301">
        <ele>244</ele>
        <time>2017-04-09T08:24:18Z</time>
      </trkpt>
      <trkpt lat="50.13456" lon="4.20313">
        <ele>244</ele>
        <time>2017-04-09T08:24:22Z</time>
      </trkpt>
      <trkpt lat="50.13478" lon="4.20334">
        <ele>245</ele>
        <time>2017-04-09T08:24:29Z</time>
      </trkpt>
      <trkpt lat="50.13487" lon="4.20327">
        <ele>245</ele>
        <time>2017-04-09T08:24:33Z</time>
      </trkpt>
      <trkpt lat="50.13493" lon="4.20301">
        <ele>246</ele>
        <time>2017-04-09T08:24:37Z</time>
      </trkpt>
      <trkpt lat="50.13497" lon="4.20274">
        <ele>246</ele>
        <time>2017-04-09T08:24:43Z</time>
      </trkpt>
      <trkpt lat="50.13501" lon="4.20248">
        <ele>245</ele>
        <time>2017-04-09T08:24:47Z</time>
      </trkpt>
      <trkpt lat="50.13506" lon="4.20223">
        <ele>246</ele>
        <time>2017-04-09T08:24:52Z</time>
      </trkpt>
      <trkpt lat="50.13511" lon="4.20196">
        <ele>246</ele>
        <time>2017-04-09T08:24:57Z</time>
      </trkpt>
      <trkpt lat="50.13516" lon="4.20168">
        <ele>246</ele>
        <time>2017-04-09T08:25:02Z</time>
      </trkpt>
      <trkpt lat="50.13522" lon="4.20139">
        <ele>246</ele>
        <time>2017-04-09T08:25:07Z</time>
      </trkpt>
      <trkpt lat="50.13527" lon="4.20112">
        <ele>247</ele>
        <time>2017-04-09T08:25:12Z</time>
      </trkpt>
      <trkpt lat="50.13532" lon="4.20086">
        <ele>247</ele>
        <time>2017-04-09T08:25:17Z</time>
      </trkpt>
      <trkpt lat="50.13537" lon="4.20059">
        <ele>248</ele>
        <time>2017-04-09T08:25:22Z</time>
      </trkpt>
      <trkpt lat="50.13542" lon="4.20031">
        <ele>243</ele>
        <time>2017-04-09T08:25:27Z</time>
      </trkpt>
      <trkpt lat="50.13547" lon="4.20004">
        <ele>246</ele>
        <time>2017-04-09T08:25:33Z</time>
      </trkpt>
      <trkpt lat="50.13555" lon="4.19977">
        <ele>247</ele>
        <time>2017-04-09T08:25:37Z</time>
      </trkpt>
      <trkpt lat="50.13568" lon="4.19956">
        <ele>246</ele>
        <time>2017-04-09T08:25:42Z</time>
      </trkpt>
      <trkpt lat="50.13585" lon="4.19939">
        <ele>251</ele>
        <time>2017-04-09T08:25:47Z</time>
      </trkpt>
      <trkpt lat="50.13608" lon="4.19929">
        <ele>252</ele>
        <time>2017-04-09T08:25:52Z</time>
      </trkpt>
      <trkpt lat="50.13635" lon="4.19928">
        <ele>248</ele>
        <time>2017-04-09T08:25:58Z</time>
      </trkpt>
      <trkpt lat="50.13655" lon="4.19931">
        <ele>246</ele>
        <time>2017-04-09T08:26:03Z</time>
      </trkpt>
      <trkpt lat="50.13681" lon="4.19933">
        <ele>246</ele>
        <time>2017-04-09T08:26:07Z</time>
      </trkpt>
      <trkpt lat="50.13706" lon="4.19933">
        <ele>245</ele>
        <time>2017-04-09T08:26:12Z</time>
      </trkpt>
      <trkpt lat="50.13728" lon="4.19917">
        <ele>246</ele>
        <time>2017-04-09T08:26:17Z</time>
      </trkpt>
      <trkpt lat="50.13742" lon="4.19889">
        <ele>247</ele>
        <time>2017-04-09T08:26:23Z</time>
      </trkpt>
      <trkpt lat="50.1375" lon="4.1987">
        <ele>247</ele>
        <time>2017-04-09T08:26:27Z</time>
      </trkpt>
      <trkpt lat="50.13759" lon="4.19846">
        <ele>248</ele>
        <time>2017-04-09T08:26:32Z</time>
      </trkpt>
      <trkpt lat="50.13771" lon="4.19818">
        <ele>248</ele>
        <time>2017-04-09T08:26:38Z</time>
      </trkpt>
      <trkpt lat="50.13777" lon="4.198">
        <ele>249</ele>
        <time>2017-04-09T08:26:42Z</time>
      </trkpt>
      <trkpt lat="50.13783" lon="4.19786">
        <ele>249</ele>
        <time>2017-04-09T08:26:47Z</time>
      </trkpt>
      <trkpt lat="50.13791" lon="4.19768">
        <ele>250</ele>
        <time>2017-04-09T08:26:53Z</time>
      </trkpt>
      <trkpt lat="50.13797" lon="4.19753">
        <ele>250</ele>
        <time>2017-04-09T08:26:57Z</time>
      </trkpt>
      <trkpt lat="50.138" lon="4.1975">
        <ele>250</ele>
        <time>2017-04-09T08:27:02Z</time>
      </trkpt>
      <trkpt lat="50.13799" lon="4.19752">
        <ele>250</ele>
        <time>2017-04-09T08:27:07Z</time>
      </trkpt>
      <trkpt lat="50.13799" lon="4.19752">
        <ele>249</ele>
        <time>2017-04-09T08:27:12Z</time>
      </trkpt>
      <trkpt lat="50.13799" lon="4.19753">
        <ele>251</ele>
        <time>2017-04-09T08:27:17Z</time>
      </trkpt>
      <trkpt lat="50.138" lon="4.19754">
        <ele>251</ele>
        <time>2017-04-09T08:27:22Z</time>
      </trkpt>
      <trkpt lat="50.138" lon="4.19754">
        <ele>251</ele>
        <time>2017-04-09T08:27:28Z</time>
      </trkpt>
      <trkpt lat="50.138" lon="4.19754">
        <ele>251</ele>
        <time>2017-04-09T08:27:37Z</time>
      </trkpt>
      <trkpt lat="50.138" lon="4.19754">
        <ele>251</ele>
        <time>2017-04-09T08:27:38Z</time>
      </trkpt>
      <trkpt lat="50.13801" lon="4.19753">
        <ele>251</ele>
        <time>2017-04-09T08:27:46Z</time>
      </trkpt>
      <trkpt lat="50.13801" lon="4.19753">
        <ele>252</ele>
        <time>2017-04-09T08:27:48Z</time>
      </trkpt>
      <trkpt lat="50.13801" lon="4.19752">
        <ele>250</ele>
        <time>2017-04-09T08:27:56Z</time>
      </trkpt>
      <trkpt lat="50.138" lon="4.19752">
        <ele>248</ele>
        <time>2017-04-09T08:27:58Z</time>
      </trkpt>
      <trkpt lat="50.138" lon="4.19751">
        <ele>247</ele>
        <time>2017-04-09T08:28:03Z</time>
      </trkpt>
      <trkpt lat="50.138" lon="4.19751">
        <ele>246</ele>
        <time>2017-04-09T08:28:07Z</time>
      </trkpt>
      <trkpt lat="50.13802" lon="4.19752">
        <ele>247</ele>
        <time>2017-04-09T08:28:15Z</time>
      </trkpt>
      <trkpt lat="50.13802" lon="4.19752">
        <ele>247</ele>
        <time>2017-04-09T08:28:18Z</time>
      </trkpt>
      <trkpt lat="50.13803" lon="4.19752">
        <ele>247</ele>
        <time>2017-04-09T08:28:22Z</time>
      </trkpt>
      <trkpt lat="50.13803" lon="4.19752">
        <ele>247</ele>
        <time>2017-04-09T08:28:27Z</time>
      </trkpt>
      <trkpt lat="50.13803" lon="4.19752">
        <ele>247</ele>
        <time>2017-04-09T08:28:32Z</time>
      </trkpt>
      <trkpt lat="50.13803" lon="4.19752">
        <ele>247</ele>
        <time>2017-04-09T08:28:37Z</time>
      </trkpt>
      <trkpt lat="50.13803" lon="4.19752">
        <ele>247</ele>
        <time>2017-04-09T08:28:42Z</time>
      </trkpt>
      <trkpt lat="50.13803" lon="4.19752">
        <ele>247</ele>
        <time>2017-04-09T08:28:47Z</time>
      </trkpt>
      <trkpt lat="50.13803" lon="4.19752">
        <ele>245</ele>
        <time>2017-04-09T08:28:56Z</time>
      </trkpt>
      <trkpt lat="50.13803" lon="4.19752">
        <ele>247</ele>
        <time>2017-04-09T08:29:01Z</time>
      </trkpt>
      <trkpt lat="50.13803" lon="4.19752">
        <ele>247</ele>
        <time>2017-04-09T08:29:04Z</time>
      </trkpt>
      <trkpt lat="50.13803" lon="4.19752">
        <ele>246</ele>
        <time>2017-04-09T08:29:07Z</time>
      </trkpt>
      <trkpt lat="50.13803" lon="4.19752">
        <ele>247</ele>
        <time>2017-04-09T08:29:12Z</time>
      </trkpt>
      <trkpt lat="50.13803" lon="4.19752">
        <ele>246</ele>
        <time>2017-04-09T08:29:17Z</time>
      </trkpt>
      <trkpt lat="50.13803" lon="4.19752">
        <ele>247</ele>
        <time>2017-04-09T08:29:26Z</time>
      </trkpt>
      <trkpt lat="50.13803" lon="4.19752">
        <ele>247</ele>
        <time>2017-04-09T08:29:29Z</time>
      </trkpt>
      <trkpt lat="50.13802" lon="4.19752">
        <ele>247</ele>
        <time>2017-04-09T08:29:32Z</time>
      </trkpt>
      <trkpt lat="50.13802" lon="4.19752">
        <ele>247</ele>
        <time>2017-04-09T08:29:37Z</time>
      </trkpt>
      <trkpt lat="50.13802" lon="4.19752">
        <ele>247</ele>
        <time>2017-04-09T08:29:42Z</time>
      </trkpt>
      <trkpt lat="50.13802" lon="4.19752">
        <ele>247</ele>
        <time>2017-04-09T08:29:47Z</time>
      </trkpt>
      <trkpt lat="50.13802" lon="4.19752">
        <ele>247</ele>
        <time>2017-04-09T08:29:52Z</time>
      </trkpt>
      <trkpt lat="50.13802" lon="4.19752">
        <ele>247</ele>
        <time>2017-04-09T08:29:57Z</time>
      </trkpt>
      <trkpt lat="50.13802" lon="4.19752">
        <ele>247</ele>
        <time>2017-04-09T08:30:02Z</time>
      </trkpt>
      <trkpt lat="50.13802" lon="4.19752">
        <ele>247</ele>
        <time>2017-04-09T08:30:10Z</time>
      </trkpt>
      <trkpt lat="50.13802" lon="4.19752">
        <ele>247</ele>
        <time>2017-04-09T08:30:13Z</time>
      </trkpt>
      <trkpt lat="50.13802" lon="4.19752">
        <ele>247</ele>
        <time>2017-04-09T08:30:18Z</time>
      </trkpt>
      <trkpt lat="50.13802" lon="4.19752">
        <ele>247</ele>
        <time>2017-04-09T08:30:23Z</time>
      </trkpt>
      <trkpt lat="50.13802" lon="4.19752">
        <ele>247</ele>
        <time>2017-04-09T08:30:30Z</time>
      </trkpt>
      <trkpt lat="50.13802" lon="4.19752">
        <ele>247</ele>
        <time>2017-04-09T08:30:33Z</time>
      </trkpt>
      <trkpt lat="50.13802" lon="4.19752">
        <ele>247</ele>
        <time>2017-04-09T08:30:37Z</time>
      </trkpt>
      <trkpt lat="50.13802" lon="4.19752">
        <ele>247</ele>
        <time>2017-04-09T08:30:44Z</time>
      </trkpt>
      <trkpt lat="50.13802" lon="4.19752">
        <ele>247</ele>
        <time>2017-04-09T08:30:47Z</time>
      </trkpt>
      <trkpt lat="50.13802" lon="4.19752">
        <ele>247</ele>
        <time>2017-04-09T08:30:52Z</time>
      </trkpt>
      <trkpt lat="50.13802" lon="4.19752">
        <ele>247</ele>
        <time>2017-04-09T08:30:57Z</time>
      </trkpt>
      <trkpt lat="50.13802" lon="4.19752">
        <ele>247</ele>
        <time>2017-04-09T08:31:06Z</time>
      </trkpt>
      <trkpt lat="50.13802" lon="4.19752">
        <ele>247</ele>
        <time>2017-04-09T08:31:09Z</time>
      </trkpt>
      <trkpt lat="50.13802" lon="4.19752">
        <ele>247</ele>
        <time>2017-04-09T08:31:13Z</time>
      </trkpt>
      <trkpt lat="50.13802" lon="4.19752">
        <ele>244</ele>
        <time>2017-04-09T08:31:22Z</time>
      </trkpt>
      <trkpt lat="50.13802" lon="4.19752">
        <ele>244</ele>
        <time>2017-04-09T08:31:22Z</time>
      </trkpt>
      <trkpt lat="50.13802" lon="4.19752">
        <ele>244</ele>
        <time>2017-04-09T08:31:31Z</time>
      </trkpt>
      <trkpt lat="50.13802" lon="4.19752">
        <ele>244</ele>
        <time>2017-04-09T08:31:32Z</time>
      </trkpt>
      <trkpt lat="50.13802" lon="4.19752">
        <ele>245</ele>
        <time>2017-04-09T08:31:38Z</time>
      </trkpt>
      <trkpt lat="50.13802" lon="4.19752">
        <ele>245</ele>
        <time>2017-04-09T08:31:43Z</time>
      </trkpt>
      <trkpt lat="50.13802" lon="4.19752">
        <ele>244</ele>
        <time>2017-04-09T08:31:48Z</time>
      </trkpt>
      <trkpt lat="50.13802" lon="4.19752">
        <ele>245</ele>
        <time>2017-04-09T08:31:53Z</time>
      </trkpt>
      <trkpt lat="50.13802" lon="4.19752">
        <ele>245</ele>
        <time>2017-04-09T08:31:58Z</time>
      </trkpt>
      <trkpt lat="50.13802" lon="4.19752">
        <ele>244</ele>
        <time>2017-04-09T08:32:03Z</time>
      </trkpt>
      <trkpt lat="50.13802" lon="4.19752">
        <ele>244</ele>
        <time>2017-04-09T08:32:07Z</time>
      </trkpt>
      <trkpt lat="50.13802" lon="4.19752">
        <ele>244</ele>
        <time>2017-04-09T08:32:15Z</time>
      </trkpt>
      <trkpt lat="50.13802" lon="4.19752">
        <ele>244</ele>
        <time>2017-04-09T08:32:17Z</time>
      </trkpt>
      <trkpt lat="50.13802" lon="4.19752">
        <ele>244</ele>
        <time>2017-04-09T08:32:22Z</time>
      </trkpt>
      <trkpt lat="50.13802" lon="4.19752">
        <ele>243</ele>
        <time>2017-04-09T08:32:27Z</time>
      </trkpt>
      <trkpt lat="50.13802" lon="4.19752">
        <ele>243</ele>
        <time>2017-04-09T08:32:35Z</time>
      </trkpt>
      <trkpt lat="50.13802" lon="4.19752">
        <ele>243</ele>
        <time>2017-04-09T08:32:42Z</time>
      </trkpt>
      <trkpt lat="50.13802" lon="4.19752">
        <ele>244</ele>
        <time>2017-04-09T08:32:46Z</time>
      </trkpt>
      <trkpt lat="50.13802" lon="4.19752">
        <ele>244</ele>
        <time>2017-04-09T08:32:50Z</time>
      </trkpt>
      <trkpt lat="50.13802" lon="4.19752">
        <ele>244</ele>
        <time>2017-04-09T08:32:54Z</time>
      </trkpt>
      <trkpt lat="50.13802" lon="4.19752">
        <ele>244</ele>
        <time>2017-04-09T08:32:59Z</time>
      </trkpt>
      <trkpt lat="50.13802" lon="4.19752">
        <ele>244</ele>
        <time>2017-04-09T08:33:04Z</time>
      </trkpt>
      <trkpt lat="50.13802" lon="4.19752">
        <ele>244</ele>
        <time>2017-04-09T08:33:09Z</time>
      </trkpt>
      <trkpt lat="50.13802" lon="4.19752">
        <ele>244</ele>
        <time>2017-04-09T08:33:14Z</time>
      </trkpt>
      <trkpt lat="50.13802" lon="4.19752">
        <ele>244</ele>
        <time>2017-04-09T08:33:20Z</time>
      </trkpt>
      <trkpt lat="50.13802" lon="4.19752">
        <ele>243</ele>
        <time>2017-04-09T08:33:23Z</time>
      </trkpt>
      <trkpt lat="50.13802" lon="4.19752">
        <ele>243</ele>
        <time>2017-04-09T08:33:33Z</time>
      </trkpt>
      <trkpt lat="50.13802" lon="4.19752">
        <ele>243</ele>
        <time>2017-04-09T08:33:34Z</time>
      </trkpt>
      <trkpt lat="50.13802" lon="4.19752">
        <ele>243</ele>
        <time>2017-04-09T08:33:40Z</time>
      </trkpt>
      <trkpt lat="50.13802" lon="4.19752">
        <ele>244</ele>
        <time>2017-04-09T08:33:46Z</time>
      </trkpt>
      <trkpt lat="50.13802" lon="4.19752">
        <ele>244</ele>
        <time>2017-04-09T08:33:49Z</time>
      </trkpt>
      <trkpt lat="50.13802" lon="4.19752">
        <ele>244</ele>
        <time>2017-04-09T08:33:54Z</time>
      </trkpt>
      <trkpt lat="50.13802" lon="4.19752">
        <ele>243</ele>
        <time>2017-04-09T08:33:59Z</time>
      </trkpt>
      <trkpt lat="50.13802" lon="4.19752">
        <ele>244</ele>
        <time>2017-04-09T08:34:04Z</time>
      </trkpt>
      <trkpt lat="50.13802" lon="4.19752">
        <ele>244</ele>
        <time>2017-04-09T08:34:09Z</time>
      </trkpt>
      <trkpt lat="50.13802" lon="4.19752">
        <ele>244</ele>
        <time>2017-04-09T08:34:18Z</time>
      </trkpt>
      <trkpt lat="50.13802" lon="4.19752">
        <ele>244</ele>
        <time>2017-04-09T08:34:19Z</time>
      </trkpt>
      <trkpt lat="50.13802" lon="4.19752">
        <ele>245</ele>
        <time>2017-04-09T08:34:23Z</time>
      </trkpt>
      <trkpt lat="50.13802" lon="4.19752">
        <ele>245</ele>
        <time>2017-04-09T08:34:28Z</time>
      </trkpt>
      <trkpt lat="50.13802" lon="4.19752">
        <ele>245</ele>
        <time>2017-04-09T08:34:34Z</time>
      </trkpt>
      <trkpt lat="50.13802" lon="4.19752">
        <ele>244</ele>
        <time>2017-04-09T08:34:39Z</time>
      </trkpt>
      <trkpt lat="50.13802" lon="4.19752">
        <ele>244</ele>
        <time>2017-04-09T08:34:44Z</time>
      </trkpt>
      <trkpt lat="50.13802" lon="4.19752">
        <ele>244</ele>
        <time>2017-04-09T08:34:49Z</time>
      </trkpt>
      <trkpt lat="50.13802" lon="4.19752">
        <ele>245</ele>
        <time>2017-04-09T08:34:54Z</time>
      </trkpt>
      <trkpt lat="50.13802" lon="4.19752">
        <ele>245</ele>
        <time>2017-04-09T08:34:59Z</time>
      </trkpt>
      <trkpt lat="50.13802" lon="4.19752">
        <ele>244</ele>
        <time>2017-04-09T08:35:06Z</time>
      </trkpt>
      <trkpt lat="50.13802" lon="4.1975">
        <ele>244</ele>
        <time>2017-04-09T08:35:10Z</time>
      </trkpt>
      <trkpt lat="50.13802" lon="4.19751">
        <ele>244</ele>
        <time>2017-04-09T08:35:13Z</time>
      </trkpt>
      <trkpt lat="50.13802" lon="4.19752">
        <ele>245</ele>
        <time>2017-04-09T08:35:18Z</time>
      </trkpt>
      <trkpt lat="50.13803" lon="4.19752">
        <ele>248</ele>
        <time>2017-04-09T08:35:23Z</time>
      </trkpt>
      <trkpt lat="50.13801" lon="4.19753">
        <ele>247</ele>
        <time>2017-04-09T08:35:28Z</time>
      </trkpt>
      <trkpt lat="50.13801" lon="4.19754">
        <ele>249</ele>
        <time>2017-04-09T08:35:36Z</time>
      </trkpt>
      <trkpt lat="50.13801" lon="4.19754">
        <ele>249</ele>
        <time>2017-04-09T08:35:39Z</time>
      </trkpt>
      <trkpt lat="50.13801" lon="4.19754">
        <ele>248</ele>
        <time>2017-04-09T08:35:43Z</time>
      </trkpt>
      <trkpt lat="50.138" lon="4.19753">
        <ele>249</ele>
        <time>2017-04-09T08:35:48Z</time>
      </trkpt>
      <trkpt lat="50.138" lon="4.19753">
        <ele>249</ele>
        <time>2017-04-09T08:35:53Z</time>
      </trkpt>
      <trkpt lat="50.13799" lon="4.19756">
        <ele>250</ele>
        <time>2017-04-09T08:35:59Z</time>
      </trkpt>
      <trkpt lat="50.13801" lon="4.1975">
        <ele>250</ele>
        <time>2017-04-09T08:36:03Z</time>
      </trkpt>
      <trkpt lat="50.13806" lon="4.19735">
        <ele>246</ele>
        <time>2017-04-09T08:36:08Z</time>
      </trkpt>
      <trkpt lat="50.13814" lon="4.19718">
        <ele>245</ele>
        <time>2017-04-09T08:36:13Z</time>
      </trkpt>
      <trkpt lat="50.13828" lon="4.19682">
        <ele>250</ele>
        <time>2017-04-09T08:36:22Z</time>
      </trkpt>
      <trkpt lat="50.1383" lon="4.19677">
        <ele>248</ele>
        <time>2017-04-09T08:36:23Z</time>
      </trkpt>
      <trkpt lat="50.1384" lon="4.19655">
        <ele>251</ele>
        <time>2017-04-09T08:36:28Z</time>
      </trkpt>
      <trkpt lat="50.1385" lon="4.19634">
        <ele>253</ele>
        <time>2017-04-09T08:36:33Z</time>
      </trkpt>
      <trkpt lat="50.13863" lon="4.19612">
        <ele>255</ele>
        <time>2017-04-09T08:36:39Z</time>
      </trkpt>
      <trkpt lat="50.13874" lon="4.19613">
        <ele>255</ele>
        <time>2017-04-09T08:36:43Z</time>
      </trkpt>
      <trkpt lat="50.13892" lon="4.19618">
        <ele>254</ele>
        <time>2017-04-09T08:36:48Z</time>
      </trkpt>
      <trkpt lat="50.1391" lon="4.19627">
        <ele>249</ele>
        <time>2017-04-09T08:36:53Z</time>
      </trkpt>
      <trkpt lat="50.13932" lon="4.19635">
        <ele>249</ele>
        <time>2017-04-09T08:36:58Z</time>
      </trkpt>
      <trkpt lat="50.1396" lon="4.19641">
        <ele>253</ele>
        <time>2017-04-09T08:37:03Z</time>
      </trkpt>
      <trkpt lat="50.1399" lon="4.19654">
        <ele>254</ele>
        <time>2017-04-09T08:37:09Z</time>
      </trkpt>
      <trkpt lat="50.14034" lon="4.19665">
        <ele>255</ele>
        <time>2017-04-09T08:37:17Z</time>
      </trkpt>
      <trkpt lat="50.14046" lon="4.19669">
        <ele>254</ele>
        <time>2017-04-09T08:37:19Z</time>
      </trkpt>
      <trkpt lat="50.14073" lon="4.1967">
        <ele>255</ele>
        <time>2017-04-09T08:37:28Z</time>
      </trkpt>
      <trkpt lat="50.14068" lon="4.19671">
        <ele>254</ele>
        <time>2017-04-09T08:37:30Z</time>
      </trkpt>
      <trkpt lat="50.14059" lon="4.19671">
        <ele>254</ele>
        <time>2017-04-09T08:37:34Z</time>
      </trkpt>
      <trkpt lat="50.14053" lon="4.197">
        <ele>250</ele>
        <time>2017-04-09T08:37:43Z</time>
      </trkpt>
      <trkpt lat="50.14055" lon="4.19703">
        <ele>250</ele>
        <time>2017-04-09T08:37:44Z</time>
      </trkpt>
      <trkpt lat="50.14064" lon="4.19731">
        <ele>251</ele>
        <time>2017-04-09T08:37:51Z</time>
      </trkpt>
      <trkpt lat="50.14067" lon="4.19746">
        <ele>252</ele>
        <time>2017-04-09T08:37:54Z</time>
      </trkpt>
      <trkpt lat="50.14067" lon="4.19767">
        <ele>247</ele>
        <time>2017-04-09T08:37:59Z</time>
      </trkpt>
      <trkpt lat="50.14065" lon="4.19795">
        <ele>244</ele>
        <time>2017-04-09T08:38:04Z</time>
      </trkpt>
      <trkpt lat="50.14066" lon="4.19832">
        <ele>245</ele>
        <time>2017-04-09T08:38:09Z</time>
      </trkpt>
      <trkpt lat="50.14069" lon="4.19884">
        <ele>246</ele>
        <time>2017-04-09T08:38:14Z</time>
      </trkpt>
      <trkpt lat="50.1407" lon="4.19975">
        <ele>243</ele>
        <time>2017-04-09T08:38:22Z</time>
      </trkpt>
      <trkpt lat="50.14075" lon="4.19995">
        <ele>245</ele>
        <time>2017-04-09T08:38:24Z</time>
      </trkpt>
      <trkpt lat="50.14088" lon="4.20053">
        <ele>244</ele>
        <time>2017-04-09T08:38:33Z</time>
      </trkpt>
      <trkpt lat="50.14096" lon="4.20072">
        <ele>246</ele>
        <time>2017-04-09T08:38:38Z</time>
      </trkpt>
      <trkpt lat="50.14098" lon="4.20076">
        <ele>246</ele>
        <time>2017-04-09T08:38:39Z</time>
      </trkpt>
      <trkpt lat="50.14107" lon="4.20098">
        <ele>239</ele>
        <time>2017-04-09T08:38:45Z</time>
      </trkpt>
      <trkpt lat="50.14123" lon="4.20127">
        <ele>239</ele>
        <time>2017-04-09T08:38:53Z</time>
      </trkpt>
      <trkpt lat="50.14129" lon="4.20137">
        <ele>240</ele>
        <time>2017-04-09T08:38:56Z</time>
      </trkpt>
      <trkpt lat="50.14134" lon="4.20148">
        <ele>242</ele>
        <time>2017-04-09T08:38:59Z</time>
      </trkpt>
      <trkpt lat="50.1415" lon="4.2017">
        <ele>239</ele>
        <time>2017-04-09T08:39:04Z</time>
      </trkpt>
      <trkpt lat="50.1416" lon="4.20178">
        <ele>247</ele>
        <time>2017-04-09T08:39:10Z</time>
      </trkpt>
      <trkpt lat="50.14171" lon="4.20198">
        <ele>246</ele>
        <time>2017-04-09T08:39:17Z</time>
      </trkpt>
      <trkpt lat="50.14173" lon="4.20203">
        <ele>246</ele>
        <time>2017-04-09T08:39:19Z</time>
      </trkpt>
      <trkpt lat="50.14183" lon="4.20213">
        <ele>247</ele>
        <time>2017-04-09T08:39:24Z</time>
      </trkpt>
      <trkpt lat="50.14191" lon="4.20228">
        <ele>242</ele>
        <time>2017-04-09T08:39:30Z</time>
      </trkpt>
      <trkpt lat="50.14194" lon="4.2024">
        <ele>244</ele>
        <time>2017-04-09T08:39:34Z</time>
      </trkpt>
      <trkpt lat="50.14206" lon="4.20255">
        <ele>226</ele>
        <time>2017-04-09T08:39:43Z</time>
      </trkpt>
      <trkpt lat="50.14207" lon="4.20257">
        <ele>228</ele>
        <time>2017-04-09T08:39:45Z</time>
      </trkpt>
      <trkpt lat="50.14211" lon="4.20262">
        <ele>228</ele>
        <time>2017-04-09T08:39:49Z</time>
      </trkpt>
      <trkpt lat="50.14216" lon="4.20272">
        <ele>228</ele>
        <time>2017-04-09T08:39:54Z</time>
      </trkpt>
      <trkpt lat="50.14221" lon="4.20283">
        <ele>226</ele>
        <time>2017-04-09T08:39:59Z</time>
      </trkpt>
      <trkpt lat="50.14229" lon="4.20292">
        <ele>229</ele>
        <time>2017-04-09T08:40:04Z</time>
      </trkpt>
      <trkpt lat="50.14238" lon="4.20301">
        <ele>232</ele>
        <time>2017-04-09T08:40:09Z</time>
      </trkpt>
      <trkpt lat="50.14248" lon="4.20326">
        <ele>229</ele>
        <time>2017-04-09T08:40:18Z</time>
      </trkpt>
      <trkpt lat="50.1425" lon="4.20338">
        <ele>229</ele>
        <time>2017-04-09T08:40:22Z</time>
      </trkpt>
      <trkpt lat="50.1425" lon="4.20345">
        <ele>230</ele>
        <time>2017-04-09T08:40:24Z</time>
      </trkpt>
      <trkpt lat="50.14245" lon="4.20362">
        <ele>229</ele>
        <time>2017-04-09T08:40:30Z</time>
      </trkpt>
      <trkpt lat="50.14238" lon="4.20366">
        <ele>227</ele>
        <time>2017-04-09T08:40:34Z</time>
      </trkpt>
      <trkpt lat="50.14231" lon="4.20373">
        <ele>228</ele>
        <time>2017-04-09T08:40:39Z</time>
      </trkpt>
      <trkpt lat="50.14223" lon="4.20382">
        <ele>227</ele>
        <time>2017-04-09T08:40:44Z</time>
      </trkpt>
      <trkpt lat="50.14215" lon="4.20392">
        <ele>226</ele>
        <time>2017-04-09T08:40:49Z</time>
      </trkpt>
      <trkpt lat="50.14205" lon="4.20404">
        <ele>226</ele>
        <time>2017-04-09T08:40:54Z</time>
      </trkpt>
      <trkpt lat="50.14195" lon="4.20417">
        <ele>225</ele>
        <time>2017-04-09T08:40:59Z</time>
      </trkpt>
      <trkpt lat="50.14186" lon="4.20432">
        <ele>228</ele>
        <time>2017-04-09T08:41:05Z</time>
      </trkpt>
      <trkpt lat="50.14178" lon="4.20466">
        <ele>227</ele>
        <time>2017-04-09T08:41:13Z</time>
      </trkpt>
      <trkpt lat="50.14183" lon="4.20477">
        <ele>228</ele>
        <time>2017-04-09T08:41:16Z</time>
      </trkpt>
      <trkpt lat="50.14188" lon="4.2049">
        <ele>229</ele>
        <time>2017-04-09T08:41:19Z</time>
      </trkpt>
      <trkpt lat="50.14192" lon="4.20511">
        <ele>229</ele>
        <time>2017-04-09T08:41:24Z</time>
      </trkpt>
      <trkpt lat="50.14199" lon="4.20533">
        <ele>230</ele>
        <time>2017-04-09T08:41:29Z</time>
      </trkpt>
      <trkpt lat="50.14211" lon="4.20563">
        <ele>227</ele>
        <time>2017-04-09T08:41:36Z</time>
      </trkpt>
      <trkpt lat="50.14218" lon="4.20589">
        <ele>228</ele>
        <time>2017-04-09T08:41:42Z</time>
      </trkpt>
      <trkpt lat="50.1422" lon="4.20597">
        <ele>228</ele>
        <time>2017-04-09T08:41:44Z</time>
      </trkpt>
      <trkpt lat="50.1423" lon="4.20612">
        <ele>230</ele>
        <time>2017-04-09T08:41:49Z</time>
      </trkpt>
      <trkpt lat="50.14235" lon="4.20634">
        <ele>231</ele>
        <time>2017-04-09T08:41:54Z</time>
      </trkpt>
      <trkpt lat="50.14246" lon="4.20662">
        <ele>234</ele>
        <time>2017-04-09T08:42:00Z</time>
      </trkpt>
      <trkpt lat="50.14255" lon="4.20678">
        <ele>233</ele>
        <time>2017-04-09T08:42:04Z</time>
      </trkpt>
      <trkpt lat="50.14292" lon="4.20716">
        <ele>234</ele>
        <time>2017-04-09T08:42:13Z</time>
      </trkpt>
      <trkpt lat="50.14295" lon="4.20719">
        <ele>234</ele>
        <time>2017-04-09T08:42:14Z</time>
      </trkpt>
      <trkpt lat="50.14316" lon="4.20738">
        <ele>234</ele>
        <time>2017-04-09T08:42:19Z</time>
      </trkpt>
      <trkpt lat="50.14334" lon="4.20756">
        <ele>228</ele>
        <time>2017-04-09T08:42:24Z</time>
      </trkpt>
      <trkpt lat="50.14363" lon="4.208">
        <ele>228</ele>
        <time>2017-04-09T08:42:31Z</time>
      </trkpt>
      <trkpt lat="50.1437" lon="4.20813">
        <ele>230</ele>
        <time>2017-04-09T08:42:34Z</time>
      </trkpt>
      <trkpt lat="50.14378" lon="4.20835">
        <ele>231</ele>
        <time>2017-04-09T08:42:39Z</time>
      </trkpt>
      <trkpt lat="50.14381" lon="4.20861">
        <ele>231</ele>
        <time>2017-04-09T08:42:44Z</time>
      </trkpt>
      <trkpt lat="50.14386" lon="4.20897">
        <ele>229</ele>
        <time>2017-04-09T08:42:49Z</time>
      </trkpt>
      <trkpt lat="50.14394" lon="4.20944">
        <ele>228</ele>
        <time>2017-04-09T08:42:56Z</time>
      </trkpt>
      <trkpt lat="50.14406" lon="4.20999">
        <ele>227</ele>
        <time>2017-04-09T08:43:02Z</time>
      </trkpt>
      <trkpt lat="50.14409" lon="4.21021">
        <ele>227</ele>
        <time>2017-04-09T08:43:04Z</time>
      </trkpt>
      <trkpt lat="50.14399" lon="4.21112">
        <ele>224</ele>
        <time>2017-04-09T08:43:12Z</time>
      </trkpt>
      <trkpt lat="50.14385" lon="4.21128">
        <ele>224</ele>
        <time>2017-04-09T08:43:14Z</time>
      </trkpt>
      <trkpt lat="50.14361" lon="4.21178">
        <ele>226</ele>
        <time>2017-04-09T08:43:21Z</time>
      </trkpt>
      <trkpt lat="50.14367" lon="4.21191">
        <ele>225</ele>
        <time>2017-04-09T08:43:24Z</time>
      </trkpt>
      <trkpt lat="50.14391" lon="4.21208">
        <ele>225</ele>
        <time>2017-04-09T08:43:32Z</time>
      </trkpt>
      <trkpt lat="50.14397" lon="4.21215">
        <ele>229</ele>
        <time>2017-04-09T08:43:34Z</time>
      </trkpt>
      <trkpt lat="50.14411" lon="4.21227">
        <ele>231</ele>
        <time>2017-04-09T08:43:39Z</time>
      </trkpt>
      <trkpt lat="50.14425" lon="4.21233">
        <ele>231</ele>
        <time>2017-04-09T08:43:44Z</time>
      </trkpt>
      <trkpt lat="50.14437" lon="4.21238">
        <ele>231</ele>
        <time>2017-04-09T08:43:49Z</time>
      </trkpt>
      <trkpt lat="50.14445" lon="4.21242">
        <ele>232</ele>
        <time>2017-04-09T08:43:54Z</time>
      </trkpt>
      <trkpt lat="50.14452" lon="4.21254">
        <ele>232</ele>
        <time>2017-04-09T08:43:59Z</time>
      </trkpt>
      <trkpt lat="50.14461" lon="4.2127">
        <ele>236</ele>
        <time>2017-04-09T08:44:04Z</time>
      </trkpt>
      <trkpt lat="50.14471" lon="4.21286">
        <ele>236</ele>
        <time>2017-04-09T08:44:09Z</time>
      </trkpt>
      <trkpt lat="50.14476" lon="4.21301">
        <ele>238</ele>
        <time>2017-04-09T08:44:14Z</time>
      </trkpt>
      <trkpt lat="50.14483" lon="4.21315">
        <ele>237</ele>
        <time>2017-04-09T08:44:19Z</time>
      </trkpt>
      <trkpt lat="50.14489" lon="4.21328">
        <ele>236</ele>
        <time>2017-04-09T08:44:24Z</time>
      </trkpt>
      <trkpt lat="50.14497" lon="4.21341">
        <ele>239</ele>
        <time>2017-04-09T08:44:29Z</time>
      </trkpt>
      <trkpt lat="50.14504" lon="4.21355">
        <ele>243</ele>
        <time>2017-04-09T08:44:34Z</time>
      </trkpt>
      <trkpt lat="50.14506" lon="4.21372">
        <ele>239</ele>
        <time>2017-04-09T08:44:39Z</time>
      </trkpt>
      <trkpt lat="50.14519" lon="4.214">
        <ele>243</ele>
        <time>2017-04-09T08:44:47Z</time>
      </trkpt>
      <trkpt lat="50.14521" lon="4.21409">
        <ele>242</ele>
        <time>2017-04-09T08:44:49Z</time>
      </trkpt>
      <trkpt lat="50.14523" lon="4.21428">
        <ele>239</ele>
        <time>2017-04-09T08:44:54Z</time>
      </trkpt>
      <trkpt lat="50.14525" lon="4.21443">
        <ele>238</ele>
        <time>2017-04-09T08:44:59Z</time>
      </trkpt>
      <trkpt lat="50.14518" lon="4.21459">
        <ele>237</ele>
        <time>2017-04-09T08:45:04Z</time>
      </trkpt>
      <trkpt lat="50.14505" lon="4.21479">
        <ele>237</ele>
        <time>2017-04-09T08:45:09Z</time>
      </trkpt>
      <trkpt lat="50.14475" lon="4.21519">
        <ele>236</ele>
        <time>2017-04-09T08:45:17Z</time>
      </trkpt>
      <trkpt lat="50.14464" lon="4.21538">
        <ele>236</ele>
        <time>2017-04-09T08:45:20Z</time>
      </trkpt>
      <trkpt lat="50.14448" lon="4.21559">
        <ele>235</ele>
        <time>2017-04-09T08:45:24Z</time>
      </trkpt>
      <trkpt lat="50.14418" lon="4.21598">
        <ele>235</ele>
        <time>2017-04-09T08:45:31Z</time>
      </trkpt>
      <trkpt lat="50.14404" lon="4.21616">
        <ele>236</ele>
        <time>2017-04-09T08:45:34Z</time>
      </trkpt>
      <trkpt lat="50.14382" lon="4.21649">
        <ele>234</ele>
        <time>2017-04-09T08:45:39Z</time>
      </trkpt>
      <trkpt lat="50.1436" lon="4.2168">
        <ele>232</ele>
        <time>2017-04-09T08:45:44Z</time>
      </trkpt>
      <trkpt lat="50.14337" lon="4.21708">
        <ele>234</ele>
        <time>2017-04-09T08:45:49Z</time>
      </trkpt>
      <trkpt lat="50.14311" lon="4.21751">
        <ele>230</ele>
        <time>2017-04-09T08:45:55Z</time>
      </trkpt>
      <trkpt lat="50.14296" lon="4.21822">
        <ele>227</ele>
        <time>2017-04-09T08:46:02Z</time>
      </trkpt>
      <trkpt lat="50.14295" lon="4.21844">
        <ele>226</ele>
        <time>2017-04-09T08:46:04Z</time>
      </trkpt>
      <trkpt lat="50.14295" lon="4.21933">
        <ele>226</ele>
        <time>2017-04-09T08:46:12Z</time>
      </trkpt>
      <trkpt lat="50.14294" lon="4.21955">
        <ele>225</ele>
        <time>2017-04-09T08:46:14Z</time>
      </trkpt>
      <trkpt lat="50.14292" lon="4.22007">
        <ele>223</ele>
        <time>2017-04-09T08:46:19Z</time>
      </trkpt>
      <trkpt lat="50.143" lon="4.22104">
        <ele>217</ele>
        <time>2017-04-09T08:46:28Z</time>
      </trkpt>
      <trkpt lat="50.14305" lon="4.22115">
        <ele>216</ele>
        <time>2017-04-09T08:46:29Z</time>
      </trkpt>
      <trkpt lat="50.14325" lon="4.22176">
        <ele>212</ele>
        <time>2017-04-09T08:46:34Z</time>
      </trkpt>
      <trkpt lat="50.14349" lon="4.2224">
        <ele>208</ele>
        <time>2017-04-09T08:46:39Z</time>
      </trkpt>
      <trkpt lat="50.14371" lon="4.22324">
        <ele>206</ele>
        <time>2017-04-09T08:46:45Z</time>
      </trkpt>
      <trkpt lat="50.14384" lon="4.22378">
        <ele>205</ele>
        <time>2017-04-09T08:46:49Z</time>
      </trkpt>
      <trkpt lat="50.14407" lon="4.2243">
        <ele>206</ele>
        <time>2017-04-09T08:46:54Z</time>
      </trkpt>
      <trkpt lat="50.14431" lon="4.2245">
        <ele>206</ele>
        <time>2017-04-09T08:46:59Z</time>
      </trkpt>
      <trkpt lat="50.14445" lon="4.22421">
        <ele>207</ele>
        <time>2017-04-09T08:47:06Z</time>
      </trkpt>
      <trkpt lat="50.14452" lon="4.22401">
        <ele>208</ele>
        <time>2017-04-09T08:47:09Z</time>
      </trkpt>
      <trkpt lat="50.1446" lon="4.22374">
        <ele>209</ele>
        <time>2017-04-09T08:47:14Z</time>
      </trkpt>
      <trkpt lat="50.14471" lon="4.22349">
        <ele>207</ele>
        <time>2017-04-09T08:47:20Z</time>
      </trkpt>
      <trkpt lat="50.14476" lon="4.22332">
        <ele>209</ele>
        <time>2017-04-09T08:47:24Z</time>
      </trkpt>
      <trkpt lat="50.14483" lon="4.22315">
        <ele>207</ele>
        <time>2017-04-09T08:47:29Z</time>
      </trkpt>
      <trkpt lat="50.14497" lon="4.22309">
        <ele>209</ele>
        <time>2017-04-09T08:47:34Z</time>
      </trkpt>
      <trkpt lat="50.14509" lon="4.223">
        <ele>213</ele>
        <time>2017-04-09T08:47:39Z</time>
      </trkpt>
      <trkpt lat="50.14518" lon="4.22292">
        <ele>214</ele>
        <time>2017-04-09T08:47:44Z</time>
      </trkpt>
      <trkpt lat="50.14526" lon="4.22288">
        <ele>213</ele>
        <time>2017-04-09T08:47:49Z</time>
      </trkpt>
      <trkpt lat="50.14533" lon="4.22277">
        <ele>217</ele>
        <time>2017-04-09T08:47:54Z</time>
      </trkpt>
      <trkpt lat="50.14542" lon="4.22267">
        <ele>217</ele>
        <time>2017-04-09T08:47:59Z</time>
      </trkpt>
      <trkpt lat="50.14552" lon="4.22259">
        <ele>218</ele>
        <time>2017-04-09T08:48:04Z</time>
      </trkpt>
      <trkpt lat="50.14567" lon="4.22242">
        <ele>220</ele>
        <time>2017-04-09T08:48:11Z</time>
      </trkpt>
      <trkpt lat="50.14573" lon="4.22237">
        <ele>222</ele>
        <time>2017-04-09T08:48:14Z</time>
      </trkpt>
      <trkpt lat="50.14581" lon="4.22227">
        <ele>221</ele>
        <time>2017-04-09T08:48:19Z</time>
      </trkpt>
      <trkpt lat="50.1459" lon="4.22217">
        <ele>227</ele>
        <time>2017-04-09T08:48:25Z</time>
      </trkpt>
      <trkpt lat="50.14596" lon="4.2221">
        <ele>229</ele>
        <time>2017-04-09T08:48:29Z</time>
      </trkpt>
      <trkpt lat="50.14608" lon="4.22198">
        <ele>226</ele>
        <time>2017-04-09T08:48:36Z</time>
      </trkpt>
      <trkpt lat="50.14614" lon="4.22192">
        <ele>225</ele>
        <time>2017-04-09T08:48:39Z</time>
      </trkpt>
      <trkpt lat="50.14622" lon="4.22185">
        <ele>229</ele>
        <time>2017-04-09T08:48:44Z</time>
      </trkpt>
      <trkpt lat="50.1463" lon="4.22177">
        <ele>233</ele>
        <time>2017-04-09T08:48:50Z</time>
      </trkpt>
      <trkpt lat="50.14636" lon="4.22171">
        <ele>235</ele>
        <time>2017-04-09T08:48:54Z</time>
      </trkpt>
      <trkpt lat="50.14644" lon="4.22161">
        <ele>227</ele>
        <time>2017-04-09T08:49:00Z</time>
      </trkpt>
      <trkpt lat="50.14654" lon="4.22151">
        <ele>233</ele>
        <time>2017-04-09T08:49:07Z</time>
      </trkpt>
      <trkpt lat="50.14659" lon="4.22145">
        <ele>231</ele>
        <time>2017-04-09T08:49:11Z</time>
      </trkpt>
      <trkpt lat="50.14663" lon="4.22141">
        <ele>230</ele>
        <time>2017-04-09T08:49:14Z</time>
      </trkpt>
      <trkpt lat="50.1467" lon="4.22132">
        <ele>226</ele>
        <time>2017-04-09T08:49:20Z</time>
      </trkpt>
      <trkpt lat="50.14677" lon="4.22124">
        <ele>231</ele>
        <time>2017-04-09T08:49:25Z</time>
      </trkpt>
      <trkpt lat="50.14681" lon="4.22119">
        <ele>230</ele>
        <time>2017-04-09T08:49:29Z</time>
      </trkpt>
      <trkpt lat="50.14689" lon="4.22112">
        <ele>232</ele>
        <time>2017-04-09T08:49:34Z</time>
      </trkpt>
      <trkpt lat="50.14695" lon="4.22104">
        <ele>233</ele>
        <time>2017-04-09T08:49:39Z</time>
      </trkpt>
      <trkpt lat="50.14709" lon="4.2209">
        <ele>235</ele>
        <time>2017-04-09T08:49:48Z</time>
      </trkpt>
      <trkpt lat="50.14711" lon="4.22088">
        <ele>235</ele>
        <time>2017-04-09T08:49:49Z</time>
      </trkpt>
      <trkpt lat="50.14718" lon="4.22079">
        <ele>240</ele>
        <time>2017-04-09T08:49:54Z</time>
      </trkpt>
      <trkpt lat="50.14726" lon="4.22071">
        <ele>235</ele>
        <time>2017-04-09T08:49:59Z</time>
      </trkpt>
      <trkpt lat="50.14734" lon="4.22064">
        <ele>236</ele>
        <time>2017-04-09T08:50:04Z</time>
      </trkpt>
      <trkpt lat="50.14742" lon="4.22057">
        <ele>237</ele>
        <time>2017-04-09T08:50:09Z</time>
      </trkpt>
      <trkpt lat="50.14748" lon="4.2205">
        <ele>235</ele>
        <time>2017-04-09T08:50:14Z</time>
      </trkpt>
      <trkpt lat="50.14755" lon="4.22047">
        <ele>234</ele>
        <time>2017-04-09T08:50:19Z</time>
      </trkpt>
      <trkpt lat="50.14762" lon="4.22039">
        <ele>239</ele>
        <time>2017-04-09T08:50:25Z</time>
      </trkpt>
      <trkpt lat="50.14768" lon="4.22031">
        <ele>240</ele>
        <time>2017-04-09T08:50:30Z</time>
      </trkpt>
      <trkpt lat="50.14772" lon="4.22024">
        <ele>244</ele>
        <time>2017-04-09T08:50:34Z</time>
      </trkpt>
      <trkpt lat="50.14779" lon="4.22015">
        <ele>245</ele>
        <time>2017-04-09T08:50:39Z</time>
      </trkpt>
      <trkpt lat="50.14789" lon="4.22006">
        <ele>245</ele>
        <time>2017-04-09T08:50:44Z</time>
      </trkpt>
      <trkpt lat="50.14816" lon="4.21979">
        <ele>236</ele>
        <time>2017-04-09T08:50:51Z</time>
      </trkpt>
      <trkpt lat="50.14823" lon="4.21969">
        <ele>240</ele>
        <time>2017-04-09T08:50:54Z</time>
      </trkpt>
      <trkpt lat="50.14835" lon="4.21957">
        <ele>246</ele>
        <time>2017-04-09T08:51:01Z</time>
      </trkpt>
      <trkpt lat="50.14838" lon="4.21954">
        <ele>250</ele>
        <time>2017-04-09T08:51:04Z</time>
      </trkpt>
      <trkpt lat="50.14845" lon="4.21944">
        <ele>247</ele>
        <time>2017-04-09T08:51:09Z</time>
      </trkpt>
      <trkpt lat="50.14854" lon="4.21937">
        <ele>251</ele>
        <time>2017-04-09T08:51:14Z</time>
      </trkpt>
      <trkpt lat="50.14863" lon="4.21931">
        <ele>248</ele>
        <time>2017-04-09T08:51:19Z</time>
      </trkpt>
      <trkpt lat="50.14872" lon="4.21923">
        <ele>251</ele>
        <time>2017-04-09T08:51:24Z</time>
      </trkpt>
      <trkpt lat="50.14879" lon="4.21913">
        <ele>253</ele>
        <time>2017-04-09T08:51:29Z</time>
      </trkpt>
      <trkpt lat="50.14891" lon="4.219">
        <ele>252</ele>
        <time>2017-04-09T08:51:37Z</time>
      </trkpt>
      <trkpt lat="50.14894" lon="4.21896">
        <ele>254</ele>
        <time>2017-04-09T08:51:39Z</time>
      </trkpt>
      <trkpt lat="50.14902" lon="4.21891">
        <ele>249</ele>
        <time>2017-04-09T08:51:44Z</time>
      </trkpt>
      <trkpt lat="50.14909" lon="4.21886">
        <ele>253</ele>
        <time>2017-04-09T08:51:49Z</time>
      </trkpt>
      <trkpt lat="50.14918" lon="4.21878">
        <ele>250</ele>
        <time>2017-04-09T08:51:55Z</time>
      </trkpt>
      <trkpt lat="50.14927" lon="4.21867">
        <ele>231</ele>
        <time>2017-04-09T08:52:02Z</time>
      </trkpt>
      <trkpt lat="50.1493" lon="4.21863">
        <ele>232</ele>
        <time>2017-04-09T08:52:04Z</time>
      </trkpt>
      <trkpt lat="50.14938" lon="4.21856">
        <ele>228</ele>
        <time>2017-04-09T08:52:09Z</time>
      </trkpt>
      <trkpt lat="50.14953" lon="4.21841">
        <ele>230</ele>
        <time>2017-04-09T08:52:18Z</time>
      </trkpt>
      <trkpt lat="50.14954" lon="4.21839">
        <ele>231</ele>
        <time>2017-04-09T08:52:19Z</time>
      </trkpt>
      <trkpt lat="50.14968" lon="4.2182">
        <ele>228</ele>
        <time>2017-04-09T08:52:28Z</time>
      </trkpt>
      <trkpt lat="50.14971" lon="4.21816">
        <ele>228</ele>
        <time>2017-04-09T08:52:30Z</time>
      </trkpt>
      <trkpt lat="50.14981" lon="4.21805">
        <ele>227</ele>
        <time>2017-04-09T08:52:35Z</time>
      </trkpt>
      <trkpt lat="50.1499" lon="4.21797">
        <ele>227</ele>
        <time>2017-04-09T08:52:39Z</time>
      </trkpt>
      <trkpt lat="50.15002" lon="4.21786">
        <ele>225</ele>
        <time>2017-04-09T08:52:45Z</time>
      </trkpt>
      <trkpt lat="50.15016" lon="4.21772">
        <ele>227</ele>
        <time>2017-04-09T08:52:51Z</time>
      </trkpt>
      <trkpt lat="50.15024" lon="4.21765">
        <ele>230</ele>
        <time>2017-04-09T08:52:54Z</time>
      </trkpt>
      <trkpt lat="50.15035" lon="4.21755">
        <ele>228</ele>
        <time>2017-04-09T08:52:59Z</time>
      </trkpt>
      <trkpt lat="50.15045" lon="4.21744">
        <ele>230</ele>
        <time>2017-04-09T08:53:04Z</time>
      </trkpt>
      <trkpt lat="50.15055" lon="4.21733">
        <ele>227</ele>
        <time>2017-04-09T08:53:09Z</time>
      </trkpt>
      <trkpt lat="50.15072" lon="4.21716">
        <ele>227</ele>
        <time>2017-04-09T08:53:18Z</time>
      </trkpt>
      <trkpt lat="50.15074" lon="4.21714">
        <ele>227</ele>
        <time>2017-04-09T08:53:19Z</time>
      </trkpt>
      <trkpt lat="50.15084" lon="4.21701">
        <ele>227</ele>
        <time>2017-04-09T08:53:25Z</time>
      </trkpt>
      <trkpt lat="50.15098" lon="4.21688">
        <ele>229</ele>
        <time>2017-04-09T08:53:31Z</time>
      </trkpt>
      <trkpt lat="50.15103" lon="4.2168">
        <ele>233</ele>
        <time>2017-04-09T08:53:34Z</time>
      </trkpt>
      <trkpt lat="50.15112" lon="4.21672">
        <ele>233</ele>
        <time>2017-04-09T08:53:39Z</time>
      </trkpt>
      <trkpt lat="50.15123" lon="4.21662">
        <ele>229</ele>
        <time>2017-04-09T08:53:44Z</time>
      </trkpt>
      <trkpt lat="50.15143" lon="4.21643">
        <ele>232</ele>
        <time>2017-04-09T08:53:53Z</time>
      </trkpt>
      <trkpt lat="50.15148" lon="4.21639">
        <ele>232</ele>
        <time>2017-04-09T08:53:55Z</time>
      </trkpt>
      <trkpt lat="50.15162" lon="4.21623">
        <ele>235</ele>
        <time>2017-04-09T08:54:02Z</time>
      </trkpt>
      <trkpt lat="50.15166" lon="4.21618">
        <ele>237</ele>
        <time>2017-04-09T08:54:04Z</time>
      </trkpt>
      <trkpt lat="50.15176" lon="4.21609">
        <ele>240</ele>
        <time>2017-04-09T08:54:09Z</time>
      </trkpt>
      <trkpt lat="50.15187" lon="4.21597">
        <ele>236</ele>
        <time>2017-04-09T08:54:14Z</time>
      </trkpt>
      <trkpt lat="50.15197" lon="4.21589">
        <ele>238</ele>
        <time>2017-04-09T08:54:19Z</time>
      </trkpt>
      <trkpt lat="50.15205" lon="4.21582">
        <ele>237</ele>
        <time>2017-04-09T08:54:24Z</time>
      </trkpt>
      <trkpt lat="50.1521" lon="4.21569">
        <ele>240</ele>
        <time>2017-04-09T08:54:29Z</time>
      </trkpt>
      <trkpt lat="50.15217" lon="4.21558">
        <ele>249</ele>
        <time>2017-04-09T08:54:34Z</time>
      </trkpt>
      <trkpt lat="50.1522" lon="4.21554">
        <ele>234</ele>
        <time>2017-04-09T08:54:39Z</time>
      </trkpt>
      <trkpt lat="50.15219" lon="4.21555">
        <ele>233</ele>
        <time>2017-04-09T08:54:44Z</time>
      </trkpt>
      <trkpt lat="50.15219" lon="4.21556">
        <ele>233</ele>
        <time>2017-04-09T08:54:50Z</time>
      </trkpt>
      <trkpt lat="50.15218" lon="4.21556">
        <ele>232</ele>
        <time>2017-04-09T08:54:54Z</time>
      </trkpt>
      <trkpt lat="50.15218" lon="4.21556">
        <ele>229</ele>
        <time>2017-04-09T08:54:59Z</time>
      </trkpt>
      <trkpt lat="50.15221" lon="4.21545">
        <ele>229</ele>
        <time>2017-04-09T08:55:08Z</time>
      </trkpt>
      <trkpt lat="50.15221" lon="4.21541">
        <ele>232</ele>
        <time>2017-04-09T08:55:10Z</time>
      </trkpt>
      <trkpt lat="50.15216" lon="4.21529">
        <ele>235</ele>
        <time>2017-04-09T08:55:15Z</time>
      </trkpt>
      <trkpt lat="50.15209" lon="4.21521">
        <ele>241</ele>
        <time>2017-04-09T08:55:20Z</time>
      </trkpt>
      <trkpt lat="50.15203" lon="4.21514">
        <ele>238</ele>
        <time>2017-04-09T08:55:24Z</time>
      </trkpt>
      <trkpt lat="50.15195" lon="4.21505">
        <ele>241</ele>
        <time>2017-04-09T08:55:29Z</time>
      </trkpt>
      <trkpt lat="50.15187" lon="4.21492">
        <ele>236</ele>
        <time>2017-04-09T08:55:34Z</time>
      </trkpt>
      <trkpt lat="50.15178" lon="4.21478">
        <ele>237</ele>
        <time>2017-04-09T08:55:39Z</time>
      </trkpt>
      <trkpt lat="50.15163" lon="4.21458">
        <ele>233</ele>
        <time>2017-04-09T08:55:47Z</time>
      </trkpt>
      <trkpt lat="50.15158" lon="4.21451">
        <ele>234</ele>
        <time>2017-04-09T08:55:49Z</time>
      </trkpt>
      <trkpt lat="50.15141" lon="4.21429">
        <ele>247</ele>
        <time>2017-04-09T08:55:55Z</time>
      </trkpt>
      <trkpt lat="50.15128" lon="4.21413">
        <ele>248</ele>
        <time>2017-04-09T08:55:59Z</time>
      </trkpt>
      <trkpt lat="50.15112" lon="4.21394">
        <ele>249</ele>
        <time>2017-04-09T08:56:04Z</time>
      </trkpt>
      <trkpt lat="50.15099" lon="4.21373">
        <ele>250</ele>
        <time>2017-04-09T08:56:09Z</time>
      </trkpt>
      <trkpt lat="50.15088" lon="4.21348">
        <ele>250</ele>
        <time>2017-04-09T08:56:14Z</time>
      </trkpt>
      <trkpt lat="50.15078" lon="4.21323">
        <ele>251</ele>
        <time>2017-04-09T08:56:19Z</time>
      </trkpt>
      <trkpt lat="50.15067" lon="4.21299">
        <ele>250</ele>
        <time>2017-04-09T08:56:24Z</time>
      </trkpt>
      <trkpt lat="50.1506" lon="4.21273">
        <ele>251</ele>
        <time>2017-04-09T08:56:29Z</time>
      </trkpt>
      <trkpt lat="50.15051" lon="4.21248">
        <ele>251</ele>
        <time>2017-04-09T08:56:34Z</time>
      </trkpt>
      <trkpt lat="50.15041" lon="4.21223">
        <ele>250</ele>
        <time>2017-04-09T08:56:39Z</time>
      </trkpt>
      <trkpt lat="50.15033" lon="4.212">
        <ele>249</ele>
        <time>2017-04-09T08:56:44Z</time>
      </trkpt>
      <trkpt lat="50.15026" lon="4.21169">
        <ele>237</ele>
        <time>2017-04-09T08:56:50Z</time>
      </trkpt>
      <trkpt lat="50.15043" lon="4.21144">
        <ele>253</ele>
        <time>2017-04-09T08:56:56Z</time>
      </trkpt>
      <trkpt lat="50.15056" lon="4.21131">
        <ele>258</ele>
        <time>2017-04-09T08:56:59Z</time>
      </trkpt>
      <trkpt lat="50.15076" lon="4.21112">
        <ele>248</ele>
        <time>2017-04-09T08:57:04Z</time>
      </trkpt>
      <trkpt lat="50.15095" lon="4.21089">
        <ele>256</ele>
        <time>2017-04-09T08:57:09Z</time>
      </trkpt>
      <trkpt lat="50.15114" lon="4.2106">
        <ele>247</ele>
        <time>2017-04-09T08:57:14Z</time>
      </trkpt>
      <trkpt lat="50.15134" lon="4.21021">
        <ele>244</ele>
        <time>2017-04-09T08:57:19Z</time>
      </trkpt>
      <trkpt lat="50.15154" lon="4.20981">
        <ele>246</ele>
        <time>2017-04-09T08:57:24Z</time>
      </trkpt>
      <trkpt lat="50.15177" lon="4.20941">
        <ele>239</ele>
        <time>2017-04-09T08:57:29Z</time>
      </trkpt>
      <trkpt lat="50.15202" lon="4.20896">
        <ele>235</ele>
        <time>2017-04-09T08:57:34Z</time>
      </trkpt>
      <trkpt lat="50.15223" lon="4.20857">
        <ele>238</ele>
        <time>2017-04-09T08:57:39Z</time>
      </trkpt>
      <trkpt lat="50.1524" lon="4.20822">
        <ele>247</ele>
        <time>2017-04-09T08:57:44Z</time>
      </trkpt>
      <trkpt lat="50.15258" lon="4.20787">
        <ele>248</ele>
        <time>2017-04-09T08:57:49Z</time>
      </trkpt>
      <trkpt lat="50.15271" lon="4.20753">
        <ele>247</ele>
        <time>2017-04-09T08:57:54Z</time>
      </trkpt>
      <trkpt lat="50.15277" lon="4.20716">
        <ele>250</ele>
        <time>2017-04-09T08:57:59Z</time>
      </trkpt>
      <trkpt lat="50.15286" lon="4.20674">
        <ele>251</ele>
        <time>2017-04-09T08:58:04Z</time>
      </trkpt>
      <trkpt lat="50.15296" lon="4.20639">
        <ele>249</ele>
        <time>2017-04-09T08:58:09Z</time>
      </trkpt>
      <trkpt lat="50.15305" lon="4.20599">
        <ele>248</ele>
        <time>2017-04-09T08:58:14Z</time>
      </trkpt>
      <trkpt lat="50.15317" lon="4.20561">
        <ele>247</ele>
        <time>2017-04-09T08:58:19Z</time>
      </trkpt>
      <trkpt lat="50.15339" lon="4.20521">
        <ele>245</ele>
        <time>2017-04-09T08:58:24Z</time>
      </trkpt>
      <trkpt lat="50.15363" lon="4.20476">
        <ele>245</ele>
        <time>2017-04-09T08:58:30Z</time>
      </trkpt>
      <trkpt lat="50.15388" lon="4.20418">
        <ele>246</ele>
        <time>2017-04-09T08:58:38Z</time>
      </trkpt>
      <trkpt lat="50.15402" lon="4.20391">
        <ele>250</ele>
        <time>2017-04-09T08:58:42Z</time>
      </trkpt>
      <trkpt lat="50.15408" lon="4.20378">
        <ele>250</ele>
        <time>2017-04-09T08:58:44Z</time>
      </trkpt>
      <trkpt lat="50.15433" lon="4.20338">
        <ele>246</ele>
        <time>2017-04-09T08:58:49Z</time>
      </trkpt>
      <trkpt lat="50.15456" lon="4.203">
        <ele>246</ele>
        <time>2017-04-09T08:58:54Z</time>
      </trkpt>
      <trkpt lat="50.15475" lon="4.20265">
        <ele>244</ele>
        <time>2017-04-09T08:58:59Z</time>
      </trkpt>
      <trkpt lat="50.15499" lon="4.20223">
        <ele>243</ele>
        <time>2017-04-09T08:59:04Z</time>
      </trkpt>
      <trkpt lat="50.15525" lon="4.2018">
        <ele>245</ele>
        <time>2017-04-09T08:59:10Z</time>
      </trkpt>
      <trkpt lat="50.1555" lon="4.20131">
        <ele>242</ele>
        <time>2017-04-09T08:59:17Z</time>
      </trkpt>
      <trkpt lat="50.15559" lon="4.20117">
        <ele>241</ele>
        <time>2017-04-09T08:59:19Z</time>
      </trkpt>
      <trkpt lat="50.15555" lon="4.20074">
        <ele>239</ele>
        <time>2017-04-09T08:59:25Z</time>
      </trkpt>
      <trkpt lat="50.1554" lon="4.20028">
        <ele>235</ele>
        <time>2017-04-09T08:59:33Z</time>
      </trkpt>
      <trkpt lat="50.15537" lon="4.20023">
        <ele>233</ele>
        <time>2017-04-09T08:59:34Z</time>
      </trkpt>
      <trkpt lat="50.15522" lon="4.20001">
        <ele>231</ele>
        <time>2017-04-09T08:59:39Z</time>
      </trkpt>
      <trkpt lat="50.15507" lon="4.19978">
        <ele>230</ele>
        <time>2017-04-09T08:59:44Z</time>
      </trkpt>
      <trkpt lat="50.15487" lon="4.19942">
        <ele>229</ele>
        <time>2017-04-09T08:59:52Z</time>
      </trkpt>
      <trkpt lat="50.15482" lon="4.19933">
        <ele>228</ele>
        <time>2017-04-09T08:59:54Z</time>
      </trkpt>
      <trkpt lat="50.15463" lon="4.19898">
        <ele>232</ele>
        <time>2017-04-09T09:00:02Z</time>
      </trkpt>
      <trkpt lat="50.15448" lon="4.19877">
        <ele>231</ele>
        <time>2017-04-09T09:00:08Z</time>
      </trkpt>
      <trkpt lat="50.15445" lon="4.19873">
        <ele>232</ele>
        <time>2017-04-09T09:00:09Z</time>
      </trkpt>
      <trkpt lat="50.15432" lon="4.19853">
        <ele>231</ele>
        <time>2017-04-09T09:00:14Z</time>
      </trkpt>
      <trkpt lat="50.15414" lon="4.19813">
        <ele>234</ele>
        <time>2017-04-09T09:00:23Z</time>
      </trkpt>
      <trkpt lat="50.15407" lon="4.19796">
        <ele>233</ele>
        <time>2017-04-09T09:00:26Z</time>
      </trkpt>
      <trkpt lat="50.15396" lon="4.19766">
        <ele>232</ele>
        <time>2017-04-09T09:00:31Z</time>
      </trkpt>
      <trkpt lat="50.15389" lon="4.19749">
        <ele>233</ele>
        <time>2017-04-09T09:00:34Z</time>
      </trkpt>
      <trkpt lat="50.15379" lon="4.19725">
        <ele>234</ele>
        <time>2017-04-09T09:00:39Z</time>
      </trkpt>
      <trkpt lat="50.15365" lon="4.19696">
        <ele>235</ele>
        <time>2017-04-09T09:00:45Z</time>
      </trkpt>
      <trkpt lat="50.15354" lon="4.19664">
        <ele>233</ele>
        <time>2017-04-09T09:00:52Z</time>
      </trkpt>
      <trkpt lat="50.1535" lon="4.19648">
        <ele>233</ele>
        <time>2017-04-09T09:00:55Z</time>
      </trkpt>
      <trkpt lat="50.15336" lon="4.19615">
        <ele>234</ele>
        <time>2017-04-09T09:01:01Z</time>
      </trkpt>
      <trkpt lat="50.1533" lon="4.19599">
        <ele>234</ele>
        <time>2017-04-09T09:01:04Z</time>
      </trkpt>
      <trkpt lat="50.15337" lon="4.19573">
        <ele>235</ele>
        <time>2017-04-09T09:01:09Z</time>
      </trkpt>
      <trkpt lat="50.15356" lon="4.19547">
        <ele>238</ele>
        <time>2017-04-09T09:01:16Z</time>
      </trkpt>
      <trkpt lat="50.15363" lon="4.19538">
        <ele>238</ele>
        <time>2017-04-09T09:01:19Z</time>
      </trkpt>
      <trkpt lat="50.15382" lon="4.19518">
        <ele>239</ele>
        <time>2017-04-09T09:01:26Z</time>
      </trkpt>
      <trkpt lat="50.1539" lon="4.1951">
        <ele>239</ele>
        <time>2017-04-09T09:01:29Z</time>
      </trkpt>
      <trkpt lat="50.15404" lon="4.19495">
        <ele>242</ele>
        <time>2017-04-09T09:01:34Z</time>
      </trkpt>
      <trkpt lat="50.15419" lon="4.19477">
        <ele>244</ele>
        <time>2017-04-09T09:01:40Z</time>
      </trkpt>
      <trkpt lat="50.15431" lon="4.19462">
        <ele>244</ele>
        <time>2017-04-09T09:01:45Z</time>
      </trkpt>
      <trkpt lat="50.15445" lon="4.1944">
        <ele>246</ele>
        <time>2017-04-09T09:01:52Z</time>
      </trkpt>
      <trkpt lat="50.15448" lon="4.19434">
        <ele>247</ele>
        <time>2017-04-09T09:01:54Z</time>
      </trkpt>
      <trkpt lat="50.15461" lon="4.19418">
        <ele>248</ele>
        <time>2017-04-09T09:02:00Z</time>
      </trkpt>
      <trkpt lat="50.15469" lon="4.19407">
        <ele>248</ele>
        <time>2017-04-09T09:02:04Z</time>
      </trkpt>
      <trkpt lat="50.15481" lon="4.19391">
        <ele>249</ele>
        <time>2017-04-09T09:02:10Z</time>
      </trkpt>
      <trkpt lat="50.15488" lon="4.1938">
        <ele>250</ele>
        <time>2017-04-09T09:02:14Z</time>
      </trkpt>
      <trkpt lat="50.15498" lon="4.19368">
        <ele>250</ele>
        <time>2017-04-09T09:02:19Z</time>
      </trkpt>
      <trkpt lat="50.15508" lon="4.19354">
        <ele>250</ele>
        <time>2017-04-09T09:02:24Z</time>
      </trkpt>
      <trkpt lat="50.15516" lon="4.19333">
        <ele>249</ele>
        <time>2017-04-09T09:02:29Z</time>
      </trkpt>
      <trkpt lat="50.15519" lon="4.19309">
        <ele>249</ele>
        <time>2017-04-09T09:02:34Z</time>
      </trkpt>
      <trkpt lat="50.15519" lon="4.19287">
        <ele>249</ele>
        <time>2017-04-09T09:02:39Z</time>
      </trkpt>
      <trkpt lat="50.15518" lon="4.19268">
        <ele>248</ele>
        <time>2017-04-09T09:02:44Z</time>
      </trkpt>
      <trkpt lat="50.15516" lon="4.19246">
        <ele>247</ele>
        <time>2017-04-09T09:02:49Z</time>
      </trkpt>
      <trkpt lat="50.15515" lon="4.19219">
        <ele>246</ele>
        <time>2017-04-09T09:02:54Z</time>
      </trkpt>
      <trkpt lat="50.15504" lon="4.19203">
        <ele>246</ele>
        <time>2017-04-09T09:02:59Z</time>
      </trkpt>
      <trkpt lat="50.15492" lon="4.19191">
        <ele>246</ele>
        <time>2017-04-09T09:03:04Z</time>
      </trkpt>
      <trkpt lat="50.15476" lon="4.19181">
        <ele>246</ele>
        <time>2017-04-09T09:03:09Z</time>
      </trkpt>
      <trkpt lat="50.15462" lon="4.1917">
        <ele>247</ele>
        <time>2017-04-09T09:03:14Z</time>
      </trkpt>
      <trkpt lat="50.15447" lon="4.1916">
        <ele>248</ele>
        <time>2017-04-09T09:03:19Z</time>
      </trkpt>
      <trkpt lat="50.15433" lon="4.19149">
        <ele>248</ele>
        <time>2017-04-09T09:03:24Z</time>
      </trkpt>
      <trkpt lat="50.15418" lon="4.19139">
        <ele>249</ele>
        <time>2017-04-09T09:03:29Z</time>
      </trkpt>
      <trkpt lat="50.15404" lon="4.19128">
        <ele>249</ele>
        <time>2017-04-09T09:03:34Z</time>
      </trkpt>
      <trkpt lat="50.1539" lon="4.19117">
        <ele>250</ele>
        <time>2017-04-09T09:03:39Z</time>
      </trkpt>
      <trkpt lat="50.15377" lon="4.19106">
        <ele>251</ele>
        <time>2017-04-09T09:03:44Z</time>
      </trkpt>
      <trkpt lat="50.15363" lon="4.19095">
        <ele>252</ele>
        <time>2017-04-09T09:03:49Z</time>
      </trkpt>
      <trkpt lat="50.15349" lon="4.19086">
        <ele>248</ele>
        <time>2017-04-09T09:03:54Z</time>
      </trkpt>
      <trkpt lat="50.15335" lon="4.19075">
        <ele>247</ele>
        <time>2017-04-09T09:03:59Z</time>
      </trkpt>
      <trkpt lat="50.15322" lon="4.19064">
        <ele>248</ele>
        <time>2017-04-09T09:04:04Z</time>
      </trkpt>
      <trkpt lat="50.15308" lon="4.19054">
        <ele>248</ele>
        <time>2017-04-09T09:04:09Z</time>
      </trkpt>
      <trkpt lat="50.15291" lon="4.19042">
        <ele>248</ele>
        <time>2017-04-09T09:04:15Z</time>
      </trkpt>
      <trkpt lat="50.15278" lon="4.19033">
        <ele>248</ele>
        <time>2017-04-09T09:04:20Z</time>
      </trkpt>
      <trkpt lat="50.15266" lon="4.19024">
        <ele>247</ele>
        <time>2017-04-09T09:04:25Z</time>
      </trkpt>
      <trkpt lat="50.15255" lon="4.19014">
        <ele>247</ele>
        <time>2017-04-09T09:04:30Z</time>
      </trkpt>
      <trkpt lat="50.15243" lon="4.19007">
        <ele>248</ele>
        <time>2017-04-09T09:04:35Z</time>
      </trkpt>
      <trkpt lat="50.15231" lon="4.18998">
        <ele>248</ele>
        <time>2017-04-09T09:04:40Z</time>
      </trkpt>
      <trkpt lat="50.15218" lon="4.18989">
        <ele>249</ele>
        <time>2017-04-09T09:04:45Z</time>
      </trkpt>
      <trkpt lat="50.15206" lon="4.18979">
        <ele>249</ele>
        <time>2017-04-09T09:04:50Z</time>
      </trkpt>
      <trkpt lat="50.15193" lon="4.1897">
        <ele>249</ele>
        <time>2017-04-09T09:04:55Z</time>
      </trkpt>
      <trkpt lat="50.15181" lon="4.18961">
        <ele>249</ele>
        <time>2017-04-09T09:05:00Z</time>
      </trkpt>
      <trkpt lat="50.15168" lon="4.18952">
        <ele>247</ele>
        <time>2017-04-09T09:05:05Z</time>
      </trkpt>
      <trkpt lat="50.15154" lon="4.18944">
        <ele>247</ele>
        <time>2017-04-09T09:05:10Z</time>
      </trkpt>
      <trkpt lat="50.15137" lon="4.18937">
        <ele>247</ele>
        <time>2017-04-09T09:05:16Z</time>
      </trkpt>
      <trkpt lat="50.15121" lon="4.18932">
        <ele>249</ele>
        <time>2017-04-09T09:05:21Z</time>
      </trkpt>
      <trkpt lat="50.15106" lon="4.18927">
        <ele>249</ele>
        <time>2017-04-09T09:05:26Z</time>
      </trkpt>
      <trkpt lat="50.15089" lon="4.18921">
        <ele>249</ele>
        <time>2017-04-09T09:05:31Z</time>
      </trkpt>
      <trkpt lat="50.1507" lon="4.18917">
        <ele>249</ele>
        <time>2017-04-09T09:05:36Z</time>
      </trkpt>
      <trkpt lat="50.1505" lon="4.18911">
        <ele>249</ele>
        <time>2017-04-09T09:05:41Z</time>
      </trkpt>
      <trkpt lat="50.15028" lon="4.18905">
        <ele>250</ele>
        <time>2017-04-09T09:05:46Z</time>
      </trkpt>
      <trkpt lat="50.15011" lon="4.18898">
        <ele>249</ele>
        <time>2017-04-09T09:05:51Z</time>
      </trkpt>
      <trkpt lat="50.14994" lon="4.18892">
        <ele>249</ele>
        <time>2017-04-09T09:05:56Z</time>
      </trkpt>
      <trkpt lat="50.14977" lon="4.18888">
        <ele>250</ele>
        <time>2017-04-09T09:06:01Z</time>
      </trkpt>
      <trkpt lat="50.14953" lon="4.18892">
        <ele>248</ele>
        <time>2017-04-09T09:06:07Z</time>
      </trkpt>
      <trkpt lat="50.14931" lon="4.18899">
        <ele>247</ele>
        <time>2017-04-09T09:06:11Z</time>
      </trkpt>
      <trkpt lat="50.14905" lon="4.1891">
        <ele>247</ele>
        <time>2017-04-09T09:06:16Z</time>
      </trkpt>
      <trkpt lat="50.14879" lon="4.18919">
        <ele>248</ele>
        <time>2017-04-09T09:06:21Z</time>
      </trkpt>
      <trkpt lat="50.14859" lon="4.18926">
        <ele>248</ele>
        <time>2017-04-09T09:06:26Z</time>
      </trkpt>
      <trkpt lat="50.14838" lon="4.18937">
        <ele>247</ele>
        <time>2017-04-09T09:06:31Z</time>
      </trkpt>
      <trkpt lat="50.14823" lon="4.1894">
        <ele>247</ele>
        <time>2017-04-09T09:06:36Z</time>
      </trkpt>
      <trkpt lat="50.14811" lon="4.18939">
        <ele>247</ele>
        <time>2017-04-09T09:06:42Z</time>
      </trkpt>
      <trkpt lat="50.14812" lon="4.18941">
        <ele>247</ele>
        <time>2017-04-09T09:06:46Z</time>
      </trkpt>
      <trkpt lat="50.14815" lon="4.18941">
        <ele>246</ele>
        <time>2017-04-09T09:06:52Z</time>
      </trkpt>
      <trkpt lat="50.14815" lon="4.18941">
        <ele>247</ele>
        <time>2017-04-09T09:06:56Z</time>
      </trkpt>
      <trkpt lat="50.14816" lon="4.18943">
        <ele>250</ele>
        <time>2017-04-09T09:07:01Z</time>
      </trkpt>
      <trkpt lat="50.14816" lon="4.18944">
        <ele>249</ele>
        <time>2017-04-09T09:07:07Z</time>
      </trkpt>
      <trkpt lat="50.14816" lon="4.18943">
        <ele>249</ele>
        <time>2017-04-09T09:07:12Z</time>
      </trkpt>
      <trkpt lat="50.14817" lon="4.18945">
        <ele>247</ele>
        <time>2017-04-09T09:07:17Z</time>
      </trkpt>
      <trkpt lat="50.14815" lon="4.1895">
        <ele>247</ele>
        <time>2017-04-09T09:07:22Z</time>
      </trkpt>
      <trkpt lat="50.14815" lon="4.18951">
        <ele>247</ele>
        <time>2017-04-09T09:07:27Z</time>
      </trkpt>
      <trkpt lat="50.14816" lon="4.1895">
        <ele>247</ele>
        <time>2017-04-09T09:07:32Z</time>
      </trkpt>
      <trkpt lat="50.14817" lon="4.18949">
        <ele>248</ele>
        <time>2017-04-09T09:07:37Z</time>
      </trkpt>
      <trkpt lat="50.14816" lon="4.18949">
        <ele>248</ele>
        <time>2017-04-09T09:07:42Z</time>
      </trkpt>
      <trkpt lat="50.14816" lon="4.18949">
        <ele>247</ele>
        <time>2017-04-09T09:07:47Z</time>
      </trkpt>
      <trkpt lat="50.14816" lon="4.18949">
        <ele>248</ele>
        <time>2017-04-09T09:07:52Z</time>
      </trkpt>
      <trkpt lat="50.14816" lon="4.18949">
        <ele>249</ele>
        <time>2017-04-09T09:07:57Z</time>
      </trkpt>
      <trkpt lat="50.14815" lon="4.1895">
        <ele>249</ele>
        <time>2017-04-09T09:08:02Z</time>
      </trkpt>
      <trkpt lat="50.14816" lon="4.18951">
        <ele>249</ele>
        <time>2017-04-09T09:08:07Z</time>
      </trkpt>
      <trkpt lat="50.14816" lon="4.18951">
        <ele>247</ele>
        <time>2017-04-09T09:08:14Z</time>
      </trkpt>
      <trkpt lat="50.14817" lon="4.18951">
        <ele>248</ele>
        <time>2017-04-09T09:08:19Z</time>
      </trkpt>
      <trkpt lat="50.14817" lon="4.1895">
        <ele>248</ele>
        <time>2017-04-09T09:08:22Z</time>
      </trkpt>
      <trkpt lat="50.14817" lon="4.18948">
        <ele>251</ele>
        <time>2017-04-09T09:08:27Z</time>
      </trkpt>
      <trkpt lat="50.14817" lon="4.18946">
        <ele>251</ele>
        <time>2017-04-09T09:08:32Z</time>
      </trkpt>
      <trkpt lat="50.14818" lon="4.18945">
        <ele>250</ele>
        <time>2017-04-09T09:08:37Z</time>
      </trkpt>
      <trkpt lat="50.14818" lon="4.18945">
        <ele>249</ele>
        <time>2017-04-09T09:08:42Z</time>
      </trkpt>
      <trkpt lat="50.14818" lon="4.18945">
        <ele>250</ele>
        <time>2017-04-09T09:08:47Z</time>
      </trkpt>
      <trkpt lat="50.14818" lon="4.18945">
        <ele>250</ele>
        <time>2017-04-09T09:08:52Z</time>
      </trkpt>
      <trkpt lat="50.14818" lon="4.18945">
        <ele>250</ele>
        <time>2017-04-09T09:08:57Z</time>
      </trkpt>
      <trkpt lat="50.14818" lon="4.18945">
        <ele>250</ele>
        <time>2017-04-09T09:09:02Z</time>
      </trkpt>
      <trkpt lat="50.14818" lon="4.18945">
        <ele>250</ele>
        <time>2017-04-09T09:09:07Z</time>
      </trkpt>
      <trkpt lat="50.14818" lon="4.18945">
        <ele>252</ele>
        <time>2017-04-09T09:09:12Z</time>
      </trkpt>
      <trkpt lat="50.14818" lon="4.18945">
        <ele>251</ele>
        <time>2017-04-09T09:09:17Z</time>
      </trkpt>
      <trkpt lat="50.14818" lon="4.18945">
        <ele>251</ele>
        <time>2017-04-09T09:09:22Z</time>
      </trkpt>
      <trkpt lat="50.14818" lon="4.18945">
        <ele>251</ele>
        <time>2017-04-09T09:09:27Z</time>
      </trkpt>
      <trkpt lat="50.14818" lon="4.18945">
        <ele>251</ele>
        <time>2017-04-09T09:09:32Z</time>
      </trkpt>
      <trkpt lat="50.14818" lon="4.18945">
        <ele>251</ele>
        <time>2017-04-09T09:09:37Z</time>
      </trkpt>
      <trkpt lat="50.14818" lon="4.18945">
        <ele>249</ele>
        <time>2017-04-09T09:09:42Z</time>
      </trkpt>
      <trkpt lat="50.14818" lon="4.18945">
        <ele>249</ele>
        <time>2017-04-09T09:09:47Z</time>
      </trkpt>
      <trkpt lat="50.14817" lon="4.18945">
        <ele>249</ele>
        <time>2017-04-09T09:09:52Z</time>
      </trkpt>
      <trkpt lat="50.14817" lon="4.18943">
        <ele>248</ele>
        <time>2017-04-09T09:09:57Z</time>
      </trkpt>
      <trkpt lat="50.14817" lon="4.18944">
        <ele>249</ele>
        <time>2017-04-09T09:10:02Z</time>
      </trkpt>
      <trkpt lat="50.14817" lon="4.18944">
        <ele>249</ele>
        <time>2017-04-09T09:10:07Z</time>
      </trkpt>
      <trkpt lat="50.14817" lon="4.18944">
        <ele>249</ele>
        <time>2017-04-09T09:10:12Z</time>
      </trkpt>
      <trkpt lat="50.14817" lon="4.18944">
        <ele>249</ele>
        <time>2017-04-09T09:10:17Z</time>
      </trkpt>
      <trkpt lat="50.14817" lon="4.18944">
        <ele>248</ele>
        <time>2017-04-09T09:10:22Z</time>
      </trkpt>
      <trkpt lat="50.14816" lon="4.18944">
        <ele>248</ele>
        <time>2017-04-09T09:10:27Z</time>
      </trkpt>
      <trkpt lat="50.14815" lon="4.18944">
        <ele>245</ele>
        <time>2017-04-09T09:10:36Z</time>
      </trkpt>
      <trkpt lat="50.14816" lon="4.18943">
        <ele>246</ele>
        <time>2017-04-09T09:10:37Z</time>
      </trkpt>
      <trkpt lat="50.14814" lon="4.18939">
        <ele>248</ele>
        <time>2017-04-09T09:10:42Z</time>
      </trkpt>
      <trkpt lat="50.14814" lon="4.1894">
        <ele>247</ele>
        <time>2017-04-09T09:10:47Z</time>
      </trkpt>
      <trkpt lat="50.14814" lon="4.18941">
        <ele>248</ele>
        <time>2017-04-09T09:10:54Z</time>
      </trkpt>
      <trkpt lat="50.14814" lon="4.18941">
        <ele>247</ele>
        <time>2017-04-09T09:10:57Z</time>
      </trkpt>
      <trkpt lat="50.14814" lon="4.1894">
        <ele>247</ele>
        <time>2017-04-09T09:11:03Z</time>
      </trkpt>
      <trkpt lat="50.14814" lon="4.1894">
        <ele>248</ele>
        <time>2017-04-09T09:11:07Z</time>
      </trkpt>
      <trkpt lat="50.14814" lon="4.1894">
        <ele>248</ele>
        <time>2017-04-09T09:11:12Z</time>
      </trkpt>
      <trkpt lat="50.14814" lon="4.1894">
        <ele>248</ele>
        <time>2017-04-09T09:11:17Z</time>
      </trkpt>
      <trkpt lat="50.14814" lon="4.1894">
        <ele>247</ele>
        <time>2017-04-09T09:11:22Z</time>
      </trkpt>
      <trkpt lat="50.14812" lon="4.18939">
        <ele>248</ele>
        <time>2017-04-09T09:11:27Z</time>
      </trkpt>
      <trkpt lat="50.14812" lon="4.18939">
        <ele>248</ele>
        <time>2017-04-09T09:11:32Z</time>
      </trkpt>
      <trkpt lat="50.14811" lon="4.18939">
        <ele>247</ele>
        <time>2017-04-09T09:11:37Z</time>
      </trkpt>
      <trkpt lat="50.14811" lon="4.18939">
        <ele>247</ele>
        <time>2017-04-09T09:11:42Z</time>
      </trkpt>
      <trkpt lat="50.14811" lon="4.18938">
        <ele>247</ele>
        <time>2017-04-09T09:11:47Z</time>
      </trkpt>
      <trkpt lat="50.14812" lon="4.18941">
        <ele>246</ele>
        <time>2017-04-09T09:11:52Z</time>
      </trkpt>
      <trkpt lat="50.14812" lon="4.18944">
        <ele>247</ele>
        <time>2017-04-09T09:11:57Z</time>
      </trkpt>
      <trkpt lat="50.14813" lon="4.18944">
        <ele>247</ele>
        <time>2017-04-09T09:12:02Z</time>
      </trkpt>
      <trkpt lat="50.14814" lon="4.18944">
        <ele>247</ele>
        <time>2017-04-09T09:12:07Z</time>
      </trkpt>
      <trkpt lat="50.14814" lon="4.18945">
        <ele>247</ele>
        <time>2017-04-09T09:12:12Z</time>
      </trkpt>
      <trkpt lat="50.14815" lon="4.18945">
        <ele>247</ele>
        <time>2017-04-09T09:12:17Z</time>
      </trkpt>
      <trkpt lat="50.14816" lon="4.18946">
        <ele>247</ele>
        <time>2017-04-09T09:12:22Z</time>
      </trkpt>
      <trkpt lat="50.14817" lon="4.18947">
        <ele>247</ele>
        <time>2017-04-09T09:12:27Z</time>
      </trkpt>
      <trkpt lat="50.14817" lon="4.18947">
        <ele>247</ele>
        <time>2017-04-09T09:12:32Z</time>
      </trkpt>
      <trkpt lat="50.14815" lon="4.18946">
        <ele>247</ele>
        <time>2017-04-09T09:12:37Z</time>
      </trkpt>
      <trkpt lat="50.14814" lon="4.18948">
        <ele>246</ele>
        <time>2017-04-09T09:12:43Z</time>
      </trkpt>
      <trkpt lat="50.14813" lon="4.18948">
        <ele>246</ele>
        <time>2017-04-09T09:12:48Z</time>
      </trkpt>
      <trkpt lat="50.14813" lon="4.18949">
        <ele>247</ele>
        <time>2017-04-09T09:12:52Z</time>
      </trkpt>
      <trkpt lat="50.14813" lon="4.18949">
        <ele>248</ele>
        <time>2017-04-09T09:12:57Z</time>
      </trkpt>
      <trkpt lat="50.14813" lon="4.18949">
        <ele>247</ele>
        <time>2017-04-09T09:13:02Z</time>
      </trkpt>
      <trkpt lat="50.14813" lon="4.18949">
        <ele>246</ele>
        <time>2017-04-09T09:13:07Z</time>
      </trkpt>
      <trkpt lat="50.14813" lon="4.18949">
        <ele>246</ele>
        <time>2017-04-09T09:13:16Z</time>
      </trkpt>
      <trkpt lat="50.14813" lon="4.18949">
        <ele>247</ele>
        <time>2017-04-09T09:13:18Z</time>
      </trkpt>
      <trkpt lat="50.14814" lon="4.18949">
        <ele>246</ele>
        <time>2017-04-09T09:13:22Z</time>
      </trkpt>
      <trkpt lat="50.14812" lon="4.18949">
        <ele>246</ele>
        <time>2017-04-09T09:13:31Z</time>
      </trkpt>
      <trkpt lat="50.14812" lon="4.1895">
        <ele>246</ele>
        <time>2017-04-09T09:13:33Z</time>
      </trkpt>
      <trkpt lat="50.14811" lon="4.18949">
        <ele>247</ele>
        <time>2017-04-09T09:13:37Z</time>
      </trkpt>
      <trkpt lat="50.14813" lon="4.18945">
        <ele>248</ele>
        <time>2017-04-09T09:13:42Z</time>
      </trkpt>
      <trkpt lat="50.14813" lon="4.18941">
        <ele>249</ele>
        <time>2017-04-09T09:13:47Z</time>
      </trkpt>
      <trkpt lat="50.14812" lon="4.1894">
        <ele>248</ele>
        <time>2017-04-09T09:13:53Z</time>
      </trkpt>
      <trkpt lat="50.14812" lon="4.18939">
        <ele>247</ele>
        <time>2017-04-09T09:13:57Z</time>
      </trkpt>
      <trkpt lat="50.14813" lon="4.1894">
        <ele>247</ele>
        <time>2017-04-09T09:14:02Z</time>
      </trkpt>
      <trkpt lat="50.14813" lon="4.1894">
        <ele>247</ele>
        <time>2017-04-09T09:14:07Z</time>
      </trkpt>
      <trkpt lat="50.14813" lon="4.1894">
        <ele>247</ele>
        <time>2017-04-09T09:14:12Z</time>
      </trkpt>
      <trkpt lat="50.14815" lon="4.18933">
        <ele>247</ele>
        <time>2017-04-09T09:14:17Z</time>
      </trkpt>
      <trkpt lat="50.14813" lon="4.18919">
        <ele>246</ele>
        <time>2017-04-09T09:14:22Z</time>
      </trkpt>
      <trkpt lat="50.14809" lon="4.18908">
        <ele>244</ele>
        <time>2017-04-09T09:14:27Z</time>
      </trkpt>
      <trkpt lat="50.14811" lon="4.18896">
        <ele>244</ele>
        <time>2017-04-09T09:14:32Z</time>
      </trkpt>
      <trkpt lat="50.1481" lon="4.18881">
        <ele>243</ele>
        <time>2017-04-09T09:14:37Z</time>
      </trkpt>
      <trkpt lat="50.14807" lon="4.18858">
        <ele>243</ele>
        <time>2017-04-09T09:14:42Z</time>
      </trkpt>
      <trkpt lat="50.14802" lon="4.1883">
        <ele>242</ele>
        <time>2017-04-09T09:14:48Z</time>
      </trkpt>
      <trkpt lat="50.14799" lon="4.18811">
        <ele>243</ele>
        <time>2017-04-09T09:14:52Z</time>
      </trkpt>
      <trkpt lat="50.14798" lon="4.18784">
        <ele>244</ele>
        <time>2017-04-09T09:14:57Z</time>
      </trkpt>
      <trkpt lat="50.14792" lon="4.18757">
        <ele>244</ele>
        <time>2017-04-09T09:15:02Z</time>
      </trkpt>
      <trkpt lat="50.14791" lon="4.18729">
        <ele>243</ele>
        <time>2017-04-09T09:15:07Z</time>
      </trkpt>
      <trkpt lat="50.14785" lon="4.18695">
        <ele>243</ele>
        <time>2017-04-09T09:15:12Z</time>
      </trkpt>
      <trkpt lat="50.14775" lon="4.1866">
        <ele>243</ele>
        <time>2017-04-09T09:15:17Z</time>
      </trkpt>
      <trkpt lat="50.14769" lon="4.1861">
        <ele>243</ele>
        <time>2017-04-09T09:15:22Z</time>
      </trkpt>
      <trkpt lat="50.14764" lon="4.18577">
        <ele>242</ele>
        <time>2017-04-09T09:15:27Z</time>
      </trkpt>
      <trkpt lat="50.14765" lon="4.18536">
        <ele>241</ele>
        <time>2017-04-09T09:15:34Z</time>
      </trkpt>
      <trkpt lat="50.14765" lon="4.18524">
        <ele>242</ele>
        <time>2017-04-09T09:15:37Z</time>
      </trkpt>
      <trkpt lat="50.14767" lon="4.18509">
        <ele>244</ele>
        <time>2017-04-09T09:15:42Z</time>
      </trkpt>
      <trkpt lat="50.1477" lon="4.18493">
        <ele>248</ele>
        <time>2017-04-09T09:15:47Z</time>
      </trkpt>
      <trkpt lat="50.14775" lon="4.18471">
        <ele>249</ele>
        <time>2017-04-09T09:15:52Z</time>
      </trkpt>
      <trkpt lat="50.14778" lon="4.18447">
        <ele>248</ele>
        <time>2017-04-09T09:15:57Z</time>
      </trkpt>
      <trkpt lat="50.14778" lon="4.18415">
        <ele>244</ele>
        <time>2017-04-09T09:16:02Z</time>
      </trkpt>
      <trkpt lat="50.14776" lon="4.18345">
        <ele>238</ele>
        <time>2017-04-09T09:16:11Z</time>
      </trkpt>
      <trkpt lat="50.14775" lon="4.18337">
        <ele>238</ele>
        <time>2017-04-09T09:16:12Z</time>
      </trkpt>
      <trkpt lat="50.14775" lon="4.18307">
        <ele>233</ele>
        <time>2017-04-09T09:16:17Z</time>
      </trkpt>
      <trkpt lat="50.14776" lon="4.1828">
        <ele>235</ele>
        <time>2017-04-09T09:16:22Z</time>
      </trkpt>
      <trkpt lat="50.14784" lon="4.18244">
        <ele>241</ele>
        <time>2017-04-09T09:16:30Z</time>
      </trkpt>
      <trkpt lat="50.14785" lon="4.18236">
        <ele>241</ele>
        <time>2017-04-09T09:16:32Z</time>
      </trkpt>
      <trkpt lat="50.14787" lon="4.1821">
        <ele>244</ele>
        <time>2017-04-09T09:16:38Z</time>
      </trkpt>
      <trkpt lat="50.14788" lon="4.18189">
        <ele>242</ele>
        <time>2017-04-09T09:16:42Z</time>
      </trkpt>
      <trkpt lat="50.14784" lon="4.18158">
        <ele>238</ele>
        <time>2017-04-09T09:16:47Z</time>
      </trkpt>
      <trkpt lat="50.14781" lon="4.18129">
        <ele>225</ele>
        <time>2017-04-09T09:16:54Z</time>
      </trkpt>
      <trkpt lat="50.14781" lon="4.18118">
        <ele>224</ele>
        <time>2017-04-09T09:16:57Z</time>
      </trkpt>
      <trkpt lat="50.14777" lon="4.18088">
        <ele>229</ele>
        <time>2017-04-09T09:17:05Z</time>
      </trkpt>
      <trkpt lat="50.14773" lon="4.18076">
        <ele>229</ele>
        <time>2017-04-09T09:17:08Z</time>
      </trkpt>
      <trkpt lat="50.14769" lon="4.1806">
        <ele>230</ele>
        <time>2017-04-09T09:17:12Z</time>
      </trkpt>
      <trkpt lat="50.14751" lon="4.18023">
        <ele>227</ele>
        <time>2017-04-09T09:17:21Z</time>
      </trkpt>
      <trkpt lat="50.14744" lon="4.18008">
        <ele>230</ele>
        <time>2017-04-09T09:17:24Z</time>
      </trkpt>
      <trkpt lat="50.14736" lon="4.17992">
        <ele>229</ele>
        <time>2017-04-09T09:17:27Z</time>
      </trkpt>
      <trkpt lat="50.14727" lon="4.17966">
        <ele>227</ele>
        <time>2017-04-09T09:17:32Z</time>
      </trkpt>
      <trkpt lat="50.14719" lon="4.17939">
        <ele>226</ele>
        <time>2017-04-09T09:17:37Z</time>
      </trkpt>
      <trkpt lat="50.14714" lon="4.17914">
        <ele>224</ele>
        <time>2017-04-09T09:17:42Z</time>
      </trkpt>
      <trkpt lat="50.1471" lon="4.17887">
        <ele>225</ele>
        <time>2017-04-09T09:17:49Z</time>
      </trkpt>
      <trkpt lat="50.14713" lon="4.17873">
        <ele>226</ele>
        <time>2017-04-09T09:17:52Z</time>
      </trkpt>
      <trkpt lat="50.14715" lon="4.17847">
        <ele>227</ele>
        <time>2017-04-09T09:17:57Z</time>
      </trkpt>
      <trkpt lat="50.14717" lon="4.17823">
        <ele>226</ele>
        <time>2017-04-09T09:18:02Z</time>
      </trkpt>
      <trkpt lat="50.14714" lon="4.17783">
        <ele>230</ele>
        <time>2017-04-09T09:18:10Z</time>
      </trkpt>
      <trkpt lat="50.14713" lon="4.17772">
        <ele>230</ele>
        <time>2017-04-09T09:18:12Z</time>
      </trkpt>
      <trkpt lat="50.14712" lon="4.17746">
        <ele>231</ele>
        <time>2017-04-09T09:18:17Z</time>
      </trkpt>
      <trkpt lat="50.1471" lon="4.17717">
        <ele>230</ele>
        <time>2017-04-09T09:18:22Z</time>
      </trkpt>
      <trkpt lat="50.14712" lon="4.17686">
        <ele>245</ele>
        <time>2017-04-09T09:18:27Z</time>
      </trkpt>
      <trkpt lat="50.14703" lon="4.17662">
        <ele>248</ele>
        <time>2017-04-09T09:18:32Z</time>
      </trkpt>
      <trkpt lat="50.14688" lon="4.17641">
        <ele>239</ele>
        <time>2017-04-09T09:18:37Z</time>
      </trkpt>
      <trkpt lat="50.14666" lon="4.17611">
        <ele>244</ele>
        <time>2017-04-09T09:18:43Z</time>
      </trkpt>
      <trkpt lat="50.14654" lon="4.17591">
        <ele>245</ele>
        <time>2017-04-09T09:18:47Z</time>
      </trkpt>
      <trkpt lat="50.14637" lon="4.17566">
        <ele>244</ele>
        <time>2017-04-09T09:18:52Z</time>
      </trkpt>
      <trkpt lat="50.14604" lon="4.17525">
        <ele>242</ele>
        <time>2017-04-09T09:19:01Z</time>
      </trkpt>
      <trkpt lat="50.14592" lon="4.17513">
        <ele>247</ele>
        <time>2017-04-09T09:19:04Z</time>
      </trkpt>
      <trkpt lat="50.14564" lon="4.1748">
        <ele>242</ele>
        <time>2017-04-09T09:19:11Z</time>
      </trkpt>
      <trkpt lat="50.1456" lon="4.17475">
        <ele>244</ele>
        <time>2017-04-09T09:19:12Z</time>
      </trkpt>
      <trkpt lat="50.1454" lon="4.1745">
        <ele>245</ele>
        <time>2017-04-09T09:19:17Z</time>
      </trkpt>
      <trkpt lat="50.14511" lon="4.17416">
        <ele>236</ele>
        <time>2017-04-09T09:19:24Z</time>
      </trkpt>
      <trkpt lat="50.1449" lon="4.17395">
        <ele>244</ele>
        <time>2017-04-09T09:19:28Z</time>
      </trkpt>
      <trkpt lat="50.14469" lon="4.17377">
        <ele>235</ele>
        <time>2017-04-09T09:19:32Z</time>
      </trkpt>
      <trkpt lat="50.14444" lon="4.17354">
        <ele>240</ele>
        <time>2017-04-09T09:19:37Z</time>
      </trkpt>
      <trkpt lat="50.14408" lon="4.17323">
        <ele>232</ele>
        <time>2017-04-09T09:19:44Z</time>
      </trkpt>
      <trkpt lat="50.1439" lon="4.17308">
        <ele>240</ele>
        <time>2017-04-09T09:19:47Z</time>
      </trkpt>
      <trkpt lat="50.14364" lon="4.17288">
        <ele>244</ele>
        <time>2017-04-09T09:19:52Z</time>
      </trkpt>
      <trkpt lat="50.14341" lon="4.17266">
        <ele>238</ele>
        <time>2017-04-09T09:19:57Z</time>
      </trkpt>
      <trkpt lat="50.14314" lon="4.17245">
        <ele>242</ele>
        <time>2017-04-09T09:20:03Z</time>
      </trkpt>
      <trkpt lat="50.14297" lon="4.17227">
        <ele>242</ele>
        <time>2017-04-09T09:20:07Z</time>
      </trkpt>
      <trkpt lat="50.14264" lon="4.172">
        <ele>226</ele>
        <time>2017-04-09T09:20:14Z</time>
      </trkpt>
      <trkpt lat="50.14246" lon="4.17187">
        <ele>226</ele>
        <time>2017-04-09T09:20:18Z</time>
      </trkpt>
      <trkpt lat="50.14218" lon="4.17164">
        <ele>243</ele>
        <time>2017-04-09T09:20:25Z</time>
      </trkpt>
      <trkpt lat="50.1421" lon="4.17157">
        <ele>244</ele>
        <time>2017-04-09T09:20:27Z</time>
      </trkpt>
      <trkpt lat="50.1419" lon="4.1714">
        <ele>247</ele>
        <time>2017-04-09T09:20:32Z</time>
      </trkpt>
      <trkpt lat="50.14172" lon="4.17124">
        <ele>249</ele>
        <time>2017-04-09T09:20:37Z</time>
      </trkpt>
      <trkpt lat="50.14147" lon="4.17102">
        <ele>249</ele>
        <time>2017-04-09T09:20:44Z</time>
      </trkpt>
      <trkpt lat="50.14137" lon="4.17093">
        <ele>250</ele>
        <time>2017-04-09T09:20:47Z</time>
      </trkpt>
      <trkpt lat="50.1412" lon="4.17078">
        <ele>247</ele>
        <time>2017-04-09T09:20:52Z</time>
      </trkpt>
      <trkpt lat="50.14104" lon="4.17064">
        <ele>244</ele>
        <time>2017-04-09T09:20:57Z</time>
      </trkpt>
      <trkpt lat="50.14078" lon="4.17044">
        <ele>241</ele>
        <time>2017-04-09T09:21:05Z</time>
      </trkpt>
      <trkpt lat="50.14068" lon="4.17036">
        <ele>242</ele>
        <time>2017-04-09T09:21:08Z</time>
      </trkpt>
      <trkpt lat="50.14055" lon="4.17026">
        <ele>242</ele>
        <time>2017-04-09T09:21:12Z</time>
      </trkpt>
      <trkpt lat="50.14039" lon="4.17014">
        <ele>242</ele>
        <time>2017-04-09T09:21:17Z</time>
      </trkpt>
      <trkpt lat="50.14024" lon="4.16999">
        <ele>243</ele>
        <time>2017-04-09T09:21:22Z</time>
      </trkpt>
      <trkpt lat="50.13998" lon="4.16975">
        <ele>242</ele>
        <time>2017-04-09T09:21:30Z</time>
      </trkpt>
      <trkpt lat="50.13991" lon="4.16969">
        <ele>242</ele>
        <time>2017-04-09T09:21:32Z</time>
      </trkpt>
      <trkpt lat="50.13975" lon="4.16954">
        <ele>242</ele>
        <time>2017-04-09T09:21:37Z</time>
      </trkpt>
      <trkpt lat="50.13954" lon="4.16936">
        <ele>240</ele>
        <time>2017-04-09T09:21:43Z</time>
      </trkpt>
      <trkpt lat="50.13937" lon="4.16919">
        <ele>240</ele>
        <time>2017-04-09T09:21:48Z</time>
      </trkpt>
      <trkpt lat="50.13924" lon="4.16906">
        <ele>240</ele>
        <time>2017-04-09T09:21:52Z</time>
      </trkpt>
      <trkpt lat="50.13907" lon="4.16893">
        <ele>241</ele>
        <time>2017-04-09T09:21:57Z</time>
      </trkpt>
      <trkpt lat="50.13891" lon="4.16879">
        <ele>241</ele>
        <time>2017-04-09T09:22:02Z</time>
      </trkpt>
      <trkpt lat="50.13873" lon="4.16868">
        <ele>241</ele>
        <time>2017-04-09T09:22:07Z</time>
      </trkpt>
      <trkpt lat="50.13857" lon="4.16854">
        <ele>241</ele>
        <time>2017-04-09T09:22:12Z</time>
      </trkpt>
      <trkpt lat="50.13839" lon="4.16844">
        <ele>242</ele>
        <time>2017-04-09T09:22:17Z</time>
      </trkpt>
      <trkpt lat="50.13811" lon="4.16827">
        <ele>243</ele>
        <time>2017-04-09T09:22:24Z</time>
      </trkpt>
      <trkpt lat="50.13799" lon="4.16819">
        <ele>244</ele>
        <time>2017-04-09T09:22:27Z</time>
      </trkpt>
      <trkpt lat="50.13766" lon="4.16798">
        <ele>245</ele>
        <time>2017-04-09T09:22:35Z</time>
      </trkpt>
      <trkpt lat="50.13736" lon="4.16779">
        <ele>247</ele>
        <time>2017-04-09T09:22:41Z</time>
      </trkpt>
      <trkpt lat="50.13714" lon="4.16768">
        <ele>249</ele>
        <time>2017-04-09T09:22:45Z</time>
      </trkpt>
      <trkpt lat="50.13703" lon="4.16762">
        <ele>250</ele>
        <time>2017-04-09T09:22:47Z</time>
      </trkpt>
      <trkpt lat="50.13676" lon="4.16744">
        <ele>251</ele>
        <time>2017-04-09T09:22:52Z</time>
      </trkpt>
      <trkpt lat="50.13648" lon="4.16724">
        <ele>252</ele>
        <time>2017-04-09T09:22:57Z</time>
      </trkpt>
      <trkpt lat="50.13618" lon="4.16705">
        <ele>252</ele>
        <time>2017-04-09T09:23:02Z</time>
      </trkpt>
      <trkpt lat="50.1359" lon="4.16686">
        <ele>251</ele>
        <time>2017-04-09T09:23:07Z</time>
      </trkpt>
      <trkpt lat="50.13541" lon="4.16659">
        <ele>250</ele>
        <time>2017-04-09T09:23:16Z</time>
      </trkpt>
      <trkpt lat="50.13532" lon="4.16653">
        <ele>250</ele>
        <time>2017-04-09T09:23:18Z</time>
      </trkpt>
      <trkpt lat="50.13515" lon="4.16642">
        <ele>251</ele>
        <time>2017-04-09T09:23:22Z</time>
      </trkpt>
      <trkpt lat="50.13489" lon="4.16627">
        <ele>246</ele>
        <time>2017-04-09T09:23:28Z</time>
      </trkpt>
      <trkpt lat="50.13474" lon="4.16615">
        <ele>246</ele>
        <time>2017-04-09T09:23:32Z</time>
      </trkpt>
      <trkpt lat="50.13453" lon="4.16592">
        <ele>231</ele>
        <time>2017-04-09T09:23:41Z</time>
      </trkpt>
      <trkpt lat="50.13456" lon="4.16584">
        <ele>237</ele>
        <time>2017-04-09T09:23:45Z</time>
      </trkpt>
      <trkpt lat="50.13457" lon="4.16579">
        <ele>243</ele>
        <time>2017-04-09T09:23:48Z</time>
      </trkpt>
      <trkpt lat="50.13458" lon="4.16553">
        <ele>240</ele>
        <time>2017-04-09T09:23:54Z</time>
      </trkpt>
      <trkpt lat="50.13461" lon="4.16535">
        <ele>240</ele>
        <time>2017-04-09T09:23:57Z</time>
      </trkpt>
      <trkpt lat="50.13467" lon="4.16479">
        <ele>239</ele>
        <time>2017-04-09T09:24:06Z</time>
      </trkpt>
      <trkpt lat="50.13468" lon="4.16461">
        <ele>229</ele>
        <time>2017-04-09T09:24:09Z</time>
      </trkpt>
      <trkpt lat="50.1347" lon="4.16438">
        <ele>225</ele>
        <time>2017-04-09T09:24:13Z</time>
      </trkpt>
      <trkpt lat="50.13473" lon="4.16413">
        <ele>229</ele>
        <time>2017-04-09T09:24:17Z</time>
      </trkpt>
      <trkpt lat="50.13478" lon="4.16369">
        <ele>222</ele>
        <time>2017-04-09T09:24:24Z</time>
      </trkpt>
      <trkpt lat="50.1348" lon="4.16351">
        <ele>222</ele>
        <time>2017-04-09T09:24:27Z</time>
      </trkpt>
      <trkpt lat="50.13485" lon="4.16321">
        <ele>223</ele>
        <time>2017-04-09T09:24:32Z</time>
      </trkpt>
      <trkpt lat="50.13489" lon="4.16249">
        <ele>225</ele>
        <time>2017-04-09T09:24:41Z</time>
      </trkpt>
      <trkpt lat="50.13489" lon="4.16241">
        <ele>225</ele>
        <time>2017-04-09T09:24:42Z</time>
      </trkpt>
      <trkpt lat="50.1349" lon="4.16202">
        <ele>226</ele>
        <time>2017-04-09T09:24:47Z</time>
      </trkpt>
      <trkpt lat="50.13497" lon="4.16126">
        <ele>226</ele>
        <time>2017-04-09T09:24:56Z</time>
      </trkpt>
      <trkpt lat="50.13498" lon="4.16117">
        <ele>227</ele>
        <time>2017-04-09T09:24:57Z</time>
      </trkpt>
      <trkpt lat="50.13502" lon="4.16058">
        <ele>226</ele>
        <time>2017-04-09T09:25:04Z</time>
      </trkpt>
      <trkpt lat="50.13504" lon="4.1603">
        <ele>226</ele>
        <time>2017-04-09T09:25:07Z</time>
      </trkpt>
      <trkpt lat="50.13509" lon="4.15993">
        <ele>226</ele>
        <time>2017-04-09T09:25:12Z</time>
      </trkpt>
      <trkpt lat="50.13511" lon="4.1596">
        <ele>224</ele>
        <time>2017-04-09T09:25:17Z</time>
      </trkpt>
      <trkpt lat="50.13514" lon="4.15916">
        <ele>222</ele>
        <time>2017-04-09T09:25:23Z</time>
      </trkpt>
      <trkpt lat="50.13518" lon="4.15872">
        <ele>222</ele>
        <time>2017-04-09T09:25:28Z</time>
      </trkpt>
      <trkpt lat="50.13527" lon="4.15794">
        <ele>230</ele>
        <time>2017-04-09T09:25:36Z</time>
      </trkpt>
      <trkpt lat="50.13529" lon="4.15784">
        <ele>225</ele>
        <time>2017-04-09T09:25:37Z</time>
      </trkpt>
      <trkpt lat="50.13529" lon="4.15731">
        <ele>232</ele>
        <time>2017-04-09T09:25:46Z</time>
      </trkpt>
      <trkpt lat="50.13529" lon="4.15728">
        <ele>226</ele>
        <time>2017-04-09T09:25:47Z</time>
      </trkpt>
      <trkpt lat="50.13525" lon="4.15711">
        <ele>219</ele>
        <time>2017-04-09T09:25:52Z</time>
      </trkpt>
      <trkpt lat="50.13515" lon="4.15693">
        <ele>218</ele>
        <time>2017-04-09T09:25:57Z</time>
      </trkpt>
      <trkpt lat="50.13501" lon="4.15689">
        <ele>218</ele>
        <time>2017-04-09T09:26:02Z</time>
      </trkpt>
      <trkpt lat="50.13486" lon="4.15688">
        <ele>220</ele>
        <time>2017-04-09T09:26:07Z</time>
      </trkpt>
      <trkpt lat="50.13468" lon="4.15688">
        <ele>220</ele>
        <time>2017-04-09T09:26:12Z</time>
      </trkpt>
      <trkpt lat="50.13447" lon="4.15689">
        <ele>217</ele>
        <time>2017-04-09T09:26:17Z</time>
      </trkpt>
      <trkpt lat="50.13416" lon="4.15687">
        <ele>213</ele>
        <time>2017-04-09T09:26:23Z</time>
      </trkpt>
      <trkpt lat="50.13385" lon="4.15669">
        <ele>207</ele>
        <time>2017-04-09T09:26:31Z</time>
      </trkpt>
      <trkpt lat="50.13385" lon="4.15662">
        <ele>206</ele>
        <time>2017-04-09T09:26:32Z</time>
      </trkpt>
      <trkpt lat="50.13396" lon="4.15603">
        <ele>198</ele>
        <time>2017-04-09T09:26:41Z</time>
      </trkpt>
      <trkpt lat="50.13401" lon="4.15583">
        <ele>196</ele>
        <time>2017-04-09T09:26:44Z</time>
      </trkpt>
      <trkpt lat="50.13408" lon="4.15565">
        <ele>194</ele>
        <time>2017-04-09T09:26:47Z</time>
      </trkpt>
      <trkpt lat="50.13414" lon="4.15535">
        <ele>194</ele>
        <time>2017-04-09T09:26:54Z</time>
      </trkpt>
      <trkpt lat="50.13416" lon="4.15523">
        <ele>198</ele>
        <time>2017-04-09T09:26:57Z</time>
      </trkpt>
      <trkpt lat="50.13424" lon="4.15483">
        <ele>199</ele>
        <time>2017-04-09T09:27:05Z</time>
      </trkpt>
      <trkpt lat="50.13426" lon="4.15474">
        <ele>199</ele>
        <time>2017-04-09T09:27:07Z</time>
      </trkpt>
      <trkpt lat="50.13438" lon="4.15436">
        <ele>197</ele>
        <time>2017-04-09T09:27:16Z</time>
      </trkpt>
      <trkpt lat="50.13444" lon="4.15419">
        <ele>197</ele>
        <time>2017-04-09T09:27:21Z</time>
      </trkpt>
      <trkpt lat="50.13445" lon="4.15415">
        <ele>197</ele>
        <time>2017-04-09T09:27:22Z</time>
      </trkpt>
      <trkpt lat="50.13444" lon="4.15393">
        <ele>201</ele>
        <time>2017-04-09T09:27:28Z</time>
      </trkpt>
      <trkpt lat="50.13445" lon="4.1538">
        <ele>201</ele>
        <time>2017-04-09T09:27:32Z</time>
      </trkpt>
      <trkpt lat="50.13443" lon="4.15353">
        <ele>204</ele>
        <time>2017-04-09T09:27:41Z</time>
      </trkpt>
      <trkpt lat="50.13441" lon="4.15352">
        <ele>205</ele>
        <time>2017-04-09T09:27:44Z</time>
      </trkpt>
      <trkpt lat="50.13441" lon="4.15351">
        <ele>205</ele>
        <time>2017-04-09T09:27:47Z</time>
      </trkpt>
      <trkpt lat="50.13439" lon="4.15347">
        <ele>204</ele>
        <time>2017-04-09T09:27:54Z</time>
      </trkpt>
      <trkpt lat="50.1344" lon="4.1534">
        <ele>206</ele>
        <time>2017-04-09T09:28:01Z</time>
      </trkpt>
      <trkpt lat="50.1344" lon="4.15337">
        <ele>208</ele>
        <time>2017-04-09T09:28:03Z</time>
      </trkpt>
      <trkpt lat="50.1344" lon="4.1533">
        <ele>211</ele>
        <time>2017-04-09T09:28:09Z</time>
      </trkpt>
      <trkpt lat="50.1344" lon="4.15326">
        <ele>213</ele>
        <time>2017-04-09T09:28:13Z</time>
      </trkpt>
      <trkpt lat="50.13439" lon="4.15321">
        <ele>217</ele>
        <time>2017-04-09T09:28:17Z</time>
      </trkpt>
      <trkpt lat="50.13437" lon="4.15315">
        <ele>219</ele>
        <time>2017-04-09T09:28:22Z</time>
      </trkpt>
      <trkpt lat="50.13435" lon="4.15308">
        <ele>222</ele>
        <time>2017-04-09T09:28:27Z</time>
      </trkpt>
      <trkpt lat="50.13433" lon="4.15301">
        <ele>224</ele>
        <time>2017-04-09T09:28:32Z</time>
      </trkpt>
      <trkpt lat="50.13435" lon="4.15285">
        <ele>225</ele>
        <time>2017-04-09T09:28:41Z</time>
      </trkpt>
      <trkpt lat="50.13435" lon="4.15278">
        <ele>224</ele>
        <time>2017-04-09T09:28:44Z</time>
      </trkpt>
      <trkpt lat="50.13436" lon="4.15272">
        <ele>224</ele>
        <time>2017-04-09T09:28:47Z</time>
      </trkpt>
      <trkpt lat="50.13437" lon="4.15264">
        <ele>225</ele>
        <time>2017-04-09T09:28:52Z</time>
      </trkpt>
      <trkpt lat="50.13438" lon="4.15256">
        <ele>224</ele>
        <time>2017-04-09T09:28:57Z</time>
      </trkpt>
      <trkpt lat="50.13438" lon="4.15248">
        <ele>225</ele>
        <time>2017-04-09T09:29:02Z</time>
      </trkpt>
      <trkpt lat="50.13442" lon="4.15232">
        <ele>224</ele>
        <time>2017-04-09T09:29:11Z</time>
      </trkpt>
      <trkpt lat="50.13443" lon="4.15231">
        <ele>224</ele>
        <time>2017-04-09T09:29:12Z</time>
      </trkpt>
      <trkpt lat="50.13445" lon="4.15224">
        <ele>225</ele>
        <time>2017-04-09T09:29:17Z</time>
      </trkpt>
      <trkpt lat="50.13448" lon="4.15213">
        <ele>227</ele>
        <time>2017-04-09T09:29:24Z</time>
      </trkpt>
      <trkpt lat="50.13449" lon="4.15208">
        <ele>228</ele>
        <time>2017-04-09T09:29:27Z</time>
      </trkpt>
      <trkpt lat="50.13451" lon="4.15202">
        <ele>231</ele>
        <time>2017-04-09T09:29:32Z</time>
      </trkpt>
      <trkpt lat="50.13453" lon="4.15196">
        <ele>233</ele>
        <time>2017-04-09T09:29:37Z</time>
      </trkpt>
      <trkpt lat="50.13454" lon="4.1519">
        <ele>239</ele>
        <time>2017-04-09T09:29:42Z</time>
      </trkpt>
      <trkpt lat="50.13456" lon="4.15184">
        <ele>239</ele>
        <time>2017-04-09T09:29:48Z</time>
      </trkpt>
      <trkpt lat="50.13459" lon="4.1518">
        <ele>237</ele>
        <time>2017-04-09T09:29:52Z</time>
      </trkpt>
      <trkpt lat="50.13468" lon="4.15164">
        <ele>241</ele>
        <time>2017-04-09T09:29:59Z</time>
      </trkpt>
      <trkpt lat="50.13472" lon="4.15156">
        <ele>242</ele>
        <time>2017-04-09T09:30:02Z</time>
      </trkpt>
      <trkpt lat="50.13482" lon="4.15141">
        <ele>238</ele>
        <time>2017-04-09T09:30:07Z</time>
      </trkpt>
      <trkpt lat="50.13492" lon="4.1511">
        <ele>231</ele>
        <time>2017-04-09T09:30:16Z</time>
      </trkpt>
      <trkpt lat="50.13493" lon="4.15102">
        <ele>231</ele>
        <time>2017-04-09T09:30:18Z</time>
      </trkpt>
      <trkpt lat="50.13496" lon="4.15088">
        <ele>231</ele>
        <time>2017-04-09T09:30:22Z</time>
      </trkpt>
      <trkpt lat="50.13497" lon="4.15074">
        <ele>233</ele>
        <time>2017-04-09T09:30:27Z</time>
      </trkpt>
      <trkpt lat="50.135" lon="4.15055">
        <ele>229</ele>
        <time>2017-04-09T09:30:34Z</time>
      </trkpt>
      <trkpt lat="50.13501" lon="4.15045">
        <ele>229</ele>
        <time>2017-04-09T09:30:37Z</time>
      </trkpt>
      <trkpt lat="50.13504" lon="4.15028">
        <ele>224</ele>
        <time>2017-04-09T09:30:42Z</time>
      </trkpt>
      <trkpt lat="50.13508" lon="4.15012">
        <ele>223</ele>
        <time>2017-04-09T09:30:47Z</time>
      </trkpt>
      <trkpt lat="50.13513" lon="4.14997">
        <ele>222</ele>
        <time>2017-04-09T09:30:52Z</time>
      </trkpt>
      <trkpt lat="50.13516" lon="4.1498">
        <ele>221</ele>
        <time>2017-04-09T09:30:57Z</time>
      </trkpt>
      <trkpt lat="50.13522" lon="4.14964">
        <ele>223</ele>
        <time>2017-04-09T09:31:02Z</time>
      </trkpt>
      <trkpt lat="50.13528" lon="4.1495">
        <ele>225</ele>
        <time>2017-04-09T09:31:07Z</time>
      </trkpt>
      <trkpt lat="50.13533" lon="4.14932">
        <ele>226</ele>
        <time>2017-04-09T09:31:13Z</time>
      </trkpt>
      <trkpt lat="50.13535" lon="4.14918">
        <ele>226</ele>
        <time>2017-04-09T09:31:17Z</time>
      </trkpt>
      <trkpt lat="50.13536" lon="4.149">
        <ele>226</ele>
        <time>2017-04-09T09:31:22Z</time>
      </trkpt>
      <trkpt lat="50.13538" lon="4.14879">
        <ele>229</ele>
        <time>2017-04-09T09:31:27Z</time>
      </trkpt>
      <trkpt lat="50.13539" lon="4.14858">
        <ele>228</ele>
        <time>2017-04-09T09:31:32Z</time>
      </trkpt>
      <trkpt lat="50.13543" lon="4.14836">
        <ele>226</ele>
        <time>2017-04-09T09:31:37Z</time>
      </trkpt>
      <trkpt lat="50.13547" lon="4.14817">
        <ele>225</ele>
        <time>2017-04-09T09:31:42Z</time>
      </trkpt>
      <trkpt lat="50.13551" lon="4.14796">
        <ele>229</ele>
        <time>2017-04-09T09:31:48Z</time>
      </trkpt>
      <trkpt lat="50.13552" lon="4.14777">
        <ele>225</ele>
        <time>2017-04-09T09:31:53Z</time>
      </trkpt>
      <trkpt lat="50.13554" lon="4.14763">
        <ele>224</ele>
        <time>2017-04-09T09:31:57Z</time>
      </trkpt>
      <trkpt lat="50.13557" lon="4.14745">
        <ele>227</ele>
        <time>2017-04-09T09:32:02Z</time>
      </trkpt>
      <trkpt lat="50.13561" lon="4.14715">
        <ele>228</ele>
        <time>2017-04-09T09:32:10Z</time>
      </trkpt>
      <trkpt lat="50.1356" lon="4.14707">
        <ele>229</ele>
        <time>2017-04-09T09:32:12Z</time>
      </trkpt>
      <trkpt lat="50.1356" lon="4.14689">
        <ele>229</ele>
        <time>2017-04-09T09:32:17Z</time>
      </trkpt>
      <trkpt lat="50.13565" lon="4.14666">
        <ele>228</ele>
        <time>2017-04-09T09:32:24Z</time>
      </trkpt>
      <trkpt lat="50.13566" lon="4.14646">
        <ele>229</ele>
        <time>2017-04-09T09:32:30Z</time>
      </trkpt>
      <trkpt lat="50.13569" lon="4.14638">
        <ele>238</ele>
        <time>2017-04-09T09:32:33Z</time>
      </trkpt>
      <trkpt lat="50.13572" lon="4.14632">
        <ele>232</ele>
        <time>2017-04-09T09:32:37Z</time>
      </trkpt>
      <trkpt lat="50.13572" lon="4.14632">
        <ele>238</ele>
        <time>2017-04-09T09:32:43Z</time>
      </trkpt>
      <trkpt lat="50.13572" lon="4.14631">
        <ele>238</ele>
        <time>2017-04-09T09:32:47Z</time>
      </trkpt>
      <trkpt lat="50.13572" lon="4.14631">
        <ele>229</ele>
        <time>2017-04-09T09:32:53Z</time>
      </trkpt>
      <trkpt lat="50.13572" lon="4.14631">
        <ele>235</ele>
        <time>2017-04-09T09:32:57Z</time>
      </trkpt>
      <trkpt lat="50.13572" lon="4.14631">
        <ele>229</ele>
        <time>2017-04-09T09:33:02Z</time>
      </trkpt>
      <trkpt lat="50.13572" lon="4.14631">
        <ele>238</ele>
        <time>2017-04-09T09:33:09Z</time>
      </trkpt>
      <trkpt lat="50.13571" lon="4.14631">
        <ele>236</ele>
        <time>2017-04-09T09:33:14Z</time>
      </trkpt>
      <trkpt lat="50.1357" lon="4.1463">
        <ele>231</ele>
        <time>2017-04-09T09:33:18Z</time>
      </trkpt>
      <trkpt lat="50.1357" lon="4.1463">
        <ele>238</ele>
        <time>2017-04-09T09:33:24Z</time>
      </trkpt>
      <trkpt lat="50.13576" lon="4.14619">
        <ele>232</ele>
        <time>2017-04-09T09:33:30Z</time>
      </trkpt>
      <trkpt lat="50.1358" lon="4.14611">
        <ele>231</ele>
        <time>2017-04-09T09:33:33Z</time>
      </trkpt>
      <trkpt lat="50.13585" lon="4.14598">
        <ele>232</ele>
        <time>2017-04-09T09:33:37Z</time>
      </trkpt>
      <trkpt lat="50.13593" lon="4.14584">
        <ele>232</ele>
        <time>2017-04-09T09:33:42Z</time>
      </trkpt>
      <trkpt lat="50.13602" lon="4.14566">
        <ele>233</ele>
        <time>2017-04-09T09:33:48Z</time>
      </trkpt>
      <trkpt lat="50.13612" lon="4.14551">
        <ele>236</ele>
        <time>2017-04-09T09:33:54Z</time>
      </trkpt>
      <trkpt lat="50.13616" lon="4.14542">
        <ele>235</ele>
        <time>2017-04-09T09:33:57Z</time>
      </trkpt>
      <trkpt lat="50.1363" lon="4.14521">
        <ele>239</ele>
        <time>2017-04-09T09:34:06Z</time>
      </trkpt>
      <trkpt lat="50.13631" lon="4.14518">
        <ele>239</ele>
        <time>2017-04-09T09:34:07Z</time>
      </trkpt>
      <trkpt lat="50.1364" lon="4.14504">
        <ele>240</ele>
        <time>2017-04-09T09:34:12Z</time>
      </trkpt>
      <trkpt lat="50.13649" lon="4.14488">
        <ele>239</ele>
        <time>2017-04-09T09:34:17Z</time>
      </trkpt>
      <trkpt lat="50.13657" lon="4.1447">
        <ele>239</ele>
        <time>2017-04-09T09:34:22Z</time>
      </trkpt>
      <trkpt lat="50.13662" lon="4.14451">
        <ele>238</ele>
        <time>2017-04-09T09:34:27Z</time>
      </trkpt>
      <trkpt lat="50.13667" lon="4.14428">
        <ele>239</ele>
        <time>2017-04-09T09:34:32Z</time>
      </trkpt>
      <trkpt lat="50.13678" lon="4.1439">
        <ele>238</ele>
        <time>2017-04-09T09:34:39Z</time>
      </trkpt>
      <trkpt lat="50.13683" lon="4.14373">
        <ele>236</ele>
        <time>2017-04-09T09:34:42Z</time>
      </trkpt>
      <trkpt lat="50.13695" lon="4.14347">
        <ele>237</ele>
        <time>2017-04-09T09:34:47Z</time>
      </trkpt>
      <trkpt lat="50.13711" lon="4.14306">
        <ele>234</ele>
        <time>2017-04-09T09:34:53Z</time>
      </trkpt>
      <trkpt lat="50.1373" lon="4.14262">
        <ele>234</ele>
        <time>2017-04-09T09:34:59Z</time>
      </trkpt>
      <trkpt lat="50.1374" lon="4.14239">
        <ele>235</ele>
        <time>2017-04-09T09:35:02Z</time>
      </trkpt>
      <trkpt lat="50.13763" lon="4.14198">
        <ele>235</ele>
        <time>2017-04-09T09:35:08Z</time>
      </trkpt>
      <trkpt lat="50.13802" lon="4.14152">
        <ele>232</ele>
        <time>2017-04-09T09:35:16Z</time>
      </trkpt>
      <trkpt lat="50.13814" lon="4.14143">
        <ele>231</ele>
        <time>2017-04-09T09:35:18Z</time>
      </trkpt>
      <trkpt lat="50.13838" lon="4.14129">
        <ele>228</ele>
        <time>2017-04-09T09:35:22Z</time>
      </trkpt>
      <trkpt lat="50.13886" lon="4.14093">
        <ele>228</ele>
        <time>2017-04-09T09:35:29Z</time>
      </trkpt>
      <trkpt lat="50.13909" lon="4.14081">
        <ele>229</ele>
        <time>2017-04-09T09:35:32Z</time>
      </trkpt>
      <trkpt lat="50.13943" lon="4.14058">
        <ele>224</ele>
        <time>2017-04-09T09:35:37Z</time>
      </trkpt>
      <trkpt lat="50.14002" lon="4.13988">
        <ele>223</ele>
        <time>2017-04-09T09:35:46Z</time>
      </trkpt>
      <trkpt lat="50.14007" lon="4.13977">
        <ele>222</ele>
        <time>2017-04-09T09:35:47Z</time>
      </trkpt>
      <trkpt lat="50.1403" lon="4.13903">
        <ele>216</ele>
        <time>2017-04-09T09:35:53Z</time>
      </trkpt>
      <trkpt lat="50.14046" lon="4.13857">
        <ele>216</ele>
        <time>2017-04-09T09:35:57Z</time>
      </trkpt>
      <trkpt lat="50.14064" lon="4.1379">
        <ele>213</ele>
        <time>2017-04-09T09:36:03Z</time>
      </trkpt>
      <trkpt lat="50.14082" lon="4.13722">
        <ele>220</ele>
        <time>2017-04-09T09:36:09Z</time>
      </trkpt>
      <trkpt lat="50.14093" lon="4.13685">
        <ele>212</ele>
        <time>2017-04-09T09:36:12Z</time>
      </trkpt>
      <trkpt lat="50.14104" lon="4.13619">
        <ele>210</ele>
        <time>2017-04-09T09:36:17Z</time>
      </trkpt>
      <trkpt lat="50.1413" lon="4.13532">
        <ele>203</ele>
        <time>2017-04-09T09:36:23Z</time>
      </trkpt>
      <trkpt lat="50.14155" lon="4.13491">
        <ele>197</ele>
        <time>2017-04-09T09:36:30Z</time>
      </trkpt>
      <trkpt lat="50.14174" lon="4.13509">
        <ele>196</ele>
        <time>2017-04-09T09:36:34Z</time>
      </trkpt>
      <trkpt lat="50.14186" lon="4.1352">
        <ele>197</ele>
        <time>2017-04-09T09:36:37Z</time>
      </trkpt>
      <trkpt lat="50.14203" lon="4.13536">
        <ele>196</ele>
        <time>2017-04-09T09:36:42Z</time>
      </trkpt>
      <trkpt lat="50.14219" lon="4.13554">
        <ele>196</ele>
        <time>2017-04-09T09:36:47Z</time>
      </trkpt>
      <trkpt lat="50.14234" lon="4.1357">
        <ele>198</ele>
        <time>2017-04-09T09:36:52Z</time>
      </trkpt>
      <trkpt lat="50.14243" lon="4.13589">
        <ele>198</ele>
        <time>2017-04-09T09:36:57Z</time>
      </trkpt>
      <trkpt lat="50.14256" lon="4.13595">
        <ele>197</ele>
        <time>2017-04-09T09:37:02Z</time>
      </trkpt>
      <trkpt lat="50.14266" lon="4.13588">
        <ele>198</ele>
        <time>2017-04-09T09:37:07Z</time>
      </trkpt>
      <trkpt lat="50.14286" lon="4.13588">
        <ele>200</ele>
        <time>2017-04-09T09:37:16Z</time>
      </trkpt>
      <trkpt lat="50.14289" lon="4.13589">
        <ele>201</ele>
        <time>2017-04-09T09:37:17Z</time>
      </trkpt>
      <trkpt lat="50.14302" lon="4.13592">
        <ele>201</ele>
        <time>2017-04-09T09:37:22Z</time>
      </trkpt>
      <trkpt lat="50.14321" lon="4.13598">
        <ele>201</ele>
        <time>2017-04-09T09:37:29Z</time>
      </trkpt>
      <trkpt lat="50.14356" lon="4.13611">
        <ele>201</ele>
        <time>2017-04-09T09:37:36Z</time>
      </trkpt>
      <trkpt lat="50.14369" lon="4.13602">
        <ele>201</ele>
        <time>2017-04-09T09:37:39Z</time>
      </trkpt>
      <trkpt lat="50.14378" lon="4.13598">
        <ele>201</ele>
        <time>2017-04-09T09:37:42Z</time>
      </trkpt>
      <trkpt lat="50.14394" lon="4.13604">
        <ele>200</ele>
        <time>2017-04-09T09:37:47Z</time>
      </trkpt>
      <trkpt lat="50.14406" lon="4.13602">
        <ele>201</ele>
        <time>2017-04-09T09:37:52Z</time>
      </trkpt>
      <trkpt lat="50.14421" lon="4.13603">
        <ele>219</ele>
        <time>2017-04-09T09:37:57Z</time>
      </trkpt>
      <trkpt lat="50.14448" lon="4.13589">
        <ele>208</ele>
        <time>2017-04-09T09:38:05Z</time>
      </trkpt>
      <trkpt lat="50.14463" lon="4.1358">
        <ele>225</ele>
        <time>2017-04-09T09:38:10Z</time>
      </trkpt>
      <trkpt lat="50.14469" lon="4.13576">
        <ele>217</ele>
        <time>2017-04-09T09:38:12Z</time>
      </trkpt>
      <trkpt lat="50.14483" lon="4.13564">
        <ele>217</ele>
        <time>2017-04-09T09:38:17Z</time>
      </trkpt>
      <trkpt lat="50.145" lon="4.13554">
        <ele>208</ele>
        <time>2017-04-09T09:38:23Z</time>
      </trkpt>
      <trkpt lat="50.14524" lon="4.13539">
        <ele>207</ele>
        <time>2017-04-09T09:38:31Z</time>
      </trkpt>
      <trkpt lat="50.14533" lon="4.13536">
        <ele>224</ele>
        <time>2017-04-09T09:38:34Z</time>
      </trkpt>
      <trkpt lat="50.14546" lon="4.13534">
        <ele>211</ele>
        <time>2017-04-09T09:38:40Z</time>
      </trkpt>
      <trkpt lat="50.14553" lon="4.13532">
        <ele>210</ele>
        <time>2017-04-09T09:38:43Z</time>
      </trkpt>
      <trkpt lat="50.14563" lon="4.13535">
        <ele>210</ele>
        <time>2017-04-09T09:38:47Z</time>
      </trkpt>
      <trkpt lat="50.14576" lon="4.13545">
        <ele>227</ele>
        <time>2017-04-09T09:38:54Z</time>
      </trkpt>
      <trkpt lat="50.14587" lon="4.13551">
        <ele>211</ele>
        <time>2017-04-09T09:38:58Z</time>
      </trkpt>
      <trkpt lat="50.14607" lon="4.13562">
        <ele>216</ele>
        <time>2017-04-09T09:39:06Z</time>
      </trkpt>
      <trkpt lat="50.1461" lon="4.13562">
        <ele>212</ele>
        <time>2017-04-09T09:39:07Z</time>
      </trkpt>
      <trkpt lat="50.14629" lon="4.13572">
        <ele>222</ele>
        <time>2017-04-09T09:39:14Z</time>
      </trkpt>
      <trkpt lat="50.14645" lon="4.13579">
        <ele>222</ele>
        <time>2017-04-09T09:39:20Z</time>
      </trkpt>
      <trkpt lat="50.14654" lon="4.13586">
        <ele>209</ele>
        <time>2017-04-09T09:39:25Z</time>
      </trkpt>
      <trkpt lat="50.14655" lon="4.13587">
        <ele>209</ele>
        <time>2017-04-09T09:39:28Z</time>
      </trkpt>
      <trkpt lat="50.14655" lon="4.13589">
        <ele>218</ele>
        <time>2017-04-09T09:39:32Z</time>
      </trkpt>
      <trkpt lat="50.14655" lon="4.13588">
        <ele>210</ele>
        <time>2017-04-09T09:39:37Z</time>
      </trkpt>
      <trkpt lat="50.14665" lon="4.13591">
        <ele>213</ele>
        <time>2017-04-09T09:39:42Z</time>
      </trkpt>
      <trkpt lat="50.14678" lon="4.13597">
        <ele>209</ele>
        <time>2017-04-09T09:39:47Z</time>
      </trkpt>
      <trkpt lat="50.14695" lon="4.13618">
        <ele>220</ele>
        <time>2017-04-09T09:39:55Z</time>
      </trkpt>
      <trkpt lat="50.14706" lon="4.13627">
        <ele>206</ele>
        <time>2017-04-09T09:40:00Z</time>
      </trkpt>
      <trkpt lat="50.14721" lon="4.13632">
        <ele>203</ele>
        <time>2017-04-09T09:40:04Z</time>
      </trkpt>
      <trkpt lat="50.14738" lon="4.13638">
        <ele>208</ele>
        <time>2017-04-09T09:40:07Z</time>
      </trkpt>
      <trkpt lat="50.14754" lon="4.13633">
        <ele>208</ele>
        <time>2017-04-09T09:40:16Z</time>
      </trkpt>
      <trkpt lat="50.14755" lon="4.1363">
        <ele>206</ele>
        <time>2017-04-09T09:40:17Z</time>
      </trkpt>
      <trkpt lat="50.14766" lon="4.13617">
        <ele>214</ele>
        <time>2017-04-09T09:40:24Z</time>
      </trkpt>
      <trkpt lat="50.14771" lon="4.13613">
        <ele>204</ele>
        <time>2017-04-09T09:40:27Z</time>
      </trkpt>
      <trkpt lat="50.14782" lon="4.13603">
        <ele>205</ele>
        <time>2017-04-09T09:40:33Z</time>
      </trkpt>
      <trkpt lat="50.14786" lon="4.13593">
        <ele>202</ele>
        <time>2017-04-09T09:40:37Z</time>
      </trkpt>
      <trkpt lat="50.14785" lon="4.13594">
        <ele>201</ele>
        <time>2017-04-09T09:40:42Z</time>
      </trkpt>
      <trkpt lat="50.14787" lon="4.13589">
        <ele>203</ele>
        <time>2017-04-09T09:40:47Z</time>
      </trkpt>
      <trkpt lat="50.1479" lon="4.13583">
        <ele>204</ele>
        <time>2017-04-09T09:40:52Z</time>
      </trkpt>
      <trkpt lat="50.14793" lon="4.13575">
        <ele>205</ele>
        <time>2017-04-09T09:40:58Z</time>
      </trkpt>
      <trkpt lat="50.14797" lon="4.13566">
        <ele>205</ele>
        <time>2017-04-09T09:41:05Z</time>
      </trkpt>
      <trkpt lat="50.14798" lon="4.13562">
        <ele>207</ele>
        <time>2017-04-09T09:41:08Z</time>
      </trkpt>
      <trkpt lat="50.14801" lon="4.13556">
        <ele>205</ele>
        <time>2017-04-09T09:41:13Z</time>
      </trkpt>
      <trkpt lat="50.14804" lon="4.1355">
        <ele>206</ele>
        <time>2017-04-09T09:41:18Z</time>
      </trkpt>
      <trkpt lat="50.14808" lon="4.13539">
        <ele>206</ele>
        <time>2017-04-09T09:41:26Z</time>
      </trkpt>
      <trkpt lat="50.1481" lon="4.13535">
        <ele>206</ele>
        <time>2017-04-09T09:41:29Z</time>
      </trkpt>
      <trkpt lat="50.14813" lon="4.13529">
        <ele>207</ele>
        <time>2017-04-09T09:41:33Z</time>
      </trkpt>
      <trkpt lat="50.14816" lon="4.13519">
        <ele>207</ele>
        <time>2017-04-09T09:41:39Z</time>
      </trkpt>
      <trkpt lat="50.14817" lon="4.13515">
        <ele>207</ele>
        <time>2017-04-09T09:41:43Z</time>
      </trkpt>
      <trkpt lat="50.1482" lon="4.13506">
        <ele>208</ele>
        <time>2017-04-09T09:41:48Z</time>
      </trkpt>
      <trkpt lat="50.14825" lon="4.13492">
        <ele>209</ele>
        <time>2017-04-09T09:41:54Z</time>
      </trkpt>
      <trkpt lat="50.14828" lon="4.13483">
        <ele>210</ele>
        <time>2017-04-09T09:41:58Z</time>
      </trkpt>
      <trkpt lat="50.14832" lon="4.13472">
        <ele>211</ele>
        <time>2017-04-09T09:42:03Z</time>
      </trkpt>
      <trkpt lat="50.14836" lon="4.1346">
        <ele>212</ele>
        <time>2017-04-09T09:42:08Z</time>
      </trkpt>
      <trkpt lat="50.14839" lon="4.13449">
        <ele>213</ele>
        <time>2017-04-09T09:42:13Z</time>
      </trkpt>
      <trkpt lat="50.14843" lon="4.13438">
        <ele>213</ele>
        <time>2017-04-09T09:42:18Z</time>
      </trkpt>
      <trkpt lat="50.14847" lon="4.13426">
        <ele>214</ele>
        <time>2017-04-09T09:42:23Z</time>
      </trkpt>
      <trkpt lat="50.14851" lon="4.13414">
        <ele>214</ele>
        <time>2017-04-09T09:42:28Z</time>
      </trkpt>
      <trkpt lat="50.14855" lon="4.13403">
        <ele>215</ele>
        <time>2017-04-09T09:42:33Z</time>
      </trkpt>
      <trkpt lat="50.14859" lon="4.13391">
        <ele>216</ele>
        <time>2017-04-09T09:42:38Z</time>
      </trkpt>
      <trkpt lat="50.14864" lon="4.13379">
        <ele>216</ele>
        <time>2017-04-09T09:42:43Z</time>
      </trkpt>
      <trkpt lat="50.14867" lon="4.13366">
        <ele>217</ele>
        <time>2017-04-09T09:42:48Z</time>
      </trkpt>
      <trkpt lat="50.14871" lon="4.13354">
        <ele>217</ele>
        <time>2017-04-09T09:42:53Z</time>
      </trkpt>
      <trkpt lat="50.14873" lon="4.13342">
        <ele>218</ele>
        <time>2017-04-09T09:42:58Z</time>
      </trkpt>
      <trkpt lat="50.14876" lon="4.1333">
        <ele>218</ele>
        <time>2017-04-09T09:43:03Z</time>
      </trkpt>
      <trkpt lat="50.14879" lon="4.13317">
        <ele>219</ele>
        <time>2017-04-09T09:43:08Z</time>
      </trkpt>
      <trkpt lat="50.14882" lon="4.13304">
        <ele>219</ele>
        <time>2017-04-09T09:43:13Z</time>
      </trkpt>
      <trkpt lat="50.14884" lon="4.1329">
        <ele>220</ele>
        <time>2017-04-09T09:43:18Z</time>
      </trkpt>
      <trkpt lat="50.14886" lon="4.13276">
        <ele>221</ele>
        <time>2017-04-09T09:43:23Z</time>
      </trkpt>
      <trkpt lat="50.14888" lon="4.13263">
        <ele>222</ele>
        <time>2017-04-09T09:43:28Z</time>
      </trkpt>
      <trkpt lat="50.14891" lon="4.13249">
        <ele>228</ele>
        <time>2017-04-09T09:43:33Z</time>
      </trkpt>
      <trkpt lat="50.14893" lon="4.13235">
        <ele>227</ele>
        <time>2017-04-09T09:43:38Z</time>
      </trkpt>
      <trkpt lat="50.14895" lon="4.13221">
        <ele>225</ele>
        <time>2017-04-09T09:43:43Z</time>
      </trkpt>
      <trkpt lat="50.14897" lon="4.13207">
        <ele>226</ele>
        <time>2017-04-09T09:43:48Z</time>
      </trkpt>
      <trkpt lat="50.149" lon="4.13193">
        <ele>229</ele>
        <time>2017-04-09T09:43:53Z</time>
      </trkpt>
      <trkpt lat="50.14902" lon="4.13178">
        <ele>226</ele>
        <time>2017-04-09T09:43:58Z</time>
      </trkpt>
      <trkpt lat="50.14905" lon="4.13164">
        <ele>226</ele>
        <time>2017-04-09T09:44:03Z</time>
      </trkpt>
      <trkpt lat="50.14907" lon="4.13149">
        <ele>228</ele>
        <time>2017-04-09T09:44:08Z</time>
      </trkpt>
      <trkpt lat="50.1491" lon="4.13135">
        <ele>228</ele>
        <time>2017-04-09T09:44:13Z</time>
      </trkpt>
      <trkpt lat="50.14912" lon="4.13121">
        <ele>229</ele>
        <time>2017-04-09T09:44:18Z</time>
      </trkpt>
      <trkpt lat="50.14915" lon="4.13107">
        <ele>229</ele>
        <time>2017-04-09T09:44:23Z</time>
      </trkpt>
      <trkpt lat="50.14919" lon="4.13092">
        <ele>232</ele>
        <time>2017-04-09T09:44:28Z</time>
      </trkpt>
      <trkpt lat="50.14923" lon="4.13076">
        <ele>231</ele>
        <time>2017-04-09T09:44:33Z</time>
      </trkpt>
      <trkpt lat="50.14927" lon="4.13059">
        <ele>231</ele>
        <time>2017-04-09T09:44:38Z</time>
      </trkpt>
      <trkpt lat="50.14931" lon="4.1304">
        <ele>231</ele>
        <time>2017-04-09T09:44:43Z</time>
      </trkpt>
      <trkpt lat="50.14933" lon="4.13018">
        <ele>231</ele>
        <time>2017-04-09T09:44:48Z</time>
      </trkpt>
      <trkpt lat="50.14937" lon="4.12996">
        <ele>231</ele>
        <time>2017-04-09T09:44:53Z</time>
      </trkpt>
      <trkpt lat="50.14939" lon="4.12975">
        <ele>231</ele>
        <time>2017-04-09T09:44:58Z</time>
      </trkpt>
      <trkpt lat="50.14942" lon="4.12955">
        <ele>230</ele>
        <time>2017-04-09T09:45:03Z</time>
      </trkpt>
      <trkpt lat="50.14943" lon="4.12939">
        <ele>231</ele>
        <time>2017-04-09T09:45:08Z</time>
      </trkpt>
      <trkpt lat="50.14946" lon="4.12921">
        <ele>230</ele>
        <time>2017-04-09T09:45:13Z</time>
      </trkpt>
      <trkpt lat="50.14948" lon="4.129">
        <ele>233</ele>
        <time>2017-04-09T09:45:18Z</time>
      </trkpt>
      <trkpt lat="50.1495" lon="4.12881">
        <ele>233</ele>
        <time>2017-04-09T09:45:23Z</time>
      </trkpt>
      <trkpt lat="50.14951" lon="4.12859">
        <ele>229</ele>
        <time>2017-04-09T09:45:28Z</time>
      </trkpt>
      <trkpt lat="50.14939" lon="4.12853">
        <ele>232</ele>
        <time>2017-04-09T09:45:33Z</time>
      </trkpt>
      <trkpt lat="50.14921" lon="4.12864">
        <ele>228</ele>
        <time>2017-04-09T09:45:38Z</time>
      </trkpt>
      <trkpt lat="50.14897" lon="4.12877">
        <ele>227</ele>
        <time>2017-04-09T09:45:43Z</time>
      </trkpt>
      <trkpt lat="50.14872" lon="4.12889">
        <ele>225</ele>
        <time>2017-04-09T09:45:48Z</time>
      </trkpt>
      <trkpt lat="50.14843" lon="4.129">
        <ele>223</ele>
        <time>2017-04-09T09:45:53Z</time>
      </trkpt>
      <trkpt lat="50.14812" lon="4.12916">
        <ele>222</ele>
        <time>2017-04-09T09:45:58Z</time>
      </trkpt>
      <trkpt lat="50.14783" lon="4.12933">
        <ele>223</ele>
        <time>2017-04-09T09:46:03Z</time>
      </trkpt>
      <trkpt lat="50.14754" lon="4.12953">
        <ele>220</ele>
        <time>2017-04-09T09:46:08Z</time>
      </trkpt>
      <trkpt lat="50.14725" lon="4.1297">
        <ele>218</ele>
        <time>2017-04-09T09:46:13Z</time>
      </trkpt>
      <trkpt lat="50.14697" lon="4.12984">
        <ele>217</ele>
        <time>2017-04-09T09:46:18Z</time>
      </trkpt>
      <trkpt lat="50.14669" lon="4.12996">
        <ele>217</ele>
        <time>2017-04-09T09:46:23Z</time>
      </trkpt>
      <trkpt lat="50.14641" lon="4.13008">
        <ele>218</ele>
        <time>2017-04-09T09:46:28Z</time>
      </trkpt>
      <trkpt lat="50.14606" lon="4.13023">
        <ele>220</ele>
        <time>2017-04-09T09:46:35Z</time>
      </trkpt>
      <trkpt lat="50.14591" lon="4.13031">
        <ele>222</ele>
        <time>2017-04-09T09:46:38Z</time>
      </trkpt>
      <trkpt lat="50.14567" lon="4.13042">
        <ele>223</ele>
        <time>2017-04-09T09:46:43Z</time>
      </trkpt>
      <trkpt lat="50.14545" lon="4.13051">
        <ele>223</ele>
        <time>2017-04-09T09:46:48Z</time>
      </trkpt>
      <trkpt lat="50.14524" lon="4.13061">
        <ele>224</ele>
        <time>2017-04-09T09:46:53Z</time>
      </trkpt>
      <trkpt lat="50.14503" lon="4.1307">
        <ele>224</ele>
        <time>2017-04-09T09:46:58Z</time>
      </trkpt>
      <trkpt lat="50.14483" lon="4.13078">
        <ele>224</ele>
        <time>2017-04-09T09:47:03Z</time>
      </trkpt>
      <trkpt lat="50.14461" lon="4.13089">
        <ele>223</ele>
        <time>2017-04-09T09:47:08Z</time>
      </trkpt>
      <trkpt lat="50.14438" lon="4.13098">
        <ele>224</ele>
        <time>2017-04-09T09:47:13Z</time>
      </trkpt>
      <trkpt lat="50.14397" lon="4.13117">
        <ele>222</ele>
        <time>2017-04-09T09:47:21Z</time>
      </trkpt>
      <trkpt lat="50.14385" lon="4.13124">
        <ele>221</ele>
        <time>2017-04-09T09:47:23Z</time>
      </trkpt>
      <trkpt lat="50.14353" lon="4.13135">
        <ele>220</ele>
        <time>2017-04-09T09:47:28Z</time>
      </trkpt>
      <trkpt lat="50.14314" lon="4.1314">
        <ele>220</ele>
        <time>2017-04-09T09:47:33Z</time>
      </trkpt>
      <trkpt lat="50.14281" lon="4.13115">
        <ele>220</ele>
        <time>2017-04-09T09:47:38Z</time>
      </trkpt>
      <trkpt lat="50.14253" lon="4.13093">
        <ele>219</ele>
        <time>2017-04-09T09:47:43Z</time>
      </trkpt>
      <trkpt lat="50.14222" lon="4.13067">
        <ele>217</ele>
        <time>2017-04-09T09:47:48Z</time>
      </trkpt>
      <trkpt lat="50.14193" lon="4.13038">
        <ele>217</ele>
        <time>2017-04-09T09:47:53Z</time>
      </trkpt>
      <trkpt lat="50.14162" lon="4.13042">
        <ele>214</ele>
        <time>2017-04-09T09:47:58Z</time>
      </trkpt>
      <trkpt lat="50.1413" lon="4.13068">
        <ele>213</ele>
        <time>2017-04-09T09:48:03Z</time>
      </trkpt>
      <trkpt lat="50.14086" lon="4.13052">
        <ele>214</ele>
        <time>2017-04-09T09:48:09Z</time>
      </trkpt>
      <trkpt lat="50.14058" lon="4.13018">
        <ele>205</ele>
        <time>2017-04-09T09:48:13Z</time>
      </trkpt>
      <trkpt lat="50.13984" lon="4.12979">
        <ele>195</ele>
        <time>2017-04-09T09:48:21Z</time>
      </trkpt>
      <trkpt lat="50.13942" lon="4.1297">
        <ele>193</ele>
        <time>2017-04-09T09:48:25Z</time>
      </trkpt>
      <trkpt lat="50.13923" lon="4.12965">
        <ele>192</ele>
        <time>2017-04-09T09:48:29Z</time>
      </trkpt>
      <trkpt lat="50.13908" lon="4.12959">
        <ele>191</ele>
        <time>2017-04-09T09:48:33Z</time>
      </trkpt>
      <trkpt lat="50.13898" lon="4.12928">
        <ele>187</ele>
        <time>2017-04-09T09:48:41Z</time>
      </trkpt>
      <trkpt lat="50.13902" lon="4.12922">
        <ele>188</ele>
        <time>2017-04-09T09:48:43Z</time>
      </trkpt>
      <trkpt lat="50.13913" lon="4.12909">
        <ele>190</ele>
        <time>2017-04-09T09:48:48Z</time>
      </trkpt>
      <trkpt lat="50.13915" lon="4.12901">
        <ele>190</ele>
        <time>2017-04-09T09:48:53Z</time>
      </trkpt>
      <trkpt lat="50.13917" lon="4.12897">
        <ele>189</ele>
        <time>2017-04-09T09:49:00Z</time>
      </trkpt>
      <trkpt lat="50.13919" lon="4.12896">
        <ele>191</ele>
        <time>2017-04-09T09:49:04Z</time>
      </trkpt>
      <trkpt lat="50.13922" lon="4.1289">
        <ele>191</ele>
        <time>2017-04-09T09:49:08Z</time>
      </trkpt>
      <trkpt lat="50.1393" lon="4.12874">
        <ele>189</ele>
        <time>2017-04-09T09:49:13Z</time>
      </trkpt>
      <trkpt lat="50.13934" lon="4.12854">
        <ele>188</ele>
        <time>2017-04-09T09:49:19Z</time>
      </trkpt>
      <trkpt lat="50.13935" lon="4.12843">
        <ele>187</ele>
        <time>2017-04-09T09:49:23Z</time>
      </trkpt>
      <trkpt lat="50.13938" lon="4.12828">
        <ele>186</ele>
        <time>2017-04-09T09:49:30Z</time>
      </trkpt>
      <trkpt lat="50.1394" lon="4.12822">
        <ele>182</ele>
        <time>2017-04-09T09:49:33Z</time>
      </trkpt>
      <trkpt lat="50.1394" lon="4.12812">
        <ele>183</ele>
        <time>2017-04-09T09:49:38Z</time>
      </trkpt>
      <trkpt lat="50.13942" lon="4.12794">
        <ele>180</ele>
        <time>2017-04-09T09:49:47Z</time>
      </trkpt>
      <trkpt lat="50.13941" lon="4.12793">
        <ele>181</ele>
        <time>2017-04-09T09:49:48Z</time>
      </trkpt>
      <trkpt lat="50.13937" lon="4.1279">
        <ele>186</ele>
        <time>2017-04-09T09:49:55Z</time>
      </trkpt>
      <trkpt lat="50.13936" lon="4.12789">
        <ele>187</ele>
        <time>2017-04-09T09:49:58Z</time>
      </trkpt>
      <trkpt lat="50.13935" lon="4.12783">
        <ele>192</ele>
        <time>2017-04-09T09:50:05Z</time>
      </trkpt>
      <trkpt lat="50.13932" lon="4.12776">
        <ele>197</ele>
        <time>2017-04-09T09:50:10Z</time>
      </trkpt>
      <trkpt lat="50.13931" lon="4.12771">
        <ele>199</ele>
        <time>2017-04-09T09:50:13Z</time>
      </trkpt>
      <trkpt lat="50.13927" lon="4.12758">
        <ele>205</ele>
        <time>2017-04-09T09:50:22Z</time>
      </trkpt>
      <trkpt lat="50.13927" lon="4.12757">
        <ele>206</ele>
        <time>2017-04-09T09:50:23Z</time>
      </trkpt>
      <trkpt lat="50.13925" lon="4.1275">
        <ele>206</ele>
        <time>2017-04-09T09:50:28Z</time>
      </trkpt>
      <trkpt lat="50.13923" lon="4.12744">
        <ele>209</ele>
        <time>2017-04-09T09:50:33Z</time>
      </trkpt>
      <trkpt lat="50.13924" lon="4.12734">
        <ele>210</ele>
        <time>2017-04-09T09:50:41Z</time>
      </trkpt>
      <trkpt lat="50.13924" lon="4.12732">
        <ele>210</ele>
        <time>2017-04-09T09:50:43Z</time>
      </trkpt>
      <trkpt lat="50.13922" lon="4.12726">
        <ele>211</ele>
        <time>2017-04-09T09:50:48Z</time>
      </trkpt>
      <trkpt lat="50.13917" lon="4.1272">
        <ele>211</ele>
        <time>2017-04-09T09:50:54Z</time>
      </trkpt>
      <trkpt lat="50.13914" lon="4.12718">
        <ele>212</ele>
        <time>2017-04-09T09:50:58Z</time>
      </trkpt>
      <trkpt lat="50.13909" lon="4.12716">
        <ele>211</ele>
        <time>2017-04-09T09:51:03Z</time>
      </trkpt>
      <trkpt lat="50.13903" lon="4.12706">
        <ele>211</ele>
        <time>2017-04-09T09:51:11Z</time>
      </trkpt>
      <trkpt lat="50.13897" lon="4.12698">
        <ele>215</ele>
        <time>2017-04-09T09:51:17Z</time>
      </trkpt>
      <trkpt lat="50.13896" lon="4.12696">
        <ele>215</ele>
        <time>2017-04-09T09:51:18Z</time>
      </trkpt>
      <trkpt lat="50.13893" lon="4.12686">
        <ele>219</ele>
        <time>2017-04-09T09:51:25Z</time>
      </trkpt>
      <trkpt lat="50.13891" lon="4.12681">
        <ele>222</ele>
        <time>2017-04-09T09:51:28Z</time>
      </trkpt>
      <trkpt lat="50.1389" lon="4.12671">
        <ele>221</ele>
        <time>2017-04-09T09:51:34Z</time>
      </trkpt>
      <trkpt lat="50.13887" lon="4.12661">
        <ele>223</ele>
        <time>2017-04-09T09:51:40Z</time>
      </trkpt>
      <trkpt lat="50.13887" lon="4.12655">
        <ele>223</ele>
        <time>2017-04-09T09:51:44Z</time>
      </trkpt>
      <trkpt lat="50.13886" lon="4.12645">
        <ele>223</ele>
        <time>2017-04-09T09:51:50Z</time>
      </trkpt>
      <trkpt lat="50.13885" lon="4.12639">
        <ele>222</ele>
        <time>2017-04-09T09:51:53Z</time>
      </trkpt>
      <trkpt lat="50.13882" lon="4.12628">
        <ele>226</ele>
        <time>2017-04-09T09:52:00Z</time>
      </trkpt>
      <trkpt lat="50.13878" lon="4.12623">
        <ele>227</ele>
        <time>2017-04-09T09:52:04Z</time>
      </trkpt>
      <trkpt lat="50.13872" lon="4.12615">
        <ele>226</ele>
        <time>2017-04-09T09:52:10Z</time>
      </trkpt>
      <trkpt lat="50.1387" lon="4.12608">
        <ele>225</ele>
        <time>2017-04-09T09:52:14Z</time>
      </trkpt>
      <trkpt lat="50.13869" lon="4.12601">
        <ele>227</ele>
        <time>2017-04-09T09:52:18Z</time>
      </trkpt>
      <trkpt lat="50.13867" lon="4.12592">
        <ele>224</ele>
        <time>2017-04-09T09:52:26Z</time>
      </trkpt>
      <trkpt lat="50.13866" lon="4.12592">
        <ele>224</ele>
        <time>2017-04-09T09:52:28Z</time>
      </trkpt>
      <trkpt lat="50.13866" lon="4.12586">
        <ele>224</ele>
        <time>2017-04-09T09:52:36Z</time>
      </trkpt>
      <trkpt lat="50.13869" lon="4.12582">
        <ele>222</ele>
        <time>2017-04-09T09:52:38Z</time>
      </trkpt>
      <trkpt lat="50.13874" lon="4.12567">
        <ele>223</ele>
        <time>2017-04-09T09:52:44Z</time>
      </trkpt>
      <trkpt lat="50.13877" lon="4.12557">
        <ele>221</ele>
        <time>2017-04-09T09:52:48Z</time>
      </trkpt>
      <trkpt lat="50.13883" lon="4.12542">
        <ele>223</ele>
        <time>2017-04-09T09:52:54Z</time>
      </trkpt>
      <trkpt lat="50.13892" lon="4.12522">
        <ele>222</ele>
        <time>2017-04-09T09:53:01Z</time>
      </trkpt>
      <trkpt lat="50.13895" lon="4.12516">
        <ele>220</ele>
        <time>2017-04-09T09:53:03Z</time>
      </trkpt>
      <trkpt lat="50.13903" lon="4.12497">
        <ele>222</ele>
        <time>2017-04-09T09:53:11Z</time>
      </trkpt>
      <trkpt lat="50.13904" lon="4.1249">
        <ele>222</ele>
        <time>2017-04-09T09:53:14Z</time>
      </trkpt>
      <trkpt lat="50.13906" lon="4.1248">
        <ele>220</ele>
        <time>2017-04-09T09:53:18Z</time>
      </trkpt>
      <trkpt lat="50.13912" lon="4.12466">
        <ele>223</ele>
        <time>2017-04-09T09:53:24Z</time>
      </trkpt>
      <trkpt lat="50.13918" lon="4.12453">
        <ele>220</ele>
        <time>2017-04-09T09:53:29Z</time>
      </trkpt>
      <trkpt lat="50.13924" lon="4.12439">
        <ele>223</ele>
        <time>2017-04-09T09:53:34Z</time>
      </trkpt>
      <trkpt lat="50.13928" lon="4.12429">
        <ele>222</ele>
        <time>2017-04-09T09:53:38Z</time>
      </trkpt>
      <trkpt lat="50.13935" lon="4.12413">
        <ele>223</ele>
        <time>2017-04-09T09:53:44Z</time>
      </trkpt>
      <trkpt lat="50.13946" lon="4.12391">
        <ele>221</ele>
        <time>2017-04-09T09:53:52Z</time>
      </trkpt>
      <trkpt lat="50.1395" lon="4.12384">
        <ele>223</ele>
        <time>2017-04-09T09:53:55Z</time>
      </trkpt>
      <trkpt lat="50.13955" lon="4.12374">
        <ele>223</ele>
        <time>2017-04-09T09:53:59Z</time>
      </trkpt>
      <trkpt lat="50.13964" lon="4.12359">
        <ele>225</ele>
        <time>2017-04-09T09:54:05Z</time>
      </trkpt>
      <trkpt lat="50.13972" lon="4.12346">
        <ele>225</ele>
        <time>2017-04-09T09:54:12Z</time>
      </trkpt>
      <trkpt lat="50.13975" lon="4.12341">
        <ele>225</ele>
        <time>2017-04-09T09:54:14Z</time>
      </trkpt>
      <trkpt lat="50.13981" lon="4.12332">
        <ele>226</ele>
        <time>2017-04-09T09:54:18Z</time>
      </trkpt>
      <trkpt lat="50.13997" lon="4.12311">
        <ele>225</ele>
        <time>2017-04-09T09:54:27Z</time>
      </trkpt>
      <trkpt lat="50.13999" lon="4.12308">
        <ele>225</ele>
        <time>2017-04-09T09:54:28Z</time>
      </trkpt>
      <trkpt lat="50.14007" lon="4.12298">
        <ele>224</ele>
        <time>2017-04-09T09:54:33Z</time>
      </trkpt>
      <trkpt lat="50.14014" lon="4.12288">
        <ele>224</ele>
        <time>2017-04-09T09:54:38Z</time>
      </trkpt>
      <trkpt lat="50.14021" lon="4.12275">
        <ele>223</ele>
        <time>2017-04-09T09:54:43Z</time>
      </trkpt>
      <trkpt lat="50.1403" lon="4.12259">
        <ele>223</ele>
        <time>2017-04-09T09:54:50Z</time>
      </trkpt>
      <trkpt lat="50.14033" lon="4.12253">
        <ele>223</ele>
        <time>2017-04-09T09:54:53Z</time>
      </trkpt>
      <trkpt lat="50.14038" lon="4.12243">
        <ele>224</ele>
        <time>2017-04-09T09:54:58Z</time>
      </trkpt>
      <trkpt lat="50.1404" lon="4.12225">
        <ele>224</ele>
        <time>2017-04-09T09:55:05Z</time>
      </trkpt>
      <trkpt lat="50.14044" lon="4.12218">
        <ele>224</ele>
        <time>2017-04-09T09:55:08Z</time>
      </trkpt>
      <trkpt lat="50.14051" lon="4.12211">
        <ele>224</ele>
        <time>2017-04-09T09:55:13Z</time>
      </trkpt>
      <trkpt lat="50.14057" lon="4.12199">
        <ele>225</ele>
        <time>2017-04-09T09:55:18Z</time>
      </trkpt>
      <trkpt lat="50.14068" lon="4.12176">
        <ele>226</ele>
        <time>2017-04-09T09:55:27Z</time>
      </trkpt>
      <trkpt lat="50.14069" lon="4.12174">
        <ele>226</ele>
        <time>2017-04-09T09:55:28Z</time>
      </trkpt>
      <trkpt lat="50.14075" lon="4.12162">
        <ele>225</ele>
        <time>2017-04-09T09:55:33Z</time>
      </trkpt>
      <trkpt lat="50.14083" lon="4.12143">
        <ele>225</ele>
        <time>2017-04-09T09:55:40Z</time>
      </trkpt>
      <trkpt lat="50.14087" lon="4.12134">
        <ele>224</ele>
        <time>2017-04-09T09:55:43Z</time>
      </trkpt>
      <trkpt lat="50.14095" lon="4.12119">
        <ele>223</ele>
        <time>2017-04-09T09:55:48Z</time>
      </trkpt>
      <trkpt lat="50.141" lon="4.12107">
        <ele>224</ele>
        <time>2017-04-09T09:55:53Z</time>
      </trkpt>
      <trkpt lat="50.14111" lon="4.12087">
        <ele>224</ele>
        <time>2017-04-09T09:56:02Z</time>
      </trkpt>
      <trkpt lat="50.14113" lon="4.12084">
        <ele>225</ele>
        <time>2017-04-09T09:56:03Z</time>
      </trkpt>
      <trkpt lat="50.14119" lon="4.12072">
        <ele>224</ele>
        <time>2017-04-09T09:56:08Z</time>
      </trkpt>
      <trkpt lat="50.1413" lon="4.12054">
        <ele>225</ele>
        <time>2017-04-09T09:56:16Z</time>
      </trkpt>
      <trkpt lat="50.14137" lon="4.12042">
        <ele>225</ele>
        <time>2017-04-09T09:56:21Z</time>
      </trkpt>
      <trkpt lat="50.14143" lon="4.1203">
        <ele>225</ele>
        <time>2017-04-09T09:56:26Z</time>
      </trkpt>
      <trkpt lat="50.14148" lon="4.12021">
        <ele>225</ele>
        <time>2017-04-09T09:56:30Z</time>
      </trkpt>
      <trkpt lat="50.14151" lon="4.12013">
        <ele>226</ele>
        <time>2017-04-09T09:56:33Z</time>
      </trkpt>
      <trkpt lat="50.14165" lon="4.1199">
        <ele>225</ele>
        <time>2017-04-09T09:56:42Z</time>
      </trkpt>
      <trkpt lat="50.14167" lon="4.11987">
        <ele>225</ele>
        <time>2017-04-09T09:56:43Z</time>
      </trkpt>
      <trkpt lat="50.14179" lon="4.11968">
        <ele>225</ele>
        <time>2017-04-09T09:56:50Z</time>
      </trkpt>
      <trkpt lat="50.14184" lon="4.11959">
        <ele>225</ele>
        <time>2017-04-09T09:56:53Z</time>
      </trkpt>
      <trkpt lat="50.14197" lon="4.11937">
        <ele>224</ele>
        <time>2017-04-09T09:57:00Z</time>
      </trkpt>
      <trkpt lat="50.14202" lon="4.11928">
        <ele>224</ele>
        <time>2017-04-09T09:57:03Z</time>
      </trkpt>
      <trkpt lat="50.14212" lon="4.11908">
        <ele>225</ele>
        <time>2017-04-09T09:57:10Z</time>
      </trkpt>
      <trkpt lat="50.14221" lon="4.11894">
        <ele>225</ele>
        <time>2017-04-09T09:57:15Z</time>
      </trkpt>
      <trkpt lat="50.14225" lon="4.11885">
        <ele>225</ele>
        <time>2017-04-09T09:57:18Z</time>
      </trkpt>
      <trkpt lat="50.14232" lon="4.11868">
        <ele>224</ele>
        <time>2017-04-09T09:57:23Z</time>
      </trkpt>
      <trkpt lat="50.14235" lon="4.11851">
        <ele>224</ele>
        <time>2017-04-09T09:57:28Z</time>
      </trkpt>
      <trkpt lat="50.14236" lon="4.1183">
        <ele>225</ele>
        <time>2017-04-09T09:57:35Z</time>
      </trkpt>
      <trkpt lat="50.14241" lon="4.11809">
        <ele>225</ele>
        <time>2017-04-09T09:57:41Z</time>
      </trkpt>
      <trkpt lat="50.14243" lon="4.11802">
        <ele>225</ele>
        <time>2017-04-09T09:57:43Z</time>
      </trkpt>
      <trkpt lat="50.14243" lon="4.11777">
        <ele>225</ele>
        <time>2017-04-09T09:57:50Z</time>
      </trkpt>
      <trkpt lat="50.14242" lon="4.11767">
        <ele>226</ele>
        <time>2017-04-09T09:57:53Z</time>
      </trkpt>
      <trkpt lat="50.14246" lon="4.11751">
        <ele>224</ele>
        <time>2017-04-09T09:57:58Z</time>
      </trkpt>
      <trkpt lat="50.1425" lon="4.11735">
        <ele>225</ele>
        <time>2017-04-09T09:58:03Z</time>
      </trkpt>
      <trkpt lat="50.14249" lon="4.11719">
        <ele>224</ele>
        <time>2017-04-09T09:58:08Z</time>
      </trkpt>
      <trkpt lat="50.14248" lon="4.11694">
        <ele>224</ele>
        <time>2017-04-09T09:58:15Z</time>
      </trkpt>
      <trkpt lat="50.14249" lon="4.11684">
        <ele>225</ele>
        <time>2017-04-09T09:58:18Z</time>
      </trkpt>
      <trkpt lat="50.14249" lon="4.11657">
        <ele>223</ele>
        <time>2017-04-09T09:58:26Z</time>
      </trkpt>
      <trkpt lat="50.14248" lon="4.1165">
        <ele>223</ele>
        <time>2017-04-09T09:58:28Z</time>
      </trkpt>
      <trkpt lat="50.14244" lon="4.1162">
        <ele>224</ele>
        <time>2017-04-09T09:58:36Z</time>
      </trkpt>
      <trkpt lat="50.14243" lon="4.11608">
        <ele>224</ele>
        <time>2017-04-09T09:58:39Z</time>
      </trkpt>
      <trkpt lat="50.14243" lon="4.11589">
        <ele>224</ele>
        <time>2017-04-09T09:58:44Z</time>
      </trkpt>
      <trkpt lat="50.14244" lon="4.11576">
        <ele>225</ele>
        <time>2017-04-09T09:58:48Z</time>
      </trkpt>
      <trkpt lat="50.14246" lon="4.11558">
        <ele>224</ele>
        <time>2017-04-09T09:58:54Z</time>
      </trkpt>
      <trkpt lat="50.14247" lon="4.11528">
        <ele>224</ele>
        <time>2017-04-09T09:59:02Z</time>
      </trkpt>
      <trkpt lat="50.14249" lon="4.11506">
        <ele>228</ele>
        <time>2017-04-09T09:59:07Z</time>
      </trkpt>
      <trkpt lat="50.14252" lon="4.11495">
        <ele>226</ele>
        <time>2017-04-09T09:59:10Z</time>
      </trkpt>
      <trkpt lat="50.14257" lon="4.11482">
        <ele>226</ele>
        <time>2017-04-09T09:59:14Z</time>
      </trkpt>
      <trkpt lat="50.14267" lon="4.11456">
        <ele>232</ele>
        <time>2017-04-09T09:59:22Z</time>
      </trkpt>
      <trkpt lat="50.14268" lon="4.11452">
        <ele>232</ele>
        <time>2017-04-09T09:59:23Z</time>
      </trkpt>
      <trkpt lat="50.14277" lon="4.11441">
        <ele>232</ele>
        <time>2017-04-09T09:59:28Z</time>
      </trkpt>
      <trkpt lat="50.1429" lon="4.11426">
        <ele>233</ele>
        <time>2017-04-09T09:59:33Z</time>
      </trkpt>
      <trkpt lat="50.14305" lon="4.11411">
        <ele>230</ele>
        <time>2017-04-09T09:59:38Z</time>
      </trkpt>
      <trkpt lat="50.1432" lon="4.114">
        <ele>229</ele>
        <time>2017-04-09T09:59:43Z</time>
      </trkpt>
      <trkpt lat="50.14337" lon="4.1139">
        <ele>228</ele>
        <time>2017-04-09T09:59:48Z</time>
      </trkpt>
      <trkpt lat="50.14354" lon="4.11382">
        <ele>229</ele>
        <time>2017-04-09T09:59:53Z</time>
      </trkpt>
      <trkpt lat="50.14371" lon="4.11374">
        <ele>230</ele>
        <time>2017-04-09T09:59:58Z</time>
      </trkpt>
      <trkpt lat="50.14389" lon="4.11368">
        <ele>230</ele>
        <time>2017-04-09T10:00:03Z</time>
      </trkpt>
      <trkpt lat="50.14407" lon="4.11361">
        <ele>231</ele>
        <time>2017-04-09T10:00:08Z</time>
      </trkpt>
      <trkpt lat="50.14428" lon="4.11353">
        <ele>231</ele>
        <time>2017-04-09T10:00:14Z</time>
      </trkpt>
      <trkpt lat="50.14442" lon="4.1135">
        <ele>232</ele>
        <time>2017-04-09T10:00:18Z</time>
      </trkpt>
      <trkpt lat="50.14461" lon="4.11345">
        <ele>230</ele>
        <time>2017-04-09T10:00:23Z</time>
      </trkpt>
      <trkpt lat="50.14478" lon="4.11343">
        <ele>232</ele>
        <time>2017-04-09T10:00:28Z</time>
      </trkpt>
      <trkpt lat="50.14493" lon="4.11338">
        <ele>234</ele>
        <time>2017-04-09T10:00:33Z</time>
      </trkpt>
      <trkpt lat="50.14507" lon="4.11333">
        <ele>235</ele>
        <time>2017-04-09T10:00:38Z</time>
      </trkpt>
      <trkpt lat="50.14521" lon="4.11324">
        <ele>235</ele>
        <time>2017-04-09T10:00:43Z</time>
      </trkpt>
      <trkpt lat="50.14535" lon="4.11314">
        <ele>233</ele>
        <time>2017-04-09T10:00:48Z</time>
      </trkpt>
      <trkpt lat="50.1455" lon="4.113">
        <ele>231</ele>
        <time>2017-04-09T10:00:53Z</time>
      </trkpt>
      <trkpt lat="50.14565" lon="4.11284">
        <ele>231</ele>
        <time>2017-04-09T10:00:58Z</time>
      </trkpt>
      <trkpt lat="50.14579" lon="4.11263">
        <ele>232</ele>
        <time>2017-04-09T10:01:03Z</time>
      </trkpt>
      <trkpt lat="50.14591" lon="4.11241">
        <ele>231</ele>
        <time>2017-04-09T10:01:08Z</time>
      </trkpt>
      <trkpt lat="50.14603" lon="4.11219">
        <ele>228</ele>
        <time>2017-04-09T10:01:13Z</time>
      </trkpt>
      <trkpt lat="50.14617" lon="4.112">
        <ele>227</ele>
        <time>2017-04-09T10:01:17Z</time>
      </trkpt>
      <trkpt lat="50.14632" lon="4.11174">
        <ele>226</ele>
        <time>2017-04-09T10:01:23Z</time>
      </trkpt>
      <trkpt lat="50.14648" lon="4.11143">
        <ele>226</ele>
        <time>2017-04-09T10:01:28Z</time>
      </trkpt>
      <trkpt lat="50.14666" lon="4.11108">
        <ele>227</ele>
        <time>2017-04-09T10:01:33Z</time>
      </trkpt>
      <trkpt lat="50.14685" lon="4.11072">
        <ele>227</ele>
        <time>2017-04-09T10:01:38Z</time>
      </trkpt>
      <trkpt lat="50.14705" lon="4.11041">
        <ele>226</ele>
        <time>2017-04-09T10:01:43Z</time>
      </trkpt>
      <trkpt lat="50.14725" lon="4.11011">
        <ele>226</ele>
        <time>2017-04-09T10:01:48Z</time>
      </trkpt>
      <trkpt lat="50.14747" lon="4.10981">
        <ele>226</ele>
        <time>2017-04-09T10:01:53Z</time>
      </trkpt>
      <trkpt lat="50.14768" lon="4.1095">
        <ele>225</ele>
        <time>2017-04-09T10:01:58Z</time>
      </trkpt>
      <trkpt lat="50.14789" lon="4.10919">
        <ele>224</ele>
        <time>2017-04-09T10:02:03Z</time>
      </trkpt>
      <trkpt lat="50.14805" lon="4.10889">
        <ele>225</ele>
        <time>2017-04-09T10:02:08Z</time>
      </trkpt>
      <trkpt lat="50.1482" lon="4.10863">
        <ele>227</ele>
        <time>2017-04-09T10:02:13Z</time>
      </trkpt>
      <trkpt lat="50.14834" lon="4.10834">
        <ele>230</ele>
        <time>2017-04-09T10:02:19Z</time>
      </trkpt>
      <trkpt lat="50.14843" lon="4.10818">
        <ele>231</ele>
        <time>2017-04-09T10:02:23Z</time>
      </trkpt>
      <trkpt lat="50.1485" lon="4.10804">
        <ele>229</ele>
        <time>2017-04-09T10:02:28Z</time>
      </trkpt>
      <trkpt lat="50.1486" lon="4.10784">
        <ele>230</ele>
        <time>2017-04-09T10:02:32Z</time>
      </trkpt>
      <trkpt lat="50.14871" lon="4.10761">
        <ele>228</ele>
        <time>2017-04-09T10:02:37Z</time>
      </trkpt>
      <trkpt lat="50.14885" lon="4.10732">
        <ele>228</ele>
        <time>2017-04-09T10:02:42Z</time>
      </trkpt>
      <trkpt lat="50.149" lon="4.10695">
        <ele>226</ele>
        <time>2017-04-09T10:02:47Z</time>
      </trkpt>
      <trkpt lat="50.14916" lon="4.10647">
        <ele>224</ele>
        <time>2017-04-09T10:02:52Z</time>
      </trkpt>
      <trkpt lat="50.14937" lon="4.10591">
        <ele>222</ele>
        <time>2017-04-09T10:02:57Z</time>
      </trkpt>
      <trkpt lat="50.14972" lon="4.10567">
        <ele>221</ele>
        <time>2017-04-09T10:03:02Z</time>
      </trkpt>
      <trkpt lat="50.15006" lon="4.10575">
        <ele>222</ele>
        <time>2017-04-09T10:03:07Z</time>
      </trkpt>
      <trkpt lat="50.15031" lon="4.10591">
        <ele>223</ele>
        <time>2017-04-09T10:03:12Z</time>
      </trkpt>
      <trkpt lat="50.15057" lon="4.10605">
        <ele>224</ele>
        <time>2017-04-09T10:03:18Z</time>
      </trkpt>
      <trkpt lat="50.15084" lon="4.10601">
        <ele>225</ele>
        <time>2017-04-09T10:03:22Z</time>
      </trkpt>
      <trkpt lat="50.15109" lon="4.10594">
        <ele>225</ele>
        <time>2017-04-09T10:03:28Z</time>
      </trkpt>
      <trkpt lat="50.15139" lon="4.10594">
        <ele>226</ele>
        <time>2017-04-09T10:03:34Z</time>
      </trkpt>
      <trkpt lat="50.1516" lon="4.10599">
        <ele>226</ele>
        <time>2017-04-09T10:03:37Z</time>
      </trkpt>
      <trkpt lat="50.15185" lon="4.10607">
        <ele>227</ele>
        <time>2017-04-09T10:03:42Z</time>
      </trkpt>
      <trkpt lat="50.1521" lon="4.10616">
        <ele>228</ele>
        <time>2017-04-09T10:03:47Z</time>
      </trkpt>
      <trkpt lat="50.15235" lon="4.10623">
        <ele>228</ele>
        <time>2017-04-09T10:03:52Z</time>
      </trkpt>
      <trkpt lat="50.15256" lon="4.10628">
        <ele>229</ele>
        <time>2017-04-09T10:03:57Z</time>
      </trkpt>
      <trkpt lat="50.15275" lon="4.10623">
        <ele>228</ele>
        <time>2017-04-09T10:04:02Z</time>
      </trkpt>
      <trkpt lat="50.15299" lon="4.10606">
        <ele>229</ele>
        <time>2017-04-09T10:04:09Z</time>
      </trkpt>
      <trkpt lat="50.15308" lon="4.106">
        <ele>229</ele>
        <time>2017-04-09T10:04:12Z</time>
      </trkpt>
      <trkpt lat="50.15324" lon="4.10587">
        <ele>229</ele>
        <time>2017-04-09T10:04:17Z</time>
      </trkpt>
      <trkpt lat="50.1534" lon="4.10576">
        <ele>229</ele>
        <time>2017-04-09T10:04:23Z</time>
      </trkpt>
      <trkpt lat="50.15351" lon="4.10567">
        <ele>229</ele>
        <time>2017-04-09T10:04:27Z</time>
      </trkpt>
      <trkpt lat="50.15366" lon="4.10555">
        <ele>228</ele>
        <time>2017-04-09T10:04:32Z</time>
      </trkpt>
      <trkpt lat="50.15383" lon="4.10541">
        <ele>229</ele>
        <time>2017-04-09T10:04:37Z</time>
      </trkpt>
      <trkpt lat="50.154" lon="4.10527">
        <ele>229</ele>
        <time>2017-04-09T10:04:42Z</time>
      </trkpt>
      <trkpt lat="50.15414" lon="4.1051">
        <ele>229</ele>
        <time>2017-04-09T10:04:47Z</time>
      </trkpt>
      <trkpt lat="50.15429" lon="4.10494">
        <ele>230</ele>
        <time>2017-04-09T10:04:52Z</time>
      </trkpt>
      <trkpt lat="50.15443" lon="4.10475">
        <ele>230</ele>
        <time>2017-04-09T10:04:57Z</time>
      </trkpt>
      <trkpt lat="50.15458" lon="4.10455">
        <ele>230</ele>
        <time>2017-04-09T10:05:03Z</time>
      </trkpt>
      <trkpt lat="50.15466" lon="4.10428">
        <ele>230</ele>
        <time>2017-04-09T10:05:08Z</time>
      </trkpt>
      <trkpt lat="50.15469" lon="4.10397">
        <ele>231</ele>
        <time>2017-04-09T10:05:13Z</time>
      </trkpt>
      <trkpt lat="50.15472" lon="4.10367">
        <ele>229</ele>
        <time>2017-04-09T10:05:18Z</time>
      </trkpt>
      <trkpt lat="50.15476" lon="4.10337">
        <ele>228</ele>
        <time>2017-04-09T10:05:23Z</time>
      </trkpt>
      <trkpt lat="50.15478" lon="4.10307">
        <ele>229</ele>
        <time>2017-04-09T10:05:28Z</time>
      </trkpt>
      <trkpt lat="50.1548" lon="4.10278">
        <ele>229</ele>
        <time>2017-04-09T10:05:33Z</time>
      </trkpt>
      <trkpt lat="50.15483" lon="4.10251">
        <ele>229</ele>
        <time>2017-04-09T10:05:37Z</time>
      </trkpt>
      <trkpt lat="50.15486" lon="4.10224">
        <ele>229</ele>
        <time>2017-04-09T10:05:43Z</time>
      </trkpt>
      <trkpt lat="50.15488" lon="4.10197">
        <ele>230</ele>
        <time>2017-04-09T10:05:47Z</time>
      </trkpt>
      <trkpt lat="50.15489" lon="4.10169">
        <ele>229</ele>
        <time>2017-04-09T10:05:53Z</time>
      </trkpt>
      <trkpt lat="50.15489" lon="4.10139">
        <ele>230</ele>
        <time>2017-04-09T10:05:57Z</time>
      </trkpt>
      <trkpt lat="50.1549" lon="4.10108">
        <ele>230</ele>
        <time>2017-04-09T10:06:02Z</time>
      </trkpt>
      <trkpt lat="50.15492" lon="4.1008">
        <ele>231</ele>
        <time>2017-04-09T10:06:08Z</time>
      </trkpt>
      <trkpt lat="50.15492" lon="4.10049">
        <ele>233</ele>
        <time>2017-04-09T10:06:12Z</time>
      </trkpt>
      <trkpt lat="50.15493" lon="4.10016">
        <ele>233</ele>
        <time>2017-04-09T10:06:17Z</time>
      </trkpt>
      <trkpt lat="50.15495" lon="4.09984">
        <ele>232</ele>
        <time>2017-04-09T10:06:23Z</time>
      </trkpt>
      <trkpt lat="50.15497" lon="4.09951">
        <ele>233</ele>
        <time>2017-04-09T10:06:27Z</time>
      </trkpt>
      <trkpt lat="50.15498" lon="4.09918">
        <ele>233</ele>
        <time>2017-04-09T10:06:32Z</time>
      </trkpt>
      <trkpt lat="50.15499" lon="4.09883">
        <ele>234</ele>
        <time>2017-04-09T10:06:37Z</time>
      </trkpt>
      <trkpt lat="50.15501" lon="4.09849">
        <ele>233</ele>
        <time>2017-04-09T10:06:43Z</time>
      </trkpt>
      <trkpt lat="50.15505" lon="4.09817">
        <ele>232</ele>
        <time>2017-04-09T10:06:47Z</time>
      </trkpt>
      <trkpt lat="50.1551" lon="4.09786">
        <ele>233</ele>
        <time>2017-04-09T10:06:52Z</time>
      </trkpt>
      <trkpt lat="50.15515" lon="4.09755">
        <ele>232</ele>
        <time>2017-04-09T10:06:57Z</time>
      </trkpt>
      <trkpt lat="50.15518" lon="4.09725">
        <ele>229</ele>
        <time>2017-04-09T10:07:03Z</time>
      </trkpt>
      <trkpt lat="50.15521" lon="4.097">
        <ele>230</ele>
        <time>2017-04-09T10:07:08Z</time>
      </trkpt>
      <trkpt lat="50.1552" lon="4.09693">
        <ele>232</ele>
        <time>2017-04-09T10:07:13Z</time>
      </trkpt>
      <trkpt lat="50.1552" lon="4.09692">
        <ele>233</ele>
        <time>2017-04-09T10:07:18Z</time>
      </trkpt>
      <trkpt lat="50.1552" lon="4.09691">
        <ele>233</ele>
        <time>2017-04-09T10:07:23Z</time>
      </trkpt>
      <trkpt lat="50.15519" lon="4.09692">
        <ele>233</ele>
        <time>2017-04-09T10:07:27Z</time>
      </trkpt>
      <trkpt lat="50.1552" lon="4.09693">
        <ele>233</ele>
        <time>2017-04-09T10:07:32Z</time>
      </trkpt>
      <trkpt lat="50.1552" lon="4.09692">
        <ele>233</ele>
        <time>2017-04-09T10:07:37Z</time>
      </trkpt>
      <trkpt lat="50.1552" lon="4.09693">
        <ele>233</ele>
        <time>2017-04-09T10:07:43Z</time>
      </trkpt>
      <trkpt lat="50.15519" lon="4.09693">
        <ele>234</ele>
        <time>2017-04-09T10:07:48Z</time>
      </trkpt>
      <trkpt lat="50.15517" lon="4.09693">
        <ele>234</ele>
        <time>2017-04-09T10:07:53Z</time>
      </trkpt>
      <trkpt lat="50.15517" lon="4.09693">
        <ele>234</ele>
        <time>2017-04-09T10:07:58Z</time>
      </trkpt>
      <trkpt lat="50.15518" lon="4.09692">
        <ele>234</ele>
        <time>2017-04-09T10:08:02Z</time>
      </trkpt>
      <trkpt lat="50.15518" lon="4.09692">
        <ele>234</ele>
        <time>2017-04-09T10:08:08Z</time>
      </trkpt>
      <trkpt lat="50.15518" lon="4.09692">
        <ele>234</ele>
        <time>2017-04-09T10:08:13Z</time>
      </trkpt>
      <trkpt lat="50.15517" lon="4.09692">
        <ele>234</ele>
        <time>2017-04-09T10:08:17Z</time>
      </trkpt>
      <trkpt lat="50.15518" lon="4.09694">
        <ele>234</ele>
        <time>2017-04-09T10:08:22Z</time>
      </trkpt>
      <trkpt lat="50.15518" lon="4.09693">
        <ele>234</ele>
        <time>2017-04-09T10:08:27Z</time>
      </trkpt>
      <trkpt lat="50.15517" lon="4.09693">
        <ele>233</ele>
        <time>2017-04-09T10:08:32Z</time>
      </trkpt>
      <trkpt lat="50.15517" lon="4.09693">
        <ele>233</ele>
        <time>2017-04-09T10:08:37Z</time>
      </trkpt>
      <trkpt lat="50.15517" lon="4.09693">
        <ele>233</ele>
        <time>2017-04-09T10:08:42Z</time>
      </trkpt>
      <trkpt lat="50.15519" lon="4.09691">
        <ele>233</ele>
        <time>2017-04-09T10:08:47Z</time>
      </trkpt>
      <trkpt lat="50.15519" lon="4.09691">
        <ele>234</ele>
        <time>2017-04-09T10:08:53Z</time>
      </trkpt>
      <trkpt lat="50.15519" lon="4.09691">
        <ele>233</ele>
        <time>2017-04-09T10:08:58Z</time>
      </trkpt>
      <trkpt lat="50.15519" lon="4.09692">
        <ele>233</ele>
        <time>2017-04-09T10:09:03Z</time>
      </trkpt>
      <trkpt lat="50.15519" lon="4.09692">
        <ele>233</ele>
        <time>2017-04-09T10:09:08Z</time>
      </trkpt>
      <trkpt lat="50.15519" lon="4.09692">
        <ele>233</ele>
        <time>2017-04-09T10:09:13Z</time>
      </trkpt>
      <trkpt lat="50.15519" lon="4.09692">
        <ele>233</ele>
        <time>2017-04-09T10:09:17Z</time>
      </trkpt>
      <trkpt lat="50.15519" lon="4.09692">
        <ele>233</ele>
        <time>2017-04-09T10:09:23Z</time>
      </trkpt>
      <trkpt lat="50.15519" lon="4.09692">
        <ele>233</ele>
        <time>2017-04-09T10:09:28Z</time>
      </trkpt>
      <trkpt lat="50.15519" lon="4.09692">
        <ele>233</ele>
        <time>2017-04-09T10:09:33Z</time>
      </trkpt>
      <trkpt lat="50.15519" lon="4.09692">
        <ele>234</ele>
        <time>2017-04-09T10:09:37Z</time>
      </trkpt>
      <trkpt lat="50.15518" lon="4.09692">
        <ele>233</ele>
        <time>2017-04-09T10:09:43Z</time>
      </trkpt>
      <trkpt lat="50.15518" lon="4.09691">
        <ele>233</ele>
        <time>2017-04-09T10:09:48Z</time>
      </trkpt>
      <trkpt lat="50.15519" lon="4.09691">
        <ele>233</ele>
        <time>2017-04-09T10:09:52Z</time>
      </trkpt>
      <trkpt lat="50.15518" lon="4.09693">
        <ele>234</ele>
        <time>2017-04-09T10:09:57Z</time>
      </trkpt>
      <trkpt lat="50.15517" lon="4.09693">
        <ele>234</ele>
        <time>2017-04-09T10:10:02Z</time>
      </trkpt>
      <trkpt lat="50.15518" lon="4.09692">
        <ele>234</ele>
        <time>2017-04-09T10:10:08Z</time>
      </trkpt>
      <trkpt lat="50.15517" lon="4.09693">
        <ele>234</ele>
        <time>2017-04-09T10:10:12Z</time>
      </trkpt>
      <trkpt lat="50.15518" lon="4.09693">
        <ele>232</ele>
        <time>2017-04-09T10:10:17Z</time>
      </trkpt>
      <trkpt lat="50.15518" lon="4.09693">
        <ele>232</ele>
        <time>2017-04-09T10:10:22Z</time>
      </trkpt>
      <trkpt lat="50.15518" lon="4.09693">
        <ele>232</ele>
        <time>2017-04-09T10:10:27Z</time>
      </trkpt>
      <trkpt lat="50.15519" lon="4.09693">
        <ele>233</ele>
        <time>2017-04-09T10:10:32Z</time>
      </trkpt>
      <trkpt lat="50.15519" lon="4.09693">
        <ele>233</ele>
        <time>2017-04-09T10:10:38Z</time>
      </trkpt>
      <trkpt lat="50.15518" lon="4.09692">
        <ele>233</ele>
        <time>2017-04-09T10:10:42Z</time>
      </trkpt>
      <trkpt lat="50.15518" lon="4.09691">
        <ele>233</ele>
        <time>2017-04-09T10:10:47Z</time>
      </trkpt>
      <trkpt lat="50.15517" lon="4.09692">
        <ele>234</ele>
        <time>2017-04-09T10:10:52Z</time>
      </trkpt>
      <trkpt lat="50.15517" lon="4.09692">
        <ele>234</ele>
        <time>2017-04-09T10:10:57Z</time>
      </trkpt>
      <trkpt lat="50.15518" lon="4.09693">
        <ele>235</ele>
        <time>2017-04-09T10:11:02Z</time>
      </trkpt>
      <trkpt lat="50.15517" lon="4.09697">
        <ele>235</ele>
        <time>2017-04-09T10:11:07Z</time>
      </trkpt>
      <trkpt lat="50.15516" lon="4.09695">
        <ele>235</ele>
        <time>2017-04-09T10:11:12Z</time>
      </trkpt>
      <trkpt lat="50.15517" lon="4.09694">
        <ele>233</ele>
        <time>2017-04-09T10:11:17Z</time>
      </trkpt>
      <trkpt lat="50.1551" lon="4.09692">
        <ele>235</ele>
        <time>2017-04-09T10:11:22Z</time>
      </trkpt>
      <trkpt lat="50.15497" lon="4.0969">
        <ele>233</ele>
        <time>2017-04-09T10:11:27Z</time>
      </trkpt>
      <trkpt lat="50.15484" lon="4.09689">
        <ele>231</ele>
        <time>2017-04-09T10:11:32Z</time>
      </trkpt>
      <trkpt lat="50.15469" lon="4.09688">
        <ele>230</ele>
        <time>2017-04-09T10:11:37Z</time>
      </trkpt>
      <trkpt lat="50.1545" lon="4.09687">
        <ele>230</ele>
        <time>2017-04-09T10:11:42Z</time>
      </trkpt>
      <trkpt lat="50.15429" lon="4.09685">
        <ele>230</ele>
        <time>2017-04-09T10:11:47Z</time>
      </trkpt>
      <trkpt lat="50.15409" lon="4.09683">
        <ele>229</ele>
        <time>2017-04-09T10:11:52Z</time>
      </trkpt>
      <trkpt lat="50.15388" lon="4.09681">
        <ele>228</ele>
        <time>2017-04-09T10:11:57Z</time>
      </trkpt>
      <trkpt lat="50.15366" lon="4.09679">
        <ele>228</ele>
        <time>2017-04-09T10:12:02Z</time>
      </trkpt>
      <trkpt lat="50.15346" lon="4.0968">
        <ele>228</ele>
        <time>2017-04-09T10:12:07Z</time>
      </trkpt>
      <trkpt lat="50.15326" lon="4.09683">
        <ele>227</ele>
        <time>2017-04-09T10:12:12Z</time>
      </trkpt>
      <trkpt lat="50.15307" lon="4.09686">
        <ele>229</ele>
        <time>2017-04-09T10:12:17Z</time>
      </trkpt>
      <trkpt lat="50.15288" lon="4.09688">
        <ele>227</ele>
        <time>2017-04-09T10:12:22Z</time>
      </trkpt>
      <trkpt lat="50.15271" lon="4.09688">
        <ele>227</ele>
        <time>2017-04-09T10:12:27Z</time>
      </trkpt>
      <trkpt lat="50.15254" lon="4.09688">
        <ele>226</ele>
        <time>2017-04-09T10:12:32Z</time>
      </trkpt>
      <trkpt lat="50.15237" lon="4.09691">
        <ele>225</ele>
        <time>2017-04-09T10:12:38Z</time>
      </trkpt>
      <trkpt lat="50.15219" lon="4.09693">
        <ele>224</ele>
        <time>2017-04-09T10:12:43Z</time>
      </trkpt>
      <trkpt lat="50.152" lon="4.09698">
        <ele>226</ele>
        <time>2017-04-09T10:12:48Z</time>
      </trkpt>
      <trkpt lat="50.15179" lon="4.09704">
        <ele>224</ele>
        <time>2017-04-09T10:12:52Z</time>
      </trkpt>
      <trkpt lat="50.15158" lon="4.09711">
        <ele>227</ele>
        <time>2017-04-09T10:12:57Z</time>
      </trkpt>
      <trkpt lat="50.1512" lon="4.09719">
        <ele>229</ele>
        <time>2017-04-09T10:13:05Z</time>
      </trkpt>
      <trkpt lat="50.15112" lon="4.09718">
        <ele>230</ele>
        <time>2017-04-09T10:13:07Z</time>
      </trkpt>
      <trkpt lat="50.15106" lon="4.09695">
        <ele>230</ele>
        <time>2017-04-09T10:13:12Z</time>
      </trkpt>
      <trkpt lat="50.15104" lon="4.09667">
        <ele>231</ele>
        <time>2017-04-09T10:13:17Z</time>
      </trkpt>
      <trkpt lat="50.15102" lon="4.0964">
        <ele>232</ele>
        <time>2017-04-09T10:13:22Z</time>
      </trkpt>
      <trkpt lat="50.151" lon="4.09614">
        <ele>231</ele>
        <time>2017-04-09T10:13:27Z</time>
      </trkpt>
      <trkpt lat="50.15099" lon="4.0959">
        <ele>230</ele>
        <time>2017-04-09T10:13:32Z</time>
      </trkpt>
      <trkpt lat="50.15098" lon="4.09569">
        <ele>229</ele>
        <time>2017-04-09T10:13:37Z</time>
      </trkpt>
      <trkpt lat="50.15095" lon="4.09549">
        <ele>229</ele>
        <time>2017-04-09T10:13:42Z</time>
      </trkpt>
      <trkpt lat="50.15092" lon="4.09522">
        <ele>230</ele>
        <time>2017-04-09T10:13:49Z</time>
      </trkpt>
      <trkpt lat="50.15091" lon="4.09498">
        <ele>230</ele>
        <time>2017-04-09T10:13:55Z</time>
      </trkpt>
      <trkpt lat="50.15092" lon="4.09491">
        <ele>228</ele>
        <time>2017-04-09T10:13:57Z</time>
      </trkpt>
      <trkpt lat="50.15093" lon="4.09467">
        <ele>228</ele>
        <time>2017-04-09T10:14:03Z</time>
      </trkpt>
      <trkpt lat="50.15093" lon="4.0945">
        <ele>228</ele>
        <time>2017-04-09T10:14:07Z</time>
      </trkpt>
      <trkpt lat="50.15096" lon="4.09428">
        <ele>223</ele>
        <time>2017-04-09T10:14:13Z</time>
      </trkpt>
      <trkpt lat="50.1509" lon="4.09386">
        <ele>223</ele>
        <time>2017-04-09T10:14:22Z</time>
      </trkpt>
      <trkpt lat="50.15089" lon="4.0938">
        <ele>222</ele>
        <time>2017-04-09T10:14:22Z</time>
      </trkpt>
      <trkpt lat="50.15087" lon="4.09337">
        <ele>219</ele>
        <time>2017-04-09T10:14:30Z</time>
      </trkpt>
      <trkpt lat="50.15086" lon="4.09328">
        <ele>218</ele>
        <time>2017-04-09T10:14:33Z</time>
      </trkpt>
      <trkpt lat="50.15084" lon="4.09304">
        <ele>219</ele>
        <time>2017-04-09T10:14:38Z</time>
      </trkpt>
      <trkpt lat="50.15082" lon="4.09256">
        <ele>220</ele>
        <time>2017-04-09T10:14:45Z</time>
      </trkpt>
      <trkpt lat="50.15079" lon="4.09221">
        <ele>228</ele>
        <time>2017-04-09T10:14:50Z</time>
      </trkpt>
      <trkpt lat="50.15077" lon="4.09194">
        <ele>226</ele>
        <time>2017-04-09T10:14:54Z</time>
      </trkpt>
      <trkpt lat="50.15072" lon="4.09179">
        <ele>226</ele>
        <time>2017-04-09T10:14:57Z</time>
      </trkpt>
      <trkpt lat="50.15053" lon="4.09172">
        <ele>226</ele>
        <time>2017-04-09T10:15:02Z</time>
      </trkpt>
      <trkpt lat="50.15036" lon="4.09166">
        <ele>226</ele>
        <time>2017-04-09T10:15:07Z</time>
      </trkpt>
      <trkpt lat="50.15019" lon="4.0916">
        <ele>225</ele>
        <time>2017-04-09T10:15:12Z</time>
      </trkpt>
      <trkpt lat="50.15001" lon="4.09155">
        <ele>226</ele>
        <time>2017-04-09T10:15:17Z</time>
      </trkpt>
      <trkpt lat="50.14982" lon="4.09151">
        <ele>227</ele>
        <time>2017-04-09T10:15:22Z</time>
      </trkpt>
      <trkpt lat="50.14962" lon="4.09147">
        <ele>226</ele>
        <time>2017-04-09T10:15:27Z</time>
      </trkpt>
      <trkpt lat="50.14942" lon="4.09143">
        <ele>225</ele>
        <time>2017-04-09T10:15:32Z</time>
      </trkpt>
      <trkpt lat="50.14921" lon="4.09139">
        <ele>225</ele>
        <time>2017-04-09T10:15:37Z</time>
      </trkpt>
      <trkpt lat="50.14896" lon="4.09132">
        <ele>226</ele>
        <time>2017-04-09T10:15:42Z</time>
      </trkpt>
      <trkpt lat="50.14875" lon="4.09126">
        <ele>226</ele>
        <time>2017-04-09T10:15:47Z</time>
      </trkpt>
      <trkpt lat="50.14855" lon="4.09121">
        <ele>228</ele>
        <time>2017-04-09T10:15:52Z</time>
      </trkpt>
      <trkpt lat="50.14841" lon="4.09116">
        <ele>229</ele>
        <time>2017-04-09T10:15:57Z</time>
      </trkpt>
      <trkpt lat="50.14828" lon="4.09104">
        <ele>230</ele>
        <time>2017-04-09T10:16:03Z</time>
      </trkpt>
      <trkpt lat="50.14818" lon="4.09095">
        <ele>229</ele>
        <time>2017-04-09T10:16:07Z</time>
      </trkpt>
      <trkpt lat="50.1481" lon="4.09083">
        <ele>229</ele>
        <time>2017-04-09T10:16:13Z</time>
      </trkpt>
      <trkpt lat="50.148" lon="4.09074">
        <ele>229</ele>
        <time>2017-04-09T10:16:18Z</time>
      </trkpt>
      <trkpt lat="50.14778" lon="4.0907">
        <ele>229</ele>
        <time>2017-04-09T10:16:24Z</time>
      </trkpt>
      <trkpt lat="50.1477" lon="4.09064">
        <ele>229</ele>
        <time>2017-04-09T10:16:27Z</time>
      </trkpt>
      <trkpt lat="50.14752" lon="4.09047">
        <ele>230</ele>
        <time>2017-04-09T10:16:34Z</time>
      </trkpt>
      <trkpt lat="50.14744" lon="4.09041">
        <ele>230</ele>
        <time>2017-04-09T10:16:37Z</time>
      </trkpt>
      <trkpt lat="50.14733" lon="4.09036">
        <ele>230</ele>
        <time>2017-04-09T10:16:42Z</time>
      </trkpt>
      <trkpt lat="50.14704" lon="4.09025">
        <ele>230</ele>
        <time>2017-04-09T10:16:51Z</time>
      </trkpt>
      <trkpt lat="50.147" lon="4.09025">
        <ele>230</ele>
        <time>2017-04-09T10:16:52Z</time>
      </trkpt>
      <trkpt lat="50.14681" lon="4.09023">
        <ele>231</ele>
        <time>2017-04-09T10:16:58Z</time>
      </trkpt>
      <trkpt lat="50.14662" lon="4.09027">
        <ele>231</ele>
        <time>2017-04-09T10:17:04Z</time>
      </trkpt>
      <trkpt lat="50.14643" lon="4.09031">
        <ele>231</ele>
        <time>2017-04-09T10:17:07Z</time>
      </trkpt>
      <trkpt lat="50.14614" lon="4.09037">
        <ele>230</ele>
        <time>2017-04-09T10:17:12Z</time>
      </trkpt>
      <trkpt lat="50.14587" lon="4.0904">
        <ele>230</ele>
        <time>2017-04-09T10:17:17Z</time>
      </trkpt>
      <trkpt lat="50.14562" lon="4.09044">
        <ele>229</ele>
        <time>2017-04-09T10:17:22Z</time>
      </trkpt>
      <trkpt lat="50.14542" lon="4.09049">
        <ele>229</ele>
        <time>2017-04-09T10:17:28Z</time>
      </trkpt>
      <trkpt lat="50.14521" lon="4.09053">
        <ele>230</ele>
        <time>2017-04-09T10:17:32Z</time>
      </trkpt>
      <trkpt lat="50.14498" lon="4.09056">
        <ele>230</ele>
        <time>2017-04-09T10:17:39Z</time>
      </trkpt>
      <trkpt lat="50.14472" lon="4.09059">
        <ele>228</ele>
        <time>2017-04-09T10:17:43Z</time>
      </trkpt>
      <trkpt lat="50.14457" lon="4.0906">
        <ele>226</ele>
        <time>2017-04-09T10:17:47Z</time>
      </trkpt>
      <trkpt lat="50.14429" lon="4.09067">
        <ele>226</ele>
        <time>2017-04-09T10:17:53Z</time>
      </trkpt>
      <trkpt lat="50.14392" lon="4.09071">
        <ele>223</ele>
        <time>2017-04-09T10:18:01Z</time>
      </trkpt>
      <trkpt lat="50.14364" lon="4.09078">
        <ele>221</ele>
        <time>2017-04-09T10:18:05Z</time>
      </trkpt>
      <trkpt lat="50.14331" lon="4.09084">
        <ele>221</ele>
        <time>2017-04-09T10:18:12Z</time>
      </trkpt>
      <trkpt lat="50.14325" lon="4.09086">
        <ele>220</ele>
        <time>2017-04-09T10:18:14Z</time>
      </trkpt>
      <trkpt lat="50.14322" lon="4.09086">
        <ele>226</ele>
        <time>2017-04-09T10:18:18Z</time>
      </trkpt>
      <trkpt lat="50.14322" lon="4.09087">
        <ele>225</ele>
        <time>2017-04-09T10:18:23Z</time>
      </trkpt>
      <trkpt lat="50.14323" lon="4.09087">
        <ele>227</ele>
        <time>2017-04-09T10:18:29Z</time>
      </trkpt>
      <trkpt lat="50.14323" lon="4.09086">
        <ele>225</ele>
        <time>2017-04-09T10:18:34Z</time>
      </trkpt>
      <trkpt lat="50.14323" lon="4.09085">
        <ele>226</ele>
        <time>2017-04-09T10:18:38Z</time>
      </trkpt>
      <trkpt lat="50.14323" lon="4.09085">
        <ele>226</ele>
        <time>2017-04-09T10:18:44Z</time>
      </trkpt>
      <trkpt lat="50.14323" lon="4.09085">
        <ele>227</ele>
        <time>2017-04-09T10:18:49Z</time>
      </trkpt>
      <trkpt lat="50.14323" lon="4.09085">
        <ele>226</ele>
        <time>2017-04-09T10:18:54Z</time>
      </trkpt>
      <trkpt lat="50.1432" lon="4.09087">
        <ele>226</ele>
        <time>2017-04-09T10:18:58Z</time>
      </trkpt>
      <trkpt lat="50.14316" lon="4.09086">
        <ele>228</ele>
        <time>2017-04-09T10:19:05Z</time>
      </trkpt>
      <trkpt lat="50.14313" lon="4.09087">
        <ele>229</ele>
        <time>2017-04-09T10:19:09Z</time>
      </trkpt>
      <trkpt lat="50.14307" lon="4.09087">
        <ele>227</ele>
        <time>2017-04-09T10:19:15Z</time>
      </trkpt>
      <trkpt lat="50.14306" lon="4.09087">
        <ele>226</ele>
        <time>2017-04-09T10:19:19Z</time>
      </trkpt>
      <trkpt lat="50.143" lon="4.09091">
        <ele>220</ele>
        <time>2017-04-09T10:19:24Z</time>
      </trkpt>
      <trkpt lat="50.14298" lon="4.09091">
        <ele>215</ele>
        <time>2017-04-09T10:19:29Z</time>
      </trkpt>
      <trkpt lat="50.14298" lon="4.0909">
        <ele>214</ele>
        <time>2017-04-09T10:19:34Z</time>
      </trkpt>
      <trkpt lat="50.14296" lon="4.09089">
        <ele>212</ele>
        <time>2017-04-09T10:19:39Z</time>
      </trkpt>
      <trkpt lat="50.14289" lon="4.09089">
        <ele>214</ele>
        <time>2017-04-09T10:19:48Z</time>
      </trkpt>
      <trkpt lat="50.14288" lon="4.09089">
        <ele>214</ele>
        <time>2017-04-09T10:19:49Z</time>
      </trkpt>
      <trkpt lat="50.14286" lon="4.09089">
        <ele>215</ele>
        <time>2017-04-09T10:19:54Z</time>
      </trkpt>
      <trkpt lat="50.14283" lon="4.0909">
        <ele>212</ele>
        <time>2017-04-09T10:19:59Z</time>
      </trkpt>
      <trkpt lat="50.14274" lon="4.09091">
        <ele>212</ele>
        <time>2017-04-09T10:20:08Z</time>
      </trkpt>
      <trkpt lat="50.14268" lon="4.09093">
        <ele>214</ele>
        <time>2017-04-09T10:20:12Z</time>
      </trkpt>
      <trkpt lat="50.14266" lon="4.09094">
        <ele>215</ele>
        <time>2017-04-09T10:20:14Z</time>
      </trkpt>
      <trkpt lat="50.14262" lon="4.09097">
        <ele>217</ele>
        <time>2017-04-09T10:20:20Z</time>
      </trkpt>
      <trkpt lat="50.14262" lon="4.09096">
        <ele>218</ele>
        <time>2017-04-09T10:20:24Z</time>
      </trkpt>
      <trkpt lat="50.14258" lon="4.09095">
        <ele>219</ele>
        <time>2017-04-09T10:20:30Z</time>
      </trkpt>
      <trkpt lat="50.1425" lon="4.09096">
        <ele>217</ele>
        <time>2017-04-09T10:20:34Z</time>
      </trkpt>
      <trkpt lat="50.14238" lon="4.09098">
        <ele>218</ele>
        <time>2017-04-09T10:20:39Z</time>
      </trkpt>
      <trkpt lat="50.14226" lon="4.09103">
        <ele>219</ele>
        <time>2017-04-09T10:20:44Z</time>
      </trkpt>
      <trkpt lat="50.14209" lon="4.0911">
        <ele>218</ele>
        <time>2017-04-09T10:20:51Z</time>
      </trkpt>
      <trkpt lat="50.14202" lon="4.09113">
        <ele>219</ele>
        <time>2017-04-09T10:20:54Z</time>
      </trkpt>
      <trkpt lat="50.14177" lon="4.09122">
        <ele>228</ele>
        <time>2017-04-09T10:21:03Z</time>
      </trkpt>
      <trkpt lat="50.14172" lon="4.09124">
        <ele>228</ele>
        <time>2017-04-09T10:21:05Z</time>
      </trkpt>
      <trkpt lat="50.14163" lon="4.09128">
        <ele>227</ele>
        <time>2017-04-09T10:21:09Z</time>
      </trkpt>
      <trkpt lat="50.14149" lon="4.09127">
        <ele>228</ele>
        <time>2017-04-09T10:21:14Z</time>
      </trkpt>
      <trkpt lat="50.14135" lon="4.09139">
        <ele>228</ele>
        <time>2017-04-09T10:21:20Z</time>
      </trkpt>
      <trkpt lat="50.14121" lon="4.09143">
        <ele>228</ele>
        <time>2017-04-09T10:21:24Z</time>
      </trkpt>
      <trkpt lat="50.14091" lon="4.09151">
        <ele>226</ele>
        <time>2017-04-09T10:21:33Z</time>
      </trkpt>
      <trkpt lat="50.14083" lon="4.09154">
        <ele>226</ele>
        <time>2017-04-09T10:21:35Z</time>
      </trkpt>
      <trkpt lat="50.14071" lon="4.09157">
        <ele>226</ele>
        <time>2017-04-09T10:21:39Z</time>
      </trkpt>
      <trkpt lat="50.14058" lon="4.09158">
        <ele>226</ele>
        <time>2017-04-09T10:21:44Z</time>
      </trkpt>
      <trkpt lat="50.14059" lon="4.09155">
        <ele>223</ele>
        <time>2017-04-09T10:21:52Z</time>
      </trkpt>
      <trkpt lat="50.14058" lon="4.09156">
        <ele>224</ele>
        <time>2017-04-09T10:21:54Z</time>
      </trkpt>
      <trkpt lat="50.14042" lon="4.09163">
        <ele>224</ele>
        <time>2017-04-09T10:22:00Z</time>
      </trkpt>
      <trkpt lat="50.14031" lon="4.09167">
        <ele>225</ele>
        <time>2017-04-09T10:22:04Z</time>
      </trkpt>
      <trkpt lat="50.14019" lon="4.09171">
        <ele>227</ele>
        <time>2017-04-09T10:22:10Z</time>
      </trkpt>
      <trkpt lat="50.14017" lon="4.09173">
        <ele>227</ele>
        <time>2017-04-09T10:22:15Z</time>
      </trkpt>
      <trkpt lat="50.14013" lon="4.09181">
        <ele>226</ele>
        <time>2017-04-09T10:22:22Z</time>
      </trkpt>
      <trkpt lat="50.14012" lon="4.09179">
        <ele>225</ele>
        <time>2017-04-09T10:22:26Z</time>
      </trkpt>
      <trkpt lat="50.1401" lon="4.0918">
        <ele>225</ele>
        <time>2017-04-09T10:22:29Z</time>
      </trkpt>
      <trkpt lat="50.14006" lon="4.0918">
        <ele>225</ele>
        <time>2017-04-09T10:22:34Z</time>
      </trkpt>
      <trkpt lat="50.14004" lon="4.09181">
        <ele>225</ele>
        <time>2017-04-09T10:22:41Z</time>
      </trkpt>
      <trkpt lat="50.14003" lon="4.09181">
        <ele>225</ele>
        <time>2017-04-09T10:22:45Z</time>
      </trkpt>
      <trkpt lat="50.14001" lon="4.09183">
        <ele>221</ele>
        <time>2017-04-09T10:22:49Z</time>
      </trkpt>
      <trkpt lat="50.13997" lon="4.09188">
        <ele>221</ele>
        <time>2017-04-09T10:22:55Z</time>
      </trkpt>
      <trkpt lat="50.13994" lon="4.0919">
        <ele>222</ele>
        <time>2017-04-09T10:22:59Z</time>
      </trkpt>
      <trkpt lat="50.13994" lon="4.0919">
        <ele>222</ele>
        <time>2017-04-09T10:23:07Z</time>
      </trkpt>
      <trkpt lat="50.13992" lon="4.09191">
        <ele>221</ele>
        <time>2017-04-09T10:23:12Z</time>
      </trkpt>
      <trkpt lat="50.13992" lon="4.0919">
        <ele>220</ele>
        <time>2017-04-09T10:23:14Z</time>
      </trkpt>
      <trkpt lat="50.13993" lon="4.09191">
        <ele>221</ele>
        <time>2017-04-09T10:23:19Z</time>
      </trkpt>
      <trkpt lat="50.13992" lon="4.09193">
        <ele>221</ele>
        <time>2017-04-09T10:23:24Z</time>
      </trkpt>
      <trkpt lat="50.1399" lon="4.09196">
        <ele>222</ele>
        <time>2017-04-09T10:23:29Z</time>
      </trkpt>
      <trkpt lat="50.13981" lon="4.09201">
        <ele>222</ele>
        <time>2017-04-09T10:23:38Z</time>
      </trkpt>
      <trkpt lat="50.13976" lon="4.09204">
        <ele>222</ele>
        <time>2017-04-09T10:23:43Z</time>
      </trkpt>
      <trkpt lat="50.13975" lon="4.09204">
        <ele>221</ele>
        <time>2017-04-09T10:23:44Z</time>
      </trkpt>
      <trkpt lat="50.13974" lon="4.09205">
        <ele>223</ele>
        <time>2017-04-09T10:23:49Z</time>
      </trkpt>
      <trkpt lat="50.13972" lon="4.0921">
        <ele>221</ele>
        <time>2017-04-09T10:23:58Z</time>
      </trkpt>
      <trkpt lat="50.13971" lon="4.09209">
        <ele>221</ele>
        <time>2017-04-09T10:23:59Z</time>
      </trkpt>
      <trkpt lat="50.13971" lon="4.09211">
        <ele>224</ele>
        <time>2017-04-09T10:24:04Z</time>
      </trkpt>
      <trkpt lat="50.13973" lon="4.09218">
        <ele>224</ele>
        <time>2017-04-09T10:24:10Z</time>
      </trkpt>
      <trkpt lat="50.13974" lon="4.09225">
        <ele>226</ele>
        <time>2017-04-09T10:24:15Z</time>
      </trkpt>
      <trkpt lat="50.13975" lon="4.09229">
        <ele>225</ele>
        <time>2017-04-09T10:24:20Z</time>
      </trkpt>
      <trkpt lat="50.13976" lon="4.09231">
        <ele>225</ele>
        <time>2017-04-09T10:24:27Z</time>
      </trkpt>
      <trkpt lat="50.13976" lon="4.09231">
        <ele>225</ele>
        <time>2017-04-09T10:24:31Z</time>
      </trkpt>
      <trkpt lat="50.13976" lon="4.09231">
        <ele>224</ele>
        <time>2017-04-09T10:24:34Z</time>
      </trkpt>
      <trkpt lat="50.13976" lon="4.09233">
        <ele>223</ele>
        <time>2017-04-09T10:24:40Z</time>
      </trkpt>
      <trkpt lat="50.13976" lon="4.09235">
        <ele>222</ele>
        <time>2017-04-09T10:24:46Z</time>
      </trkpt>
      <trkpt lat="50.13976" lon="4.09238">
        <ele>223</ele>
        <time>2017-04-09T10:24:50Z</time>
      </trkpt>
      <trkpt lat="50.13976" lon="4.0924">
        <ele>222</ele>
        <time>2017-04-09T10:24:54Z</time>
      </trkpt>
      <trkpt lat="50.13976" lon="4.09241">
        <ele>222</ele>
        <time>2017-04-09T10:24:59Z</time>
      </trkpt>
      <trkpt lat="50.13977" lon="4.09247">
        <ele>223</ele>
        <time>2017-04-09T10:25:04Z</time>
      </trkpt>
      <trkpt lat="50.1398" lon="4.09261">
        <ele>223</ele>
        <time>2017-04-09T10:25:09Z</time>
      </trkpt>
      <trkpt lat="50.13981" lon="4.09277">
        <ele>223</ele>
        <time>2017-04-09T10:25:14Z</time>
      </trkpt>
      <trkpt lat="50.13982" lon="4.09295">
        <ele>225</ele>
        <time>2017-04-09T10:25:19Z</time>
      </trkpt>
      <trkpt lat="50.13982" lon="4.09311">
        <ele>226</ele>
        <time>2017-04-09T10:25:24Z</time>
      </trkpt>
      <trkpt lat="50.13981" lon="4.09327">
        <ele>226</ele>
        <time>2017-04-09T10:25:29Z</time>
      </trkpt>
      <trkpt lat="50.13982" lon="4.09352">
        <ele>226</ele>
        <time>2017-04-09T10:25:38Z</time>
      </trkpt>
      <trkpt lat="50.13982" lon="4.09355">
        <ele>226</ele>
        <time>2017-04-09T10:25:39Z</time>
      </trkpt>
      <trkpt lat="50.13982" lon="4.0938">
        <ele>227</ele>
        <time>2017-04-09T10:25:47Z</time>
      </trkpt>
      <trkpt lat="50.13981" lon="4.09401">
        <ele>228</ele>
        <time>2017-04-09T10:25:53Z</time>
      </trkpt>
      <trkpt lat="50.13982" lon="4.09405">
        <ele>228</ele>
        <time>2017-04-09T10:25:54Z</time>
      </trkpt>
      <trkpt lat="50.13981" lon="4.09422">
        <ele>228</ele>
        <time>2017-04-09T10:25:59Z</time>
      </trkpt>
      <trkpt lat="50.13986" lon="4.09447">
        <ele>229</ele>
        <time>2017-04-09T10:26:07Z</time>
      </trkpt>
      <trkpt lat="50.13986" lon="4.09457">
        <ele>228</ele>
        <time>2017-04-09T10:26:10Z</time>
      </trkpt>
      <trkpt lat="50.13987" lon="4.09476">
        <ele>228</ele>
        <time>2017-04-09T10:26:16Z</time>
      </trkpt>
      <trkpt lat="50.13988" lon="4.09486">
        <ele>228</ele>
        <time>2017-04-09T10:26:19Z</time>
      </trkpt>
      <trkpt lat="50.13991" lon="4.09507">
        <ele>227</ele>
        <time>2017-04-09T10:26:25Z</time>
      </trkpt>
      <trkpt lat="50.13994" lon="4.09517">
        <ele>228</ele>
        <time>2017-04-09T10:26:29Z</time>
      </trkpt>
      <trkpt lat="50.13996" lon="4.09533">
        <ele>228</ele>
        <time>2017-04-09T10:26:34Z</time>
      </trkpt>
      <trkpt lat="50.14001" lon="4.0955">
        <ele>227</ele>
        <time>2017-04-09T10:26:39Z</time>
      </trkpt>
      <trkpt lat="50.14001" lon="4.09564">
        <ele>222</ele>
        <time>2017-04-09T10:26:44Z</time>
      </trkpt>
      <trkpt lat="50.14001" lon="4.09581">
        <ele>228</ele>
        <time>2017-04-09T10:26:50Z</time>
      </trkpt>
      <trkpt lat="50.14" lon="4.09593">
        <ele>223</ele>
        <time>2017-04-09T10:26:54Z</time>
      </trkpt>
      <trkpt lat="50.13993" lon="4.0961">
        <ele>226</ele>
        <time>2017-04-09T10:27:00Z</time>
      </trkpt>
      <trkpt lat="50.13986" lon="4.09622">
        <ele>227</ele>
        <time>2017-04-09T10:27:05Z</time>
      </trkpt>
      <trkpt lat="50.13975" lon="4.09639">
        <ele>226</ele>
        <time>2017-04-09T10:27:13Z</time>
      </trkpt>
      <trkpt lat="50.13973" lon="4.0964">
        <ele>224</ele>
        <time>2017-04-09T10:27:14Z</time>
      </trkpt>
      <trkpt lat="50.13958" lon="4.09647">
        <ele>220</ele>
        <time>2017-04-09T10:27:19Z</time>
      </trkpt>
      <trkpt lat="50.13942" lon="4.09653">
        <ele>222</ele>
        <time>2017-04-09T10:27:24Z</time>
      </trkpt>
      <trkpt lat="50.13925" lon="4.09685">
        <ele>225</ele>
        <time>2017-04-09T10:27:33Z</time>
      </trkpt>
      <trkpt lat="50.13915" lon="4.0969">
        <ele>220</ele>
        <time>2017-04-09T10:27:36Z</time>
      </trkpt>
      <trkpt lat="50.13905" lon="4.0969">
        <ele>219</ele>
        <time>2017-04-09T10:27:39Z</time>
      </trkpt>
      <trkpt lat="50.13888" lon="4.09697">
        <ele>221</ele>
        <time>2017-04-09T10:27:44Z</time>
      </trkpt>
      <trkpt lat="50.13869" lon="4.09688">
        <ele>217</ele>
        <time>2017-04-09T10:27:50Z</time>
      </trkpt>
      <trkpt lat="50.13839" lon="4.09685">
        <ele>214</ele>
        <time>2017-04-09T10:27:56Z</time>
      </trkpt>
      <trkpt lat="50.13807" lon="4.09695">
        <ele>217</ele>
        <time>2017-04-09T10:28:03Z</time>
      </trkpt>
      <trkpt lat="50.13799" lon="4.09694">
        <ele>216</ele>
        <time>2017-04-09T10:28:05Z</time>
      </trkpt>
      <trkpt lat="50.13784" lon="4.09688">
        <ele>215</ele>
        <time>2017-04-09T10:28:10Z</time>
      </trkpt>
      <trkpt lat="50.13769" lon="4.09687">
        <ele>216</ele>
        <time>2017-04-09T10:28:14Z</time>
      </trkpt>
      <trkpt lat="50.13739" lon="4.09688">
        <ele>214</ele>
        <time>2017-04-09T10:28:22Z</time>
      </trkpt>
      <trkpt lat="50.13725" lon="4.09686">
        <ele>216</ele>
        <time>2017-04-09T10:28:25Z</time>
      </trkpt>
      <trkpt lat="50.13708" lon="4.09683">
        <ele>215</ele>
        <time>2017-04-09T10:28:29Z</time>
      </trkpt>
      <trkpt lat="50.13685" lon="4.09683">
        <ele>217</ele>
        <time>2017-04-09T10:28:34Z</time>
      </trkpt>
      <trkpt lat="50.13666" lon="4.09684">
        <ele>218</ele>
        <time>2017-04-09T10:28:39Z</time>
      </trkpt>
      <trkpt lat="50.13648" lon="4.09682">
        <ele>218</ele>
        <time>2017-04-09T10:28:44Z</time>
      </trkpt>
      <trkpt lat="50.13631" lon="4.09674">
        <ele>218</ele>
        <time>2017-04-09T10:28:49Z</time>
      </trkpt>
      <trkpt lat="50.13616" lon="4.09669">
        <ele>219</ele>
        <time>2017-04-09T10:28:54Z</time>
      </trkpt>
      <trkpt lat="50.136" lon="4.09672">
        <ele>220</ele>
        <time>2017-04-09T10:29:00Z</time>
      </trkpt>
      <trkpt lat="50.13588" lon="4.09672">
        <ele>221</ele>
        <time>2017-04-09T10:29:04Z</time>
      </trkpt>
      <trkpt lat="50.1357" lon="4.09668">
        <ele>221</ele>
        <time>2017-04-09T10:29:09Z</time>
      </trkpt>
      <trkpt lat="50.13542" lon="4.09669">
        <ele>217</ele>
        <time>2017-04-09T10:29:17Z</time>
      </trkpt>
      <trkpt lat="50.13528" lon="4.09669">
        <ele>219</ele>
        <time>2017-04-09T10:29:21Z</time>
      </trkpt>
      <trkpt lat="50.1351" lon="4.09665">
        <ele>221</ele>
        <time>2017-04-09T10:29:27Z</time>
      </trkpt>
      <trkpt lat="50.13494" lon="4.09662">
        <ele>217</ele>
        <time>2017-04-09T10:29:32Z</time>
      </trkpt>
      <trkpt lat="50.13486" lon="4.09658">
        <ele>213</ele>
        <time>2017-04-09T10:29:35Z</time>
      </trkpt>
      <trkpt lat="50.13474" lon="4.09652">
        <ele>213</ele>
        <time>2017-04-09T10:29:39Z</time>
      </trkpt>
      <trkpt lat="50.13455" lon="4.09648">
        <ele>214</ele>
        <time>2017-04-09T10:29:45Z</time>
      </trkpt>
      <trkpt lat="50.13438" lon="4.09645">
        <ele>216</ele>
        <time>2017-04-09T10:29:49Z</time>
      </trkpt>
      <trkpt lat="50.1342" lon="4.09637">
        <ele>209</ele>
        <time>2017-04-09T10:29:54Z</time>
      </trkpt>
      <trkpt lat="50.13402" lon="4.09622">
        <ele>214</ele>
        <time>2017-04-09T10:29:59Z</time>
      </trkpt>
      <trkpt lat="50.13384" lon="4.09604">
        <ele>213</ele>
        <time>2017-04-09T10:30:05Z</time>
      </trkpt>
      <trkpt lat="50.13372" lon="4.09597">
        <ele>211</ele>
        <time>2017-04-09T10:30:09Z</time>
      </trkpt>
      <trkpt lat="50.13346" lon="4.09615">
        <ele>208</ele>
        <time>2017-04-09T10:30:14Z</time>
      </trkpt>
      <trkpt lat="50.13307" lon="4.09635">
        <ele>203</ele>
        <time>2017-04-09T10:30:19Z</time>
      </trkpt>
      <trkpt lat="50.13292" lon="4.09685">
        <ele>199</ele>
        <time>2017-04-09T10:30:24Z</time>
      </trkpt>
      <trkpt lat="50.13293" lon="4.09721">
        <ele>200</ele>
        <time>2017-04-09T10:30:29Z</time>
      </trkpt>
      <trkpt lat="50.1329" lon="4.09722">
        <ele>221</ele>
        <time>2017-04-09T10:30:34Z</time>
      </trkpt>
      <trkpt lat="50.13286" lon="4.09733">
        <ele>224</ele>
        <time>2017-04-09T10:30:40Z</time>
      </trkpt>
      <trkpt lat="50.13286" lon="4.09734">
        <ele>224</ele>
        <time>2017-04-09T10:30:44Z</time>
      </trkpt>
      <trkpt lat="50.13287" lon="4.09737">
        <ele>224</ele>
        <time>2017-04-09T10:30:51Z</time>
      </trkpt>
      <trkpt lat="50.13287" lon="4.09737">
        <ele>214</ele>
        <time>2017-04-09T10:30:54Z</time>
      </trkpt>
      <trkpt lat="50.13287" lon="4.09736">
        <ele>220</ele>
        <time>2017-04-09T10:31:01Z</time>
      </trkpt>
      <trkpt lat="50.13287" lon="4.09736">
        <ele>207</ele>
        <time>2017-04-09T10:31:04Z</time>
      </trkpt>
      <trkpt lat="50.13284" lon="4.09747">
        <ele>216</ele>
        <time>2017-04-09T10:31:11Z</time>
      </trkpt>
      <trkpt lat="50.13283" lon="4.09756">
        <ele>205</ele>
        <time>2017-04-09T10:31:14Z</time>
      </trkpt>
      <trkpt lat="50.13276" lon="4.09773">
        <ele>193</ele>
        <time>2017-04-09T10:31:21Z</time>
      </trkpt>
      <trkpt lat="50.13271" lon="4.09786">
        <ele>191</ele>
        <time>2017-04-09T10:31:25Z</time>
      </trkpt>
      <trkpt lat="50.13265" lon="4.09804">
        <ele>192</ele>
        <time>2017-04-09T10:31:29Z</time>
      </trkpt>
      <trkpt lat="50.13256" lon="4.09827">
        <ele>193</ele>
        <time>2017-04-09T10:31:36Z</time>
      </trkpt>
      <trkpt lat="50.13254" lon="4.09834">
        <ele>192</ele>
        <time>2017-04-09T10:31:39Z</time>
      </trkpt>
      <trkpt lat="50.13252" lon="4.09834">
        <ele>192</ele>
        <time>2017-04-09T10:31:44Z</time>
      </trkpt>
      <trkpt lat="50.13248" lon="4.09839">
        <ele>194</ele>
        <time>2017-04-09T10:31:50Z</time>
      </trkpt>
      <trkpt lat="50.13244" lon="4.09841">
        <ele>194</ele>
        <time>2017-04-09T10:31:54Z</time>
      </trkpt>
      <trkpt lat="50.13239" lon="4.09845">
        <ele>194</ele>
        <time>2017-04-09T10:31:59Z</time>
      </trkpt>
      <trkpt lat="50.13235" lon="4.09847">
        <ele>198</ele>
        <time>2017-04-09T10:32:07Z</time>
      </trkpt>
      <trkpt lat="50.13234" lon="4.09849">
        <ele>197</ele>
        <time>2017-04-09T10:32:09Z</time>
      </trkpt>
      <trkpt lat="50.13228" lon="4.09853">
        <ele>200</ele>
        <time>2017-04-09T10:32:15Z</time>
      </trkpt>
      <trkpt lat="50.13223" lon="4.09856">
        <ele>198</ele>
        <time>2017-04-09T10:32:19Z</time>
      </trkpt>
      <trkpt lat="50.13217" lon="4.09859">
        <ele>203</ele>
        <time>2017-04-09T10:32:24Z</time>
      </trkpt>
      <trkpt lat="50.13211" lon="4.09862">
        <ele>199</ele>
        <time>2017-04-09T10:32:29Z</time>
      </trkpt>
      <trkpt lat="50.13205" lon="4.09865">
        <ele>203</ele>
        <time>2017-04-09T10:32:34Z</time>
      </trkpt>
      <trkpt lat="50.13199" lon="4.09869">
        <ele>199</ele>
        <time>2017-04-09T10:32:39Z</time>
      </trkpt>
      <trkpt lat="50.13193" lon="4.09873">
        <ele>203</ele>
        <time>2017-04-09T10:32:44Z</time>
      </trkpt>
      <trkpt lat="50.13187" lon="4.09876">
        <ele>199</ele>
        <time>2017-04-09T10:32:49Z</time>
      </trkpt>
      <trkpt lat="50.13181" lon="4.09879">
        <ele>204</ele>
        <time>2017-04-09T10:32:54Z</time>
      </trkpt>
      <trkpt lat="50.13175" lon="4.09883">
        <ele>200</ele>
        <time>2017-04-09T10:32:59Z</time>
      </trkpt>
      <trkpt lat="50.13169" lon="4.09887">
        <ele>204</ele>
        <time>2017-04-09T10:33:04Z</time>
      </trkpt>
      <trkpt lat="50.13163" lon="4.09891">
        <ele>200</ele>
        <time>2017-04-09T10:33:09Z</time>
      </trkpt>
      <trkpt lat="50.13157" lon="4.09894">
        <ele>205</ele>
        <time>2017-04-09T10:33:14Z</time>
      </trkpt>
      <trkpt lat="50.13148" lon="4.09899">
        <ele>203</ele>
        <time>2017-04-09T10:33:21Z</time>
      </trkpt>
      <trkpt lat="50.13145" lon="4.09901">
        <ele>201</ele>
        <time>2017-04-09T10:33:24Z</time>
      </trkpt>
      <trkpt lat="50.13139" lon="4.09904">
        <ele>209</ele>
        <time>2017-04-09T10:33:29Z</time>
      </trkpt>
      <trkpt lat="50.13134" lon="4.09907">
        <ele>204</ele>
        <time>2017-04-09T10:33:34Z</time>
      </trkpt>
      <trkpt lat="50.13129" lon="4.0991">
        <ele>202</ele>
        <time>2017-04-09T10:33:39Z</time>
      </trkpt>
      <trkpt lat="50.13127" lon="4.09911">
        <ele>206</ele>
        <time>2017-04-09T10:33:44Z</time>
      </trkpt>
      <trkpt lat="50.13125" lon="4.09911">
        <ele>206</ele>
        <time>2017-04-09T10:33:49Z</time>
      </trkpt>
      <trkpt lat="50.13111" lon="4.09921">
        <ele>206</ele>
        <time>2017-04-09T10:33:58Z</time>
      </trkpt>
      <trkpt lat="50.13108" lon="4.09923">
        <ele>204</ele>
        <time>2017-04-09T10:34:00Z</time>
      </trkpt>
      <trkpt lat="50.13096" lon="4.09932">
        <ele>206</ele>
        <time>2017-04-09T10:34:08Z</time>
      </trkpt>
      <trkpt lat="50.13092" lon="4.09935">
        <ele>205</ele>
        <time>2017-04-09T10:34:11Z</time>
      </trkpt>
      <trkpt lat="50.13086" lon="4.09938">
        <ele>208</ele>
        <time>2017-04-09T10:34:15Z</time>
      </trkpt>
      <trkpt lat="50.13077" lon="4.09943">
        <ele>204</ele>
        <time>2017-04-09T10:34:21Z</time>
      </trkpt>
      <trkpt lat="50.13072" lon="4.09944">
        <ele>208</ele>
        <time>2017-04-09T10:34:24Z</time>
      </trkpt>
      <trkpt lat="50.13064" lon="4.09948">
        <ele>205</ele>
        <time>2017-04-09T10:34:29Z</time>
      </trkpt>
      <trkpt lat="50.13056" lon="4.09953">
        <ele>206</ele>
        <time>2017-04-09T10:34:34Z</time>
      </trkpt>
      <trkpt lat="50.13047" lon="4.09958">
        <ele>207</ele>
        <time>2017-04-09T10:34:39Z</time>
      </trkpt>
      <trkpt lat="50.13038" lon="4.09963">
        <ele>211</ele>
        <time>2017-04-09T10:34:44Z</time>
      </trkpt>
      <trkpt lat="50.13026" lon="4.09973">
        <ele>211</ele>
        <time>2017-04-09T10:34:52Z</time>
      </trkpt>
      <trkpt lat="50.13026" lon="4.09973">
        <ele>215</ele>
        <time>2017-04-09T10:34:54Z</time>
      </trkpt>
      <trkpt lat="50.13021" lon="4.09974">
        <ele>212</ele>
        <time>2017-04-09T10:34:59Z</time>
      </trkpt>
      <trkpt lat="50.13015" lon="4.09978">
        <ele>217</ele>
        <time>2017-04-09T10:35:04Z</time>
      </trkpt>
      <trkpt lat="50.13009" lon="4.09982">
        <ele>214</ele>
        <time>2017-04-09T10:35:09Z</time>
      </trkpt>
      <trkpt lat="50.13003" lon="4.09986">
        <ele>216</ele>
        <time>2017-04-09T10:35:14Z</time>
      </trkpt>
      <trkpt lat="50.12998" lon="4.09989">
        <ele>215</ele>
        <time>2017-04-09T10:35:19Z</time>
      </trkpt>
      <trkpt lat="50.12992" lon="4.09993">
        <ele>218</ele>
        <time>2017-04-09T10:35:24Z</time>
      </trkpt>
      <trkpt lat="50.12987" lon="4.09996">
        <ele>217</ele>
        <time>2017-04-09T10:35:29Z</time>
      </trkpt>
      <trkpt lat="50.12983" lon="4.1">
        <ele>219</ele>
        <time>2017-04-09T10:35:34Z</time>
      </trkpt>
      <trkpt lat="50.12979" lon="4.10003">
        <ele>219</ele>
        <time>2017-04-09T10:35:39Z</time>
      </trkpt>
      <trkpt lat="50.12974" lon="4.10003">
        <ele>220</ele>
        <time>2017-04-09T10:35:44Z</time>
      </trkpt>
      <trkpt lat="50.12974" lon="4.10003">
        <ele>219</ele>
        <time>2017-04-09T10:35:49Z</time>
      </trkpt>
      <trkpt lat="50.12974" lon="4.10003">
        <ele>220</ele>
        <time>2017-04-09T10:35:54Z</time>
      </trkpt>
      <trkpt lat="50.12974" lon="4.10003">
        <ele>218</ele>
        <time>2017-04-09T10:35:59Z</time>
      </trkpt>
      <trkpt lat="50.12974" lon="4.10003">
        <ele>222</ele>
        <time>2017-04-09T10:36:04Z</time>
      </trkpt>
      <trkpt lat="50.12975" lon="4.10003">
        <ele>218</ele>
        <time>2017-04-09T10:36:09Z</time>
      </trkpt>
      <trkpt lat="50.12975" lon="4.10003">
        <ele>220</ele>
        <time>2017-04-09T10:36:14Z</time>
      </trkpt>
      <trkpt lat="50.12975" lon="4.10003">
        <ele>218</ele>
        <time>2017-04-09T10:36:19Z</time>
      </trkpt>
      <trkpt lat="50.12976" lon="4.10003">
        <ele>219</ele>
        <time>2017-04-09T10:36:24Z</time>
      </trkpt>
      <trkpt lat="50.12976" lon="4.10003">
        <ele>218</ele>
        <time>2017-04-09T10:36:29Z</time>
      </trkpt>
      <trkpt lat="50.12975" lon="4.10002">
        <ele>220</ele>
        <time>2017-04-09T10:36:34Z</time>
      </trkpt>
      <trkpt lat="50.12975" lon="4.10001">
        <ele>218</ele>
        <time>2017-04-09T10:36:39Z</time>
      </trkpt>
      <trkpt lat="50.12975" lon="4.10002">
        <ele>221</ele>
        <time>2017-04-09T10:36:44Z</time>
      </trkpt>
      <trkpt lat="50.12975" lon="4.10002">
        <ele>218</ele>
        <time>2017-04-09T10:36:49Z</time>
      </trkpt>
      <trkpt lat="50.12975" lon="4.10002">
        <ele>221</ele>
        <time>2017-04-09T10:36:54Z</time>
      </trkpt>
      <trkpt lat="50.12974" lon="4.10002">
        <ele>219</ele>
        <time>2017-04-09T10:36:59Z</time>
      </trkpt>
      <trkpt lat="50.12974" lon="4.10003">
        <ele>221</ele>
        <time>2017-04-09T10:37:04Z</time>
      </trkpt>
      <trkpt lat="50.1297" lon="4.10002">
        <ele>219</ele>
        <time>2017-04-09T10:37:10Z</time>
      </trkpt>
      <trkpt lat="50.12962" lon="4.10002">
        <ele>220</ele>
        <time>2017-04-09T10:37:15Z</time>
      </trkpt>
      <trkpt lat="50.12955" lon="4.10004">
        <ele>220</ele>
        <time>2017-04-09T10:37:19Z</time>
      </trkpt>
      <trkpt lat="50.12945" lon="4.10006">
        <ele>219</ele>
        <time>2017-04-09T10:37:24Z</time>
      </trkpt>
      <trkpt lat="50.12933" lon="4.10008">
        <ele>221</ele>
        <time>2017-04-09T10:37:29Z</time>
      </trkpt>
      <trkpt lat="50.12921" lon="4.10011">
        <ele>221</ele>
        <time>2017-04-09T10:37:34Z</time>
      </trkpt>
      <trkpt lat="50.1291" lon="4.10014">
        <ele>221</ele>
        <time>2017-04-09T10:37:39Z</time>
      </trkpt>
      <trkpt lat="50.12898" lon="4.10017">
        <ele>221</ele>
        <time>2017-04-09T10:37:44Z</time>
      </trkpt>
      <trkpt lat="50.12886" lon="4.1002">
        <ele>219</ele>
        <time>2017-04-09T10:37:49Z</time>
      </trkpt>
      <trkpt lat="50.12871" lon="4.10023">
        <ele>221</ele>
        <time>2017-04-09T10:37:54Z</time>
      </trkpt>
      <trkpt lat="50.12857" lon="4.10026">
        <ele>221</ele>
        <time>2017-04-09T10:37:59Z</time>
      </trkpt>
      <trkpt lat="50.12845" lon="4.10029">
        <ele>222</ele>
        <time>2017-04-09T10:38:04Z</time>
      </trkpt>
      <trkpt lat="50.1283" lon="4.10032">
        <ele>223</ele>
        <time>2017-04-09T10:38:09Z</time>
      </trkpt>
      <trkpt lat="50.12805" lon="4.10036">
        <ele>222</ele>
        <time>2017-04-09T10:38:14Z</time>
      </trkpt>
      <trkpt lat="50.1278" lon="4.10041">
        <ele>223</ele>
        <time>2017-04-09T10:38:19Z</time>
      </trkpt>
      <trkpt lat="50.12758" lon="4.10044">
        <ele>221</ele>
        <time>2017-04-09T10:38:24Z</time>
      </trkpt>
      <trkpt lat="50.12728" lon="4.10051">
        <ele>219</ele>
        <time>2017-04-09T10:38:29Z</time>
      </trkpt>
      <trkpt lat="50.127" lon="4.10056">
        <ele>218</ele>
        <time>2017-04-09T10:38:34Z</time>
      </trkpt>
      <trkpt lat="50.12673" lon="4.10062">
        <ele>219</ele>
        <time>2017-04-09T10:38:39Z</time>
      </trkpt>
      <trkpt lat="50.12653" lon="4.10063">
        <ele>217</ele>
        <time>2017-04-09T10:38:44Z</time>
      </trkpt>
      <trkpt lat="50.12653" lon="4.10083">
        <ele>218</ele>
        <time>2017-04-09T10:38:49Z</time>
      </trkpt>
      <trkpt lat="50.12655" lon="4.10109">
        <ele>218</ele>
        <time>2017-04-09T10:38:54Z</time>
      </trkpt>
      <trkpt lat="50.12657" lon="4.10139">
        <ele>210</ele>
        <time>2017-04-09T10:39:00Z</time>
      </trkpt>
      <trkpt lat="50.12659" lon="4.10172">
        <ele>214</ele>
        <time>2017-04-09T10:39:06Z</time>
      </trkpt>
      <trkpt lat="50.1266" lon="4.10187">
        <ele>214</ele>
        <time>2017-04-09T10:39:09Z</time>
      </trkpt>
      <trkpt lat="50.12663" lon="4.10213">
        <ele>213</ele>
        <time>2017-04-09T10:39:14Z</time>
      </trkpt>
      <trkpt lat="50.12665" lon="4.10239">
        <ele>212</ele>
        <time>2017-04-09T10:39:19Z</time>
      </trkpt>
      <trkpt lat="50.12667" lon="4.10265">
        <ele>215</ele>
        <time>2017-04-09T10:39:24Z</time>
      </trkpt>
      <trkpt lat="50.12669" lon="4.10296">
        <ele>213</ele>
        <time>2017-04-09T10:39:30Z</time>
      </trkpt>
      <trkpt lat="50.12671" lon="4.10321">
        <ele>215</ele>
        <time>2017-04-09T10:39:35Z</time>
      </trkpt>
      <trkpt lat="50.12673" lon="4.10346">
        <ele>213</ele>
        <time>2017-04-09T10:39:40Z</time>
      </trkpt>
      <trkpt lat="50.12676" lon="4.10382">
        <ele>215</ele>
        <time>2017-04-09T10:39:47Z</time>
      </trkpt>
      <trkpt lat="50.12676" lon="4.10392">
        <ele>214</ele>
        <time>2017-04-09T10:39:49Z</time>
      </trkpt>
      <trkpt lat="50.12681" lon="4.10445">
        <ele>213</ele>
        <time>2017-04-09T10:39:58Z</time>
      </trkpt>
      <trkpt lat="50.12684" lon="4.10477">
        <ele>212</ele>
        <time>2017-04-09T10:40:02Z</time>
      </trkpt>
      <trkpt lat="50.12685" lon="4.10495">
        <ele>216</ele>
        <time>2017-04-09T10:40:04Z</time>
      </trkpt>
      <trkpt lat="50.12688" lon="4.10534">
        <ele>212</ele>
        <time>2017-04-09T10:40:09Z</time>
      </trkpt>
      <trkpt lat="50.12691" lon="4.10571">
        <ele>217</ele>
        <time>2017-04-09T10:40:14Z</time>
      </trkpt>
      <trkpt lat="50.12693" lon="4.106">
        <ele>214</ele>
        <time>2017-04-09T10:40:19Z</time>
      </trkpt>
      <trkpt lat="50.12695" lon="4.10626">
        <ele>216</ele>
        <time>2017-04-09T10:40:24Z</time>
      </trkpt>
      <trkpt lat="50.12697" lon="4.10652">
        <ele>216</ele>
        <time>2017-04-09T10:40:29Z</time>
      </trkpt>
      <trkpt lat="50.12699" lon="4.10677">
        <ele>217</ele>
        <time>2017-04-09T10:40:34Z</time>
      </trkpt>
      <trkpt lat="50.12701" lon="4.10701">
        <ele>215</ele>
        <time>2017-04-09T10:40:39Z</time>
      </trkpt>
      <trkpt lat="50.12703" lon="4.10728">
        <ele>219</ele>
        <time>2017-04-09T10:40:44Z</time>
      </trkpt>
      <trkpt lat="50.12707" lon="4.10757">
        <ele>215</ele>
        <time>2017-04-09T10:40:49Z</time>
      </trkpt>
      <trkpt lat="50.12717" lon="4.10781">
        <ele>219</ele>
        <time>2017-04-09T10:40:54Z</time>
      </trkpt>
      <trkpt lat="50.1273" lon="4.108">
        <ele>217</ele>
        <time>2017-04-09T10:40:59Z</time>
      </trkpt>
      <trkpt lat="50.12738" lon="4.10825">
        <ele>216</ele>
        <time>2017-04-09T10:41:04Z</time>
      </trkpt>
      <trkpt lat="50.12745" lon="4.10874">
        <ele>214</ele>
        <time>2017-04-09T10:41:12Z</time>
      </trkpt>
      <trkpt lat="50.12745" lon="4.10889">
        <ele>215</ele>
        <time>2017-04-09T10:41:14Z</time>
      </trkpt>
      <trkpt lat="50.1275" lon="4.10925">
        <ele>215</ele>
        <time>2017-04-09T10:41:19Z</time>
      </trkpt>
      <trkpt lat="50.12753" lon="4.10963">
        <ele>218</ele>
        <time>2017-04-09T10:41:24Z</time>
      </trkpt>
      <trkpt lat="50.12761" lon="4.11041">
        <ele>212</ele>
        <time>2017-04-09T10:41:33Z</time>
      </trkpt>
      <trkpt lat="50.1276" lon="4.11049">
        <ele>213</ele>
        <time>2017-04-09T10:41:34Z</time>
      </trkpt>
      <trkpt lat="50.12746" lon="4.11077">
        <ele>213</ele>
        <time>2017-04-09T10:41:39Z</time>
      </trkpt>
      <trkpt lat="50.1273" lon="4.11103">
        <ele>210</ele>
        <time>2017-04-09T10:41:44Z</time>
      </trkpt>
      <trkpt lat="50.12714" lon="4.11137">
        <ele>211</ele>
        <time>2017-04-09T10:41:49Z</time>
      </trkpt>
      <trkpt lat="50.12699" lon="4.11188">
        <ele>207</ele>
        <time>2017-04-09T10:41:54Z</time>
      </trkpt>
      <trkpt lat="50.12682" lon="4.11249">
        <ele>207</ele>
        <time>2017-04-09T10:41:59Z</time>
      </trkpt>
      <trkpt lat="50.12654" lon="4.11302">
        <ele>202</ele>
        <time>2017-04-09T10:42:04Z</time>
      </trkpt>
      <trkpt lat="50.12644" lon="4.11362">
        <ele>208</ele>
        <time>2017-04-09T10:42:09Z</time>
      </trkpt>
      <trkpt lat="50.12645" lon="4.11409">
        <ele>204</ele>
        <time>2017-04-09T10:42:14Z</time>
      </trkpt>
      <trkpt lat="50.12629" lon="4.11437">
        <ele>200</ele>
        <time>2017-04-09T10:42:20Z</time>
      </trkpt>
      <trkpt lat="50.12615" lon="4.11445">
        <ele>205</ele>
        <time>2017-04-09T10:42:24Z</time>
      </trkpt>
      <trkpt lat="50.12594" lon="4.11441">
        <ele>201</ele>
        <time>2017-04-09T10:42:30Z</time>
      </trkpt>
      <trkpt lat="50.12581" lon="4.11437">
        <ele>208</ele>
        <time>2017-04-09T10:42:34Z</time>
      </trkpt>
      <trkpt lat="50.12557" lon="4.11427">
        <ele>209</ele>
        <time>2017-04-09T10:42:42Z</time>
      </trkpt>
      <trkpt lat="50.12543" lon="4.11416">
        <ele>211</ele>
        <time>2017-04-09T10:42:47Z</time>
      </trkpt>
      <trkpt lat="50.12538" lon="4.11409">
        <ele>202</ele>
        <time>2017-04-09T10:42:49Z</time>
      </trkpt>
      <trkpt lat="50.12529" lon="4.11384">
        <ele>198</ele>
        <time>2017-04-09T10:42:55Z</time>
      </trkpt>
      <trkpt lat="50.1252" lon="4.11364">
        <ele>200</ele>
        <time>2017-04-09T10:42:59Z</time>
      </trkpt>
      <trkpt lat="50.12507" lon="4.11339">
        <ele>198</ele>
        <time>2017-04-09T10:43:04Z</time>
      </trkpt>
      <trkpt lat="50.12495" lon="4.11316">
        <ele>197</ele>
        <time>2017-04-09T10:43:09Z</time>
      </trkpt>
      <trkpt lat="50.12479" lon="4.11288">
        <ele>196</ele>
        <time>2017-04-09T10:43:14Z</time>
      </trkpt>
      <trkpt lat="50.12465" lon="4.11261">
        <ele>196</ele>
        <time>2017-04-09T10:43:19Z</time>
      </trkpt>
      <trkpt lat="50.12446" lon="4.11239">
        <ele>196</ele>
        <time>2017-04-09T10:43:24Z</time>
      </trkpt>
      <trkpt lat="50.1243" lon="4.11226">
        <ele>197</ele>
        <time>2017-04-09T10:43:29Z</time>
      </trkpt>
      <trkpt lat="50.12409" lon="4.11222">
        <ele>196</ele>
        <time>2017-04-09T10:43:35Z</time>
      </trkpt>
      <trkpt lat="50.12395" lon="4.11229">
        <ele>197</ele>
        <time>2017-04-09T10:43:39Z</time>
      </trkpt>
      <trkpt lat="50.1238" lon="4.11245">
        <ele>198</ele>
        <time>2017-04-09T10:43:44Z</time>
      </trkpt>
      <trkpt lat="50.12369" lon="4.11263">
        <ele>198</ele>
        <time>2017-04-09T10:43:49Z</time>
      </trkpt>
      <trkpt lat="50.12355" lon="4.11275">
        <ele>197</ele>
        <time>2017-04-09T10:43:54Z</time>
      </trkpt>
      <trkpt lat="50.12339" lon="4.11284">
        <ele>204</ele>
        <time>2017-04-09T10:43:59Z</time>
      </trkpt>
      <trkpt lat="50.12309" lon="4.11299">
        <ele>212</ele>
        <time>2017-04-09T10:44:07Z</time>
      </trkpt>
      <trkpt lat="50.12285" lon="4.11306">
        <ele>202</ele>
        <time>2017-04-09T10:44:13Z</time>
      </trkpt>
      <trkpt lat="50.12274" lon="4.11309">
        <ele>203</ele>
        <time>2017-04-09T10:44:16Z</time>
      </trkpt>
      <trkpt lat="50.12262" lon="4.11314">
        <ele>208</ele>
        <time>2017-04-09T10:44:20Z</time>
      </trkpt>
      <trkpt lat="50.12249" lon="4.11321">
        <ele>207</ele>
        <time>2017-04-09T10:44:25Z</time>
      </trkpt>
      <trkpt lat="50.1224" lon="4.11327">
        <ele>204</ele>
        <time>2017-04-09T10:44:29Z</time>
      </trkpt>
      <trkpt lat="50.12227" lon="4.11343">
        <ele>207</ele>
        <time>2017-04-09T10:44:34Z</time>
      </trkpt>
      <trkpt lat="50.12213" lon="4.11429">
        <ele>208</ele>
        <time>2017-04-09T10:44:43Z</time>
      </trkpt>
      <trkpt lat="50.12216" lon="4.11481">
        <ele>198</ele>
        <time>2017-04-09T10:44:47Z</time>
      </trkpt>
      <trkpt lat="50.12219" lon="4.11528">
        <ele>192</ele>
        <time>2017-04-09T10:44:50Z</time>
      </trkpt>
      <trkpt lat="50.12223" lon="4.11627">
        <ele>186</ele>
        <time>2017-04-09T10:44:57Z</time>
      </trkpt>
      <trkpt lat="50.12217" lon="4.11647">
        <ele>185</ele>
        <time>2017-04-09T10:44:59Z</time>
      </trkpt>
      <trkpt lat="50.12185" lon="4.11673">
        <ele>189</ele>
        <time>2017-04-09T10:45:04Z</time>
      </trkpt>
      <trkpt lat="50.12162" lon="4.11688">
        <ele>182</ele>
        <time>2017-04-09T10:45:09Z</time>
      </trkpt>
      <trkpt lat="50.12161" lon="4.11725">
        <ele>186</ele>
        <time>2017-04-09T10:45:15Z</time>
      </trkpt>
      <trkpt lat="50.12168" lon="4.11756">
        <ele>181</ele>
        <time>2017-04-09T10:45:20Z</time>
      </trkpt>
      <trkpt lat="50.12173" lon="4.11781">
        <ele>194</ele>
        <time>2017-04-09T10:45:24Z</time>
      </trkpt>
      <trkpt lat="50.12178" lon="4.11811">
        <ele>196</ele>
        <time>2017-04-09T10:45:29Z</time>
      </trkpt>
      <trkpt lat="50.12184" lon="4.11841">
        <ele>197</ele>
        <time>2017-04-09T10:45:34Z</time>
      </trkpt>
      <trkpt lat="50.12191" lon="4.11872">
        <ele>184</ele>
        <time>2017-04-09T10:45:39Z</time>
      </trkpt>
      <trkpt lat="50.12198" lon="4.11903">
        <ele>189</ele>
        <time>2017-04-09T10:45:44Z</time>
      </trkpt>
      <trkpt lat="50.12205" lon="4.11933">
        <ele>182</ele>
        <time>2017-04-09T10:45:49Z</time>
      </trkpt>
      <trkpt lat="50.12209" lon="4.11961">
        <ele>188</ele>
        <time>2017-04-09T10:45:54Z</time>
      </trkpt>
      <trkpt lat="50.1221" lon="4.1199">
        <ele>182</ele>
        <time>2017-04-09T10:45:59Z</time>
      </trkpt>
      <trkpt lat="50.1221" lon="4.12018">
        <ele>194</ele>
        <time>2017-04-09T10:46:04Z</time>
      </trkpt>
      <trkpt lat="50.12209" lon="4.12044">
        <ele>182</ele>
        <time>2017-04-09T10:46:09Z</time>
      </trkpt>
      <trkpt lat="50.12201" lon="4.12071">
        <ele>188</ele>
        <time>2017-04-09T10:46:14Z</time>
      </trkpt>
      <trkpt lat="50.12191" lon="4.12096">
        <ele>193</ele>
        <time>2017-04-09T10:46:19Z</time>
      </trkpt>
      <trkpt lat="50.12178" lon="4.12119">
        <ele>181</ele>
        <time>2017-04-09T10:46:24Z</time>
      </trkpt>
      <trkpt lat="50.12167" lon="4.12124">
        <ele>190</ele>
        <time>2017-04-09T10:46:29Z</time>
      </trkpt>
      <trkpt lat="50.12162" lon="4.12138">
        <ele>191</ele>
        <time>2017-04-09T10:46:34Z</time>
      </trkpt>
      <trkpt lat="50.12152" lon="4.12139">
        <ele>180</ele>
        <time>2017-04-09T10:46:39Z</time>
      </trkpt>
      <trkpt lat="50.12138" lon="4.12136">
        <ele>184</ele>
        <time>2017-04-09T10:46:44Z</time>
      </trkpt>
      <trkpt lat="50.12127" lon="4.12139">
        <ele>176</ele>
        <time>2017-04-09T10:46:49Z</time>
      </trkpt>
      <trkpt lat="50.12129" lon="4.12138">
        <ele>190</ele>
        <time>2017-04-09T10:46:54Z</time>
      </trkpt>
      <trkpt lat="50.12128" lon="4.12138">
        <ele>177</ele>
        <time>2017-04-09T10:46:59Z</time>
      </trkpt>
      <trkpt lat="50.12127" lon="4.12139">
        <ele>189</ele>
        <time>2017-04-09T10:47:04Z</time>
      </trkpt>
      <trkpt lat="50.12127" lon="4.12138">
        <ele>177</ele>
        <time>2017-04-09T10:47:09Z</time>
      </trkpt>
      <trkpt lat="50.12127" lon="4.12138">
        <ele>181</ele>
        <time>2017-04-09T10:47:15Z</time>
      </trkpt>
      <trkpt lat="50.12127" lon="4.12137">
        <ele>177</ele>
        <time>2017-04-09T10:47:19Z</time>
      </trkpt>
      <trkpt lat="50.12127" lon="4.12137">
        <ele>178</ele>
        <time>2017-04-09T10:47:24Z</time>
      </trkpt>
      <trkpt lat="50.12126" lon="4.12136">
        <ele>178</ele>
        <time>2017-04-09T10:47:29Z</time>
      </trkpt>
      <trkpt lat="50.12126" lon="4.12136">
        <ele>193</ele>
        <time>2017-04-09T10:47:35Z</time>
      </trkpt>
      <trkpt lat="50.12126" lon="4.12136">
        <ele>193</ele>
        <time>2017-04-09T10:47:40Z</time>
      </trkpt>
      <trkpt lat="50.12126" lon="4.12136">
        <ele>195</ele>
        <time>2017-04-09T10:47:45Z</time>
      </trkpt>
      <trkpt lat="50.12126" lon="4.12136">
        <ele>193</ele>
        <time>2017-04-09T10:47:50Z</time>
      </trkpt>
    </trkseg>
  </trk>
</gpx>